GFSSGP_prec_precacc_057.txt.gz
Total_Precipitation_Accumulation
0.00 0.00 0.00 0.00 0.00 0.00 0.00 0.00 0.00 0.00 0.03 0.09 0.09 0.18 0.14 0.20 0.34 0.55 0.49 1.04 1.60 1.61 1.86 1.47 0.68 0.32 0.03 0.00 0.00 0.00 0.00 0.00 0.00 0.00 0.00 0.00 0.00 0.00 0.00 0.00 0.00 0.00 0.00 0.00 0.00 0.00 0.00 0.00 0.00
0.00 0.00 0.00 0.00 0.00 0.00 0.00 0.00 0.00 0.01 0.11 0.30 0.29 0.33 0.32 0.81 0.55 0.55 0.59 0.65 0.44 0.50 0.53 1.99 2.15 0.93 0.31 0.12 0.06 0.04 0.01 0.00 0.01 0.00 0.00 0.00 0.00 0.00 0.00 0.00 0.00 0.00 0.00 0.00 0.00 0.00 0.00 0.00 0.00
0.00 0.00 0.00 0.00 0.00 0.00 0.00 0.00 0.02 0.06 0.11 0.13 0.18 0.23 0.45 1.30 0.80 0.71 0.68 0.87 1.03 0.90 0.74 0.67 1.21 1.35 0.88 0.38 0.23 0.12 0.04 0.00 0.01 0.01 0.00 0.00 0.00 0.00 0.00 0.00 0.00 0.00 0.00 0.00 0.00 0.00 0.00 0.00 0.00
0.00 0.00 0.00 0.00 0.00 0.00 0.00 0.01 0.03 0.06 0.08 0.07 0.08 0.29 0.57 0.94 0.81 0.78 0.77 1.46 2.10 1.93 1.68 1.46 1.32 0.95 1.29 0.87 0.41 0.10 0.01 0.00 0.01 0.01 0.00 0.00 0.00 0.00 0.00 0.00 0.00 0.00 0.00 0.00 0.00 0.00 0.00 0.00 0.00
0.00 0.00 0.00 0.00 0.00 0.00 0.00 0.01 0.06 0.17 0.42 0.40 0.11 0.39 0.75 0.59 0.47 0.81 1.34 2.01 2.55 2.96 3.19 2.06 3.12 2.45 1.91 1.18 0.67 0.22 0.03 0.00 0.02 0.02 0.00 0.00 0.00 0.00 0.00 0.00 0.00 0.00 0.00 0.00 0.00 0.00 0.00 0.00 0.00
0.00 0.00 0.00 0.00 0.00 0.00 0.01 0.06 0.15 0.25 0.28 0.19 0.16 0.53 0.88 0.64 0.53 1.01 1.30 2.49 3.73 2.81 3.15 3.19 4.20 5.98 4.02 2.18 1.13 0.41 0.12 0.01 0.04 0.03 0.00 0.00 0.00 0.00 0.00 0.00 0.00 0.00 0.00 0.00 0.00 0.00 0.00 0.00 0.00
0.00 0.00 0.00 0.00 0.00 0.01 0.11 0.16 0.19 0.18 0.11 0.24 0.42 0.88 1.01 0.64 0.78 0.94 1.77 3.63 5.41 6.20 6.13 5.54 5.13 5.51 5.17 4.59 2.48 0.77 0.27 0.08 0.06 0.06 0.00 0.00 0.00 0.00 0.00 0.00 0.00 0.00 0.00 0.00 0.00 0.00 0.00 0.00 0.00
0.00 0.00 0.00 0.00 0.00 0.07 0.19 0.23 0.15 0.10 0.17 0.53 0.24 0.70 0.67 1.00 0.91 0.81 1.11 2.50 4.31 7.42 8.33 7.82 7.47 6.85 3.94 3.82 2.74 0.95 0.55 0.20 0.10 0.05 0.01 0.00 0.00 0.00 0.00 0.00 0.00 0.00 0.00 0.00 0.00 0.00 0.00 0.00 0.00
0.00 0.00 0.00 0.00 0.01 0.15 0.23 0.08 0.24 0.13 0.11 0.27 0.31 0.50 0.60 0.85 0.55 0.66 0.70 1.37 2.31 3.89 4.45 4.93 6.05 6.27 5.46 3.63 2.40 1.17 0.69 0.46 0.18 0.05 0.02 0.00 0.00 0.00 0.00 0.00 0.00 0.00 0.00 0.00 0.00 0.00 0.00 0.00 0.00
0.00 0.00 0.00 0.00 0.06 0.24 0.13 0.03 0.19 0.09 0.19 0.54 0.38 0.72 0.66 0.43 0.46 0.57 0.60 0.67 1.05 1.54 2.63 3.12 2.76 1.79 1.37 1.68 1.66 0.94 0.52 0.55 0.42 0.07 0.03 0.00 0.00 0.00 0.00 0.00 0.00 0.00 0.00 0.00 0.00 0.00 0.00 0.00 0.00
0.00 0.00 0.00 0.02 0.11 0.04 0.02 0.07 0.10 0.32 0.45 0.52 1.13 0.48 0.41 0.49 0.56 0.68 0.92 0.50 0.49 0.73 1.24 1.37 1.18 0.89 0.53 0.33 0.44 0.55 0.34 0.35 0.57 0.26 0.07 0.00 0.01 0.01 0.00 0.00 0.01 0.00 0.00 0.00 0.00 0.00 0.00 0.00 0.00
0.00 0.00 0.00 0.01 0.01 0.01 0.00 0.01 0.11 0.35 0.80 0.30 0.32 0.38 0.47 0.75 0.62 0.28 0.23 0.24 0.33 0.42 0.68 0.61 0.48 0.43 0.28 0.15 0.17 0.25 0.24 0.27 0.35 0.24 0.06 0.02 0.02 0.00 0.00 0.00 0.00 0.00 0.00 0.00 0.00 0.00 0.00 0.00 0.00
0.00 0.00 0.00 0.01 0.04 0.03 0.00 0.04 0.12 0.30 0.11 0.11 0.16 0.38 0.55 0.56 0.17 0.08 0.15 0.15 0.21 0.41 0.40 0.51 0.43 0.22 0.14 0.09 0.12 0.18 0.20 0.25 0.22 0.17 0.13 0.03 0.01 0.00 0.00 0.00 0.00 0.00 0.00 0.00 0.00 0.00 0.00 0.00 0.00
0.00 0.00 0.00 0.00 0.01 0.01 0.02 0.05 0.09 0.39 0.12 0.12 0.12 0.32 0.56 0.58 0.09 0.04 0.07 0.11 0.14 0.28 0.40 0.42 0.38 0.33 0.23 0.11 0.07 0.14 0.23 0.31 0.33 0.22 0.19 0.14 0.08 0.05 0.04 0.01 0.00 0.01 0.01 0.00 0.00 0.00 0.00 0.00 0.00
0.00 0.00 0.02 0.03 0.01 0.00 0.05 0.19 0.35 0.13 0.08 0.07 0.03 0.04 0.36 0.86 0.24 0.04 0.03 0.05 0.05 0.17 0.30 0.53 0.61 0.40 0.29 0.23 0.27 0.41 0.39 0.26 0.16 0.24 0.35 0.27 0.13 0.07 0.03 0.02 0.02 0.01 0.00 0.00 0.00 0.00 0.00 0.00 0.00
0.00 0.00 0.01 0.04 0.03 0.02 0.15 0.48 0.05 0.03 0.05 0.04 0.01 0.01 0.06 0.10 0.03 0.01 0.01 0.00 0.00 0.04 0.20 0.56 0.75 0.77 0.54 0.49 0.50 0.84 0.56 0.24 0.17 0.23 0.22 0.13 0.08 0.06 0.03 0.03 0.02 0.00 0.00 0.00 0.00 0.00 0.00 0.00 0.00
0.00 0.00 0.00 0.01 0.01 0.01 0.05 0.33 0.12 0.05 0.09 0.08 0.02 0.01 0.01 0.01 0.01 0.00 0.03 0.02 0.05 0.02 0.09 0.52 0.91 1.07 0.96 0.69 0.95 0.62 0.16 0.08 0.08 0.13 0.14 0.11 0.05 0.09 0.02 0.07 0.09 0.00 0.00 0.00 0.00 0.00 0.00 0.00 0.00
0.00 0.00 0.00 0.02 0.02 0.01 0.01 0.03 0.25 0.12 0.05 0.27 0.09 0.04 0.04 0.00 0.01 0.03 0.07 0.07 0.07 0.05 0.10 0.49 1.14 1.23 1.02 0.61 0.40 0.31 0.18 0.13 0.11 0.11 0.17 0.14 0.03 0.03 0.04 0.10 0.06 0.00 0.00 0.00 0.00 0.00 0.00 0.00 0.00
0.00 0.00 0.00 0.00 0.01 0.00 0.00 0.01 0.01 0.00 0.00 0.03 0.05 0.07 0.02 0.00 0.03 0.05 0.07 0.09 0.07 0.08 0.18 0.41 0.78 1.11 0.61 0.33 0.20 0.27 0.31 0.19 0.13 0.14 0.21 0.18 0.06 0.09 0.14 0.13 0.06 0.01 0.01 0.02 0.00 0.00 0.00 0.00 0.00
0.00 0.00 0.00 0.00 0.00 0.00 0.00 0.00 0.00 0.00 0.00 0.01 0.01 0.11 0.03 0.00 0.01 0.02 0.04 0.03 0.04 0.11 0.36 0.43 0.32 0.33 0.23 0.24 0.17 0.13 0.20 0.23 0.10 0.08 0.11 0.09 0.10 0.08 0.14 0.14 0.11 0.05 0.05 0.04 0.03 0.01 0.01 0.00 0.00
0.00 0.00 0.00 0.00 0.00 0.00 0.00 0.00 0.00 0.01 0.01 0.02 0.00 0.00 0.00 0.00 0.02 0.03 0.03 0.03 0.01 0.02 0.18 0.18 0.06 0.07 0.10 0.10 0.16 0.15 0.21 0.22 0.15 0.07 0.10 0.08 0.09 0.07 0.14 0.08 0.09 0.16 0.07 0.04 0.05 0.03 0.02 0.01 0.00
0.00 0.00 0.00 0.00 0.00 0.00 0.00 0.00 0.00 0.00 0.01 0.00 0.00 0.00 0.00 0.00 0.00 0.00 0.00 0.00 0.01 0.06 0.25 0.11 0.10 0.10 0.11 0.09 0.08 0.12 0.24 0.18 0.15 0.12 0.05 0.07 0.04 0.07 0.20 0.09 0.05 0.17 0.14 0.04 0.04 0.04 0.05 0.04 0.03
0.00 0.00 0.00 0.00 0.00 0.04 0.02 0.00 0.03 0.05 0.02 0.00 0.00 0.00 0.00 0.00 0.00 0.00 0.00 0.00 0.02 0.07 0.20 0.15 0.12 0.20 0.14 0.25 0.27 0.21 0.23 0.24 0.20 0.10 0.08 0.07 0.06 0.09 0.18 0.10 0.08 0.07 0.14 0.09 0.05 0.05 0.07 0.07 0.05
0.00 0.00 0.00 0.00 0.00 0.01 0.01 0.01 0.01 0.01 0.01 0.01 0.00 0.00 0.00 0.00 0.00 0.00 0.00 0.01 0.03 0.11 0.17 0.29 0.31 0.21 0.19 0.34 0.41 0.26 0.22 0.18 0.28 0.26 0.14 0.15 0.12 0.16 0.30 0.28 0.16 0.11 0.09 0.13 0.10 0.07 0.07 0.06 0.06
0.00 0.00 0.00 0.05 0.00 0.00 0.00 0.01 0.01 0.01 0.04 0.08 0.10 0.00 0.00 0.00 0.00 0.00 0.02 0.04 0.04 0.08 0.13 0.18 0.32 0.41 0.27 0.25 0.23 0.21 0.18 0.21 0.16 0.16 0.20 0.23 0.19 0.22 0.24 0.24 0.14 0.12 0.13 0.11 0.12 0.11 0.10 0.12 0.15
0.00 0.00 0.01 0.15 0.09 0.03 0.06 0.01 0.01 0.00 0.00 0.00 0.00 0.00 0.00 0.00 0.00 0.00 0.01 0.02 0.05 0.11 0.08 0.06 0.29 0.41 0.48 0.33 0.16 0.14 0.08 0.06 0.07 0.14 0.19 0.13 0.12 0.10 0.16 0.16 0.16 0.13 0.15 0.15 0.13 0.15 0.17 0.16 0.16
0.00 0.00 0.00 0.03 0.09 0.05 0.06 0.01 0.00 0.00 0.00 0.00 0.00 0.00 0.00 0.00 0.00 0.00 0.00 0.01 0.04 0.07 0.05 0.09 0.10 0.27 0.37 0.24 0.12 0.06 0.03 0.04 0.07 0.09 0.08 0.07 0.06 0.09 0.09 0.07 0.14 0.16 0.14 0.11 0.12 0.11 0.11 0.11 0.11
0.00 0.00 0.00 0.00 0.03 0.05 0.00 0.01 0.01 0.01 0.00 0.00 0.00 0.00 0.00 0.00 0.00 0.00 0.01 0.06 0.02 0.04 0.05 0.16 0.12 0.11 0.24 0.27 0.23 0.07 0.07 0.09 0.11 0.11 0.17 0.17 0.17 0.16 0.12 0.08 0.05 0.06 0.07 0.08 0.08 0.06 0.07 0.08 0.07
0.00 0.00 0.00 0.00 0.00 0.01 0.02 0.00 0.00 0.00 0.00 0.00 0.00 0.00 0.00 0.00 0.00 0.00 0.01 0.04 0.05 0.12 0.11 0.08 0.20 0.47 0.36 0.30 0.16 0.11 0.13 0.26 0.35 0.25 0.30 0.28 0.28 0.27 0.25 0.20 0.12 0.09 0.09 0.11 0.09 0.07 0.07 0.07 0.08
0.00 0.01 0.04 0.01 0.00 0.00 0.02 0.00 0.00 0.00 0.00 0.00 0.00 0.00 0.00 0.00 0.00 0.00 0.00 0.00 0.02 0.02 0.02 0.02 0.09 0.18 0.26 0.31 0.28 0.44 0.61 0.54 0.68 0.64 0.62 0.58 0.37 0.29 0.26 0.28 0.25 0.21 0.16 0.17 0.16 0.15 0.14 0.15 0.17

GFSSGP_prec_precacc_060.txt.gz
Total_Precipitation_Accumulation
0.00 0.00 0.00 0.00 0.00 0.00 0.00 0.00 0.00 0.00 0.03 0.09 0.09 0.18 0.14 0.20 0.34 0.55 0.49 1.04 1.61 1.61 1.86 1.47 0.69 0.32 0.03 0.00 0.00 0.00 0.00 0.00 0.00 0.00 0.00 0.00 0.00 0.00 0.00 0.00 0.00 0.00 0.00 0.00 0.00 0.00 0.00 0.00 0.00
0.00 0.00 0.00 0.00 0.00 0.00 0.00 0.00 0.00 0.01 0.11 0.30 0.29 0.33 0.32 0.81 0.55 0.55 0.59 0.66 0.44 0.51 0.53 1.99 2.15 0.93 0.32 0.12 0.06 0.04 0.01 0.00 0.01 0.00 0.00 0.00 0.00 0.00 0.00 0.00 0.00 0.00 0.00 0.00 0.00 0.00 0.00 0.00 0.00
0.00 0.00 0.00 0.00 0.00 0.00 0.00 0.00 0.02 0.06 0.11 0.13 0.18 0.23 0.45 1.30 0.80 0.71 0.68 0.88 1.03 0.91 0.74 0.67 1.21 1.38 0.90 0.39 0.23 0.12 0.04 0.00 0.01 0.01 0.00 0.00 0.00 0.00 0.00 0.00 0.00 0.00 0.00 0.00 0.00 0.00 0.00 0.00 0.00
0.00 0.00 0.00 0.00 0.00 0.00 0.00 0.01 0.03 0.06 0.08 0.07 0.08 0.29 0.57 0.94 0.81 0.78 0.77 1.46 2.11 1.95 1.70 1.48 1.36 1.06 1.31 0.87 0.41 0.10 0.01 0.00 0.01 0.01 0.00 0.00 0.00 0.00 0.00 0.00 0.00 0.00 0.01 0.00 0.00 0.00 0.00 0.00 0.00
0.00 0.00 0.00 0.00 0.00 0.00 0.00 0.01 0.06 0.17 0.42 0.40 0.11 0.39 0.75 0.59 0.47 0.81 1.34 2.01 2.56 3.07 3.39 2.19 3.23 2.57 2.07 1.20 0.70 0.22 0.03 0.00 0.02 0.02 0.00 0.00 0.00 0.00 0.00 0.00 0.00 0.00 0.00 0.00 0.00 0.00 0.00 0.00 0.00
0.00 0.00 0.00 0.00 0.00 0.00 0.01 0.06 0.15 0.25 0.28 0.19 0.16 0.53 0.88 0.64 0.53 1.01 1.30 2.49 3.73 2.90 3.53 3.42 4.47 6.19 4.20 2.38 1.27 0.52 0.12 0.01 0.04 0.03 0.00 0.00 0.00 0.00 0.00 0.00 0.00 0.00 0.00 0.00 0.00 0.00 0.00 0.00 0.00
0.00 0.00 0.00 0.00 0.00 0.01 0.11 0.16 0.19 0.18 0.11 0.24 0.42 0.88 1.01 0.64 0.78 0.94 1.77 3.63 5.41 6.22 6.38 5.85 5.57 6.03 5.53 4.94 2.87 1.25 0.44 0.08 0.07 0.06 0.00 0.00 0.00 0.01 0.00 0.00 0.00 0.00 0.00 0.00 0.00 0.00 0.00 0.00 0.00
0.00 0.00 0.00 0.00 0.00 0.07 0.19 0.23 0.15 0.10 0.17 0.53 0.24 0.70 0.67 1.00 0.91 0.81 1.11 2.50 4.32 7.43 8.50 8.04 7.83 7.34 4.59 4.25 3.04 1.26 0.80 0.27 0.10 0.06 0.01 0.00 0.00 0.00 0.00 0.00 0.00 0.01 0.00 0.00 0.00 0.00 0.00 0.00 0.00
0.00 0.00 0.00 0.00 0.01 0.15 0.23 0.08 0.24 0.13 0.11 0.27 0.31 0.50 0.60 0.85 0.55 0.66 0.70 1.38 2.33 3.92 4.53 4.98 6.23 6.67 5.98 4.17 2.72 1.37 0.94 0.74 0.28 0.07 0.02 0.00 0.00 0.00 0.00 0.00 0.00 0.01 0.00 0.00 0.00 0.00 0.00 0.00 0.00
0.00 0.00 0.00 0.00 0.06 0.24 0.13 0.03 0.19 0.09 0.19 0.54 0.38 0.72 0.66 0.43 0.46 0.57 0.60 0.68 1.05 1.56 2.80 3.16 2.86 2.23 2.28 2.20 2.09 1.33 1.09 0.94 0.72 0.16 0.05 0.00 0.00 0.00 0.00 0.00 0.00 0.00 0.00 0.00 0.00 0.00 0.00 0.00 0.00
0.00 0.00 0.00 0.02 0.11 0.04 0.02 0.07 0.10 0.32 0.45 0.52 1.13 0.48 0.41 0.49 0.56 0.68 0.93 0.50 0.50 0.74 1.40 1.45 1.22 0.92 0.74 0.56 0.68 0.81 0.89 0.77 0.89 0.50 0.13 0.02 0.01 0.01 0.00 0.00 0.01 0.00 0.00 0.00 0.00 0.00 0.00 0.00 0.00
0.00 0.00 0.00 0.01 0.01 0.01 0.00 0.01 0.11 0.35 0.80 0.30 0.32 0.38 0.47 0.75 0.62 0.28 0.23 0.26 0.38 0.47 0.72 0.66 0.48 0.43 0.29 0.19 0.23 0.36 0.48 0.72 0.60 0.48 0.13 0.03 0.02 0.00 0.00 0.00 0.00 0.00 0.00 0.00 0.00 0.00 0.00 0.00 0.00
0.00 0.00 0.00 0.01 0.04 0.03 0.00 0.04 0.12 0.30 0.11 0.11 0.16 0.38 0.55 0.56 0.17 0.08 0.15 0.16 0.24 0.43 0.42 0.51 0.45 0.25 0.14 0.09 0.13 0.25 0.41 0.64 0.43 0.38 0.17 0.03 0.01 0.00 0.00 0.00 0.00 0.00 0.00 0.00 0.00 0.00 0.00 0.00 0.00
0.00 0.00 0.00 0.00 0.01 0.01 0.02 0.05 0.09 0.39 0.12 0.12 0.12 0.32 0.56 0.58 0.09 0.04 0.07 0.11 0.16 0.29 0.41 0.42 0.39 0.34 0.23 0.11 0.07 0.17 0.45 0.59 0.51 0.38 0.20 0.14 0.08 0.05 0.04 0.01 0.00 0.01 0.01 0.00 0.00 0.00 0.00 0.00 0.00
0.00 0.00 0.02 0.03 0.01 0.00 0.05 0.19 0.35 0.13 0.08 0.07 0.03 0.04 0.36 0.86 0.24 0.04 0.03 0.05 0.06 0.18 0.31 0.54 0.61 0.40 0.29 0.23 0.27 0.42 0.51 0.47 0.31 0.35 0.35 0.27 0.13 0.07 0.03 0.02 0.02 0.01 0.00 0.00 0.00 0.00 0.00 0.00 0.00
0.00 0.00 0.01 0.04 0.03 0.02 0.15 0.48 0.05 0.03 0.05 0.04 0.01 0.01 0.06 0.10 0.03 0.01 0.01 0.00 0.00 0.04 0.20 0.56 0.75 0.77 0.61 0.50 0.51 0.84 0.62 0.37 0.26 0.33 0.23 0.13 0.08 0.06 0.03 0.03 0.02 0.00 0.00 0.00 0.00 0.00 0.00 0.00 0.00
0.00 0.00 0.00 0.01 0.01 0.01 0.05 0.33 0.12 0.05 0.09 0.08 0.02 0.01 0.01 0.01 0.01 0.00 0.03 0.02 0.05 0.02 0.10 0.53 0.92 1.07 0.97 0.70 0.96 0.63 0.18 0.16 0.14 0.18 0.16 0.11 0.05 0.09 0.02 0.07 0.09 0.00 0.00 0.00 0.00 0.00 0.00 0.00 0.00
0.00 0.00 0.00 0.02 0.02 0.01 0.01 0.03 0.25 0.12 0.05 0.27 0.09 0.04 0.04 0.00 0.01 0.03 0.07 0.07 0.07 0.05 0.10 0.51 1.14 1.23 1.02 0.62 0.41 0.33 0.19 0.15 0.15 0.14 0.21 0.14 0.03 0.03 0.04 0.10 0.06 0.00 0.00 0.00 0.00 0.00 0.00 0.00 0.00
0.00 0.00 0.00 0.00 0.01 0.00 0.00 0.01 0.01 0.00 0.00 0.03 0.05 0.07 0.02 0.00 0.03 0.05 0.07 0.09 0.07 0.08 0.18 0.42 0.81 1.14 0.62 0.35 0.20 0.28 0.32 0.19 0.15 0.16 0.23 0.19 0.06 0.09 0.14 0.13 0.06 0.01 0.01 0.02 0.00 0.00 0.00 0.00 0.00
0.00 0.00 0.00 0.00 0.00 0.00 0.00 0.00 0.00 0.00 0.00 0.01 0.01 0.11 0.03 0.00 0.01 0.02 0.04 0.03 0.04 0.11 0.36 0.44 0.38 0.41 0.31 0.27 0.18 0.14 0.21 0.24 0.12 0.09 0.11 0.09 0.10 0.08 0.14 0.14 0.11 0.05 0.05 0.04 0.03 0.02 0.02 0.01 0.00
0.00 0.00 0.00 0.00 0.00 0.00 0.00 0.00 0.00 0.01 0.01 0.02 0.00 0.00 0.00 0.00 0.02 0.03 0.03 0.03 0.01 0.02 0.18 0.18 0.07 0.11 0.14 0.12 0.21 0.19 0.25 0.27 0.24 0.10 0.11 0.08 0.09 0.07 0.14 0.08 0.09 0.16 0.07 0.04 0.06 0.05 0.04 0.03 0.03
0.00 0.00 0.00 0.00 0.00 0.00 0.00 0.00 0.00 0.00 0.01 0.00 0.00 0.00 0.00 0.00 0.00 0.00 0.00 0.00 0.01 0.06 0.25 0.11 0.10 0.11 0.11 0.10 0.13 0.17 0.26 0.20 0.16 0.13 0.06 0.07 0.04 0.07 0.20 0.09 0.05 0.17 0.14 0.05 0.05 0.06 0.07 0.05 0.05
0.00 0.00 0.00 0.00 0.00 0.04 0.02 0.00 0.03 0.05 0.02 0.00 0.00 0.00 0.00 0.00 0.00 0.00 0.00 0.00 0.02 0.07 0.20 0.16 0.12 0.20 0.15 0.25 0.28 0.22 0.24 0.25 0.21 0.11 0.08 0.07 0.06 0.09 0.18 0.10 0.08 0.08 0.17 0.13 0.08 0.07 0.08 0.08 0.06
0.00 0.00 0.00 0.00 0.00 0.01 0.01 0.01 0.01 0.01 0.01 0.01 0.00 0.00 0.00 0.00 0.00 0.00 0.00 0.01 0.03 0.11 0.17 0.29 0.31 0.21 0.19 0.34 0.41 0.26 0.22 0.18 0.29 0.27 0.15 0.16 0.12 0.16 0.30 0.28 0.18 0.11 0.09 0.15 0.12 0.10 0.09 0.08 0.06
0.00 0.00 0.00 0.05 0.00 0.00 0.00 0.01 0.01 0.01 0.04 0.08 0.10 0.00 0.00 0.00 0.00 0.00 0.02 0.04 0.04 0.08 0.13 0.18 0.32 0.42 0.27 0.25 0.23 0.21 0.18 0.21 0.16 0.16 0.20 0.23 0.19 0.22 0.24 0.24 0.14 0.12 0.13 0.11 0.13 0.15 0.13 0.15 0.16
0.00 0.00 0.01 0.15 0.09 0.03 0.06 0.01 0.01 0.00 0.00 0.00 0.00 0.00 0.00 0.00 0.00 0.00 0.01 0.02 0.05 0.11 0.08 0.06 0.29 0.41 0.48 0.33 0.16 0.14 0.08 0.06 0.07 0.14 0.19 0.13 0.12 0.10 0.16 0.16 0.16 0.13 0.15 0.15 0.13 0.15 0.17 0.16 0.16
0.00 0.00 0.00 0.03 0.09 0.05 0.06 0.01 0.00 0.00 0.00 0.00 0.00 0.00 0.00 0.00 0.00 0.00 0.00 0.01 0.04 0.07 0.05 0.09 0.10 0.27 0.37 0.24 0.12 0.06 0.03 0.04 0.07 0.09 0.08 0.07 0.06 0.09 0.09 0.07 0.14 0.16 0.14 0.11 0.12 0.11 0.11 0.11 0.11
0.00 0.00 0.00 0.00 0.03 0.05 0.00 0.01 0.01 0.01 0.00 0.00 0.00 0.00 0.00 0.00 0.00 0.00 0.01 0.06 0.02 0.04 0.05 0.16 0.12 0.11 0.24 0.27 0.23 0.07 0.07 0.09 0.11 0.11 0.17 0.17 0.17 0.16 0.12 0.08 0.05 0.06 0.07 0.08 0.08 0.06 0.07 0.08 0.07
0.00 0.00 0.00 0.00 0.00 0.01 0.02 0.00 0.00 0.00 0.00 0.00 0.00 0.00 0.00 0.00 0.00 0.00 0.01 0.04 0.05 0.12 0.11 0.08 0.20 0.47 0.36 0.30 0.16 0.11 0.13 0.26 0.35 0.25 0.30 0.28 0.28 0.27 0.25 0.20 0.12 0.09 0.09 0.11 0.09 0.07 0.07 0.07 0.09
0.00 0.01 0.04 0.01 0.00 0.00 0.02 0.00 0.00 0.00 0.00 0.00 0.00 0.00 0.00 0.00 0.00 0.00 0.00 0.00 0.02 0.02 0.02 0.02 0.09 0.18 0.26 0.31 0.28 0.44 0.61 0.54 0.68 0.64 0.62 0.58 0.37 0.29 0.26 0.28 0.25 0.21 0.16 0.17 0.16 0.15 0.14 0.15 0.18

GFSSGP_prec_precacc_063.txt.gz
Total_Precipitation_Accumulation
0.00 0.00 0.00 0.00 0.00 0.00 0.00 0.00 0.00 0.00 0.03 0.09 0.09 0.18 0.14 0.20 0.34 0.56 0.50 1.04 1.61 1.61 1.86 1.48 0.69 0.33 0.04 0.01 0.00 0.00 0.00 0.00 0.00 0.00 0.00 0.00 0.00 0.01 0.00 0.00 0.00 0.00 0.00 0.00 0.00 0.00 0.00 0.00 0.00
0.00 0.00 0.00 0.00 0.00 0.00 0.00 0.00 0.00 0.01 0.11 0.30 0.29 0.33 0.32 0.81 0.55 0.55 0.59 0.66 0.44 0.51 0.54 1.99 2.15 0.96 0.41 0.17 0.06 0.04 0.01 0.00 0.01 0.00 0.00 0.00 0.00 0.00 0.00 0.00 0.00 0.00 0.00 0.00 0.00 0.00 0.00 0.00 0.00
0.00 0.00 0.00 0.00 0.00 0.00 0.00 0.00 0.02 0.06 0.11 0.13 0.18 0.23 0.45 1.30 0.80 0.71 0.68 0.88 1.03 0.91 0.75 0.68 1.21 1.42 1.07 0.47 0.28 0.16 0.04 0.00 0.01 0.01 0.00 0.00 0.00 0.00 0.00 0.00 0.00 0.00 0.00 0.00 0.00 0.00 0.00 0.00 0.00
0.00 0.00 0.00 0.00 0.00 0.00 0.00 0.01 0.03 0.06 0.08 0.07 0.08 0.29 0.57 0.94 0.81 0.78 0.77 1.46 2.11 1.96 1.71 1.50 1.37 1.11 1.39 1.13 0.71 0.27 0.03 0.00 0.01 0.01 0.00 0.00 0.00 0.00 0.00 0.00 0.00 0.00 0.01 0.00 0.00 0.00 0.00 0.00 0.00
0.00 0.00 0.00 0.00 0.00 0.00 0.00 0.01 0.06 0.17 0.42 0.40 0.11 0.39 0.75 0.59 0.47 0.81 1.34 2.01 2.56 3.10 3.50 2.27 3.24 2.59 2.17 1.46 1.07 0.70 0.16 0.01 0.02 0.02 0.00 0.00 0.00 0.00 0.00 0.00 0.00 0.00 0.00 0.00 0.00 0.00 0.00 0.00 0.00
0.00 0.00 0.00 0.00 0.00 0.00 0.01 0.06 0.15 0.25 0.28 0.19 0.16 0.53 0.88 0.64 0.53 1.01 1.30 2.49 3.73 2.91 3.58 3.52 4.66 6.43 4.46 2.81 1.75 1.04 0.25 0.02 0.04 0.03 0.00 0.00 0.00 0.00 0.00 0.00 0.00 0.00 0.00 0.00 0.00 0.00 0.00 0.00 0.00
0.00 0.00 0.00 0.00 0.00 0.01 0.11 0.16 0.19 0.18 0.11 0.24 0.42 0.88 1.01 0.64 0.78 0.94 1.77 3.63 5.41 6.22 6.41 5.88 5.73 6.60 6.04 5.55 3.84 2.22 0.86 0.09 0.07 0.06 0.00 0.00 0.00 0.01 0.00 0.01 0.00 0.00 0.00 0.00 0.00 0.00 0.00 0.00 0.00
0.00 0.00 0.00 0.00 0.00 0.07 0.19 0.23 0.15 0.10 0.17 0.53 0.24 0.70 0.67 1.00 0.91 0.81 1.11 2.50 4.32 7.44 8.55 8.07 7.92 7.61 4.90 4.52 3.88 2.37 1.65 0.50 0.12 0.06 0.01 0.00 0.00 0.00 0.01 0.02 0.00 0.01 0.00 0.00 0.00 0.00 0.00 0.00 0.00
0.00 0.00 0.00 0.00 0.01 0.15 0.23 0.08 0.24 0.13 0.11 0.27 0.31 0.50 0.60 0.85 0.55 0.66 0.70 1.38 2.34 3.93 4.54 5.00 6.24 6.70 6.05 4.30 3.13 2.29 2.08 1.53 0.44 0.10 0.07 0.02 0.00 0.00 0.01 0.03 0.00 0.01 0.00 0.00 0.00 0.00 0.00 0.00 0.00
0.00 0.00 0.00 0.00 0.06 0.24 0.13 0.03 0.19 0.09 0.19 0.54 0.38 0.72 0.66 0.43 0.46 0.57 0.60 0.68 1.06 1.57 2.84 3.24 2.93 2.28 2.37 2.34 2.25 1.80 2.09 1.57 0.87 0.23 0.06 0.01 0.01 0.00 0.00 0.04 0.02 0.00 0.00 0.00 0.00 0.00 0.00 0.00 0.00
0.00 0.00 0.00 0.02 0.11 0.04 0.02 0.07 0.10 0.32 0.45 0.52 1.13 0.48 0.41 0.49 0.56 0.68 0.93 0.50 0.50 0.78 1.42 1.49 1.23 0.93 0.76 0.65 0.82 1.09 1.82 1.24 1.10 0.63 0.18 0.09 0.08 0.03 0.01 0.05 0.04 0.00 0.00 0.00 0.00 0.00 0.00 0.00 0.00
0.00 0.00 0.00 0.01 0.01 0.01 0.00 0.01 0.11 0.35 0.80 0.30 0.32 0.38 0.47 0.75 0.62 0.28 0.23 0.27 0.40 0.53 0.78 0.70 0.50 0.44 0.30 0.24 0.38 0.54 0.91 1.26 0.80 0.65 0.32 0.17 0.07 0.02 0.01 0.02 0.01 0.00 0.00 0.00 0.00 0.00 0.00 0.00 0.00
0.00 0.00 0.00 0.01 0.04 0.03 0.00 0.04 0.12 0.30 0.11 0.11 0.16 0.38 0.55 0.56 0.17 0.08 0.15 0.16 0.25 0.45 0.45 0.53 0.47 0.27 0.15 0.10 0.15 0.32 0.55 1.07 0.59 0.49 0.38 0.21 0.03 0.01 0.02 0.03 0.02 0.00 0.00 0.00 0.00 0.00 0.00 0.00 0.00
0.00 0.00 0.00 0.00 0.01 0.01 0.02 0.05 0.09 0.39 0.12 0.12 0.12 0.32 0.56 0.58 0.09 0.04 0.07 0.11 0.16 0.30 0.41 0.43 0.39 0.36 0.24 0.12 0.07 0.19 0.55 0.86 0.61 0.50 0.40 0.32 0.09 0.06 0.05 0.03 0.01 0.01 0.01 0.00 0.00 0.00 0.00 0.00 0.00
0.00 0.00 0.02 0.03 0.01 0.00 0.05 0.19 0.35 0.13 0.08 0.07 0.03 0.04 0.36 0.86 0.24 0.04 0.03 0.05 0.06 0.19 0.31 0.54 0.62 0.41 0.29 0.23 0.28 0.44 0.69 0.82 0.45 0.49 0.51 0.34 0.15 0.07 0.04 0.03 0.02 0.01 0.00 0.00 0.00 0.00 0.00 0.00 0.00
0.00 0.00 0.01 0.04 0.03 0.02 0.15 0.48 0.05 0.03 0.05 0.04 0.01 0.01 0.06 0.10 0.03 0.01 0.01 0.00 0.01 0.05 0.22 0.57 0.75 0.77 0.61 0.50 0.51 0.85 0.77 0.68 0.47 0.49 0.34 0.15 0.09 0.06 0.03 0.03 0.02 0.00 0.00 0.00 0.00 0.00 0.00 0.00 0.00
0.00 0.00 0.00 0.01 0.01 0.01 0.05 0.33 0.12 0.05 0.09 0.08 0.02 0.01 0.01 0.01 0.01 0.00 0.03 0.02 0.05 0.03 0.10 0.53 0.92 1.07 0.98 0.70 0.97 0.63 0.24 0.34 0.33 0.33 0.21 0.13 0.06 0.09 0.02 0.07 0.09 0.00 0.00 0.00 0.00 0.00 0.00 0.00 0.00
0.00 0.00 0.00 0.02 0.02 0.01 0.01 0.03 0.25 0.12 0.05 0.27 0.09 0.04 0.04 0.00 0.01 0.03 0.07 0.07 0.07 0.05 0.11 0.51 1.14 1.23 1.02 0.62 0.41 0.34 0.21 0.30 0.28 0.24 0.26 0.15 0.03 0.03 0.04 0.10 0.06 0.00 0.00 0.00 0.00 0.00 0.00 0.00 0.00
0.00 0.00 0.00 0.00 0.01 0.00 0.00 0.01 0.01 0.00 0.00 0.03 0.05 0.07 0.02 0.00 0.03 0.05 0.07 0.09 0.07 0.08 0.19 0.43 0.81 1.14 0.63 0.36 0.21 0.29 0.33 0.27 0.20 0.23 0.29 0.21 0.06 0.09 0.14 0.13 0.06 0.01 0.01 0.02 0.00 0.00 0.00 0.00 0.00
0.00 0.00 0.00 0.00 0.00 0.00 0.00 0.00 0.00 0.00 0.00 0.01 0.01 0.11 0.03 0.00 0.01 0.02 0.04 0.03 0.04 0.11 0.36 0.44 0.38 0.42 0.39 0.30 0.19 0.14 0.22 0.27 0.14 0.13 0.15 0.11 0.11 0.08 0.14 0.14 0.11 0.05 0.05 0.04 0.03 0.02 0.02 0.01 0.00
0.00 0.00 0.00 0.00 0.00 0.00 0.00 0.00 0.00 0.01 0.01 0.02 0.00 0.00 0.00 0.00 0.02 0.03 0.03 0.03 0.01 0.02 0.18 0.19 0.07 0.12 0.19 0.25 0.24 0.21 0.29 0.29 0.30 0.16 0.15 0.09 0.11 0.08 0.14 0.08 0.09 0.16 0.07 0.06 0.06 0.05 0.04 0.03 0.03
0.00 0.00 0.00 0.00 0.00 0.00 0.00 0.00 0.00 0.00 0.01 0.00 0.00 0.00 0.00 0.00 0.00 0.00 0.00 0.00 0.01 0.06 0.25 0.11 0.11 0.11 0.12 0.11 0.14 0.17 0.27 0.20 0.16 0.14 0.08 0.08 0.06 0.11 0.22 0.09 0.05 0.17 0.15 0.07 0.07 0.06 0.07 0.08 0.08
0.00 0.00 0.00 0.00 0.00 0.04 0.02 0.00 0.03 0.05 0.02 0.00 0.00 0.00 0.00 0.00 0.00 0.00 0.00 0.00 0.02 0.07 0.20 0.16 0.13 0.21 0.15 0.26 0.28 0.22 0.24 0.25 0.22 0.12 0.09 0.08 0.07 0.11 0.24 0.12 0.10 0.11 0.18 0.16 0.14 0.10 0.08 0.09 0.17
0.00 0.00 0.00 0.00 0.00 0.01 0.01 0.01 0.01 0.01 0.01 0.01 0.00 0.00 0.00 0.00 0.00 0.00 0.00 0.01 0.03 0.11 0.17 0.29 0.31 0.21 0.20 0.35 0.41 0.26 0.22 0.20 0.30 0.27 0.15 0.16 0.12 0.16 0.32 0.31 0.19 0.14 0.13 0.21 0.14 0.12 0.09 0.08 0.08
0.00 0.00 0.00 0.05 0.00 0.00 0.00 0.01 0.01 0.01 0.04 0.08 0.10 0.00 0.00 0.00 0.00 0.00 0.02 0.04 0.04 0.08 0.13 0.18 0.32 0.42 0.28 0.26 0.23 0.21 0.18 0.21 0.16 0.16 0.21 0.24 0.19 0.22 0.25 0.25 0.14 0.14 0.16 0.17 0.17 0.16 0.13 0.17 0.19
0.00 0.00 0.01 0.15 0.09 0.03 0.06 0.01 0.01 0.00 0.00 0.00 0.00 0.00 0.00 0.00 0.00 0.00 0.01 0.02 0.05 0.11 0.08 0.06 0.29 0.41 0.48 0.34 0.16 0.14 0.08 0.06 0.07 0.14 0.19 0.13 0.12 0.10 0.16 0.16 0.16 0.13 0.15 0.16 0.16 0.16 0.18 0.18 0.19
0.00 0.00 0.00 0.03 0.09 0.05 0.06 0.01 0.00 0.00 0.00 0.00 0.00 0.00 0.00 0.00 0.00 0.00 0.00 0.01 0.04 0.07 0.05 0.09 0.10 0.27 0.37 0.24 0.12 0.06 0.03 0.04 0.07 0.09 0.08 0.07 0.06 0.09 0.09 0.07 0.14 0.16 0.14 0.11 0.12 0.12 0.11 0.12 0.12
0.00 0.00 0.00 0.00 0.03 0.05 0.00 0.01 0.01 0.01 0.00 0.00 0.00 0.00 0.00 0.00 0.00 0.00 0.01 0.06 0.02 0.04 0.05 0.16 0.12 0.11 0.24 0.27 0.24 0.08 0.08 0.10 0.11 0.11 0.17 0.17 0.17 0.16 0.12 0.08 0.05 0.06 0.07 0.08 0.08 0.06 0.08 0.09 0.08
0.00 0.00 0.00 0.00 0.00 0.01 0.02 0.00 0.00 0.00 0.00 0.00 0.00 0.00 0.00 0.00 0.00 0.00 0.01 0.04 0.05 0.12 0.11 0.08 0.20 0.47 0.36 0.30 0.16 0.11 0.13 0.26 0.35 0.25 0.30 0.28 0.28 0.27 0.25 0.20 0.12 0.09 0.09 0.11 0.09 0.07 0.07 0.08 0.09
0.00 0.01 0.04 0.01 0.00 0.00 0.02 0.00 0.00 0.00 0.00 0.00 0.00 0.00 0.00 0.00 0.00 0.00 0.00 0.00 0.02 0.02 0.02 0.02 0.09 0.18 0.26 0.31 0.28 0.44 0.61 0.54 0.68 0.64 0.62 0.58 0.37 0.29 0.26 0.28 0.25 0.21 0.16 0.17 0.16 0.15 0.14 0.15 0.18

GFSSGP_prec_precacc_066.txt.gz
Total_Precipitation_Accumulation
0.00 0.00 0.00 0.00 0.00 0.00 0.00 0.00 0.00 0.00 0.03 0.09 0.09 0.18 0.14 0.20 0.34 0.57 0.51 1.04 1.61 1.61 1.87 1.49 0.69 0.34 0.06 0.02 0.01 0.00 0.00 0.00 0.00 0.00 0.00 0.00 0.00 0.01 0.00 0.00 0.00 0.00 0.00 0.00 0.01 0.01 0.01 0.00 0.00
0.00 0.00 0.00 0.00 0.00 0.00 0.00 0.00 0.00 0.01 0.11 0.30 0.29 0.33 0.32 0.81 0.55 0.55 0.59 0.66 0.44 0.51 0.54 1.99 2.15 0.96 0.44 0.19 0.09 0.06 0.01 0.00 0.01 0.00 0.00 0.00 0.00 0.01 0.01 0.00 0.00 0.00 0.00 0.00 0.01 0.01 0.01 0.00 0.00
0.00 0.00 0.00 0.00 0.00 0.00 0.00 0.00 0.02 0.06 0.11 0.13 0.18 0.23 0.45 1.30 0.80 0.71 0.68 0.88 1.03 0.91 0.75 0.68 1.21 1.43 1.08 0.50 0.31 0.19 0.04 0.00 0.01 0.01 0.00 0.00 0.00 0.00 0.01 0.01 0.00 0.00 0.00 0.00 0.01 0.01 0.01 0.00 0.00
0.00 0.00 0.00 0.00 0.00 0.00 0.00 0.01 0.03 0.06 0.08 0.07 0.08 0.29 0.57 0.94 0.81 0.78 0.77 1.46 2.11 1.96 1.71 1.50 1.37 1.12 1.40 1.19 0.95 0.46 0.09 0.01 0.01 0.02 0.00 0.00 0.00 0.00 0.00 0.01 0.00 0.00 0.01 0.00 0.00 0.00 0.00 0.00 0.00
0.00 0.00 0.00 0.00 0.00 0.00 0.00 0.01 0.06 0.17 0.42 0.40 0.11 0.39 0.75 0.59 0.47 0.81 1.34 2.01 2.56 3.10 3.53 2.28 3.25 2.60 2.18 1.53 1.42 1.19 0.63 0.09 0.09 0.04 0.00 0.00 0.00 0.00 0.00 0.00 0.00 0.00 0.00 0.00 0.00 0.00 0.00 0.00 0.00
0.00 0.00 0.00 0.00 0.00 0.00 0.01 0.06 0.15 0.25 0.28 0.19 0.16 0.53 0.88 0.64 0.53 1.01 1.30 2.49 3.73 2.91 3.59 3.53 4.66 6.43 4.58 2.98 2.16 1.71 1.15 0.47 0.20 0.06 0.01 0.00 0.00 0.00 0.00 0.00 0.00 0.00 0.00 0.00 0.00 0.00 0.00 0.00 0.00
0.00 0.00 0.00 0.00 0.00 0.01 0.11 0.16 0.19 0.18 0.11 0.24 0.42 0.88 1.01 0.64 0.78 0.94 1.77 3.63 5.41 6.22 6.41 5.89 5.75 6.70 6.27 5.72 4.28 3.11 2.61 1.48 0.34 0.09 0.00 0.00 0.00 0.01 0.00 0.01 0.00 0.00 0.00 0.00 0.00 0.00 0.00 0.00 0.00
0.00 0.00 0.00 0.00 0.00 0.07 0.19 0.23 0.15 0.10 0.17 0.53 0.24 0.70 0.67 1.00 0.91 0.81 1.11 2.50 4.32 7.45 8.55 8.07 7.93 7.66 4.98 4.56 4.06 3.09 3.71 2.04 0.63 0.13 0.01 0.00 0.00 0.00 0.01 0.02 0.00 0.01 0.00 0.00 0.00 0.00 0.00 0.00 0.00
0.00 0.00 0.00 0.00 0.01 0.15 0.23 0.08 0.24 0.13 0.11 0.27 0.31 0.50 0.60 0.85 0.55 0.66 0.70 1.38 2.34 3.94 4.55 5.00 6.24 6.72 6.07 4.32 3.15 2.40 2.82 4.49 1.68 0.36 0.15 0.02 0.00 0.01 0.01 0.04 0.00 0.01 0.00 0.00 0.00 0.00 0.00 0.00 0.00
0.00 0.00 0.00 0.00 0.06 0.24 0.13 0.03 0.19 0.09 0.19 0.54 0.38 0.72 0.66 0.43 0.46 0.57 0.60 0.69 1.07 1.57 2.86 3.26 2.93 2.28 2.37 2.34 2.25 1.81 2.29 3.78 2.88 0.56 0.13 0.01 0.02 0.03 0.02 0.06 0.02 0.00 0.00 0.00 0.00 0.00 0.00 0.00 0.00
0.00 0.00 0.00 0.02 0.11 0.04 0.02 0.07 0.10 0.32 0.45 0.52 1.13 0.48 0.41 0.49 0.56 0.68 0.93 0.50 0.51 0.78 1.43 1.52 1.25 0.94 0.76 0.65 0.83 1.12 2.05 2.37 2.34 1.02 0.24 0.13 0.10 0.11 0.07 0.07 0.04 0.00 0.00 0.00 0.00 0.00 0.00 0.00 0.00
0.00 0.00 0.00 0.01 0.01 0.01 0.00 0.01 0.11 0.35 0.80 0.30 0.32 0.38 0.47 0.75 0.62 0.28 0.23 0.27 0.40 0.54 0.78 0.74 0.53 0.45 0.30 0.24 0.38 0.58 1.09 2.15 1.50 1.02 0.46 0.30 0.09 0.05 0.06 0.02 0.01 0.00 0.00 0.00 0.00 0.00 0.00 0.00 0.00
0.00 0.00 0.00 0.01 0.04 0.03 0.00 0.04 0.12 0.30 0.11 0.11 0.16 0.38 0.55 0.56 0.17 0.08 0.15 0.16 0.25 0.46 0.45 0.54 0.47 0.27 0.15 0.11 0.17 0.36 0.60 1.88 1.07 0.93 0.54 0.31 0.06 0.04 0.03 0.03 0.02 0.00 0.00 0.00 0.00 0.00 0.00 0.00 0.00
0.00 0.00 0.00 0.00 0.01 0.01 0.02 0.05 0.09 0.39 0.12 0.12 0.12 0.32 0.56 0.58 0.09 0.04 0.07 0.11 0.16 0.31 0.42 0.44 0.40 0.36 0.24 0.12 0.08 0.20 0.55 1.11 0.98 0.78 0.53 0.38 0.12 0.08 0.07 0.06 0.03 0.01 0.01 0.00 0.00 0.00 0.00 0.00 0.00
0.00 0.00 0.02 0.03 0.01 0.00 0.05 0.19 0.35 0.13 0.08 0.07 0.03 0.04 0.36 0.86 0.24 0.04 0.03 0.05 0.06 0.19 0.32 0.54 0.62 0.41 0.29 0.23 0.28 0.44 0.69 0.83 0.50 0.56 0.58 0.41 0.18 0.08 0.06 0.07 0.06 0.01 0.00 0.00 0.00 0.00 0.00 0.00 0.00
0.00 0.00 0.01 0.04 0.03 0.02 0.15 0.48 0.05 0.03 0.05 0.04 0.01 0.01 0.06 0.10 0.03 0.01 0.01 0.00 0.01 0.05 0.22 0.57 0.75 0.77 0.61 0.51 0.51 0.85 0.78 0.71 0.53 0.54 0.39 0.18 0.12 0.07 0.06 0.08 0.04 0.00 0.00 0.00 0.00 0.00 0.00 0.00 0.00
0.00 0.00 0.00 0.01 0.01 0.01 0.05 0.33 0.12 0.05 0.09 0.08 0.02 0.01 0.01 0.01 0.01 0.00 0.03 0.02 0.05 0.03 0.10 0.54 0.92 1.07 0.98 0.70 0.97 0.64 0.25 0.40 0.39 0.40 0.27 0.14 0.07 0.09 0.04 0.12 0.14 0.01 0.02 0.00 0.00 0.00 0.00 0.00 0.00
0.00 0.00 0.00 0.02 0.02 0.01 0.01 0.03 0.25 0.12 0.05 0.27 0.09 0.04 0.04 0.00 0.01 0.03 0.07 0.07 0.07 0.05 0.11 0.52 1.15 1.24 1.02 0.62 0.42 0.35 0.23 0.36 0.34 0.31 0.31 0.17 0.03 0.03 0.05 0.11 0.09 0.02 0.01 0.01 0.00 0.00 0.00 0.00 0.00
0.00 0.00 0.00 0.00 0.01 0.00 0.00 0.01 0.01 0.00 0.00 0.03 0.05 0.07 0.02 0.00 0.03 0.05 0.07 0.09 0.07 0.08 0.19 0.43 0.81 1.14 0.63 0.36 0.21 0.29 0.34 0.31 0.27 0.28 0.32 0.23 0.06 0.09 0.14 0.13 0.06 0.01 0.01 0.02 0.00 0.00 0.00 0.00 0.00
0.00 0.00 0.00 0.00 0.00 0.00 0.00 0.00 0.00 0.00 0.00 0.01 0.01 0.11 0.03 0.00 0.01 0.02 0.04 0.03 0.04 0.11 0.36 0.44 0.39 0.43 0.39 0.30 0.19 0.14 0.22 0.28 0.16 0.16 0.16 0.13 0.11 0.08 0.14 0.14 0.11 0.05 0.05 0.05 0.03 0.02 0.02 0.01 0.00
0.00 0.00 0.00 0.00 0.00 0.00 0.00 0.00 0.00 0.01 0.01 0.02 0.00 0.00 0.00 0.00 0.02 0.03 0.03 0.03 0.01 0.02 0.18 0.19 0.08 0.12 0.20 0.29 0.26 0.24 0.30 0.31 0.31 0.17 0.16 0.10 0.11 0.09 0.14 0.08 0.09 0.16 0.08 0.07 0.07 0.05 0.05 0.03 0.03
0.00 0.00 0.00 0.00 0.00 0.00 0.00 0.00 0.00 0.00 0.01 0.00 0.00 0.00 0.00 0.00 0.00 0.00 0.00 0.00 0.01 0.06 0.25 0.12 0.11 0.12 0.12 0.13 0.15 0.18 0.27 0.21 0.16 0.14 0.09 0.08 0.06 0.13 0.24 0.10 0.05 0.17 0.15 0.11 0.09 0.06 0.07 0.10 0.09
0.00 0.00 0.00 0.00 0.00 0.04 0.02 0.00 0.03 0.05 0.02 0.00 0.00 0.00 0.00 0.00 0.00 0.00 0.00 0.00 0.02 0.07 0.20 0.16 0.13 0.22 0.15 0.26 0.28 0.22 0.24 0.26 0.22 0.12 0.09 0.08 0.07 0.11 0.27 0.15 0.11 0.12 0.19 0.19 0.21 0.20 0.11 0.11 0.21
0.00 0.00 0.00 0.00 0.00 0.01 0.01 0.01 0.01 0.01 0.01 0.01 0.00 0.00 0.00 0.00 0.00 0.00 0.00 0.01 0.03 0.11 0.17 0.29 0.31 0.22 0.21 0.35 0.41 0.26 0.22 0.20 0.30 0.28 0.15 0.16 0.12 0.17 0.33 0.34 0.21 0.15 0.16 0.24 0.22 0.24 0.21 0.16 0.16
0.00 0.00 0.01 0.05 0.00 0.00 0.00 0.01 0.01 0.01 0.04 0.08 0.10 0.00 0.00 0.00 0.00 0.00 0.02 0.04 0.04 0.08 0.13 0.18 0.32 0.42 0.28 0.26 0.24 0.21 0.18 0.21 0.16 0.16 0.21 0.24 0.19 0.22 0.25 0.28 0.17 0.14 0.16 0.18 0.24 0.26 0.27 0.29 0.29
0.00 0.00 0.02 0.16 0.09 0.03 0.06 0.01 0.01 0.00 0.00 0.00 0.00 0.00 0.00 0.00 0.00 0.00 0.01 0.02 0.05 0.11 0.08 0.06 0.29 0.41 0.48 0.34 0.16 0.14 0.08 0.06 0.07 0.14 0.19 0.13 0.12 0.10 0.17 0.18 0.19 0.15 0.16 0.17 0.18 0.20 0.22 0.24 0.25
0.00 0.00 0.00 0.04 0.09 0.05 0.06 0.01 0.00 0.00 0.00 0.00 0.00 0.00 0.00 0.00 0.00 0.00 0.00 0.01 0.04 0.07 0.05 0.09 0.10 0.27 0.37 0.24 0.12 0.07 0.03 0.04 0.07 0.09 0.08 0.07 0.06 0.09 0.09 0.08 0.15 0.18 0.15 0.11 0.12 0.13 0.12 0.13 0.13
0.00 0.00 0.01 0.00 0.04 0.05 0.00 0.01 0.01 0.01 0.00 0.00 0.00 0.00 0.00 0.00 0.00 0.00 0.01 0.06 0.02 0.04 0.05 0.16 0.12 0.11 0.24 0.27 0.24 0.08 0.08 0.10 0.11 0.11 0.17 0.17 0.17 0.16 0.12 0.08 0.06 0.07 0.07 0.08 0.08 0.06 0.08 0.09 0.08
0.00 0.00 0.00 0.00 0.00 0.01 0.02 0.00 0.01 0.00 0.00 0.00 0.00 0.00 0.00 0.00 0.00 0.00 0.01 0.04 0.05 0.12 0.11 0.08 0.20 0.47 0.36 0.30 0.16 0.11 0.13 0.27 0.35 0.25 0.30 0.28 0.28 0.27 0.25 0.20 0.12 0.09 0.10 0.11 0.09 0.07 0.07 0.08 0.09
0.00 0.01 0.04 0.02 0.01 0.00 0.02 0.00 0.00 0.00 0.00 0.00 0.00 0.00 0.00 0.00 0.00 0.00 0.00 0.00 0.02 0.02 0.02 0.02 0.09 0.18 0.26 0.31 0.28 0.44 0.61 0.55 0.68 0.64 0.62 0.58 0.37 0.29 0.26 0.28 0.25 0.21 0.16 0.17 0.16 0.15 0.14 0.15 0.18

GFSSGP_prec_precacc_072.txt.gz
Total_Precipitation_Accumulation
0.00 0.00 0.00 0.00 0.00 0.00 0.00 0.00 0.00 0.00 0.03 0.09 0.09 0.18 0.14 0.20 0.34 0.58 0.52 1.04 1.61 1.61 1.87 1.49 0.69 0.34 0.06 0.02 0.01 0.01 0.00 0.00 0.00 0.00 0.00 0.00 0.00 0.01 0.00 0.00 0.00 0.00 0.01 0.02 0.01 0.02 0.02 0.01 0.00
0.00 0.00 0.00 0.00 0.00 0.00 0.00 0.00 0.00 0.01 0.11 0.30 0.29 0.33 0.32 0.81 0.55 0.55 0.59 0.66 0.44 0.51 0.54 1.99 2.15 0.96 0.44 0.19 0.09 0.06 0.01 0.00 0.01 0.00 0.00 0.00 0.00 0.01 0.01 0.02 0.01 0.00 0.02 0.02 0.02 0.03 0.02 0.00 0.00
0.00 0.00 0.00 0.00 0.00 0.00 0.00 0.00 0.02 0.06 0.11 0.13 0.18 0.23 0.45 1.30 0.80 0.71 0.68 0.88 1.03 0.91 0.75 0.68 1.21 1.43 1.08 0.50 0.31 0.19 0.04 0.00 0.01 0.01 0.00 0.00 0.00 0.00 0.01 0.02 0.02 0.01 0.02 0.02 0.02 0.01 0.01 0.00 0.00
0.00 0.00 0.00 0.00 0.00 0.00 0.00 0.01 0.03 0.06 0.08 0.07 0.08 0.29 0.57 0.94 0.81 0.78 0.77 1.46 2.11 1.96 1.71 1.50 1.37 1.12 1.42 1.20 0.95 0.50 0.10 0.01 0.03 0.02 0.00 0.00 0.00 0.00 0.00 0.01 0.01 0.03 0.03 0.02 0.01 0.01 0.00 0.00 0.00
0.00 0.00 0.00 0.00 0.00 0.00 0.00 0.01 0.06 0.17 0.42 0.40 0.11 0.39 0.75 0.59 0.47 0.81 1.34 2.01 2.56 3.10 3.53 2.28 3.25 2.60 2.34 1.84 1.61 1.46 0.94 0.19 0.24 0.14 0.03 0.04 0.01 0.00 0.00 0.00 0.01 0.02 0.02 0.02 0.01 0.00 0.00 0.00 0.00
0.00 0.00 0.00 0.00 0.00 0.00 0.01 0.06 0.15 0.25 0.28 0.19 0.16 0.53 0.88 0.64 0.53 1.01 1.30 2.49 3.73 2.91 3.59 3.53 4.68 6.45 4.67 3.17 2.75 2.71 2.28 1.64 0.81 0.40 0.23 0.25 0.21 0.07 0.01 0.00 0.01 0.01 0.01 0.01 0.00 0.00 0.00 0.00 0.00
0.00 0.00 0.00 0.00 0.00 0.01 0.11 0.16 0.19 0.18 0.11 0.24 0.42 0.88 1.01 0.64 0.78 0.94 1.77 3.63 5.41 6.22 6.41 5.89 5.76 6.76 6.40 5.75 4.43 3.88 3.78 4.22 3.03 1.20 0.62 0.37 0.47 0.24 0.04 0.01 0.00 0.00 0.01 0.00 0.00 0.00 0.00 0.00 0.00
0.00 0.00 0.00 0.00 0.00 0.07 0.19 0.23 0.15 0.10 0.17 0.53 0.24 0.70 0.67 1.00 0.91 0.81 1.11 2.50 4.32 7.45 8.55 8.07 7.93 7.67 5.09 4.65 4.20 3.47 4.26 3.18 3.06 2.50 1.94 1.19 0.56 0.29 0.05 0.02 0.00 0.01 0.01 0.00 0.00 0.00 0.00 0.00 0.00
0.00 0.00 0.00 0.00 0.01 0.15 0.23 0.08 0.24 0.13 0.11 0.27 0.31 0.50 0.60 0.85 0.55 0.66 0.70 1.38 2.34 3.94 4.55 5.00 6.24 6.73 6.11 4.37 3.24 2.51 2.96 4.69 2.35 2.47 2.33 2.11 0.83 0.30 0.09 0.04 0.00 0.01 0.00 0.00 0.00 0.00 0.00 0.00 0.00
0.00 0.00 0.00 0.00 0.06 0.24 0.13 0.03 0.19 0.09 0.19 0.54 0.38 0.72 0.66 0.43 0.46 0.57 0.60 0.69 1.07 1.57 2.86 3.26 2.93 2.28 2.38 2.34 2.26 1.82 2.30 3.83 3.28 2.30 1.66 1.09 1.07 0.36 0.07 0.06 0.02 0.00 0.00 0.00 0.00 0.00 0.00 0.00 0.00
0.00 0.00 0.00 0.02 0.11 0.04 0.02 0.07 0.10 0.32 0.45 0.52 1.13 0.48 0.41 0.49 0.56 0.68 0.93 0.50 0.51 0.78 1.43 1.56 1.27 0.97 0.76 0.65 0.83 1.12 2.05 2.43 2.85 1.87 1.50 0.88 0.66 0.33 0.09 0.07 0.04 0.00 0.00 0.00 0.00 0.00 0.00 0.00 0.00
0.00 0.00 0.00 0.01 0.01 0.01 0.00 0.01 0.11 0.35 0.80 0.30 0.32 0.38 0.47 0.75 0.62 0.28 0.23 0.27 0.40 0.54 0.78 0.76 0.58 0.48 0.30 0.24 0.38 0.58 1.09 2.15 1.81 1.75 1.37 1.02 0.33 0.12 0.06 0.02 0.01 0.00 0.00 0.00 0.00 0.00 0.00 0.00 0.00
0.00 0.00 0.00 0.01 0.04 0.03 0.00 0.04 0.12 0.30 0.11 0.11 0.16 0.38 0.55 0.56 0.17 0.08 0.15 0.16 0.25 0.46 0.45 0.54 0.48 0.28 0.15 0.11 0.17 0.36 0.60 1.89 1.23 1.89 1.19 0.99 0.11 0.04 0.03 0.03 0.02 0.00 0.00 0.00 0.00 0.00 0.00 0.00 0.00
0.00 0.00 0.00 0.00 0.01 0.01 0.02 0.05 0.09 0.39 0.12 0.12 0.12 0.32 0.56 0.58 0.09 0.04 0.07 0.11 0.16 0.31 0.42 0.44 0.41 0.36 0.24 0.12 0.08 0.20 0.56 1.14 1.19 1.80 0.98 1.08 0.16 0.09 0.07 0.06 0.03 0.01 0.01 0.00 0.00 0.00 0.00 0.00 0.00
0.00 0.00 0.02 0.03 0.01 0.00 0.05 0.19 0.35 0.13 0.08 0.07 0.03 0.04 0.36 0.86 0.24 0.04 0.03 0.05 0.06 0.19 0.32 0.54 0.62 0.41 0.29 0.23 0.28 0.44 0.70 0.85 0.74 1.20 0.93 0.76 0.21 0.10 0.06 0.07 0.06 0.01 0.00 0.00 0.00 0.00 0.00 0.00 0.00
0.00 0.00 0.01 0.04 0.03 0.02 0.15 0.48 0.05 0.03 0.05 0.04 0.01 0.01 0.06 0.10 0.03 0.01 0.01 0.00 0.01 0.05 0.22 0.57 0.75 0.77 0.61 0.51 0.51 0.85 0.78 0.72 0.67 0.88 0.72 0.47 0.16 0.09 0.07 0.08 0.04 0.00 0.00 0.00 0.00 0.00 0.00 0.00 0.00
0.00 0.00 0.00 0.01 0.01 0.01 0.05 0.33 0.12 0.05 0.09 0.08 0.02 0.01 0.01 0.01 0.01 0.00 0.03 0.02 0.05 0.03 0.10 0.54 0.92 1.07 0.98 0.70 0.97 0.64 0.25 0.41 0.46 0.61 0.51 0.32 0.12 0.11 0.04 0.14 0.15 0.02 0.03 0.00 0.00 0.00 0.00 0.00 0.00
0.00 0.00 0.00 0.02 0.02 0.01 0.01 0.03 0.25 0.12 0.05 0.27 0.09 0.04 0.04 0.00 0.01 0.03 0.07 0.07 0.07 0.05 0.11 0.52 1.15 1.24 1.02 0.62 0.42 0.35 0.24 0.37 0.35 0.41 0.45 0.27 0.08 0.04 0.05 0.12 0.12 0.08 0.05 0.02 0.00 0.00 0.00 0.00 0.00
0.00 0.00 0.00 0.00 0.01 0.00 0.00 0.01 0.01 0.00 0.00 0.03 0.05 0.07 0.02 0.00 0.03 0.05 0.07 0.09 0.07 0.08 0.19 0.43 0.82 1.15 0.63 0.36 0.22 0.30 0.34 0.32 0.29 0.30 0.40 0.30 0.10 0.10 0.14 0.14 0.09 0.03 0.07 0.06 0.01 0.00 0.00 0.00 0.00
0.00 0.00 0.00 0.00 0.00 0.00 0.00 0.00 0.00 0.00 0.00 0.01 0.01 0.11 0.03 0.00 0.01 0.02 0.04 0.03 0.04 0.11 0.36 0.45 0.40 0.43 0.40 0.30 0.19 0.14 0.23 0.31 0.18 0.18 0.24 0.23 0.16 0.09 0.15 0.14 0.12 0.05 0.08 0.09 0.04 0.02 0.02 0.01 0.00
0.00 0.00 0.00 0.00 0.00 0.00 0.00 0.00 0.00 0.01 0.01 0.02 0.00 0.00 0.00 0.00 0.02 0.03 0.03 0.03 0.01 0.02 0.18 0.19 0.08 0.12 0.21 0.29 0.26 0.24 0.30 0.34 0.35 0.22 0.24 0.23 0.17 0.11 0.16 0.09 0.09 0.16 0.08 0.08 0.08 0.05 0.05 0.03 0.03
0.00 0.00 0.00 0.00 0.00 0.00 0.00 0.00 0.00 0.00 0.01 0.00 0.00 0.00 0.00 0.00 0.00 0.00 0.00 0.00 0.01 0.06 0.25 0.12 0.11 0.12 0.12 0.14 0.15 0.18 0.27 0.22 0.17 0.15 0.11 0.12 0.11 0.16 0.26 0.11 0.06 0.18 0.16 0.13 0.11 0.07 0.07 0.10 0.09
0.01 0.00 0.00 0.00 0.00 0.04 0.02 0.00 0.03 0.05 0.02 0.00 0.00 0.00 0.00 0.00 0.00 0.00 0.00 0.00 0.02 0.07 0.20 0.16 0.13 0.22 0.15 0.26 0.28 0.22 0.25 0.26 0.22 0.12 0.10 0.10 0.11 0.14 0.28 0.15 0.12 0.12 0.20 0.21 0.24 0.21 0.11 0.11 0.21
0.00 0.01 0.00 0.00 0.00 0.01 0.01 0.01 0.01 0.01 0.01 0.01 0.00 0.00 0.00 0.00 0.00 0.00 0.00 0.01 0.03 0.11 0.17 0.29 0.31 0.22 0.21 0.35 0.41 0.26 0.22 0.20 0.30 0.28 0.15 0.16 0.13 0.18 0.33 0.34 0.22 0.17 0.17 0.26 0.24 0.26 0.24 0.20 0.23
0.00 0.05 0.06 0.07 0.00 0.00 0.00 0.01 0.01 0.01 0.04 0.08 0.10 0.00 0.00 0.00 0.00 0.00 0.02 0.04 0.04 0.08 0.13 0.18 0.32 0.42 0.28 0.26 0.24 0.21 0.18 0.21 0.16 0.16 0.21 0.24 0.19 0.22 0.25 0.28 0.18 0.16 0.17 0.20 0.26 0.28 0.29 0.33 0.40
0.00 0.02 0.06 0.20 0.11 0.03 0.06 0.01 0.01 0.00 0.00 0.00 0.00 0.00 0.00 0.00 0.00 0.00 0.01 0.02 0.05 0.11 0.08 0.06 0.29 0.41 0.48 0.34 0.16 0.14 0.08 0.06 0.07 0.14 0.19 0.13 0.12 0.10 0.17 0.18 0.19 0.16 0.16 0.17 0.19 0.22 0.23 0.26 0.30
0.04 0.04 0.01 0.14 0.14 0.07 0.06 0.01 0.00 0.00 0.00 0.00 0.00 0.00 0.00 0.00 0.00 0.00 0.00 0.01 0.04 0.07 0.05 0.09 0.10 0.27 0.37 0.24 0.12 0.07 0.03 0.04 0.07 0.09 0.08 0.07 0.06 0.09 0.09 0.08 0.15 0.18 0.15 0.11 0.12 0.13 0.12 0.13 0.14
0.01 0.04 0.18 0.30 0.15 0.08 0.01 0.02 0.02 0.01 0.00 0.00 0.00 0.00 0.00 0.00 0.00 0.00 0.01 0.06 0.02 0.04 0.05 0.16 0.12 0.11 0.24 0.27 0.24 0.08 0.08 0.10 0.11 0.11 0.17 0.17 0.17 0.16 0.12 0.08 0.06 0.07 0.07 0.08 0.08 0.06 0.08 0.09 0.08
0.01 0.14 0.16 0.10 0.02 0.05 0.04 0.06 0.02 0.01 0.00 0.00 0.00 0.00 0.00 0.00 0.00 0.00 0.01 0.04 0.05 0.12 0.11 0.08 0.20 0.47 0.36 0.30 0.16 0.11 0.13 0.27 0.35 0.25 0.30 0.28 0.28 0.27 0.25 0.20 0.12 0.09 0.10 0.11 0.09 0.07 0.07 0.08 0.09
0.00 0.03 0.14 0.18 0.10 0.02 0.04 0.14 0.07 0.02 0.00 0.00 0.00 0.00 0.00 0.00 0.00 0.00 0.00 0.00 0.02 0.02 0.02 0.02 0.09 0.18 0.26 0.31 0.28 0.44 0.61 0.55 0.69 0.64 0.62 0.58 0.37 0.29 0.26 0.28 0.25 0.21 0.16 0.17 0.16 0.15 0.14 0.15 0.18

GFSSGP_prec_precacc_075.txt.gz
Total_Precipitation_Accumulation
0.00 0.00 0.00 0.00 0.00 0.00 0.00 0.00 0.00 0.00 0.03 0.09 0.09 0.18 0.14 0.20 0.34 0.58 0.52 1.04 1.61 1.61 1.87 1.49 0.69 0.34 0.06 0.02 0.01 0.01 0.00 0.00 0.00 0.00 0.00 0.00 0.00 0.01 0.00 0.00 0.00 0.00 0.01 0.02 0.01 0.03 0.04 0.03 0.00
0.00 0.00 0.00 0.00 0.00 0.00 0.00 0.00 0.00 0.01 0.11 0.30 0.29 0.33 0.32 0.81 0.55 0.55 0.59 0.66 0.44 0.51 0.54 1.99 2.15 0.96 0.44 0.19 0.09 0.06 0.01 0.00 0.01 0.00 0.00 0.00 0.00 0.01 0.01 0.02 0.01 0.01 0.02 0.02 0.02 0.05 0.04 0.02 0.00
0.00 0.00 0.00 0.00 0.00 0.00 0.00 0.00 0.02 0.06 0.11 0.13 0.18 0.23 0.45 1.30 0.80 0.71 0.68 0.88 1.03 0.91 0.75 0.68 1.21 1.43 1.08 0.50 0.31 0.19 0.04 0.00 0.01 0.01 0.00 0.00 0.00 0.00 0.01 0.02 0.02 0.01 0.02 0.02 0.02 0.04 0.04 0.01 0.00
0.00 0.00 0.00 0.00 0.00 0.00 0.00 0.01 0.03 0.06 0.08 0.07 0.08 0.29 0.57 0.94 0.81 0.78 0.77 1.46 2.11 1.96 1.71 1.50 1.37 1.12 1.42 1.20 0.95 0.50 0.10 0.01 0.03 0.02 0.00 0.00 0.00 0.00 0.00 0.01 0.01 0.03 0.04 0.03 0.03 0.02 0.02 0.01 0.00
0.00 0.00 0.00 0.00 0.00 0.00 0.00 0.01 0.06 0.17 0.42 0.40 0.11 0.39 0.75 0.59 0.47 0.81 1.34 2.01 2.56 3.10 3.53 2.28 3.25 2.60 2.34 1.84 1.63 1.47 0.94 0.19 0.24 0.14 0.03 0.04 0.01 0.00 0.00 0.00 0.01 0.03 0.03 0.03 0.02 0.01 0.01 0.00 0.00
0.00 0.00 0.00 0.00 0.00 0.00 0.01 0.06 0.15 0.25 0.28 0.19 0.16 0.53 0.88 0.64 0.53 1.01 1.30 2.49 3.73 2.91 3.59 3.53 4.68 6.45 4.68 3.18 2.77 2.83 2.46 1.79 0.91 0.47 0.32 0.34 0.28 0.11 0.02 0.01 0.01 0.03 0.03 0.02 0.01 0.01 0.00 0.00 0.00
0.00 0.00 0.00 0.00 0.00 0.01 0.11 0.16 0.19 0.18 0.11 0.24 0.42 0.88 1.01 0.64 0.78 0.94 1.77 3.63 5.41 6.22 6.41 5.89 5.76 6.76 6.41 5.76 4.49 4.01 4.00 5.04 4.38 2.14 1.13 0.76 0.83 0.54 0.21 0.09 0.03 0.02 0.01 0.00 0.00 0.00 0.00 0.00 0.00
0.00 0.00 0.00 0.00 0.00 0.07 0.19 0.23 0.15 0.10 0.17 0.53 0.24 0.70 0.67 1.00 0.91 0.81 1.11 2.50 4.32 7.45 8.55 8.07 7.93 7.67 5.09 4.66 4.26 3.55 4.48 3.57 4.68 4.18 2.68 1.58 1.06 0.77 0.38 0.17 0.03 0.04 0.01 0.00 0.00 0.00 0.00 0.00 0.00
0.00 0.00 0.00 0.00 0.01 0.15 0.23 0.08 0.24 0.13 0.11 0.27 0.31 0.50 0.60 0.85 0.55 0.66 0.70 1.38 2.34 3.94 4.55 5.00 6.24 6.73 6.11 4.37 3.25 2.55 3.12 4.97 2.52 2.65 2.62 2.39 1.09 0.69 0.41 0.21 0.03 0.04 0.01 0.00 0.00 0.00 0.00 0.00 0.00
0.00 0.00 0.00 0.00 0.06 0.24 0.13 0.03 0.19 0.09 0.19 0.54 0.38 0.72 0.66 0.43 0.46 0.57 0.60 0.69 1.07 1.57 2.86 3.26 2.93 2.28 2.38 2.35 2.26 1.83 2.35 3.94 3.40 2.35 1.68 1.10 1.17 0.61 0.32 0.25 0.07 0.03 0.00 0.00 0.00 0.00 0.00 0.00 0.00
0.00 0.00 0.00 0.02 0.11 0.04 0.02 0.07 0.10 0.32 0.45 0.52 1.13 0.48 0.41 0.49 0.56 0.68 0.93 0.50 0.51 0.78 1.43 1.56 1.27 0.97 0.76 0.66 0.83 1.13 2.06 2.44 2.86 1.88 1.50 0.88 0.79 0.68 0.32 0.21 0.10 0.01 0.00 0.00 0.00 0.00 0.00 0.00 0.00
0.00 0.00 0.00 0.01 0.01 0.01 0.00 0.01 0.11 0.35 0.80 0.30 0.32 0.38 0.47 0.75 0.62 0.28 0.23 0.27 0.40 0.54 0.78 0.76 0.58 0.48 0.31 0.25 0.39 0.59 1.10 2.16 1.81 1.76 1.37 1.02 0.39 0.43 0.21 0.06 0.03 0.00 0.00 0.00 0.00 0.00 0.00 0.00 0.00
0.00 0.00 0.00 0.01 0.04 0.03 0.00 0.04 0.12 0.30 0.11 0.11 0.16 0.38 0.55 0.56 0.17 0.08 0.15 0.16 0.25 0.46 0.45 0.54 0.48 0.28 0.15 0.11 0.17 0.36 0.60 1.89 1.23 1.89 1.19 0.99 0.13 0.19 0.10 0.04 0.02 0.00 0.00 0.00 0.00 0.00 0.00 0.00 0.00
0.00 0.00 0.00 0.00 0.01 0.01 0.02 0.05 0.09 0.39 0.12 0.12 0.12 0.32 0.56 0.58 0.09 0.04 0.07 0.11 0.16 0.31 0.42 0.44 0.41 0.36 0.24 0.12 0.08 0.20 0.56 1.14 1.19 1.80 0.98 1.17 0.18 0.16 0.10 0.06 0.03 0.01 0.01 0.00 0.00 0.00 0.00 0.00 0.00
0.00 0.00 0.02 0.03 0.01 0.00 0.05 0.19 0.35 0.13 0.08 0.07 0.03 0.04 0.36 0.86 0.24 0.04 0.03 0.05 0.06 0.19 0.32 0.54 0.62 0.41 0.29 0.23 0.28 0.44 0.70 0.85 0.74 1.20 0.93 1.13 0.35 0.15 0.08 0.07 0.06 0.01 0.00 0.00 0.00 0.00 0.00 0.00 0.00
0.00 0.00 0.01 0.04 0.03 0.02 0.15 0.48 0.05 0.03 0.05 0.04 0.01 0.01 0.06 0.10 0.03 0.01 0.01 0.00 0.01 0.05 0.22 0.57 0.75 0.77 0.61 0.51 0.51 0.85 0.78 0.73 0.68 0.90 0.73 0.77 0.51 0.12 0.08 0.09 0.04 0.00 0.00 0.00 0.00 0.00 0.00 0.00 0.00
0.00 0.00 0.00 0.01 0.01 0.01 0.05 0.33 0.12 0.05 0.09 0.08 0.02 0.01 0.01 0.01 0.01 0.00 0.03 0.02 0.05 0.03 0.10 0.54 0.92 1.07 0.98 0.70 0.97 0.64 0.26 0.42 0.52 0.69 0.60 0.72 0.53 0.16 0.06 0.14 0.15 0.02 0.03 0.00 0.00 0.00 0.00 0.00 0.00
0.00 0.00 0.00 0.02 0.02 0.01 0.01 0.03 0.25 0.12 0.05 0.27 0.09 0.04 0.04 0.00 0.01 0.03 0.07 0.07 0.07 0.05 0.11 0.52 1.15 1.24 1.02 0.62 0.42 0.35 0.24 0.37 0.43 0.64 0.63 0.69 0.34 0.11 0.06 0.12 0.12 0.08 0.05 0.02 0.00 0.00 0.00 0.00 0.00
0.00 0.00 0.00 0.00 0.01 0.00 0.00 0.01 0.01 0.00 0.00 0.03 0.05 0.07 0.02 0.00 0.03 0.05 0.07 0.09 0.07 0.08 0.19 0.43 0.82 1.15 0.63 0.36 0.22 0.30 0.35 0.33 0.30 0.35 0.57 0.67 0.43 0.19 0.15 0.14 0.09 0.03 0.07 0.06 0.01 0.00 0.00 0.00 0.00
0.00 0.00 0.00 0.00 0.00 0.00 0.00 0.00 0.00 0.00 0.00 0.01 0.01 0.11 0.03 0.00 0.01 0.02 0.04 0.03 0.04 0.11 0.36 0.45 0.40 0.43 0.40 0.30 0.19 0.14 0.23 0.31 0.19 0.18 0.28 0.34 0.28 0.21 0.17 0.14 0.12 0.05 0.08 0.09 0.04 0.02 0.02 0.01 0.00
0.00 0.00 0.00 0.00 0.00 0.00 0.00 0.00 0.00 0.01 0.01 0.02 0.00 0.00 0.00 0.00 0.02 0.03 0.03 0.03 0.01 0.02 0.18 0.19 0.08 0.12 0.21 0.29 0.26 0.24 0.30 0.34 0.36 0.22 0.27 0.28 0.20 0.15 0.22 0.10 0.09 0.16 0.08 0.08 0.08 0.05 0.05 0.03 0.03
0.00 0.00 0.00 0.00 0.00 0.00 0.00 0.00 0.00 0.00 0.01 0.00 0.00 0.00 0.00 0.00 0.00 0.00 0.00 0.00 0.01 0.06 0.25 0.12 0.11 0.12 0.12 0.14 0.15 0.18 0.27 0.22 0.17 0.15 0.12 0.29 0.18 0.21 0.31 0.15 0.07 0.18 0.16 0.13 0.11 0.07 0.07 0.10 0.09
0.01 0.00 0.00 0.00 0.00 0.04 0.02 0.00 0.03 0.05 0.02 0.00 0.00 0.00 0.00 0.00 0.00 0.00 0.00 0.00 0.02 0.07 0.20 0.16 0.13 0.22 0.15 0.26 0.28 0.22 0.25 0.26 0.22 0.12 0.10 0.19 0.30 0.21 0.37 0.22 0.16 0.13 0.21 0.22 0.24 0.21 0.12 0.11 0.21
0.00 0.02 0.00 0.00 0.00 0.02 0.01 0.01 0.01 0.01 0.01 0.01 0.00 0.00 0.00 0.00 0.00 0.00 0.00 0.01 0.03 0.11 0.17 0.29 0.31 0.22 0.21 0.35 0.41 0.26 0.22 0.20 0.31 0.28 0.15 0.17 0.22 0.29 0.39 0.41 0.29 0.20 0.19 0.32 0.29 0.29 0.25 0.21 0.23
0.01 0.06 0.08 0.10 0.03 0.01 0.00 0.01 0.01 0.01 0.04 0.08 0.10 0.00 0.00 0.00 0.00 0.00 0.02 0.04 0.04 0.08 0.13 0.18 0.32 0.42 0.28 0.26 0.24 0.21 0.18 0.21 0.16 0.16 0.21 0.24 0.19 0.23 0.28 0.30 0.21 0.20 0.19 0.25 0.34 0.35 0.33 0.36 0.43
0.00 0.03 0.10 0.22 0.11 0.03 0.06 0.01 0.01 0.00 0.00 0.00 0.00 0.00 0.00 0.00 0.00 0.00 0.01 0.02 0.05 0.11 0.08 0.06 0.29 0.41 0.48 0.34 0.16 0.14 0.08 0.06 0.07 0.14 0.19 0.13 0.12 0.10 0.17 0.19 0.20 0.17 0.18 0.19 0.23 0.27 0.28 0.30 0.33
0.06 0.05 0.03 0.21 0.15 0.07 0.06 0.01 0.00 0.00 0.00 0.00 0.00 0.00 0.00 0.00 0.00 0.00 0.00 0.01 0.04 0.07 0.05 0.09 0.10 0.27 0.37 0.24 0.12 0.07 0.03 0.04 0.07 0.09 0.08 0.07 0.07 0.09 0.09 0.08 0.15 0.18 0.15 0.13 0.13 0.15 0.14 0.15 0.16
0.02 0.04 0.19 0.33 0.18 0.10 0.01 0.03 0.02 0.01 0.00 0.00 0.00 0.00 0.00 0.00 0.00 0.00 0.01 0.06 0.02 0.04 0.05 0.16 0.12 0.11 0.24 0.27 0.24 0.08 0.08 0.10 0.11 0.11 0.17 0.17 0.17 0.16 0.12 0.08 0.06 0.07 0.07 0.09 0.09 0.06 0.08 0.10 0.08
0.02 0.15 0.18 0.11 0.03 0.07 0.07 0.10 0.02 0.01 0.01 0.00 0.00 0.00 0.00 0.00 0.00 0.00 0.01 0.04 0.05 0.12 0.11 0.08 0.20 0.47 0.36 0.30 0.16 0.11 0.13 0.27 0.35 0.25 0.30 0.28 0.28 0.27 0.25 0.20 0.12 0.09 0.10 0.11 0.09 0.07 0.07 0.08 0.09
0.00 0.03 0.16 0.28 0.14 0.02 0.08 0.18 0.08 0.05 0.03 0.00 0.00 0.00 0.00 0.00 0.00 0.00 0.00 0.00 0.02 0.02 0.02 0.02 0.09 0.18 0.26 0.31 0.28 0.44 0.61 0.55 0.69 0.64 0.62 0.58 0.37 0.29 0.26 0.28 0.25 0.21 0.16 0.17 0.16 0.15 0.14 0.15 0.18

GFSSGP_prec_precacc_078.txt.gz
Total_Precipitation_Accumulation
0.00 0.00 0.00 0.00 0.00 0.00 0.00 0.00 0.00 0.00 0.03 0.09 0.09 0.18 0.14 0.20 0.34 0.58 0.52 1.04 1.61 1.61 1.87 1.49 0.69 0.34 0.06 0.02 0.01 0.01 0.00 0.00 0.00 0.00 0.00 0.00 0.00 0.01 0.01 0.01 0.00 0.00 0.01 0.02 0.02 0.03 0.05 0.07 0.02
0.00 0.00 0.00 0.00 0.00 0.00 0.00 0.00 0.00 0.01 0.11 0.30 0.29 0.33 0.32 0.81 0.55 0.55 0.59 0.66 0.44 0.51 0.54 1.99 2.15 0.96 0.44 0.19 0.09 0.06 0.01 0.00 0.01 0.00 0.00 0.00 0.00 0.01 0.04 0.06 0.01 0.01 0.02 0.03 0.03 0.05 0.05 0.04 0.01
0.00 0.00 0.00 0.00 0.00 0.00 0.00 0.00 0.02 0.06 0.11 0.13 0.18 0.23 0.45 1.30 0.80 0.71 0.68 0.88 1.03 0.91 0.75 0.68 1.21 1.43 1.08 0.50 0.31 0.19 0.04 0.00 0.01 0.01 0.00 0.00 0.00 0.00 0.02 0.03 0.02 0.01 0.03 0.03 0.03 0.04 0.04 0.02 0.01
0.00 0.00 0.00 0.00 0.00 0.00 0.00 0.01 0.03 0.06 0.08 0.07 0.08 0.29 0.57 0.94 0.81 0.78 0.77 1.46 2.11 1.96 1.71 1.50 1.37 1.12 1.42 1.21 0.95 0.50 0.10 0.01 0.03 0.02 0.00 0.00 0.00 0.00 0.00 0.01 0.01 0.03 0.04 0.05 0.04 0.03 0.02 0.01 0.00
0.00 0.00 0.00 0.00 0.00 0.00 0.00 0.01 0.06 0.17 0.42 0.40 0.11 0.39 0.75 0.59 0.47 0.81 1.34 2.01 2.56 3.10 3.53 2.28 3.25 2.60 2.34 1.84 1.63 1.48 0.95 0.19 0.24 0.14 0.03 0.04 0.01 0.01 0.01 0.00 0.01 0.03 0.04 0.04 0.03 0.02 0.02 0.00 0.00
0.00 0.00 0.00 0.00 0.00 0.00 0.01 0.06 0.15 0.25 0.28 0.19 0.16 0.53 0.88 0.64 0.53 1.01 1.30 2.49 3.73 2.91 3.59 3.53 4.68 6.45 4.68 3.18 2.77 2.90 2.56 1.83 0.92 0.50 0.45 0.53 0.48 0.26 0.12 0.03 0.01 0.03 0.04 0.03 0.01 0.01 0.01 0.00 0.00
0.00 0.00 0.00 0.00 0.00 0.01 0.11 0.16 0.19 0.18 0.11 0.24 0.42 0.88 1.01 0.64 0.78 0.94 1.77 3.63 5.41 6.22 6.41 5.89 5.76 6.76 6.41 5.76 4.50 4.04 4.06 5.23 4.60 2.61 1.80 1.46 1.21 0.77 0.40 0.19 0.08 0.07 0.03 0.01 0.00 0.00 0.00 0.00 0.00
0.00 0.00 0.00 0.00 0.00 0.07 0.19 0.23 0.15 0.10 0.17 0.53 0.24 0.70 0.67 1.00 0.91 0.81 1.11 2.50 4.32 7.45 8.55 8.07 7.93 7.67 5.09 4.66 4.31 3.63 4.52 3.63 4.80 4.53 3.41 2.11 1.51 1.02 0.62 0.45 0.23 0.15 0.04 0.00 0.00 0.00 0.00 0.00 0.00
0.00 0.00 0.00 0.00 0.01 0.15 0.23 0.08 0.24 0.13 0.11 0.27 0.31 0.50 0.60 0.85 0.55 0.66 0.70 1.38 2.34 3.94 4.55 5.00 6.24 6.73 6.11 4.37 3.26 2.61 3.16 5.09 2.68 2.73 2.77 2.62 1.39 1.00 0.69 0.47 0.37 0.28 0.11 0.00 0.00 0.00 0.00 0.00 0.00
0.00 0.00 0.00 0.00 0.06 0.24 0.13 0.03 0.19 0.09 0.19 0.54 0.38 0.72 0.66 0.43 0.46 0.57 0.60 0.69 1.07 1.57 2.86 3.26 2.93 2.28 2.38 2.35 2.27 1.87 2.40 4.00 3.50 2.43 1.71 1.14 1.23 0.67 0.43 0.51 0.40 0.33 0.09 0.00 0.00 0.00 0.00 0.00 0.00
0.00 0.00 0.00 0.02 0.11 0.04 0.02 0.07 0.10 0.32 0.45 0.52 1.13 0.48 0.41 0.49 0.56 0.68 0.93 0.50 0.51 0.78 1.43 1.56 1.27 0.97 0.76 0.66 0.84 1.14 2.11 2.50 2.90 1.93 1.52 0.90 0.79 0.68 0.34 0.33 0.39 0.25 0.08 0.00 0.00 0.00 0.00 0.00 0.00
0.00 0.00 0.00 0.01 0.01 0.01 0.00 0.01 0.11 0.35 0.80 0.30 0.32 0.38 0.47 0.75 0.62 0.28 0.23 0.27 0.40 0.54 0.78 0.76 0.59 0.48 0.31 0.25 0.40 0.60 1.12 2.18 1.83 1.77 1.39 1.03 0.39 0.43 0.22 0.10 0.13 0.11 0.01 0.00 0.00 0.00 0.00 0.00 0.00
0.00 0.00 0.00 0.01 0.04 0.03 0.00 0.04 0.12 0.30 0.11 0.11 0.16 0.38 0.55 0.56 0.17 0.08 0.15 0.16 0.25 0.46 0.45 0.54 0.48 0.28 0.15 0.11 0.17 0.37 0.62 1.90 1.23 1.89 1.19 0.99 0.14 0.19 0.11 0.10 0.09 0.04 0.01 0.00 0.00 0.00 0.00 0.00 0.00
0.00 0.00 0.00 0.00 0.01 0.01 0.02 0.05 0.09 0.39 0.12 0.12 0.12 0.32 0.56 0.58 0.09 0.04 0.07 0.11 0.16 0.31 0.42 0.44 0.41 0.36 0.24 0.12 0.08 0.21 0.56 1.15 1.19 1.80 0.98 1.17 0.19 0.16 0.12 0.09 0.08 0.05 0.01 0.00 0.00 0.00 0.00 0.00 0.00
0.00 0.00 0.02 0.03 0.01 0.00 0.05 0.19 0.35 0.13 0.08 0.07 0.03 0.04 0.36 0.86 0.24 0.04 0.03 0.05 0.06 0.19 0.32 0.54 0.62 0.41 0.29 0.23 0.28 0.44 0.70 0.85 0.74 1.20 0.93 1.13 0.36 0.16 0.10 0.09 0.10 0.04 0.00 0.00 0.00 0.00 0.00 0.00 0.00
0.00 0.00 0.01 0.04 0.03 0.02 0.15 0.48 0.05 0.03 0.05 0.04 0.01 0.01 0.06 0.10 0.03 0.01 0.01 0.00 0.01 0.05 0.22 0.57 0.75 0.77 0.61 0.51 0.51 0.85 0.78 0.73 0.68 0.90 0.73 0.78 0.53 0.18 0.12 0.11 0.07 0.02 0.00 0.00 0.00 0.00 0.00 0.00 0.00
0.00 0.00 0.00 0.01 0.01 0.01 0.05 0.33 0.12 0.05 0.09 0.08 0.02 0.01 0.01 0.01 0.01 0.00 0.03 0.02 0.05 0.03 0.10 0.54 0.92 1.07 0.98 0.70 0.97 0.64 0.26 0.42 0.52 0.69 0.60 0.72 0.56 0.21 0.15 0.20 0.18 0.05 0.03 0.00 0.00 0.00 0.00 0.00 0.00
0.00 0.00 0.00 0.02 0.02 0.01 0.01 0.03 0.25 0.12 0.05 0.27 0.09 0.04 0.04 0.00 0.01 0.03 0.07 0.07 0.07 0.05 0.11 0.52 1.15 1.24 1.02 0.62 0.43 0.36 0.25 0.38 0.43 0.66 0.66 0.78 0.53 0.25 0.22 0.21 0.17 0.10 0.05 0.02 0.00 0.00 0.00 0.00 0.00
0.00 0.00 0.00 0.00 0.01 0.00 0.00 0.01 0.01 0.00 0.00 0.03 0.05 0.07 0.02 0.00 0.03 0.05 0.07 0.09 0.07 0.08 0.19 0.43 0.82 1.15 0.63 0.36 0.22 0.31 0.35 0.34 0.31 0.39 0.67 0.91 0.69 0.47 0.31 0.19 0.12 0.05 0.07 0.06 0.01 0.00 0.00 0.00 0.00
0.00 0.00 0.00 0.00 0.00 0.00 0.00 0.00 0.00 0.00 0.00 0.01 0.01 0.11 0.03 0.00 0.01 0.02 0.04 0.03 0.04 0.11 0.36 0.45 0.40 0.43 0.40 0.30 0.19 0.14 0.23 0.32 0.21 0.21 0.34 0.65 0.76 0.60 0.37 0.19 0.14 0.06 0.08 0.09 0.04 0.02 0.02 0.01 0.00
0.00 0.00 0.00 0.00 0.00 0.00 0.00 0.00 0.00 0.01 0.01 0.02 0.00 0.00 0.00 0.00 0.02 0.03 0.03 0.03 0.01 0.02 0.18 0.19 0.08 0.12 0.21 0.29 0.26 0.24 0.30 0.35 0.39 0.26 0.28 0.37 0.47 0.44 0.40 0.15 0.11 0.16 0.08 0.08 0.08 0.05 0.05 0.03 0.03
0.00 0.00 0.00 0.00 0.00 0.00 0.00 0.00 0.00 0.00 0.01 0.00 0.00 0.00 0.00 0.00 0.00 0.00 0.00 0.00 0.01 0.06 0.25 0.12 0.11 0.12 0.12 0.14 0.15 0.18 0.27 0.23 0.19 0.17 0.14 0.30 0.23 0.30 0.39 0.22 0.08 0.18 0.16 0.13 0.11 0.07 0.07 0.10 0.09
0.01 0.00 0.00 0.00 0.00 0.04 0.02 0.00 0.03 0.05 0.02 0.00 0.00 0.00 0.00 0.00 0.00 0.00 0.00 0.00 0.02 0.07 0.20 0.16 0.13 0.22 0.15 0.26 0.28 0.22 0.25 0.26 0.22 0.13 0.13 0.21 0.33 0.25 0.45 0.32 0.20 0.14 0.21 0.22 0.24 0.21 0.12 0.11 0.21
0.00 0.02 0.00 0.00 0.01 0.04 0.01 0.01 0.01 0.01 0.01 0.01 0.00 0.00 0.00 0.00 0.00 0.00 0.00 0.01 0.03 0.11 0.17 0.29 0.31 0.22 0.21 0.35 0.41 0.26 0.22 0.20 0.31 0.28 0.16 0.18 0.27 0.40 0.45 0.54 0.41 0.24 0.21 0.32 0.29 0.29 0.25 0.21 0.23
0.01 0.07 0.08 0.12 0.06 0.02 0.00 0.01 0.01 0.01 0.04 0.08 0.10 0.00 0.00 0.00 0.00 0.00 0.02 0.04 0.04 0.08 0.13 0.18 0.32 0.42 0.28 0.27 0.24 0.21 0.18 0.21 0.16 0.16 0.21 0.24 0.22 0.33 0.45 0.41 0.32 0.25 0.23 0.28 0.36 0.36 0.34 0.37 0.43
0.01 0.04 0.11 0.24 0.12 0.03 0.06 0.01 0.01 0.00 0.00 0.00 0.00 0.00 0.00 0.00 0.00 0.00 0.01 0.02 0.05 0.11 0.08 0.06 0.30 0.41 0.49 0.35 0.16 0.14 0.08 0.06 0.07 0.14 0.19 0.13 0.13 0.13 0.31 0.40 0.38 0.28 0.26 0.25 0.29 0.33 0.32 0.33 0.37
0.07 0.07 0.04 0.26 0.18 0.08 0.06 0.01 0.00 0.00 0.00 0.00 0.00 0.00 0.00 0.00 0.00 0.00 0.00 0.01 0.04 0.07 0.05 0.09 0.10 0.27 0.37 0.24 0.12 0.07 0.03 0.04 0.07 0.09 0.08 0.07 0.07 0.10 0.11 0.12 0.23 0.31 0.28 0.23 0.20 0.21 0.19 0.19 0.18
0.03 0.05 0.22 0.38 0.22 0.11 0.01 0.03 0.02 0.01 0.00 0.00 0.00 0.00 0.00 0.00 0.00 0.00 0.01 0.06 0.02 0.04 0.05 0.16 0.12 0.11 0.24 0.27 0.24 0.08 0.08 0.10 0.11 0.11 0.17 0.17 0.17 0.16 0.12 0.08 0.06 0.08 0.08 0.10 0.12 0.10 0.12 0.16 0.12
0.02 0.16 0.19 0.14 0.04 0.08 0.07 0.11 0.02 0.02 0.02 0.00 0.00 0.00 0.00 0.00 0.00 0.00 0.01 0.04 0.05 0.12 0.11 0.10 0.21 0.47 0.36 0.31 0.16 0.11 0.14 0.27 0.35 0.25 0.30 0.28 0.28 0.27 0.25 0.20 0.12 0.09 0.10 0.11 0.10 0.08 0.08 0.10 0.11
0.01 0.03 0.17 0.34 0.17 0.04 0.09 0.20 0.12 0.07 0.03 0.00 0.00 0.00 0.00 0.00 0.00 0.00 0.00 0.00 0.02 0.02 0.03 0.05 0.11 0.18 0.26 0.32 0.29 0.45 0.61 0.55 0.69 0.64 0.62 0.58 0.37 0.29 0.26 0.28 0.25 0.21 0.16 0.17 0.16 0.15 0.14 0.16 0.18

GFSSGP_prec_precacc_081.txt.gz
Total_Precipitation_Accumulation
0.00 0.00 0.00 0.00 0.00 0.00 0.00 0.00 0.00 0.00 0.03 0.09 0.09 0.18 0.14 0.20 0.34 0.58 0.52 1.04 1.61 1.61 1.87 1.49 0.69 0.34 0.06 0.02 0.01 0.01 0.00 0.00 0.00 0.00 0.00 0.00 0.00 0.01 0.01 0.02 0.00 0.00 0.01 0.02 0.02 0.03 0.05 0.08 0.02
0.00 0.00 0.00 0.00 0.00 0.00 0.00 0.00 0.00 0.01 0.11 0.30 0.29 0.33 0.32 0.81 0.55 0.55 0.59 0.66 0.44 0.51 0.54 1.99 2.15 0.96 0.44 0.19 0.09 0.06 0.01 0.00 0.01 0.00 0.00 0.00 0.00 0.01 0.05 0.08 0.02 0.01 0.02 0.03 0.03 0.05 0.05 0.05 0.01
0.00 0.00 0.00 0.00 0.00 0.00 0.00 0.00 0.02 0.06 0.11 0.13 0.18 0.23 0.45 1.30 0.80 0.71 0.68 0.88 1.03 0.91 0.75 0.68 1.21 1.44 1.09 0.50 0.31 0.19 0.05 0.00 0.01 0.01 0.00 0.00 0.00 0.00 0.02 0.04 0.04 0.01 0.03 0.04 0.04 0.05 0.05 0.02 0.01
0.00 0.00 0.00 0.00 0.00 0.00 0.00 0.01 0.03 0.06 0.08 0.07 0.08 0.29 0.57 0.94 0.81 0.78 0.77 1.46 2.11 1.96 1.71 1.50 1.37 1.12 1.43 1.21 0.95 0.50 0.10 0.02 0.05 0.03 0.01 0.00 0.00 0.02 0.06 0.04 0.03 0.04 0.06 0.06 0.08 0.05 0.04 0.01 0.00
0.00 0.00 0.00 0.00 0.00 0.00 0.00 0.01 0.06 0.17 0.42 0.40 0.11 0.39 0.75 0.59 0.47 0.81 1.34 2.01 2.56 3.10 3.53 2.28 3.25 2.60 2.34 1.84 1.63 1.48 0.95 0.19 0.25 0.15 0.04 0.07 0.06 0.12 0.17 0.13 0.04 0.06 0.06 0.06 0.04 0.03 0.02 0.00 0.00
0.00 0.00 0.00 0.00 0.00 0.00 0.01 0.06 0.15 0.25 0.28 0.19 0.16 0.53 0.88 0.64 0.53 1.01 1.30 2.49 3.73 2.91 3.59 3.53 4.68 6.45 4.68 3.18 2.77 2.90 2.59 1.87 0.96 0.54 0.53 0.83 1.00 0.70 0.47 0.31 0.20 0.14 0.12 0.06 0.02 0.02 0.01 0.00 0.00
0.00 0.00 0.00 0.00 0.00 0.01 0.11 0.16 0.19 0.18 0.11 0.24 0.42 0.88 1.01 0.64 0.78 0.94 1.77 3.63 5.41 6.22 6.41 5.89 5.76 6.76 6.41 5.77 4.50 4.04 4.08 5.33 4.75 2.78 2.06 1.85 1.59 1.13 0.67 0.42 0.23 0.15 0.10 0.06 0.01 0.00 0.00 0.00 0.00
0.00 0.00 0.00 0.00 0.00 0.07 0.19 0.23 0.15 0.10 0.17 0.53 0.24 0.70 0.67 1.00 0.91 0.81 1.11 2.50 4.32 7.45 8.55 8.07 7.93 7.67 5.09 4.67 4.31 3.63 4.52 3.65 4.83 4.58 3.43 2.15 1.64 1.18 0.73 0.59 0.39 0.26 0.12 0.04 0.01 0.00 0.00 0.00 0.00
0.00 0.00 0.00 0.00 0.01 0.15 0.23 0.08 0.24 0.13 0.11 0.27 0.31 0.50 0.60 0.85 0.55 0.66 0.70 1.38 2.34 3.94 4.55 5.00 6.24 6.73 6.11 4.37 3.27 2.64 3.20 5.13 2.70 2.78 2.80 2.65 1.41 1.03 0.73 0.58 0.57 0.50 0.28 0.07 0.04 0.00 0.00 0.00 0.00
0.00 0.00 0.00 0.00 0.06 0.24 0.13 0.03 0.19 0.09 0.19 0.54 0.38 0.72 0.66 0.43 0.46 0.57 0.60 0.69 1.07 1.57 2.86 3.26 2.93 2.28 2.38 2.35 2.27 1.89 2.44 4.03 3.54 2.48 1.75 1.15 1.23 0.68 0.45 0.58 0.58 0.70 0.49 0.23 0.07 0.00 0.00 0.00 0.00
0.00 0.00 0.00 0.02 0.11 0.04 0.02 0.07 0.10 0.32 0.45 0.52 1.13 0.48 0.41 0.49 0.56 0.68 0.93 0.50 0.51 0.78 1.43 1.56 1.27 0.97 0.76 0.66 0.84 1.16 2.16 2.54 2.95 1.97 1.57 0.92 0.80 0.68 0.34 0.34 0.53 0.60 0.60 0.17 0.03 0.00 0.00 0.00 0.00
0.00 0.00 0.00 0.01 0.01 0.01 0.00 0.01 0.11 0.35 0.80 0.30 0.32 0.38 0.47 0.75 0.62 0.28 0.23 0.27 0.40 0.54 0.78 0.76 0.59 0.48 0.31 0.25 0.40 0.61 1.13 2.21 1.87 1.80 1.40 1.04 0.40 0.44 0.22 0.11 0.20 0.40 0.28 0.16 0.01 0.00 0.00 0.00 0.00
0.00 0.00 0.00 0.01 0.04 0.03 0.00 0.04 0.12 0.30 0.11 0.11 0.16 0.38 0.55 0.56 0.17 0.08 0.15 0.16 0.25 0.46 0.45 0.54 0.48 0.28 0.15 0.11 0.17 0.38 0.63 1.92 1.25 1.90 1.20 1.00 0.14 0.20 0.11 0.10 0.12 0.14 0.12 0.09 0.00 0.00 0.00 0.00 0.00
0.00 0.00 0.00 0.00 0.01 0.01 0.02 0.05 0.09 0.39 0.12 0.12 0.12 0.32 0.56 0.58 0.09 0.04 0.07 0.11 0.16 0.31 0.42 0.44 0.41 0.36 0.24 0.12 0.08 0.21 0.57 1.16 1.21 1.81 0.98 1.17 0.19 0.17 0.12 0.10 0.10 0.07 0.08 0.04 0.00 0.00 0.00 0.00 0.00
0.00 0.00 0.02 0.03 0.01 0.00 0.05 0.19 0.35 0.13 0.08 0.07 0.03 0.04 0.36 0.86 0.24 0.04 0.03 0.05 0.06 0.19 0.32 0.54 0.62 0.41 0.29 0.23 0.28 0.44 0.70 0.86 0.75 1.20 0.93 1.13 0.37 0.17 0.10 0.10 0.12 0.07 0.04 0.03 0.01 0.00 0.00 0.00 0.00
0.00 0.00 0.01 0.04 0.03 0.02 0.15 0.48 0.05 0.03 0.05 0.04 0.01 0.01 0.06 0.10 0.03 0.01 0.01 0.00 0.01 0.05 0.22 0.57 0.75 0.77 0.61 0.51 0.51 0.85 0.78 0.73 0.69 0.91 0.74 0.78 0.53 0.19 0.13 0.12 0.09 0.09 0.06 0.03 0.00 0.00 0.00 0.00 0.00
0.00 0.00 0.00 0.01 0.01 0.01 0.05 0.33 0.12 0.05 0.09 0.08 0.02 0.01 0.01 0.01 0.01 0.00 0.03 0.02 0.05 0.03 0.10 0.54 0.92 1.07 0.98 0.70 0.97 0.64 0.26 0.42 0.52 0.69 0.61 0.73 0.58 0.26 0.23 0.24 0.20 0.09 0.11 0.03 0.00 0.00 0.00 0.00 0.00
0.00 0.00 0.00 0.02 0.02 0.01 0.01 0.03 0.25 0.12 0.05 0.27 0.09 0.04 0.04 0.00 0.01 0.03 0.07 0.07 0.07 0.05 0.11 0.52 1.15 1.24 1.02 0.62 0.43 0.36 0.25 0.38 0.43 0.66 0.66 0.78 0.53 0.29 0.50 0.42 0.23 0.15 0.13 0.05 0.00 0.00 0.00 0.00 0.00
0.00 0.00 0.00 0.00 0.01 0.00 0.00 0.01 0.01 0.00 0.00 0.03 0.05 0.07 0.02 0.00 0.03 0.05 0.07 0.09 0.07 0.08 0.19 0.43 0.82 1.15 0.63 0.36 0.22 0.31 0.36 0.35 0.31 0.39 0.67 0.93 0.73 0.53 0.54 0.64 0.28 0.14 0.12 0.08 0.01 0.00 0.00 0.00 0.00
0.00 0.00 0.00 0.00 0.00 0.00 0.00 0.00 0.00 0.00 0.00 0.01 0.01 0.11 0.03 0.00 0.01 0.02 0.04 0.03 0.04 0.11 0.36 0.45 0.40 0.43 0.40 0.30 0.19 0.15 0.23 0.32 0.21 0.22 0.35 0.67 0.86 0.79 0.61 0.39 0.35 0.14 0.10 0.10 0.04 0.02 0.02 0.01 0.00
0.00 0.00 0.00 0.00 0.00 0.00 0.00 0.00 0.00 0.01 0.01 0.02 0.00 0.00 0.00 0.00 0.02 0.03 0.03 0.03 0.01 0.02 0.18 0.19 0.08 0.13 0.21 0.29 0.26 0.25 0.31 0.35 0.40 0.27 0.28 0.41 0.69 0.86 0.72 0.36 0.33 0.23 0.10 0.09 0.08 0.05 0.05 0.03 0.03
0.00 0.00 0.00 0.00 0.00 0.00 0.00 0.00 0.00 0.00 0.01 0.00 0.00 0.00 0.00 0.00 0.00 0.00 0.00 0.00 0.01 0.06 0.25 0.12 0.11 0.13 0.12 0.14 0.15 0.18 0.28 0.23 0.20 0.20 0.15 0.31 0.32 0.56 0.70 0.51 0.25 0.23 0.17 0.14 0.11 0.07 0.07 0.10 0.09
0.01 0.00 0.00 0.00 0.00 0.05 0.02 0.00 0.03 0.05 0.02 0.00 0.00 0.00 0.00 0.00 0.00 0.00 0.00 0.00 0.02 0.07 0.20 0.16 0.13 0.22 0.16 0.26 0.28 0.22 0.25 0.26 0.23 0.16 0.16 0.23 0.35 0.28 0.57 0.52 0.33 0.17 0.22 0.22 0.24 0.21 0.12 0.11 0.21
0.00 0.02 0.00 0.00 0.01 0.05 0.01 0.01 0.01 0.01 0.01 0.01 0.00 0.00 0.00 0.00 0.00 0.00 0.00 0.01 0.03 0.11 0.17 0.29 0.31 0.22 0.21 0.35 0.41 0.26 0.22 0.20 0.31 0.29 0.18 0.22 0.33 0.43 0.47 0.57 0.47 0.29 0.23 0.33 0.29 0.29 0.25 0.21 0.23
0.01 0.08 0.09 0.12 0.07 0.03 0.00 0.01 0.01 0.01 0.04 0.08 0.10 0.00 0.00 0.00 0.00 0.00 0.02 0.04 0.04 0.08 0.13 0.18 0.32 0.42 0.29 0.27 0.24 0.21 0.18 0.21 0.16 0.16 0.21 0.25 0.24 0.40 0.52 0.45 0.35 0.28 0.25 0.29 0.36 0.36 0.34 0.37 0.43
0.01 0.04 0.11 0.25 0.13 0.03 0.06 0.01 0.01 0.00 0.00 0.00 0.00 0.00 0.00 0.00 0.00 0.00 0.01 0.02 0.05 0.11 0.08 0.06 0.30 0.41 0.49 0.35 0.17 0.14 0.08 0.06 0.07 0.14 0.19 0.13 0.13 0.14 0.34 0.54 0.52 0.34 0.27 0.26 0.31 0.33 0.32 0.33 0.37
0.07 0.08 0.05 0.28 0.19 0.10 0.06 0.01 0.00 0.00 0.00 0.00 0.00 0.00 0.00 0.00 0.00 0.00 0.00 0.01 0.04 0.07 0.05 0.09 0.10 0.27 0.37 0.24 0.13 0.07 0.03 0.04 0.07 0.09 0.08 0.07 0.07 0.11 0.16 0.20 0.51 0.62 0.44 0.27 0.24 0.23 0.20 0.20 0.20
0.03 0.07 0.24 0.40 0.24 0.12 0.01 0.03 0.02 0.01 0.00 0.00 0.00 0.00 0.00 0.00 0.00 0.00 0.01 0.06 0.02 0.04 0.05 0.16 0.13 0.11 0.24 0.28 0.24 0.08 0.08 0.10 0.11 0.11 0.17 0.17 0.17 0.16 0.13 0.13 0.10 0.23 0.27 0.23 0.18 0.13 0.13 0.18 0.14
0.03 0.18 0.20 0.17 0.06 0.08 0.07 0.12 0.05 0.02 0.03 0.01 0.00 0.00 0.00 0.00 0.00 0.00 0.01 0.04 0.05 0.12 0.11 0.10 0.23 0.48 0.36 0.31 0.16 0.11 0.14 0.27 0.35 0.25 0.30 0.28 0.28 0.27 0.25 0.20 0.14 0.10 0.11 0.12 0.11 0.11 0.13 0.14 0.14
0.02 0.05 0.17 0.35 0.21 0.08 0.10 0.21 0.15 0.09 0.06 0.03 0.00 0.00 0.01 0.01 0.01 0.01 0.00 0.01 0.02 0.03 0.04 0.06 0.13 0.20 0.26 0.32 0.29 0.45 0.62 0.55 0.69 0.64 0.62 0.58 0.37 0.29 0.26 0.28 0.25 0.21 0.16 0.17 0.16 0.16 0.17 0.19 0.20

GFSSGP_prec_precacc_084.txt.gz
Total_Precipitation_Accumulation
0.00 0.00 0.00 0.00 0.00 0.00 0.00 0.00 0.00 0.00 0.03 0.09 0.09 0.18 0.14 0.20 0.34 0.58 0.52 1.04 1.61 1.61 1.87 1.49 0.69 0.34 0.06 0.02 0.01 0.01 0.00 0.00 0.00 0.00 0.00 0.00 0.00 0.01 0.01 0.02 0.01 0.01 0.01 0.03 0.02 0.03 0.05 0.08 0.02
0.00 0.00 0.00 0.00 0.00 0.00 0.00 0.00 0.00 0.01 0.11 0.30 0.29 0.33 0.32 0.81 0.55 0.55 0.59 0.66 0.44 0.51 0.54 1.99 2.15 0.97 0.44 0.19 0.09 0.06 0.01 0.00 0.04 0.01 0.00 0.00 0.00 0.01 0.05 0.08 0.02 0.01 0.03 0.04 0.04 0.06 0.06 0.05 0.01
0.00 0.00 0.00 0.00 0.00 0.00 0.00 0.00 0.02 0.06 0.11 0.13 0.18 0.23 0.45 1.30 0.80 0.71 0.68 0.88 1.03 0.91 0.75 0.68 1.21 1.44 1.09 0.50 0.31 0.19 0.05 0.00 0.02 0.01 0.00 0.00 0.02 0.03 0.02 0.05 0.04 0.02 0.04 0.06 0.08 0.08 0.06 0.02 0.01
0.00 0.00 0.00 0.00 0.00 0.00 0.00 0.01 0.03 0.06 0.08 0.07 0.08 0.29 0.57 0.94 0.81 0.78 0.77 1.46 2.11 1.96 1.71 1.50 1.37 1.12 1.43 1.21 0.95 0.50 0.10 0.02 0.06 0.03 0.10 0.11 0.13 0.11 0.07 0.09 0.08 0.07 0.11 0.12 0.15 0.14 0.05 0.01 0.00
0.00 0.00 0.00 0.00 0.00 0.00 0.00 0.01 0.06 0.17 0.42 0.40 0.11 0.39 0.75 0.59 0.47 0.81 1.34 2.01 2.56 3.10 3.53 2.28 3.25 2.60 2.34 1.84 1.63 1.48 0.95 0.21 0.27 0.17 0.16 0.25 0.21 0.22 0.28 0.26 0.21 0.18 0.14 0.16 0.16 0.08 0.03 0.00 0.00
0.00 0.00 0.00 0.00 0.00 0.00 0.01 0.06 0.15 0.25 0.28 0.19 0.16 0.53 0.88 0.64 0.53 1.01 1.30 2.49 3.73 2.91 3.59 3.53 4.68 6.45 4.68 3.18 2.77 2.90 2.60 1.90 0.99 0.60 0.62 0.95 1.26 1.11 0.73 0.49 0.43 0.39 0.35 0.24 0.16 0.04 0.01 0.00 0.00
0.00 0.00 0.00 0.00 0.00 0.01 0.11 0.16 0.19 0.18 0.11 0.24 0.42 0.88 1.01 0.64 0.78 0.94 1.77 3.63 5.41 6.22 6.41 5.89 5.76 6.76 6.41 5.77 4.50 4.04 4.09 5.35 4.84 2.87 2.24 2.25 1.76 1.32 0.92 0.61 0.44 0.38 0.31 0.25 0.12 0.03 0.01 0.00 0.00
0.00 0.00 0.00 0.00 0.00 0.07 0.19 0.23 0.15 0.10 0.17 0.53 0.24 0.70 0.67 1.00 0.91 0.81 1.11 2.50 4.32 7.45 8.55 8.07 7.93 7.67 5.09 4.67 4.31 3.63 4.52 3.66 4.86 4.63 3.56 2.19 1.69 1.29 0.81 0.65 0.45 0.38 0.28 0.18 0.09 0.08 0.04 0.01 0.00
0.00 0.00 0.00 0.00 0.01 0.15 0.23 0.08 0.24 0.13 0.11 0.27 0.31 0.50 0.60 0.85 0.55 0.66 0.70 1.38 2.34 3.94 4.55 5.00 6.24 6.73 6.11 4.38 3.27 2.65 3.21 5.14 2.71 2.79 2.82 2.66 1.44 1.09 0.80 0.60 0.57 0.52 0.35 0.16 0.22 0.14 0.08 0.05 0.02
0.00 0.00 0.00 0.00 0.06 0.24 0.13 0.03 0.19 0.09 0.19 0.54 0.38 0.72 0.66 0.43 0.46 0.57 0.60 0.69 1.07 1.57 2.86 3.26 2.93 2.28 2.38 2.35 2.27 1.91 2.47 4.07 3.59 2.49 1.76 1.16 1.23 0.71 0.53 0.60 0.58 0.71 0.60 0.51 0.35 0.13 0.08 0.05 0.02
0.00 0.00 0.00 0.02 0.11 0.04 0.02 0.07 0.10 0.32 0.45 0.52 1.13 0.48 0.41 0.49 0.56 0.68 0.93 0.50 0.51 0.78 1.43 1.56 1.27 0.97 0.77 0.66 0.84 1.17 2.19 2.58 3.02 2.02 1.58 0.95 0.81 0.69 0.35 0.34 0.54 0.67 0.85 0.47 0.28 0.10 0.08 0.05 0.01
0.00 0.00 0.00 0.01 0.01 0.01 0.00 0.01 0.11 0.35 0.80 0.30 0.32 0.38 0.47 0.75 0.62 0.28 0.23 0.27 0.40 0.54 0.78 0.76 0.59 0.48 0.31 0.25 0.40 0.62 1.14 2.22 1.89 1.86 1.44 1.05 0.41 0.44 0.22 0.11 0.21 0.45 0.50 0.47 0.25 0.06 0.06 0.04 0.01
0.00 0.00 0.00 0.01 0.04 0.03 0.00 0.04 0.12 0.30 0.11 0.11 0.16 0.38 0.55 0.56 0.17 0.08 0.15 0.16 0.25 0.46 0.45 0.54 0.48 0.28 0.15 0.11 0.18 0.38 0.64 1.93 1.26 1.93 1.22 1.01 0.15 0.20 0.11 0.11 0.17 0.24 0.51 0.35 0.29 0.11 0.04 0.03 0.01
0.00 0.00 0.00 0.00 0.01 0.01 0.02 0.05 0.09 0.39 0.12 0.12 0.12 0.32 0.56 0.58 0.09 0.04 0.07 0.11 0.16 0.31 0.42 0.44 0.41 0.36 0.24 0.12 0.08 0.22 0.58 1.17 1.21 1.82 0.99 1.17 0.20 0.17 0.14 0.11 0.18 0.11 0.44 0.39 0.20 0.08 0.03 0.01 0.00
0.00 0.00 0.02 0.03 0.01 0.00 0.05 0.19 0.35 0.13 0.08 0.07 0.03 0.04 0.36 0.86 0.24 0.04 0.03 0.05 0.06 0.19 0.32 0.54 0.62 0.41 0.29 0.23 0.28 0.44 0.70 0.87 0.75 1.21 0.93 1.13 0.37 0.19 0.14 0.16 0.20 0.10 0.12 0.35 0.23 0.09 0.03 0.01 0.00
0.00 0.00 0.01 0.04 0.03 0.02 0.15 0.48 0.05 0.03 0.05 0.04 0.01 0.01 0.06 0.10 0.03 0.01 0.01 0.00 0.01 0.05 0.22 0.57 0.75 0.77 0.61 0.51 0.51 0.85 0.78 0.73 0.69 0.91 0.74 0.79 0.54 0.20 0.16 0.19 0.16 0.10 0.08 0.13 0.15 0.07 0.02 0.01 0.00
0.00 0.00 0.00 0.01 0.01 0.01 0.05 0.33 0.12 0.05 0.09 0.08 0.02 0.01 0.01 0.01 0.01 0.00 0.03 0.02 0.05 0.03 0.10 0.54 0.92 1.07 0.98 0.70 0.97 0.64 0.26 0.42 0.52 0.69 0.61 0.74 0.59 0.26 0.27 0.31 0.27 0.11 0.14 0.07 0.09 0.05 0.02 0.01 0.00
0.00 0.00 0.00 0.02 0.02 0.01 0.01 0.03 0.25 0.12 0.05 0.27 0.09 0.04 0.04 0.00 0.01 0.03 0.07 0.07 0.07 0.05 0.11 0.52 1.15 1.24 1.03 0.62 0.43 0.36 0.26 0.39 0.44 0.66 0.66 0.78 0.54 0.31 0.55 0.51 0.28 0.16 0.16 0.09 0.06 0.02 0.01 0.00 0.00
0.00 0.00 0.00 0.00 0.01 0.00 0.00 0.01 0.01 0.00 0.00 0.03 0.05 0.07 0.02 0.00 0.03 0.05 0.07 0.09 0.07 0.08 0.19 0.43 0.82 1.15 0.63 0.36 0.22 0.31 0.36 0.35 0.32 0.40 0.68 0.93 0.73 0.55 0.60 0.83 0.42 0.22 0.15 0.12 0.05 0.01 0.01 0.00 0.00
0.00 0.00 0.00 0.00 0.00 0.00 0.00 0.00 0.00 0.00 0.00 0.01 0.01 0.11 0.03 0.00 0.01 0.02 0.04 0.03 0.04 0.11 0.36 0.45 0.40 0.44 0.40 0.30 0.19 0.15 0.24 0.33 0.21 0.23 0.36 0.69 0.87 0.81 0.66 0.75 0.71 0.40 0.20 0.17 0.13 0.05 0.03 0.01 0.00
0.00 0.00 0.00 0.00 0.00 0.00 0.00 0.00 0.00 0.01 0.01 0.02 0.00 0.00 0.00 0.00 0.02 0.03 0.03 0.03 0.01 0.02 0.18 0.19 0.09 0.13 0.21 0.29 0.27 0.25 0.31 0.36 0.41 0.28 0.29 0.42 0.70 0.96 0.81 0.50 0.79 0.66 0.27 0.16 0.17 0.09 0.05 0.03 0.03
0.00 0.00 0.00 0.00 0.00 0.00 0.00 0.00 0.00 0.00 0.01 0.00 0.00 0.00 0.00 0.00 0.00 0.00 0.00 0.00 0.01 0.06 0.25 0.12 0.11 0.13 0.12 0.14 0.15 0.18 0.28 0.23 0.20 0.20 0.15 0.31 0.32 0.66 0.98 0.71 0.49 0.61 0.42 0.27 0.16 0.11 0.07 0.10 0.09
0.01 0.00 0.00 0.00 0.00 0.05 0.02 0.00 0.03 0.05 0.02 0.00 0.00 0.00 0.00 0.00 0.00 0.00 0.00 0.00 0.02 0.07 0.20 0.16 0.13 0.22 0.16 0.26 0.28 0.22 0.25 0.26 0.24 0.16 0.17 0.23 0.36 0.31 0.66 0.72 0.60 0.48 0.44 0.34 0.30 0.23 0.12 0.11 0.21
0.00 0.02 0.00 0.00 0.01 0.05 0.01 0.01 0.01 0.01 0.01 0.01 0.00 0.00 0.00 0.00 0.00 0.00 0.00 0.01 0.03 0.11 0.17 0.29 0.31 0.22 0.21 0.35 0.41 0.26 0.22 0.20 0.31 0.30 0.18 0.23 0.34 0.43 0.47 0.64 0.77 0.59 0.42 0.44 0.35 0.30 0.25 0.21 0.23
0.01 0.08 0.09 0.12 0.07 0.03 0.00 0.01 0.01 0.01 0.04 0.08 0.10 0.00 0.00 0.00 0.00 0.00 0.02 0.04 0.04 0.08 0.13 0.19 0.32 0.42 0.29 0.27 0.24 0.21 0.18 0.22 0.16 0.17 0.21 0.26 0.27 0.44 0.55 0.46 0.42 0.47 0.42 0.39 0.42 0.37 0.34 0.37 0.43
0.01 0.04 0.11 0.25 0.14 0.03 0.06 0.01 0.01 0.00 0.00 0.00 0.00 0.00 0.00 0.00 0.00 0.00 0.01 0.02 0.05 0.11 0.08 0.07 0.30 0.41 0.49 0.35 0.17 0.14 0.08 0.06 0.07 0.14 0.19 0.13 0.14 0.14 0.39 0.58 0.54 0.36 0.34 0.35 0.36 0.35 0.33 0.33 0.37
0.07 0.08 0.05 0.28 0.19 0.10 0.06 0.01 0.00 0.00 0.00 0.00 0.00 0.00 0.00 0.00 0.00 0.00 0.00 0.01 0.04 0.07 0.06 0.10 0.10 0.27 0.37 0.24 0.13 0.07 0.04 0.05 0.07 0.09 0.08 0.07 0.08 0.11 0.18 0.24 0.56 0.66 0.46 0.31 0.27 0.26 0.22 0.20 0.20
0.04 0.07 0.26 0.41 0.25 0.13 0.01 0.03 0.03 0.01 0.00 0.00 0.00 0.00 0.00 0.00 0.00 0.00 0.01 0.06 0.02 0.04 0.05 0.16 0.13 0.12 0.25 0.28 0.24 0.08 0.08 0.10 0.12 0.11 0.17 0.17 0.17 0.17 0.13 0.15 0.14 0.27 0.35 0.26 0.19 0.14 0.14 0.18 0.14
0.04 0.20 0.21 0.19 0.07 0.10 0.08 0.13 0.07 0.03 0.04 0.01 0.00 0.00 0.01 0.00 0.00 0.00 0.01 0.04 0.06 0.12 0.12 0.10 0.23 0.49 0.37 0.31 0.16 0.12 0.14 0.27 0.35 0.25 0.30 0.28 0.28 0.28 0.26 0.21 0.16 0.12 0.13 0.15 0.12 0.11 0.13 0.14 0.14
0.03 0.06 0.19 0.37 0.23 0.11 0.13 0.23 0.20 0.14 0.10 0.03 0.00 0.00 0.02 0.02 0.02 0.02 0.01 0.01 0.03 0.03 0.04 0.07 0.14 0.22 0.29 0.32 0.29 0.45 0.62 0.55 0.69 0.64 0.63 0.59 0.38 0.29 0.26 0.29 0.26 0.22 0.16 0.18 0.17 0.16 0.17 0.19 0.21

GFSSGP_prec_precacc_087.txt.gz
Total_Precipitation_Accumulation
0.00 0.00 0.00 0.00 0.00 0.00 0.00 0.00 0.00 0.00 0.03 0.09 0.09 0.18 0.14 0.20 0.34 0.58 0.52 1.04 1.61 1.61 1.87 1.49 0.69 0.34 0.06 0.02 0.01 0.01 0.00 0.00 0.00 0.00 0.00 0.03 0.02 0.02 0.02 0.05 0.01 0.01 0.02 0.03 0.02 0.03 0.05 0.08 0.02
0.00 0.00 0.00 0.00 0.00 0.00 0.00 0.00 0.00 0.01 0.11 0.30 0.29 0.33 0.32 0.81 0.55 0.55 0.59 0.66 0.44 0.51 0.54 1.99 2.15 0.97 0.44 0.19 0.09 0.06 0.01 0.00 0.04 0.01 0.01 0.00 0.01 0.02 0.13 0.16 0.02 0.01 0.03 0.04 0.04 0.08 0.07 0.06 0.01
0.00 0.00 0.00 0.00 0.00 0.00 0.00 0.00 0.02 0.06 0.11 0.13 0.18 0.23 0.45 1.30 0.80 0.71 0.68 0.88 1.03 0.91 0.75 0.68 1.21 1.44 1.09 0.50 0.31 0.19 0.05 0.00 0.02 0.01 0.00 0.01 0.04 0.11 0.16 0.15 0.07 0.02 0.06 0.08 0.12 0.18 0.10 0.02 0.01
0.00 0.00 0.00 0.00 0.00 0.00 0.00 0.01 0.03 0.06 0.08 0.07 0.08 0.29 0.57 0.94 0.81 0.78 0.77 1.46 2.11 1.96 1.71 1.50 1.37 1.12 1.43 1.21 0.95 0.50 0.10 0.02 0.06 0.03 0.12 0.18 0.34 0.35 0.26 0.20 0.15 0.11 0.18 0.22 0.26 0.30 0.13 0.01 0.00
0.00 0.00 0.00 0.00 0.00 0.00 0.00 0.01 0.06 0.17 0.42 0.40 0.11 0.39 0.75 0.59 0.47 0.81 1.34 2.01 2.56 3.10 3.53 2.28 3.25 2.60 2.34 1.84 1.63 1.48 0.95 0.21 0.27 0.20 0.30 0.40 0.35 0.35 0.42 0.44 0.40 0.45 0.39 0.43 0.40 0.26 0.05 0.00 0.00
0.00 0.00 0.00 0.00 0.00 0.00 0.01 0.06 0.15 0.25 0.28 0.19 0.16 0.53 0.88 0.64 0.53 1.01 1.30 2.49 3.73 2.91 3.59 3.53 4.68 6.45 4.68 3.18 2.77 2.90 2.60 1.90 0.99 0.69 0.70 1.07 1.34 1.24 0.85 0.66 0.67 0.73 0.88 0.61 0.36 0.19 0.02 0.00 0.01
0.00 0.00 0.00 0.00 0.00 0.01 0.11 0.16 0.19 0.18 0.11 0.24 0.42 0.88 1.01 0.64 0.78 0.94 1.77 3.63 5.41 6.22 6.41 5.89 5.76 6.76 6.41 5.77 4.50 4.04 4.09 5.35 4.84 2.95 2.30 2.39 1.90 1.41 1.01 0.69 0.53 0.40 0.38 0.44 0.37 0.21 0.06 0.01 0.07
0.00 0.00 0.00 0.00 0.00 0.07 0.19 0.23 0.15 0.10 0.17 0.53 0.24 0.70 0.67 1.00 0.91 0.81 1.11 2.50 4.32 7.45 8.55 8.07 7.93 7.67 5.09 4.67 4.31 3.63 4.52 3.66 4.86 4.66 3.59 2.21 1.71 1.30 0.81 0.65 0.48 0.40 0.29 0.24 0.23 0.36 0.27 0.19 0.09
0.00 0.00 0.00 0.00 0.01 0.15 0.23 0.08 0.24 0.13 0.11 0.27 0.31 0.50 0.60 0.85 0.55 0.66 0.70 1.38 2.34 3.94 4.55 5.00 6.24 6.73 6.11 4.38 3.27 2.65 3.21 5.14 2.71 2.79 2.83 2.70 1.48 1.17 0.84 0.63 0.60 0.55 0.36 0.18 0.26 0.23 0.18 0.18 0.14
0.00 0.00 0.00 0.00 0.06 0.24 0.13 0.03 0.19 0.09 0.19 0.54 0.38 0.72 0.66 0.43 0.46 0.57 0.60 0.69 1.07 1.57 2.86 3.26 2.93 2.28 2.38 2.35 2.28 1.91 2.48 4.08 3.59 2.49 1.76 1.18 1.30 0.75 0.58 0.75 0.62 0.74 0.62 0.62 0.48 0.19 0.15 0.17 0.07
0.00 0.00 0.00 0.02 0.11 0.04 0.02 0.07 0.10 0.32 0.45 0.52 1.13 0.48 0.41 0.49 0.56 0.68 0.93 0.50 0.51 0.78 1.43 1.56 1.27 0.97 0.77 0.66 0.84 1.17 2.20 2.61 3.08 2.08 1.60 0.98 0.89 0.74 0.37 0.35 0.56 0.70 0.95 0.64 0.39 0.17 0.20 0.17 0.10
0.00 0.00 0.00 0.01 0.01 0.01 0.00 0.01 0.11 0.35 0.80 0.30 0.32 0.38 0.47 0.75 0.62 0.28 0.23 0.27 0.40 0.54 0.78 0.76 0.59 0.48 0.31 0.25 0.40 0.62 1.15 2.23 1.93 1.93 1.51 1.10 0.47 0.51 0.24 0.13 0.21 0.47 0.56 0.56 0.37 0.18 0.18 0.15 0.10
0.00 0.00 0.00 0.01 0.04 0.03 0.00 0.04 0.12 0.30 0.11 0.11 0.16 0.38 0.55 0.56 0.17 0.08 0.15 0.16 0.25 0.46 0.45 0.54 0.48 0.28 0.15 0.11 0.18 0.39 0.64 1.94 1.27 1.99 1.31 1.09 0.22 0.27 0.18 0.15 0.19 0.30 0.56 0.43 0.44 0.35 0.21 0.13 0.11
0.00 0.00 0.00 0.00 0.01 0.01 0.02 0.05 0.09 0.39 0.12 0.12 0.12 0.32 0.56 0.58 0.09 0.04 0.07 0.11 0.16 0.31 0.42 0.44 0.41 0.36 0.24 0.12 0.08 0.22 0.58 1.17 1.21 1.84 1.06 1.20 0.25 0.21 0.19 0.15 0.25 0.18 0.46 0.49 0.41 0.40 0.26 0.14 0.08
0.00 0.00 0.02 0.03 0.01 0.00 0.05 0.19 0.35 0.13 0.08 0.07 0.03 0.04 0.36 0.86 0.24 0.04 0.03 0.05 0.06 0.19 0.32 0.54 0.62 0.41 0.29 0.23 0.28 0.45 0.71 0.87 0.76 1.21 0.96 1.17 0.39 0.20 0.16 0.22 0.30 0.12 0.14 0.62 0.61 0.49 0.34 0.18 0.01
0.00 0.00 0.01 0.04 0.03 0.02 0.15 0.48 0.05 0.03 0.05 0.04 0.01 0.01 0.06 0.10 0.03 0.01 0.01 0.00 0.01 0.05 0.22 0.57 0.75 0.77 0.61 0.51 0.51 0.85 0.78 0.74 0.70 0.92 0.75 0.80 0.55 0.20 0.18 0.24 0.25 0.14 0.11 0.25 0.65 0.54 0.30 0.17 0.01
0.00 0.00 0.00 0.01 0.01 0.01 0.05 0.33 0.12 0.05 0.09 0.08 0.02 0.01 0.01 0.01 0.01 0.00 0.03 0.02 0.05 0.03 0.10 0.54 0.92 1.07 0.98 0.70 0.97 0.64 0.26 0.43 0.53 0.70 0.62 0.74 0.59 0.27 0.28 0.33 0.33 0.15 0.16 0.11 0.30 0.49 0.29 0.11 0.03
0.00 0.00 0.00 0.02 0.02 0.01 0.01 0.03 0.25 0.12 0.05 0.27 0.09 0.04 0.04 0.00 0.01 0.03 0.07 0.07 0.07 0.05 0.11 0.52 1.15 1.24 1.03 0.62 0.43 0.36 0.26 0.39 0.44 0.66 0.67 0.79 0.55 0.31 0.56 0.55 0.35 0.21 0.17 0.13 0.14 0.23 0.21 0.07 0.01
0.00 0.00 0.00 0.00 0.01 0.00 0.00 0.01 0.01 0.00 0.00 0.03 0.05 0.07 0.02 0.00 0.03 0.05 0.07 0.09 0.07 0.08 0.19 0.43 0.82 1.15 0.63 0.36 0.22 0.31 0.36 0.36 0.33 0.40 0.68 0.94 0.73 0.55 0.62 0.87 0.47 0.26 0.17 0.14 0.09 0.10 0.15 0.10 0.01
0.00 0.00 0.00 0.00 0.00 0.00 0.00 0.00 0.00 0.00 0.00 0.01 0.01 0.11 0.03 0.00 0.01 0.02 0.04 0.03 0.04 0.11 0.36 0.45 0.40 0.44 0.40 0.30 0.19 0.15 0.24 0.33 0.21 0.23 0.36 0.70 0.88 0.82 0.67 0.78 0.80 0.47 0.25 0.21 0.19 0.12 0.11 0.09 0.04
0.00 0.00 0.00 0.00 0.00 0.00 0.00 0.00 0.00 0.01 0.01 0.02 0.00 0.00 0.00 0.00 0.02 0.03 0.03 0.03 0.01 0.02 0.18 0.19 0.09 0.13 0.21 0.29 0.27 0.25 0.31 0.36 0.41 0.29 0.31 0.44 0.75 1.01 0.86 0.52 0.89 0.87 0.43 0.26 0.24 0.15 0.09 0.06 0.07
0.00 0.00 0.00 0.00 0.00 0.00 0.00 0.00 0.00 0.00 0.01 0.00 0.00 0.00 0.00 0.00 0.00 0.00 0.00 0.00 0.01 0.06 0.25 0.12 0.11 0.13 0.12 0.14 0.15 0.18 0.28 0.23 0.20 0.21 0.16 0.32 0.33 0.67 1.00 0.77 0.56 0.93 0.69 0.45 0.33 0.23 0.13 0.15 0.11
0.01 0.00 0.00 0.00 0.00 0.05 0.02 0.00 0.03 0.05 0.02 0.00 0.00 0.00 0.00 0.00 0.00 0.00 0.00 0.00 0.02 0.07 0.20 0.16 0.13 0.22 0.16 0.26 0.28 0.22 0.25 0.26 0.24 0.17 0.18 0.24 0.36 0.31 0.66 0.80 0.77 0.63 0.73 0.60 0.50 0.43 0.26 0.18 0.24
0.00 0.02 0.00 0.00 0.01 0.05 0.01 0.01 0.01 0.01 0.01 0.01 0.00 0.00 0.00 0.00 0.00 0.00 0.00 0.01 0.03 0.11 0.17 0.29 0.31 0.22 0.21 0.35 0.41 0.26 0.22 0.20 0.32 0.31 0.19 0.23 0.34 0.44 0.48 0.68 0.93 0.90 0.61 0.65 0.64 0.48 0.42 0.29 0.28
0.01 0.08 0.09 0.13 0.08 0.03 0.00 0.01 0.01 0.01 0.04 0.08 0.10 0.00 0.00 0.00 0.00 0.00 0.02 0.04 0.04 0.08 0.13 0.19 0.32 0.42 0.29 0.27 0.24 0.21 0.18 0.22 0.16 0.18 0.22 0.26 0.27 0.44 0.55 0.46 0.47 0.75 0.69 0.60 0.76 0.65 0.53 0.46 0.47
0.01 0.04 0.11 0.25 0.15 0.04 0.07 0.01 0.01 0.00 0.00 0.00 0.00 0.00 0.00 0.00 0.00 0.00 0.01 0.02 0.05 0.11 0.08 0.07 0.30 0.41 0.49 0.35 0.17 0.14 0.08 0.06 0.07 0.15 0.19 0.14 0.14 0.15 0.40 0.59 0.55 0.50 0.55 0.61 0.60 0.66 0.50 0.42 0.40
0.08 0.08 0.05 0.30 0.20 0.11 0.07 0.01 0.01 0.00 0.00 0.00 0.00 0.00 0.00 0.00 0.00 0.00 0.00 0.01 0.04 0.07 0.06 0.10 0.10 0.27 0.37 0.24 0.13 0.07 0.04 0.05 0.07 0.10 0.09 0.08 0.09 0.12 0.19 0.24 0.56 0.68 0.59 0.47 0.43 0.43 0.36 0.26 0.22
0.06 0.10 0.29 0.44 0.27 0.14 0.01 0.03 0.08 0.03 0.00 0.00 0.00 0.00 0.00 0.00 0.00 0.00 0.01 0.06 0.02 0.04 0.05 0.16 0.13 0.12 0.25 0.28 0.24 0.09 0.08 0.10 0.12 0.11 0.17 0.18 0.18 0.18 0.15 0.16 0.14 0.28 0.37 0.34 0.27 0.22 0.23 0.24 0.17
0.06 0.23 0.24 0.23 0.09 0.13 0.09 0.18 0.14 0.03 0.04 0.01 0.00 0.00 0.01 0.00 0.00 0.00 0.02 0.05 0.06 0.12 0.12 0.11 0.23 0.49 0.37 0.32 0.17 0.12 0.14 0.27 0.35 0.25 0.30 0.29 0.29 0.28 0.27 0.22 0.17 0.12 0.15 0.16 0.13 0.12 0.15 0.16 0.16
0.09 0.11 0.25 0.43 0.28 0.13 0.15 0.30 0.26 0.15 0.10 0.03 0.00 0.00 0.02 0.02 0.02 0.03 0.03 0.04 0.04 0.04 0.05 0.07 0.14 0.22 0.29 0.34 0.30 0.45 0.62 0.55 0.69 0.64 0.63 0.59 0.38 0.30 0.27 0.30 0.26 0.22 0.17 0.19 0.17 0.16 0.17 0.19 0.22

GFSSGP_prec_precacc_090.txt.gz
Total_Precipitation_Accumulation
0.00 0.00 0.00 0.00 0.00 0.00 0.00 0.00 0.00 0.00 0.03 0.09 0.09 0.18 0.14 0.20 0.34 0.58 0.52 1.04 1.61 1.61 1.87 1.49 0.69 0.34 0.06 0.02 0.01 0.01 0.00 0.00 0.00 0.00 0.00 0.03 0.03 0.05 0.06 0.07 0.01 0.01 0.05 0.04 0.02 0.03 0.05 0.08 0.03
0.00 0.00 0.00 0.00 0.00 0.00 0.00 0.00 0.00 0.01 0.11 0.30 0.29 0.33 0.32 0.81 0.55 0.55 0.59 0.66 0.44 0.51 0.54 1.99 2.15 0.97 0.44 0.19 0.09 0.06 0.01 0.00 0.04 0.01 0.01 0.01 0.02 0.06 0.17 0.23 0.08 0.03 0.08 0.05 0.04 0.08 0.08 0.06 0.01
0.00 0.00 0.00 0.00 0.00 0.00 0.00 0.00 0.02 0.06 0.11 0.13 0.18 0.23 0.45 1.30 0.80 0.71 0.68 0.88 1.03 0.91 0.75 0.68 1.21 1.44 1.09 0.50 0.31 0.19 0.05 0.00 0.02 0.01 0.01 0.01 0.07 0.18 0.23 0.29 0.16 0.08 0.14 0.14 0.15 0.22 0.13 0.02 0.01
0.00 0.00 0.00 0.00 0.00 0.00 0.00 0.01 0.03 0.06 0.08 0.07 0.08 0.29 0.57 0.94 0.81 0.78 0.77 1.46 2.11 1.96 1.71 1.50 1.37 1.12 1.43 1.21 0.95 0.50 0.10 0.02 0.06 0.03 0.12 0.18 0.39 0.39 0.31 0.24 0.29 0.32 0.33 0.37 0.38 0.46 0.20 0.01 0.00
0.00 0.00 0.00 0.00 0.00 0.00 0.00 0.01 0.06 0.17 0.42 0.40 0.11 0.39 0.75 0.59 0.47 0.81 1.34 2.01 2.56 3.10 3.53 2.28 3.25 2.60 2.34 1.84 1.63 1.48 0.95 0.21 0.27 0.20 0.30 0.42 0.37 0.38 0.44 0.53 0.56 0.77 0.82 0.76 0.71 0.55 0.30 0.01 0.00
0.00 0.00 0.00 0.00 0.00 0.00 0.01 0.06 0.15 0.25 0.28 0.19 0.16 0.53 0.88 0.64 0.53 1.01 1.30 2.49 3.73 2.91 3.59 3.53 4.68 6.45 4.68 3.18 2.77 2.90 2.60 1.90 0.99 0.70 0.70 1.08 1.35 1.25 0.89 0.71 0.76 0.94 1.11 0.98 0.66 0.49 0.26 0.05 0.01
0.00 0.00 0.00 0.00 0.00 0.01 0.11 0.16 0.19 0.18 0.11 0.24 0.42 0.88 1.01 0.64 0.78 0.94 1.77 3.63 5.41 6.22 6.41 5.89 5.76 6.76 6.41 5.77 4.50 4.04 4.09 5.35 4.84 2.96 2.30 2.42 1.91 1.44 1.08 0.76 0.59 0.42 0.39 0.70 0.61 0.40 0.36 0.20 0.17
0.00 0.00 0.00 0.00 0.00 0.07 0.19 0.23 0.15 0.10 0.17 0.53 0.24 0.70 0.67 1.00 0.91 0.81 1.11 2.50 4.32 7.45 8.55 8.07 7.93 7.67 5.09 4.67 4.31 3.63 4.52 3.66 4.86 4.66 3.60 2.21 1.72 1.30 0.82 0.66 0.48 0.40 0.29 0.24 0.24 0.40 0.38 0.34 0.17
0.00 0.00 0.00 0.00 0.01 0.15 0.23 0.08 0.24 0.13 0.11 0.27 0.31 0.50 0.60 0.85 0.55 0.66 0.70 1.38 2.34 3.94 4.55 5.00 6.24 6.73 6.11 4.38 3.27 2.65 3.21 5.14 2.71 2.79 2.83 2.70 1.50 1.20 0.85 0.63 0.60 0.55 0.36 0.18 0.27 0.23 0.19 0.20 0.19
0.00 0.00 0.00 0.00 0.06 0.24 0.13 0.03 0.19 0.09 0.19 0.54 0.38 0.72 0.66 0.43 0.46 0.57 0.60 0.69 1.07 1.57 2.86 3.26 2.93 2.28 2.38 2.35 2.28 1.91 2.48 4.08 3.59 2.49 1.76 1.19 1.32 0.77 0.60 0.78 0.64 0.78 0.63 0.66 0.55 0.22 0.16 0.18 0.10
0.00 0.00 0.00 0.02 0.11 0.04 0.02 0.07 0.10 0.32 0.45 0.52 1.13 0.48 0.41 0.49 0.56 0.68 0.93 0.50 0.51 0.78 1.43 1.56 1.27 0.97 0.77 0.66 0.85 1.17 2.21 2.61 3.08 2.09 1.60 0.99 0.92 0.78 0.39 0.36 0.60 0.74 0.97 0.70 0.50 0.23 0.22 0.19 0.11
0.00 0.00 0.00 0.01 0.01 0.01 0.00 0.01 0.11 0.35 0.80 0.30 0.32 0.38 0.47 0.75 0.62 0.28 0.23 0.27 0.40 0.54 0.78 0.76 0.59 0.48 0.31 0.25 0.40 0.62 1.15 2.24 1.93 1.94 1.55 1.16 0.53 0.58 0.27 0.13 0.21 0.49 0.56 0.59 0.42 0.21 0.25 0.20 0.16
0.00 0.00 0.00 0.01 0.04 0.03 0.00 0.04 0.12 0.30 0.11 0.11 0.16 0.38 0.55 0.56 0.17 0.08 0.15 0.16 0.25 0.46 0.45 0.54 0.48 0.28 0.15 0.11 0.18 0.39 0.64 1.94 1.27 2.00 1.33 1.13 0.29 0.37 0.24 0.15 0.19 0.31 0.58 0.44 0.44 0.41 0.33 0.26 0.23
0.00 0.00 0.00 0.00 0.01 0.01 0.02 0.05 0.09 0.39 0.12 0.12 0.12 0.32 0.56 0.58 0.09 0.04 0.07 0.11 0.16 0.31 0.42 0.44 0.41 0.36 0.24 0.12 0.08 0.22 0.58 1.17 1.21 1.85 1.08 1.25 0.34 0.33 0.28 0.20 0.28 0.22 0.50 0.49 0.42 0.43 0.41 0.33 0.24
0.00 0.00 0.02 0.03 0.01 0.00 0.05 0.19 0.35 0.13 0.08 0.07 0.03 0.04 0.36 0.86 0.24 0.04 0.03 0.05 0.06 0.19 0.32 0.54 0.62 0.41 0.29 0.23 0.28 0.45 0.71 0.87 0.76 1.21 0.97 1.19 0.45 0.29 0.29 0.35 0.36 0.16 0.19 0.64 0.62 0.53 0.57 0.56 0.23
0.00 0.00 0.01 0.04 0.03 0.02 0.15 0.48 0.05 0.03 0.05 0.04 0.01 0.01 0.06 0.10 0.03 0.01 0.01 0.00 0.01 0.05 0.22 0.57 0.75 0.77 0.61 0.51 0.51 0.86 0.78 0.74 0.70 0.92 0.76 0.81 0.57 0.24 0.23 0.31 0.31 0.19 0.16 0.29 0.68 0.61 0.46 0.69 0.42
0.00 0.00 0.00 0.01 0.01 0.01 0.05 0.33 0.12 0.05 0.09 0.08 0.02 0.01 0.01 0.01 0.01 0.00 0.03 0.02 0.05 0.03 0.10 0.54 0.92 1.07 0.98 0.70 0.97 0.64 0.27 0.43 0.53 0.71 0.63 0.75 0.60 0.29 0.33 0.39 0.41 0.22 0.17 0.14 0.34 0.69 0.46 0.46 0.39
0.00 0.00 0.00 0.02 0.02 0.01 0.01 0.03 0.25 0.12 0.05 0.27 0.09 0.04 0.04 0.00 0.01 0.03 0.07 0.07 0.07 0.05 0.11 0.52 1.15 1.24 1.03 0.62 0.43 0.36 0.26 0.39 0.44 0.66 0.67 0.79 0.55 0.31 0.57 0.56 0.38 0.25 0.18 0.15 0.16 0.41 0.51 0.30 0.31
0.00 0.00 0.00 0.00 0.01 0.00 0.00 0.01 0.01 0.00 0.00 0.03 0.05 0.07 0.02 0.00 0.03 0.05 0.07 0.09 0.07 0.08 0.19 0.43 0.82 1.15 0.63 0.37 0.23 0.31 0.36 0.36 0.33 0.40 0.68 0.94 0.74 0.56 0.62 0.88 0.48 0.27 0.18 0.15 0.09 0.14 0.32 0.33 0.32
0.00 0.00 0.00 0.00 0.00 0.00 0.00 0.00 0.00 0.00 0.00 0.01 0.01 0.11 0.03 0.00 0.01 0.02 0.04 0.03 0.04 0.11 0.36 0.45 0.40 0.44 0.40 0.30 0.19 0.15 0.24 0.33 0.21 0.23 0.37 0.70 0.89 0.82 0.68 0.79 0.81 0.48 0.28 0.25 0.21 0.15 0.17 0.22 0.25
0.00 0.00 0.00 0.00 0.00 0.00 0.00 0.00 0.00 0.01 0.01 0.02 0.00 0.00 0.00 0.00 0.02 0.03 0.03 0.03 0.01 0.02 0.18 0.19 0.09 0.13 0.21 0.29 0.27 0.25 0.31 0.36 0.41 0.29 0.31 0.45 0.76 1.02 0.86 0.53 0.91 0.90 0.47 0.30 0.28 0.23 0.13 0.10 0.23
0.00 0.00 0.00 0.00 0.00 0.00 0.00 0.00 0.00 0.00 0.01 0.00 0.00 0.00 0.00 0.00 0.00 0.00 0.00 0.00 0.01 0.06 0.25 0.12 0.11 0.13 0.12 0.14 0.15 0.18 0.28 0.23 0.20 0.21 0.16 0.33 0.34 0.69 1.03 0.81 0.59 0.94 0.74 0.49 0.39 0.40 0.26 0.19 0.21
0.01 0.00 0.00 0.00 0.00 0.05 0.02 0.00 0.03 0.05 0.02 0.00 0.00 0.00 0.00 0.00 0.00 0.00 0.00 0.00 0.02 0.07 0.20 0.16 0.13 0.22 0.16 0.26 0.28 0.22 0.25 0.26 0.24 0.17 0.18 0.25 0.36 0.31 0.67 0.82 0.79 0.64 0.75 0.64 0.59 0.68 0.54 0.30 0.31
0.00 0.02 0.00 0.00 0.01 0.05 0.01 0.01 0.01 0.01 0.02 0.02 0.00 0.00 0.00 0.00 0.00 0.00 0.00 0.01 0.03 0.11 0.17 0.29 0.31 0.22 0.21 0.35 0.41 0.26 0.22 0.20 0.32 0.31 0.20 0.24 0.34 0.44 0.48 0.68 0.93 0.93 0.65 0.73 0.72 0.60 0.65 0.46 0.40
0.01 0.08 0.09 0.14 0.09 0.03 0.00 0.01 0.01 0.02 0.05 0.08 0.10 0.00 0.00 0.00 0.00 0.00 0.02 0.04 0.04 0.08 0.13 0.19 0.32 0.42 0.29 0.27 0.24 0.21 0.18 0.22 0.16 0.18 0.22 0.26 0.27 0.44 0.56 0.46 0.47 0.80 0.83 0.74 0.92 0.86 0.73 0.63 0.62
0.01 0.04 0.12 0.26 0.15 0.06 0.11 0.04 0.02 0.00 0.01 0.00 0.00 0.00 0.00 0.00 0.00 0.00 0.01 0.02 0.05 0.11 0.08 0.07 0.30 0.41 0.49 0.35 0.17 0.14 0.08 0.06 0.07 0.15 0.20 0.14 0.14 0.15 0.40 0.59 0.55 0.52 0.66 0.81 0.83 0.98 0.81 0.62 0.55
0.08 0.09 0.05 0.31 0.20 0.11 0.11 0.04 0.10 0.05 0.00 0.00 0.00 0.00 0.00 0.00 0.00 0.00 0.00 0.02 0.05 0.07 0.07 0.13 0.14 0.27 0.38 0.24 0.13 0.07 0.04 0.05 0.07 0.10 0.09 0.08 0.09 0.12 0.20 0.24 0.56 0.68 0.62 0.57 0.63 0.70 0.76 0.52 0.38
0.06 0.10 0.31 0.46 0.28 0.15 0.01 0.03 0.15 0.26 0.03 0.00 0.00 0.00 0.00 0.00 0.00 0.00 0.01 0.10 0.06 0.05 0.10 0.25 0.20 0.13 0.26 0.28 0.25 0.09 0.08 0.11 0.12 0.12 0.18 0.18 0.18 0.19 0.15 0.16 0.14 0.28 0.37 0.40 0.38 0.41 0.53 0.51 0.35
0.06 0.25 0.28 0.27 0.10 0.16 0.11 0.27 0.42 0.16 0.12 0.02 0.00 0.00 0.01 0.00 0.00 0.01 0.02 0.09 0.09 0.15 0.13 0.11 0.31 0.52 0.38 0.33 0.19 0.14 0.15 0.28 0.35 0.25 0.31 0.29 0.30 0.29 0.27 0.22 0.17 0.12 0.15 0.18 0.18 0.19 0.34 0.41 0.36
0.11 0.12 0.27 0.48 0.30 0.15 0.16 0.38 0.64 0.28 0.12 0.03 0.00 0.00 0.02 0.02 0.02 0.03 0.04 0.04 0.06 0.07 0.07 0.08 0.16 0.23 0.31 0.38 0.35 0.48 0.63 0.56 0.69 0.64 0.63 0.59 0.39 0.30 0.28 0.30 0.26 0.23 0.17 0.19 0.18 0.17 0.21 0.31 0.32

GFSSGP_prec_precacc_093.txt.gz
Total_Precipitation_Accumulation
0.00 0.00 0.00 0.00 0.00 0.00 0.00 0.00 0.00 0.00 0.03 0.09 0.09 0.18 0.14 0.20 0.34 0.58 0.52 1.04 1.61 1.61 1.87 1.49 0.69 0.34 0.06 0.02 0.01 0.01 0.00 0.00 0.00 0.00 0.00 0.03 0.03 0.05 0.06 0.07 0.01 0.01 0.06 0.05 0.02 0.03 0.10 0.13 0.04
0.00 0.00 0.00 0.00 0.00 0.00 0.00 0.00 0.00 0.01 0.11 0.30 0.29 0.33 0.32 0.81 0.55 0.55 0.59 0.66 0.44 0.51 0.54 1.99 2.15 0.97 0.44 0.19 0.09 0.06 0.01 0.00 0.04 0.01 0.01 0.01 0.02 0.07 0.18 0.24 0.09 0.04 0.09 0.11 0.05 0.10 0.09 0.06 0.02
0.00 0.00 0.00 0.00 0.00 0.00 0.00 0.00 0.02 0.06 0.11 0.13 0.18 0.23 0.45 1.30 0.80 0.71 0.68 0.88 1.03 0.91 0.75 0.68 1.21 1.44 1.09 0.50 0.31 0.19 0.05 0.00 0.02 0.01 0.01 0.01 0.07 0.19 0.24 0.30 0.16 0.09 0.25 0.41 0.36 0.31 0.14 0.02 0.01
0.00 0.00 0.00 0.00 0.00 0.00 0.00 0.01 0.03 0.06 0.08 0.07 0.08 0.29 0.57 0.94 0.81 0.78 0.77 1.46 2.11 1.96 1.71 1.50 1.37 1.12 1.43 1.21 0.95 0.50 0.10 0.02 0.06 0.03 0.12 0.18 0.40 0.41 0.31 0.24 0.32 0.42 0.61 0.69 0.68 0.67 0.29 0.01 0.00
0.00 0.00 0.00 0.00 0.00 0.00 0.00 0.01 0.06 0.17 0.42 0.40 0.11 0.39 0.75 0.59 0.47 0.81 1.34 2.01 2.56 3.10 3.53 2.28 3.25 2.60 2.34 1.84 1.63 1.48 0.95 0.21 0.27 0.20 0.30 0.42 0.39 0.40 0.45 0.53 0.62 0.93 1.02 0.91 0.82 0.71 0.50 0.09 0.03
0.00 0.00 0.00 0.00 0.00 0.00 0.01 0.06 0.15 0.25 0.28 0.19 0.16 0.53 0.88 0.64 0.53 1.01 1.30 2.49 3.73 2.91 3.59 3.53 4.68 6.45 4.68 3.18 2.77 2.90 2.60 1.90 1.00 0.71 0.70 1.08 1.37 1.26 0.91 0.75 0.84 0.99 1.12 0.98 0.66 0.53 0.45 0.27 0.14
0.00 0.00 0.00 0.00 0.00 0.01 0.11 0.16 0.19 0.18 0.11 0.24 0.42 0.88 1.01 0.64 0.78 0.94 1.77 3.63 5.41 6.22 6.41 5.89 5.76 6.76 6.41 5.77 4.50 4.04 4.09 5.35 4.85 2.96 2.30 2.43 1.92 1.46 1.10 0.80 0.65 0.43 0.39 0.70 0.62 0.41 0.40 0.26 0.27
0.00 0.00 0.00 0.00 0.00 0.07 0.19 0.23 0.15 0.10 0.17 0.53 0.24 0.70 0.67 1.00 0.91 0.81 1.11 2.50 4.32 7.45 8.55 8.07 7.93 7.67 5.09 4.67 4.31 3.63 4.52 3.66 4.86 4.66 3.60 2.21 1.72 1.31 0.82 0.66 0.48 0.40 0.29 0.24 0.24 0.40 0.38 0.34 0.18
0.00 0.00 0.00 0.00 0.01 0.15 0.23 0.08 0.24 0.13 0.11 0.27 0.31 0.50 0.60 0.85 0.55 0.66 0.70 1.38 2.34 3.94 4.55 5.00 6.24 6.73 6.11 4.38 3.27 2.65 3.21 5.14 2.71 2.79 2.83 2.70 1.50 1.20 0.85 0.63 0.60 0.55 0.36 0.18 0.28 0.23 0.19 0.20 0.19
0.00 0.00 0.00 0.00 0.06 0.24 0.13 0.03 0.19 0.09 0.19 0.54 0.38 0.72 0.66 0.43 0.46 0.57 0.60 0.69 1.07 1.57 2.86 3.26 2.93 2.28 2.38 2.35 2.28 1.91 2.48 4.08 3.59 2.49 1.76 1.19 1.32 0.77 0.60 0.78 0.65 0.78 0.63 0.66 0.59 0.29 0.21 0.19 0.10
0.00 0.00 0.00 0.02 0.11 0.04 0.02 0.07 0.10 0.32 0.45 0.52 1.13 0.48 0.41 0.49 0.56 0.68 0.93 0.50 0.51 0.78 1.43 1.56 1.27 0.97 0.77 0.66 0.85 1.17 2.21 2.61 3.08 2.09 1.60 0.99 0.92 0.78 0.39 0.36 0.65 0.79 0.97 0.70 0.52 0.26 0.28 0.24 0.14
0.00 0.00 0.00 0.01 0.01 0.01 0.00 0.01 0.11 0.35 0.80 0.30 0.32 0.38 0.47 0.75 0.62 0.28 0.23 0.27 0.40 0.54 0.78 0.76 0.59 0.48 0.31 0.25 0.40 0.62 1.15 2.24 1.93 1.94 1.55 1.16 0.53 0.58 0.27 0.18 0.34 0.60 0.59 0.59 0.43 0.22 0.29 0.31 0.26
0.00 0.00 0.00 0.01 0.04 0.03 0.00 0.04 0.12 0.30 0.11 0.11 0.16 0.38 0.55 0.56 0.17 0.08 0.15 0.16 0.25 0.46 0.45 0.54 0.48 0.28 0.15 0.11 0.18 0.39 0.64 1.94 1.27 2.00 1.33 1.13 0.29 0.41 0.36 0.40 0.36 0.38 0.63 0.47 0.47 0.42 0.34 0.27 0.35
0.00 0.00 0.00 0.00 0.01 0.01 0.02 0.05 0.09 0.39 0.12 0.12 0.12 0.32 0.56 0.58 0.09 0.04 0.07 0.11 0.16 0.31 0.42 0.44 0.41 0.36 0.24 0.12 0.08 0.22 0.58 1.17 1.21 1.85 1.08 1.25 0.34 0.35 0.35 0.43 0.50 0.32 0.56 0.56 0.49 0.44 0.41 0.33 0.31
0.00 0.00 0.02 0.03 0.01 0.00 0.05 0.19 0.35 0.13 0.08 0.07 0.03 0.04 0.36 0.86 0.24 0.04 0.03 0.05 0.06 0.19 0.32 0.54 0.62 0.41 0.29 0.23 0.28 0.45 0.71 0.87 0.76 1.21 0.97 1.19 0.45 0.30 0.35 0.54 0.58 0.25 0.26 0.72 0.66 0.54 0.57 0.57 0.28
0.00 0.00 0.01 0.04 0.03 0.02 0.15 0.48 0.05 0.03 0.05 0.04 0.01 0.01 0.06 0.10 0.03 0.01 0.01 0.00 0.01 0.05 0.22 0.57 0.75 0.77 0.61 0.51 0.51 0.86 0.78 0.74 0.70 0.92 0.76 0.81 0.57 0.24 0.24 0.34 0.38 0.21 0.20 0.34 0.74 0.63 0.48 0.73 0.55
0.00 0.00 0.00 0.01 0.01 0.01 0.05 0.33 0.12 0.05 0.09 0.08 0.02 0.01 0.01 0.01 0.01 0.00 0.03 0.02 0.05 0.03 0.10 0.54 0.92 1.07 0.98 0.70 0.97 0.64 0.27 0.43 0.53 0.71 0.63 0.75 0.60 0.29 0.33 0.39 0.42 0.25 0.18 0.17 0.39 0.71 0.48 0.53 0.78
0.00 0.00 0.00 0.02 0.02 0.01 0.01 0.03 0.25 0.12 0.05 0.27 0.09 0.04 0.04 0.00 0.01 0.03 0.07 0.07 0.07 0.05 0.11 0.52 1.15 1.24 1.03 0.63 0.43 0.36 0.26 0.39 0.44 0.66 0.67 0.79 0.55 0.31 0.57 0.56 0.38 0.28 0.21 0.18 0.17 0.42 0.54 0.39 0.60
0.00 0.00 0.00 0.00 0.01 0.00 0.00 0.01 0.01 0.00 0.00 0.03 0.05 0.07 0.02 0.00 0.03 0.05 0.07 0.09 0.07 0.08 0.19 0.43 0.83 1.15 0.63 0.37 0.23 0.31 0.36 0.36 0.33 0.40 0.68 0.94 0.74 0.56 0.62 0.88 0.49 0.28 0.18 0.15 0.10 0.14 0.32 0.40 0.55
0.00 0.00 0.00 0.00 0.00 0.00 0.00 0.00 0.00 0.00 0.00 0.01 0.01 0.11 0.03 0.00 0.01 0.02 0.04 0.03 0.04 0.11 0.36 0.45 0.40 0.44 0.40 0.30 0.19 0.15 0.24 0.33 0.21 0.23 0.37 0.70 0.89 0.82 0.68 0.80 0.83 0.50 0.29 0.26 0.22 0.15 0.17 0.25 0.47
0.00 0.00 0.00 0.00 0.00 0.00 0.00 0.00 0.00 0.01 0.01 0.02 0.00 0.00 0.00 0.00 0.02 0.03 0.03 0.03 0.01 0.02 0.18 0.19 0.09 0.13 0.21 0.29 0.27 0.25 0.31 0.36 0.41 0.29 0.31 0.45 0.76 1.02 0.86 0.54 0.92 0.91 0.48 0.31 0.30 0.24 0.14 0.12 0.36
0.00 0.00 0.00 0.00 0.00 0.00 0.00 0.00 0.00 0.00 0.01 0.00 0.00 0.00 0.00 0.00 0.00 0.00 0.00 0.00 0.01 0.06 0.25 0.12 0.11 0.13 0.12 0.14 0.15 0.18 0.28 0.23 0.20 0.21 0.16 0.33 0.34 0.69 1.04 0.82 0.60 0.95 0.75 0.50 0.41 0.42 0.28 0.21 0.26
0.01 0.00 0.00 0.00 0.00 0.05 0.02 0.00 0.03 0.05 0.02 0.00 0.01 0.00 0.00 0.00 0.00 0.00 0.00 0.00 0.02 0.07 0.20 0.16 0.13 0.22 0.16 0.26 0.28 0.22 0.25 0.26 0.24 0.17 0.18 0.25 0.37 0.32 0.67 0.83 0.80 0.65 0.77 0.66 0.61 0.70 0.60 0.39 0.34
0.00 0.02 0.00 0.00 0.01 0.05 0.01 0.01 0.01 0.01 0.02 0.03 0.05 0.03 0.01 0.00 0.00 0.00 0.00 0.01 0.03 0.11 0.17 0.29 0.31 0.22 0.21 0.36 0.41 0.26 0.22 0.20 0.32 0.31 0.20 0.24 0.34 0.44 0.48 0.69 0.94 0.93 0.66 0.74 0.77 0.66 0.71 0.59 0.53
0.01 0.08 0.10 0.14 0.09 0.03 0.00 0.01 0.01 0.02 0.07 0.14 0.16 0.02 0.02 0.00 0.00 0.00 0.02 0.04 0.04 0.08 0.13 0.20 0.33 0.42 0.29 0.28 0.24 0.22 0.18 0.22 0.16 0.18 0.22 0.26 0.27 0.45 0.56 0.46 0.47 0.80 0.84 0.77 0.98 0.94 0.79 0.70 0.76
0.01 0.05 0.13 0.26 0.16 0.06 0.13 0.06 0.03 0.07 0.09 0.05 0.01 0.01 0.00 0.00 0.00 0.00 0.01 0.02 0.05 0.11 0.08 0.08 0.35 0.49 0.53 0.43 0.19 0.15 0.09 0.07 0.07 0.15 0.20 0.14 0.14 0.15 0.40 0.59 0.55 0.52 0.67 0.85 1.01 1.23 1.02 0.74 0.65
0.08 0.10 0.07 0.35 0.21 0.11 0.11 0.04 0.11 0.35 0.33 0.25 0.01 0.00 0.00 0.00 0.00 0.00 0.00 0.02 0.05 0.09 0.16 0.20 0.23 0.32 0.54 0.33 0.14 0.09 0.05 0.05 0.07 0.10 0.09 0.08 0.09 0.12 0.20 0.24 0.56 0.68 0.62 0.61 0.81 1.00 0.99 0.72 0.55
0.06 0.11 0.36 0.52 0.32 0.15 0.01 0.03 0.17 0.34 0.41 0.23 0.01 0.00 0.00 0.00 0.00 0.00 0.01 0.11 0.08 0.13 0.34 0.62 0.57 0.39 0.44 0.38 0.29 0.12 0.12 0.13 0.12 0.12 0.18 0.18 0.18 0.19 0.15 0.16 0.14 0.28 0.37 0.41 0.47 0.58 0.73 0.76 0.53
0.09 0.26 0.30 0.31 0.12 0.17 0.13 0.32 0.53 0.47 0.52 0.18 0.01 0.00 0.01 0.00 0.00 0.01 0.02 0.10 0.10 0.20 0.21 0.25 0.50 0.70 0.57 0.43 0.20 0.18 0.18 0.30 0.36 0.26 0.31 0.29 0.30 0.29 0.27 0.22 0.17 0.12 0.15 0.18 0.21 0.26 0.52 0.64 0.66
0.16 0.22 0.32 0.51 0.32 0.16 0.17 0.41 0.83 0.63 0.26 0.32 0.02 0.00 0.02 0.02 0.02 0.03 0.04 0.05 0.07 0.09 0.11 0.13 0.20 0.27 0.39 0.43 0.39 0.55 0.66 0.58 0.70 0.65 0.64 0.60 0.39 0.30 0.28 0.30 0.26 0.23 0.17 0.19 0.19 0.19 0.35 0.53 0.68

GFSSGP_prec_precacc_096.txt.gz
Total_Precipitation_Accumulation
0.00 0.00 0.00 0.00 0.00 0.00 0.00 0.00 0.00 0.00 0.03 0.09 0.09 0.18 0.14 0.20 0.34 0.58 0.52 1.04 1.61 1.61 1.87 1.49 0.69 0.34 0.06 0.02 0.01 0.01 0.00 0.00 0.00 0.00 0.00 0.03 0.03 0.05 0.06 0.07 0.01 0.01 0.06 0.05 0.03 0.08 0.17 0.18 0.05
0.00 0.00 0.00 0.00 0.00 0.00 0.00 0.00 0.00 0.01 0.11 0.30 0.29 0.33 0.32 0.81 0.55 0.55 0.59 0.66 0.44 0.51 0.54 1.99 2.15 0.97 0.44 0.19 0.09 0.06 0.01 0.00 0.04 0.01 0.01 0.01 0.02 0.07 0.18 0.24 0.09 0.04 0.11 0.13 0.09 0.14 0.15 0.08 0.02
0.00 0.00 0.00 0.00 0.00 0.00 0.00 0.00 0.02 0.06 0.11 0.13 0.18 0.23 0.45 1.30 0.80 0.71 0.68 0.88 1.03 0.91 0.75 0.68 1.21 1.44 1.09 0.50 0.31 0.19 0.05 0.00 0.02 0.01 0.01 0.01 0.07 0.20 0.24 0.30 0.17 0.10 0.31 0.60 0.55 0.50 0.20 0.03 0.01
0.00 0.00 0.00 0.00 0.00 0.00 0.00 0.01 0.03 0.06 0.08 0.07 0.08 0.29 0.57 0.94 0.81 0.78 0.77 1.46 2.11 1.96 1.71 1.50 1.37 1.12 1.43 1.21 0.95 0.50 0.10 0.02 0.06 0.03 0.12 0.18 0.40 0.41 0.32 0.25 0.35 0.47 0.66 0.76 0.80 0.85 0.32 0.01 0.02
0.00 0.00 0.00 0.00 0.00 0.00 0.00 0.01 0.06 0.17 0.42 0.40 0.11 0.39 0.75 0.59 0.47 0.81 1.34 2.01 2.56 3.10 3.53 2.28 3.25 2.60 2.34 1.84 1.63 1.48 0.95 0.21 0.27 0.20 0.30 0.42 0.39 0.40 0.45 0.55 0.68 0.96 1.03 0.91 0.83 0.73 0.50 0.09 0.04
0.00 0.00 0.00 0.00 0.00 0.00 0.01 0.06 0.15 0.25 0.28 0.19 0.16 0.53 0.88 0.64 0.53 1.01 1.30 2.49 3.73 2.91 3.59 3.53 4.68 6.45 4.68 3.18 2.77 2.90 2.60 1.90 1.00 0.71 0.71 1.08 1.37 1.26 0.91 0.76 0.87 1.00 1.12 0.98 0.66 0.53 0.45 0.27 0.14
0.00 0.00 0.00 0.00 0.00 0.01 0.11 0.16 0.19 0.18 0.11 0.24 0.42 0.88 1.01 0.64 0.78 0.94 1.77 3.63 5.41 6.22 6.41 5.89 5.76 6.76 6.41 5.77 4.50 4.04 4.09 5.35 4.85 2.97 2.31 2.43 1.92 1.46 1.10 0.81 0.65 0.43 0.39 0.70 0.62 0.42 0.40 0.26 0.27
0.00 0.00 0.00 0.00 0.00 0.07 0.19 0.23 0.15 0.10 0.17 0.53 0.24 0.70 0.67 1.00 0.91 0.81 1.11 2.50 4.32 7.45 8.55 8.07 7.93 7.67 5.09 4.67 4.31 3.63 4.52 3.66 4.87 4.67 3.60 2.21 1.72 1.31 0.82 0.66 0.48 0.40 0.29 0.24 0.24 0.40 0.38 0.34 0.18
0.00 0.00 0.00 0.00 0.01 0.15 0.23 0.08 0.24 0.13 0.11 0.27 0.31 0.50 0.60 0.85 0.55 0.66 0.70 1.38 2.34 3.94 4.55 5.00 6.24 6.73 6.11 4.38 3.27 2.65 3.21 5.14 2.71 2.79 2.83 2.70 1.50 1.20 0.85 0.63 0.60 0.58 0.44 0.18 0.28 0.23 0.19 0.20 0.19
0.00 0.00 0.00 0.00 0.06 0.24 0.13 0.03 0.19 0.09 0.19 0.54 0.38 0.72 0.66 0.43 0.46 0.57 0.60 0.69 1.07 1.57 2.86 3.26 2.93 2.28 2.38 2.35 2.28 1.91 2.48 4.08 3.59 2.49 1.76 1.19 1.32 0.77 0.60 0.78 0.65 0.87 0.70 0.66 0.59 0.29 0.21 0.19 0.12
0.00 0.00 0.00 0.02 0.11 0.04 0.02 0.07 0.10 0.32 0.45 0.52 1.13 0.48 0.41 0.49 0.56 0.68 0.93 0.50 0.51 0.78 1.43 1.56 1.27 0.97 0.77 0.66 0.85 1.17 2.21 2.61 3.08 2.09 1.60 0.99 0.92 0.78 0.39 0.36 0.65 0.82 1.01 0.72 0.52 0.26 0.28 0.24 0.19
0.00 0.00 0.00 0.01 0.01 0.01 0.00 0.01 0.11 0.35 0.80 0.30 0.32 0.38 0.47 0.75 0.62 0.28 0.23 0.27 0.40 0.54 0.78 0.76 0.59 0.48 0.31 0.25 0.40 0.62 1.15 2.24 1.93 1.94 1.55 1.16 0.53 0.58 0.27 0.18 0.36 0.65 0.63 0.70 0.46 0.24 0.29 0.31 0.29
0.00 0.00 0.00 0.01 0.04 0.03 0.00 0.04 0.12 0.30 0.11 0.11 0.16 0.38 0.55 0.56 0.17 0.08 0.15 0.16 0.25 0.46 0.45 0.54 0.48 0.28 0.15 0.11 0.18 0.39 0.64 1.94 1.27 2.00 1.33 1.13 0.29 0.41 0.36 0.41 0.39 0.43 0.65 0.54 0.49 0.47 0.36 0.28 0.35
0.00 0.00 0.00 0.00 0.01 0.01 0.02 0.05 0.09 0.39 0.12 0.12 0.12 0.32 0.56 0.58 0.09 0.04 0.07 0.11 0.16 0.31 0.42 0.44 0.41 0.36 0.24 0.12 0.08 0.22 0.58 1.17 1.21 1.85 1.08 1.25 0.34 0.35 0.35 0.43 0.52 0.36 0.63 0.66 0.57 0.51 0.47 0.34 0.32
0.00 0.00 0.02 0.03 0.01 0.00 0.05 0.19 0.35 0.13 0.08 0.07 0.03 0.04 0.36 0.86 0.24 0.04 0.03 0.05 0.06 0.19 0.32 0.55 0.62 0.42 0.30 0.23 0.28 0.45 0.71 0.87 0.76 1.21 0.97 1.19 0.45 0.30 0.35 0.55 0.60 0.29 0.37 0.91 0.82 0.61 0.61 0.59 0.30
0.00 0.00 0.01 0.04 0.03 0.02 0.15 0.48 0.05 0.03 0.05 0.04 0.01 0.01 0.06 0.10 0.03 0.01 0.01 0.00 0.01 0.05 0.22 0.57 0.75 0.77 0.65 0.53 0.51 0.86 0.78 0.74 0.70 0.92 0.76 0.81 0.57 0.24 0.24 0.34 0.38 0.23 0.30 0.54 0.94 0.75 0.53 0.75 0.55
0.00 0.00 0.00 0.01 0.01 0.01 0.05 0.33 0.12 0.05 0.09 0.08 0.02 0.01 0.01 0.01 0.01 0.00 0.03 0.02 0.05 0.03 0.10 0.54 0.92 1.07 0.99 0.72 0.98 0.67 0.27 0.43 0.53 0.71 0.63 0.75 0.60 0.29 0.33 0.39 0.42 0.25 0.22 0.29 0.55 0.82 0.54 0.56 0.79
0.00 0.00 0.00 0.02 0.02 0.01 0.01 0.03 0.25 0.12 0.05 0.27 0.09 0.04 0.04 0.00 0.01 0.03 0.07 0.07 0.07 0.05 0.11 0.52 1.15 1.24 1.07 0.67 0.47 0.43 0.27 0.39 0.44 0.66 0.67 0.79 0.55 0.31 0.57 0.56 0.38 0.28 0.22 0.22 0.21 0.46 0.56 0.40 0.63
0.00 0.00 0.00 0.00 0.01 0.00 0.00 0.01 0.01 0.00 0.00 0.03 0.05 0.07 0.02 0.00 0.03 0.05 0.07 0.09 0.07 0.08 0.19 0.43 0.83 1.16 0.65 0.37 0.24 0.33 0.36 0.36 0.33 0.40 0.68 0.94 0.74 0.56 0.62 0.88 0.49 0.28 0.18 0.16 0.12 0.15 0.33 0.41 0.57
0.00 0.00 0.00 0.00 0.00 0.00 0.00 0.00 0.00 0.00 0.00 0.01 0.01 0.11 0.03 0.00 0.01 0.02 0.04 0.03 0.04 0.11 0.36 0.45 0.40 0.44 0.41 0.31 0.22 0.19 0.25 0.34 0.22 0.23 0.37 0.70 0.89 0.82 0.68 0.80 0.83 0.50 0.29 0.27 0.22 0.16 0.18 0.25 0.47
0.00 0.00 0.00 0.00 0.00 0.00 0.00 0.00 0.00 0.01 0.01 0.02 0.00 0.00 0.00 0.00 0.02 0.03 0.03 0.03 0.01 0.02 0.18 0.19 0.09 0.13 0.23 0.32 0.31 0.30 0.36 0.38 0.41 0.29 0.31 0.45 0.76 1.02 0.86 0.54 0.92 0.92 0.49 0.32 0.30 0.25 0.14 0.12 0.36
0.00 0.00 0.00 0.00 0.00 0.00 0.00 0.00 0.00 0.00 0.01 0.00 0.00 0.00 0.00 0.00 0.00 0.00 0.00 0.00 0.01 0.06 0.25 0.12 0.11 0.13 0.12 0.14 0.15 0.18 0.28 0.23 0.20 0.21 0.16 0.33 0.34 0.70 1.04 0.82 0.60 0.96 0.77 0.52 0.43 0.45 0.31 0.22 0.26
0.01 0.00 0.00 0.00 0.00 0.05 0.02 0.00 0.03 0.05 0.02 0.00 0.01 0.01 0.01 0.01 0.00 0.00 0.00 0.00 0.02 0.07 0.20 0.16 0.13 0.22 0.16 0.27 0.29 0.23 0.25 0.26 0.24 0.17 0.18 0.25 0.37 0.33 0.68 0.83 0.81 0.66 0.78 0.69 0.64 0.76 0.66 0.43 0.35
0.00 0.02 0.00 0.00 0.01 0.05 0.01 0.01 0.01 0.01 0.02 0.04 0.09 0.09 0.06 0.05 0.02 0.01 0.00 0.01 0.03 0.11 0.20 0.31 0.31 0.22 0.21 0.36 0.42 0.26 0.22 0.20 0.32 0.31 0.20 0.24 0.34 0.44 0.49 0.70 0.95 0.94 0.67 0.74 0.78 0.67 0.74 0.65 0.56
0.01 0.08 0.10 0.14 0.09 0.03 0.00 0.01 0.01 0.02 0.08 0.17 0.21 0.06 0.05 0.03 0.04 0.04 0.03 0.04 0.04 0.08 0.14 0.28 0.41 0.47 0.31 0.32 0.27 0.23 0.19 0.22 0.16 0.18 0.22 0.26 0.27 0.45 0.56 0.47 0.48 0.81 0.84 0.77 1.00 0.99 0.82 0.72 0.81
0.01 0.05 0.13 0.27 0.16 0.06 0.13 0.06 0.03 0.09 0.13 0.12 0.05 0.04 0.02 0.02 0.02 0.00 0.02 0.03 0.05 0.11 0.08 0.10 0.40 0.58 0.68 0.56 0.30 0.21 0.15 0.07 0.07 0.15 0.20 0.14 0.14 0.15 0.40 0.59 0.55 0.52 0.67 0.86 1.03 1.26 1.14 0.82 0.69
0.08 0.10 0.07 0.38 0.25 0.15 0.11 0.04 0.11 0.35 0.34 0.51 0.52 0.22 0.06 0.00 0.01 0.00 0.00 0.02 0.05 0.10 0.17 0.28 0.35 0.43 0.61 0.43 0.24 0.17 0.08 0.06 0.07 0.10 0.09 0.08 0.09 0.12 0.20 0.24 0.56 0.68 0.63 0.62 0.83 1.06 1.17 1.01 0.69
0.06 0.12 0.37 0.55 0.37 0.19 0.01 0.04 0.20 0.35 0.47 0.58 0.45 0.16 0.02 0.00 0.00 0.00 0.01 0.11 0.09 0.16 0.39 0.74 0.79 0.71 0.74 0.59 0.44 0.24 0.16 0.14 0.12 0.12 0.18 0.18 0.18 0.19 0.15 0.16 0.14 0.28 0.38 0.41 0.47 0.63 0.96 1.07 0.78
0.10 0.29 0.32 0.33 0.14 0.19 0.13 0.35 0.67 0.52 0.78 0.57 0.09 0.01 0.01 0.00 0.00 0.01 0.02 0.10 0.10 0.22 0.25 0.35 0.67 1.07 1.26 1.09 0.55 0.31 0.24 0.32 0.39 0.27 0.31 0.30 0.30 0.29 0.27 0.22 0.17 0.12 0.16 0.18 0.21 0.28 0.62 0.94 0.96
0.16 0.24 0.41 0.72 0.40 0.18 0.20 0.43 0.84 0.66 0.35 0.61 0.07 0.01 0.02 0.02 0.02 0.03 0.04 0.05 0.07 0.09 0.13 0.19 0.25 0.35 0.57 0.72 0.64 0.70 0.72 0.62 0.75 0.73 0.70 0.61 0.39 0.30 0.28 0.30 0.26 0.23 0.17 0.19 0.19 0.19 0.39 0.64 0.91

GFSSGP_prec_precacc_099.txt.gz
Total_Precipitation_Accumulation
0.00 0.00 0.00 0.00 0.00 0.00 0.00 0.00 0.00 0.00 0.03 0.09 0.09 0.18 0.14 0.20 0.34 0.58 0.52 1.04 1.61 1.61 1.87 1.49 0.69 0.34 0.06 0.02 0.01 0.01 0.00 0.00 0.00 0.00 0.00 0.03 0.03 0.05 0.06 0.07 0.01 0.01 0.06 0.05 0.03 0.08 0.20 0.23 0.10
0.00 0.00 0.00 0.00 0.00 0.00 0.00 0.00 0.00 0.01 0.11 0.30 0.29 0.33 0.32 0.81 0.55 0.55 0.59 0.66 0.44 0.51 0.54 1.99 2.15 0.97 0.44 0.19 0.09 0.06 0.01 0.00 0.04 0.01 0.01 0.01 0.02 0.07 0.18 0.24 0.09 0.04 0.11 0.13 0.10 0.16 0.19 0.16 0.05
0.00 0.00 0.00 0.00 0.00 0.00 0.00 0.00 0.02 0.06 0.11 0.13 0.18 0.23 0.45 1.30 0.80 0.71 0.68 0.88 1.03 0.91 0.75 0.68 1.21 1.44 1.09 0.50 0.31 0.19 0.05 0.00 0.02 0.01 0.01 0.01 0.07 0.20 0.24 0.33 0.21 0.10 0.32 0.63 0.57 0.53 0.21 0.04 0.01
0.00 0.00 0.00 0.00 0.00 0.00 0.00 0.01 0.03 0.06 0.08 0.07 0.08 0.29 0.57 0.94 0.81 0.78 0.77 1.46 2.11 1.96 1.71 1.50 1.37 1.12 1.43 1.21 0.95 0.50 0.10 0.02 0.06 0.03 0.12 0.18 0.40 0.41 0.32 0.27 0.40 0.48 0.66 0.77 0.82 0.85 0.32 0.01 0.02
0.00 0.00 0.00 0.00 0.00 0.00 0.00 0.01 0.06 0.17 0.42 0.40 0.11 0.39 0.75 0.59 0.47 0.81 1.34 2.01 2.56 3.10 3.53 2.28 3.25 2.60 2.34 1.84 1.63 1.48 0.95 0.21 0.27 0.20 0.30 0.42 0.39 0.40 0.45 0.56 0.70 0.96 1.03 0.92 0.83 0.73 0.50 0.09 0.04
0.00 0.00 0.00 0.00 0.00 0.00 0.01 0.06 0.15 0.25 0.28 0.19 0.16 0.53 0.88 0.64 0.53 1.01 1.30 2.49 3.73 2.91 3.59 3.53 4.68 6.45 4.68 3.18 2.77 2.90 2.60 1.90 1.00 0.71 0.71 1.08 1.37 1.26 0.91 0.76 0.87 1.00 1.12 0.98 0.66 0.53 0.45 0.27 0.14
0.00 0.00 0.00 0.00 0.00 0.01 0.11 0.16 0.19 0.18 0.11 0.24 0.42 0.88 1.01 0.64 0.78 0.94 1.77 3.63 5.41 6.22 6.41 5.89 5.76 6.76 6.41 5.77 4.50 4.04 4.09 5.35 4.85 2.97 2.31 2.43 1.92 1.46 1.10 0.81 0.65 0.43 0.39 0.70 0.62 0.42 0.41 0.26 0.27
0.00 0.00 0.00 0.00 0.00 0.07 0.19 0.23 0.15 0.10 0.17 0.53 0.24 0.70 0.67 1.00 0.91 0.81 1.11 2.50 4.32 7.45 8.55 8.07 7.93 7.67 5.09 4.67 4.31 3.63 4.52 3.66 4.87 4.67 3.60 2.21 1.72 1.31 0.82 0.66 0.48 0.40 0.29 0.24 0.24 0.40 0.38 0.34 0.18
0.00 0.00 0.00 0.00 0.01 0.15 0.23 0.08 0.24 0.13 0.11 0.27 0.31 0.50 0.60 0.85 0.55 0.66 0.70 1.38 2.34 3.94 4.55 5.00 6.24 6.73 6.11 4.38 3.27 2.65 3.21 5.14 2.71 2.79 2.83 2.70 1.50 1.20 0.85 0.63 0.60 0.58 0.45 0.19 0.28 0.23 0.19 0.20 0.21
0.00 0.00 0.00 0.00 0.06 0.24 0.13 0.03 0.19 0.09 0.19 0.54 0.38 0.72 0.66 0.43 0.46 0.57 0.60 0.69 1.07 1.57 2.86 3.26 2.93 2.28 2.38 2.35 2.28 1.91 2.48 4.08 3.59 2.49 1.76 1.19 1.32 0.77 0.60 0.78 0.65 0.88 0.72 0.68 0.60 0.29 0.21 0.20 0.12
0.00 0.00 0.00 0.02 0.11 0.04 0.02 0.07 0.10 0.32 0.45 0.52 1.13 0.48 0.41 0.49 0.56 0.69 0.93 0.50 0.51 0.78 1.43 1.56 1.27 0.97 0.77 0.66 0.85 1.17 2.21 2.61 3.08 2.09 1.60 0.99 0.92 0.78 0.39 0.36 0.65 0.83 1.02 0.75 0.56 0.27 0.28 0.24 0.20
0.00 0.00 0.00 0.01 0.01 0.01 0.00 0.01 0.11 0.35 0.80 0.30 0.32 0.38 0.47 0.75 0.62 0.28 0.24 0.27 0.40 0.54 0.78 0.76 0.59 0.48 0.31 0.25 0.40 0.62 1.15 2.24 1.93 1.94 1.55 1.16 0.53 0.58 0.27 0.18 0.36 0.65 0.64 0.73 0.57 0.31 0.31 0.31 0.40
0.00 0.00 0.00 0.01 0.04 0.03 0.00 0.04 0.12 0.30 0.11 0.11 0.16 0.38 0.55 0.56 0.17 0.08 0.15 0.16 0.25 0.46 0.45 0.54 0.48 0.28 0.15 0.11 0.18 0.39 0.64 1.94 1.27 2.00 1.33 1.13 0.29 0.41 0.36 0.41 0.39 0.43 0.65 0.60 0.61 0.54 0.40 0.29 0.41
0.00 0.00 0.00 0.00 0.01 0.01 0.02 0.05 0.09 0.39 0.12 0.12 0.12 0.32 0.56 0.58 0.09 0.04 0.07 0.11 0.16 0.31 0.42 0.44 0.41 0.36 0.24 0.12 0.09 0.22 0.58 1.17 1.21 1.85 1.08 1.25 0.34 0.35 0.35 0.43 0.52 0.36 0.63 0.71 0.66 0.58 0.54 0.41 0.36
0.00 0.00 0.02 0.03 0.01 0.00 0.05 0.19 0.35 0.13 0.08 0.07 0.03 0.04 0.36 0.86 0.24 0.04 0.03 0.05 0.06 0.19 0.32 0.55 0.62 0.42 0.30 0.24 0.31 0.46 0.71 0.87 0.76 1.21 0.97 1.19 0.45 0.30 0.35 0.55 0.60 0.29 0.37 0.96 0.99 0.80 0.73 0.66 0.32
0.00 0.00 0.01 0.04 0.03 0.02 0.15 0.48 0.05 0.03 0.05 0.04 0.01 0.01 0.06 0.10 0.03 0.01 0.01 0.00 0.01 0.05 0.22 0.57 0.75 0.77 0.66 0.53 0.53 0.88 0.79 0.74 0.70 0.92 0.76 0.81 0.57 0.24 0.24 0.34 0.38 0.23 0.30 0.55 1.09 0.95 0.64 0.83 0.59
0.00 0.00 0.00 0.01 0.01 0.01 0.05 0.33 0.12 0.05 0.09 0.08 0.02 0.01 0.01 0.01 0.01 0.00 0.03 0.02 0.05 0.03 0.10 0.54 0.92 1.07 0.99 0.74 1.00 0.69 0.28 0.43 0.53 0.71 0.63 0.75 0.60 0.29 0.33 0.39 0.42 0.25 0.22 0.29 0.61 0.98 0.70 0.66 0.83
0.00 0.00 0.00 0.02 0.02 0.01 0.01 0.03 0.25 0.12 0.05 0.27 0.09 0.04 0.04 0.00 0.01 0.03 0.07 0.07 0.07 0.05 0.11 0.52 1.15 1.24 1.07 0.69 0.50 0.44 0.28 0.41 0.46 0.66 0.67 0.79 0.55 0.31 0.57 0.56 0.38 0.28 0.22 0.22 0.22 0.51 0.66 0.48 0.69
0.00 0.00 0.00 0.00 0.01 0.00 0.00 0.01 0.01 0.00 0.00 0.03 0.05 0.07 0.02 0.00 0.03 0.05 0.07 0.09 0.07 0.08 0.19 0.43 0.83 1.16 0.65 0.37 0.25 0.33 0.37 0.37 0.37 0.41 0.68 0.94 0.74 0.56 0.62 0.88 0.49 0.28 0.19 0.16 0.12 0.15 0.34 0.41 0.59
0.00 0.00 0.00 0.00 0.00 0.00 0.00 0.00 0.00 0.00 0.00 0.01 0.01 0.11 0.03 0.00 0.01 0.02 0.04 0.03 0.04 0.11 0.36 0.45 0.40 0.44 0.41 0.31 0.22 0.19 0.28 0.42 0.31 0.36 0.44 0.70 0.89 0.82 0.68 0.80 0.83 0.50 0.30 0.27 0.23 0.16 0.18 0.26 0.48
0.00 0.00 0.00 0.00 0.00 0.00 0.00 0.00 0.00 0.01 0.01 0.02 0.00 0.00 0.00 0.00 0.02 0.03 0.03 0.03 0.01 0.02 0.18 0.19 0.09 0.13 0.23 0.32 0.31 0.31 0.40 0.46 0.47 0.31 0.31 0.45 0.76 1.02 0.87 0.54 0.92 0.92 0.49 0.32 0.31 0.25 0.15 0.13 0.37
0.00 0.00 0.00 0.00 0.00 0.00 0.00 0.00 0.00 0.00 0.01 0.00 0.00 0.00 0.00 0.00 0.00 0.00 0.00 0.00 0.01 0.06 0.25 0.12 0.11 0.13 0.12 0.14 0.15 0.18 0.28 0.23 0.20 0.21 0.16 0.34 0.34 0.70 1.04 0.82 0.61 0.96 0.77 0.52 0.44 0.46 0.35 0.24 0.28
0.01 0.00 0.00 0.00 0.00 0.05 0.02 0.00 0.03 0.05 0.02 0.00 0.01 0.02 0.01 0.01 0.00 0.00 0.00 0.00 0.02 0.07 0.20 0.16 0.13 0.22 0.16 0.27 0.29 0.23 0.26 0.26 0.24 0.18 0.22 0.26 0.37 0.33 0.68 0.84 0.81 0.67 0.79 0.70 0.66 0.79 0.72 0.51 0.42
0.00 0.02 0.00 0.00 0.01 0.05 0.01 0.01 0.01 0.01 0.02 0.04 0.10 0.09 0.07 0.07 0.04 0.03 0.02 0.03 0.04 0.11 0.20 0.31 0.31 0.22 0.21 0.36 0.42 0.26 0.22 0.20 0.32 0.31 0.22 0.26 0.34 0.44 0.49 0.70 0.96 0.95 0.68 0.76 0.79 0.70 0.78 0.70 0.62
0.01 0.08 0.10 0.14 0.09 0.03 0.00 0.01 0.01 0.02 0.09 0.17 0.22 0.07 0.05 0.04 0.07 0.07 0.06 0.07 0.07 0.09 0.14 0.28 0.41 0.47 0.33 0.34 0.28 0.25 0.21 0.24 0.19 0.21 0.25 0.29 0.28 0.45 0.56 0.47 0.49 0.82 0.86 0.79 1.02 1.00 0.83 0.74 0.83
0.01 0.05 0.13 0.27 0.16 0.06 0.13 0.06 0.03 0.10 0.14 0.12 0.05 0.04 0.03 0.04 0.03 0.02 0.03 0.03 0.05 0.14 0.10 0.11 0.45 0.63 0.70 0.59 0.36 0.29 0.23 0.17 0.15 0.19 0.21 0.15 0.14 0.15 0.40 0.59 0.55 0.52 0.67 0.87 1.04 1.27 1.16 0.86 0.73
0.08 0.10 0.07 0.38 0.25 0.15 0.11 0.04 0.11 0.36 0.34 0.51 0.52 0.24 0.17 0.07 0.03 0.02 0.02 0.02 0.05 0.13 0.20 0.30 0.46 0.54 0.73 0.54 0.34 0.27 0.18 0.13 0.12 0.13 0.11 0.09 0.09 0.12 0.20 0.24 0.56 0.68 0.63 0.62 0.84 1.07 1.19 1.07 0.79
0.06 0.12 0.38 0.56 0.39 0.19 0.01 0.04 0.21 0.36 0.47 0.59 0.50 0.31 0.15 0.08 0.02 0.01 0.02 0.11 0.10 0.19 0.44 0.82 0.90 0.81 0.89 0.76 0.58 0.37 0.30 0.27 0.22 0.17 0.21 0.21 0.19 0.19 0.15 0.16 0.14 0.28 0.38 0.41 0.47 0.63 0.97 1.12 0.91
0.10 0.29 0.33 0.38 0.18 0.22 0.14 0.35 0.67 0.53 0.78 0.61 0.16 0.12 0.09 0.03 0.00 0.01 0.02 0.10 0.11 0.25 0.33 0.43 0.75 1.18 1.46 1.32 0.95 0.55 0.44 0.50 0.50 0.33 0.37 0.33 0.30 0.29 0.27 0.22 0.17 0.12 0.16 0.18 0.21 0.28 0.62 0.99 1.15
0.16 0.24 0.42 0.75 0.48 0.26 0.25 0.45 0.84 0.67 0.35 0.67 0.29 0.15 0.03 0.02 0.02 0.03 0.04 0.05 0.07 0.10 0.15 0.25 0.29 0.42 0.65 0.84 1.14 1.47 1.22 0.87 0.87 0.79 0.75 0.66 0.44 0.31 0.28 0.30 0.26 0.23 0.17 0.19 0.19 0.20 0.39 0.67 1.08

GFSSGP_prec_precacc_102.txt.gz
Total_Precipitation_Accumulation
0.00 0.00 0.00 0.00 0.00 0.00 0.00 0.00 0.00 0.00 0.03 0.09 0.09 0.18 0.14 0.20 0.34 0.58 0.52 1.04 1.61 1.61 1.87 1.49 0.69 0.34 0.06 0.02 0.01 0.01 0.00 0.00 0.00 0.00 0.00 0.03 0.03 0.05 0.06 0.07 0.01 0.01 0.07 0.06 0.03 0.09 0.20 0.23 0.10
0.00 0.00 0.00 0.00 0.00 0.00 0.00 0.00 0.00 0.01 0.11 0.30 0.29 0.33 0.32 0.81 0.55 0.55 0.59 0.66 0.44 0.51 0.54 1.99 2.15 0.97 0.44 0.19 0.09 0.06 0.01 0.00 0.04 0.01 0.01 0.01 0.02 0.07 0.18 0.24 0.09 0.04 0.11 0.13 0.10 0.16 0.19 0.16 0.05
0.00 0.00 0.00 0.00 0.00 0.00 0.00 0.00 0.02 0.06 0.11 0.13 0.18 0.23 0.45 1.30 0.80 0.71 0.68 0.88 1.03 0.91 0.75 0.68 1.21 1.44 1.09 0.50 0.31 0.19 0.05 0.00 0.02 0.01 0.01 0.01 0.07 0.20 0.24 0.33 0.22 0.10 0.32 0.63 0.57 0.53 0.21 0.04 0.01
0.00 0.00 0.00 0.00 0.00 0.00 0.00 0.01 0.03 0.06 0.08 0.07 0.08 0.29 0.57 0.94 0.81 0.78 0.77 1.46 2.11 1.96 1.71 1.50 1.37 1.12 1.43 1.21 0.95 0.50 0.10 0.02 0.06 0.03 0.12 0.18 0.40 0.41 0.32 0.27 0.41 0.49 0.66 0.77 0.82 0.85 0.32 0.01 0.02
0.00 0.00 0.00 0.00 0.00 0.00 0.00 0.01 0.06 0.17 0.42 0.40 0.11 0.39 0.75 0.59 0.47 0.81 1.34 2.01 2.56 3.10 3.53 2.28 3.25 2.60 2.34 1.84 1.63 1.48 0.95 0.21 0.27 0.20 0.30 0.42 0.39 0.40 0.45 0.56 0.70 0.97 1.03 0.92 0.83 0.73 0.50 0.09 0.04
0.00 0.00 0.00 0.00 0.00 0.00 0.01 0.06 0.15 0.25 0.28 0.19 0.16 0.53 0.88 0.64 0.53 1.01 1.30 2.49 3.73 2.91 3.59 3.53 4.68 6.45 4.68 3.18 2.77 2.90 2.60 1.90 1.00 0.71 0.71 1.08 1.37 1.26 0.91 0.76 0.87 1.00 1.13 0.98 0.67 0.53 0.45 0.27 0.14
0.00 0.00 0.00 0.00 0.00 0.01 0.11 0.16 0.19 0.18 0.11 0.24 0.42 0.88 1.01 0.64 0.78 0.94 1.77 3.63 5.41 6.22 6.41 5.89 5.76 6.76 6.41 5.77 4.50 4.04 4.09 5.35 4.85 2.97 2.31 2.43 1.92 1.46 1.10 0.81 0.65 0.43 0.39 0.70 0.62 0.42 0.41 0.26 0.27
0.00 0.00 0.00 0.00 0.00 0.07 0.19 0.23 0.15 0.10 0.17 0.53 0.24 0.70 0.67 1.00 0.91 0.81 1.11 2.50 4.32 7.45 8.55 8.07 7.93 7.67 5.09 4.67 4.31 3.63 4.52 3.66 4.87 4.67 3.60 2.21 1.72 1.31 0.82 0.66 0.48 0.40 0.29 0.24 0.24 0.40 0.38 0.34 0.18
0.00 0.00 0.00 0.00 0.01 0.15 0.23 0.08 0.24 0.13 0.11 0.27 0.31 0.50 0.60 0.85 0.55 0.66 0.70 1.38 2.34 3.94 4.55 5.00 6.24 6.73 6.11 4.38 3.27 2.65 3.21 5.14 2.71 2.79 2.83 2.70 1.50 1.20 0.85 0.63 0.60 0.58 0.45 0.19 0.28 0.23 0.19 0.20 0.21
0.00 0.00 0.00 0.00 0.06 0.24 0.13 0.03 0.19 0.09 0.19 0.54 0.38 0.72 0.66 0.43 0.46 0.57 0.60 0.69 1.07 1.57 2.86 3.26 2.93 2.28 2.38 2.35 2.28 1.91 2.48 4.08 3.59 2.49 1.76 1.19 1.32 0.77 0.60 0.78 0.65 0.88 0.72 0.68 0.62 0.36 0.31 0.23 0.12
0.00 0.00 0.00 0.02 0.11 0.04 0.02 0.07 0.10 0.32 0.45 0.52 1.13 0.48 0.41 0.49 0.56 0.70 0.94 0.50 0.51 0.78 1.43 1.56 1.27 0.97 0.77 0.66 0.85 1.17 2.21 2.61 3.08 2.09 1.60 0.99 0.92 0.78 0.39 0.36 0.65 0.83 1.02 0.75 0.57 0.28 0.29 0.24 0.20
0.00 0.00 0.00 0.01 0.01 0.01 0.00 0.01 0.11 0.35 0.80 0.30 0.32 0.38 0.47 0.75 0.62 0.28 0.25 0.27 0.40 0.54 0.78 0.76 0.59 0.48 0.31 0.25 0.40 0.62 1.15 2.24 1.93 1.94 1.55 1.16 0.53 0.58 0.27 0.18 0.36 0.65 0.64 0.73 0.57 0.31 0.33 0.31 0.43
0.00 0.00 0.00 0.01 0.04 0.03 0.00 0.04 0.12 0.30 0.11 0.11 0.16 0.38 0.55 0.56 0.17 0.08 0.15 0.16 0.26 0.46 0.45 0.54 0.48 0.28 0.15 0.11 0.18 0.39 0.64 1.94 1.27 2.00 1.33 1.13 0.29 0.41 0.36 0.41 0.39 0.43 0.65 0.60 0.62 0.55 0.42 0.30 0.44
0.00 0.00 0.00 0.00 0.01 0.01 0.02 0.05 0.09 0.39 0.12 0.12 0.12 0.32 0.56 0.58 0.09 0.04 0.07 0.11 0.16 0.31 0.42 0.44 0.41 0.36 0.25 0.13 0.09 0.22 0.58 1.17 1.21 1.86 1.08 1.25 0.34 0.35 0.35 0.43 0.52 0.36 0.63 0.71 0.67 0.63 0.61 0.44 0.41
0.00 0.00 0.02 0.03 0.01 0.00 0.05 0.19 0.35 0.13 0.08 0.07 0.03 0.04 0.36 0.86 0.24 0.04 0.03 0.05 0.06 0.19 0.32 0.55 0.62 0.42 0.31 0.26 0.31 0.46 0.71 0.87 0.76 1.22 0.98 1.19 0.45 0.30 0.35 0.55 0.60 0.29 0.37 0.96 1.02 0.88 0.81 0.73 0.36
0.00 0.00 0.01 0.04 0.03 0.02 0.15 0.48 0.05 0.03 0.05 0.04 0.01 0.01 0.06 0.10 0.03 0.01 0.01 0.00 0.01 0.05 0.22 0.57 0.75 0.77 0.66 0.54 0.55 0.88 0.79 0.75 0.70 0.92 0.76 0.81 0.57 0.24 0.24 0.34 0.38 0.23 0.30 0.55 1.12 1.01 0.70 0.87 0.61
0.00 0.00 0.00 0.01 0.01 0.01 0.05 0.33 0.12 0.05 0.09 0.08 0.02 0.01 0.01 0.01 0.01 0.00 0.03 0.02 0.05 0.03 0.10 0.54 0.92 1.07 0.99 0.76 1.02 0.70 0.29 0.45 0.55 0.71 0.63 0.75 0.60 0.29 0.33 0.39 0.42 0.25 0.22 0.29 0.61 1.00 0.72 0.70 0.87
0.00 0.00 0.00 0.02 0.02 0.01 0.01 0.03 0.25 0.12 0.05 0.27 0.09 0.04 0.04 0.00 0.01 0.03 0.07 0.07 0.07 0.05 0.11 0.52 1.15 1.24 1.07 0.71 0.55 0.48 0.29 0.43 0.47 0.67 0.67 0.79 0.55 0.31 0.57 0.56 0.38 0.28 0.22 0.23 0.22 0.51 0.68 0.49 0.73
0.00 0.00 0.00 0.00 0.01 0.00 0.00 0.01 0.01 0.00 0.00 0.03 0.05 0.07 0.02 0.00 0.03 0.05 0.07 0.09 0.07 0.08 0.19 0.43 0.83 1.16 0.65 0.38 0.26 0.34 0.37 0.37 0.37 0.41 0.69 0.94 0.74 0.56 0.62 0.88 0.49 0.29 0.19 0.16 0.13 0.16 0.34 0.42 0.60
0.00 0.00 0.00 0.00 0.00 0.00 0.00 0.00 0.00 0.00 0.00 0.01 0.01 0.11 0.03 0.00 0.01 0.02 0.04 0.03 0.04 0.11 0.36 0.45 0.40 0.44 0.41 0.31 0.22 0.19 0.28 0.42 0.31 0.37 0.48 0.72 0.89 0.82 0.68 0.80 0.83 0.50 0.30 0.28 0.24 0.17 0.18 0.26 0.50
0.00 0.00 0.00 0.00 0.00 0.00 0.00 0.00 0.00 0.01 0.01 0.02 0.00 0.00 0.00 0.00 0.02 0.03 0.03 0.03 0.01 0.02 0.18 0.19 0.09 0.13 0.23 0.32 0.31 0.32 0.43 0.51 0.50 0.34 0.33 0.47 0.78 1.02 0.87 0.54 0.93 0.92 0.49 0.33 0.32 0.26 0.15 0.13 0.37
0.00 0.00 0.00 0.00 0.00 0.00 0.00 0.00 0.00 0.00 0.01 0.00 0.00 0.00 0.00 0.00 0.00 0.00 0.00 0.00 0.01 0.06 0.25 0.12 0.11 0.13 0.12 0.14 0.15 0.18 0.28 0.23 0.20 0.21 0.17 0.37 0.37 0.73 1.05 0.82 0.61 0.97 0.78 0.53 0.45 0.47 0.35 0.25 0.28
0.01 0.00 0.00 0.00 0.00 0.05 0.02 0.00 0.03 0.05 0.02 0.00 0.01 0.02 0.01 0.01 0.00 0.00 0.00 0.00 0.02 0.07 0.20 0.16 0.13 0.22 0.16 0.27 0.29 0.23 0.26 0.26 0.24 0.18 0.22 0.27 0.38 0.34 0.68 0.84 0.81 0.67 0.79 0.72 0.67 0.80 0.73 0.52 0.43
0.00 0.02 0.00 0.00 0.01 0.05 0.01 0.01 0.01 0.01 0.02 0.04 0.10 0.09 0.07 0.07 0.04 0.03 0.02 0.03 0.04 0.11 0.20 0.31 0.31 0.22 0.21 0.36 0.42 0.26 0.22 0.20 0.32 0.31 0.22 0.26 0.35 0.46 0.49 0.70 0.96 0.96 0.68 0.77 0.80 0.71 0.79 0.74 0.66
0.01 0.08 0.10 0.14 0.09 0.03 0.00 0.01 0.01 0.02 0.09 0.17 0.22 0.07 0.05 0.04 0.07 0.07 0.06 0.07 0.07 0.10 0.14 0.28 0.41 0.47 0.33 0.34 0.29 0.25 0.21 0.24 0.19 0.21 0.25 0.29 0.29 0.45 0.56 0.47 0.49 0.82 0.87 0.79 1.02 1.01 0.84 0.75 0.84
0.01 0.05 0.13 0.27 0.16 0.06 0.13 0.06 0.03 0.10 0.14 0.12 0.05 0.04 0.03 0.04 0.03 0.02 0.03 0.03 0.05 0.14 0.11 0.12 0.47 0.65 0.71 0.60 0.36 0.29 0.24 0.18 0.19 0.24 0.24 0.16 0.14 0.15 0.41 0.59 0.55 0.52 0.68 0.88 1.05 1.29 1.17 0.87 0.74
0.08 0.10 0.07 0.38 0.25 0.15 0.11 0.04 0.11 0.36 0.34 0.51 0.52 0.24 0.17 0.07 0.03 0.03 0.03 0.03 0.05 0.13 0.21 0.32 0.52 0.58 0.77 0.58 0.35 0.30 0.20 0.15 0.17 0.20 0.19 0.17 0.16 0.18 0.23 0.24 0.56 0.68 0.63 0.63 0.85 1.09 1.20 1.09 0.81
0.06 0.12 0.38 0.57 0.40 0.19 0.01 0.04 0.21 0.36 0.47 0.59 0.50 0.31 0.15 0.09 0.03 0.03 0.04 0.12 0.10 0.20 0.46 0.85 0.99 0.92 0.96 0.83 0.65 0.43 0.34 0.32 0.30 0.27 0.29 0.31 0.30 0.27 0.17 0.16 0.14 0.28 0.38 0.41 0.48 0.64 0.97 1.13 0.92
0.10 0.29 0.33 0.38 0.19 0.26 0.16 0.36 0.68 0.53 0.79 0.61 0.16 0.12 0.11 0.05 0.02 0.01 0.02 0.10 0.12 0.25 0.35 0.47 0.81 1.32 1.60 1.45 1.05 0.68 0.51 0.62 0.65 0.46 0.49 0.45 0.42 0.38 0.31 0.23 0.17 0.12 0.16 0.19 0.22 0.28 0.62 0.99 1.16
0.16 0.24 0.42 0.75 0.48 0.26 0.26 0.46 0.85 0.67 0.35 0.67 0.31 0.22 0.07 0.02 0.02 0.03 0.04 0.05 0.08 0.11 0.16 0.29 0.35 0.49 0.73 0.94 1.31 1.67 1.34 0.99 1.03 0.91 0.86 0.78 0.54 0.37 0.30 0.30 0.26 0.23 0.17 0.19 0.19 0.20 0.40 0.68 1.09

GFSSGP_prec_precacc_105.txt.gz
Total_Precipitation_Accumulation
0.00 0.00 0.00 0.00 0.00 0.00 0.00 0.00 0.00 0.00 0.03 0.09 0.09 0.18 0.14 0.20 0.34 0.58 0.52 1.04 1.61 1.61 1.87 1.49 0.69 0.34 0.06 0.02 0.01 0.01 0.00 0.00 0.00 0.00 0.00 0.03 0.03 0.05 0.06 0.07 0.01 0.01 0.07 0.06 0.03 0.09 0.20 0.23 0.10
0.00 0.00 0.00 0.00 0.00 0.00 0.00 0.00 0.00 0.01 0.11 0.30 0.29 0.33 0.32 0.81 0.55 0.55 0.59 0.66 0.44 0.51 0.54 1.99 2.15 0.97 0.44 0.19 0.09 0.06 0.01 0.00 0.04 0.01 0.01 0.01 0.02 0.07 0.18 0.24 0.09 0.04 0.11 0.13 0.10 0.16 0.19 0.16 0.05
0.00 0.00 0.00 0.00 0.00 0.00 0.00 0.00 0.02 0.06 0.11 0.13 0.18 0.23 0.45 1.30 0.80 0.71 0.68 0.88 1.03 0.91 0.75 0.68 1.21 1.44 1.09 0.50 0.31 0.19 0.05 0.00 0.02 0.01 0.01 0.01 0.07 0.20 0.24 0.33 0.22 0.10 0.32 0.63 0.57 0.53 0.21 0.04 0.01
0.00 0.00 0.00 0.00 0.00 0.00 0.00 0.01 0.03 0.06 0.08 0.07 0.08 0.29 0.57 0.94 0.81 0.78 0.77 1.46 2.11 1.96 1.71 1.50 1.37 1.12 1.43 1.21 0.95 0.50 0.10 0.02 0.06 0.03 0.12 0.18 0.40 0.41 0.32 0.27 0.41 0.49 0.66 0.77 0.82 0.85 0.32 0.01 0.02
0.00 0.00 0.00 0.00 0.00 0.00 0.00 0.01 0.06 0.17 0.42 0.40 0.11 0.39 0.75 0.59 0.47 0.81 1.34 2.01 2.56 3.10 3.53 2.28 3.25 2.60 2.34 1.84 1.63 1.48 0.95 0.21 0.27 0.20 0.30 0.42 0.39 0.40 0.45 0.56 0.70 0.97 1.04 0.92 0.83 0.73 0.50 0.09 0.04
0.00 0.00 0.00 0.00 0.00 0.00 0.01 0.06 0.15 0.25 0.28 0.19 0.16 0.53 0.88 0.64 0.53 1.01 1.30 2.49 3.73 2.91 3.59 3.53 4.68 6.45 4.68 3.18 2.77 2.90 2.60 1.90 1.00 0.71 0.71 1.08 1.37 1.26 0.91 0.76 0.88 1.01 1.14 0.99 0.67 0.53 0.45 0.27 0.14
0.00 0.00 0.00 0.00 0.00 0.01 0.11 0.16 0.19 0.18 0.11 0.24 0.42 0.88 1.01 0.64 0.78 0.94 1.77 3.63 5.41 6.22 6.41 5.89 5.76 6.76 6.41 5.77 4.50 4.04 4.09 5.35 4.85 2.97 2.31 2.43 1.92 1.46 1.10 0.81 0.66 0.43 0.40 0.75 0.63 0.42 0.41 0.26 0.27
0.00 0.00 0.00 0.00 0.00 0.07 0.19 0.23 0.15 0.10 0.17 0.53 0.24 0.70 0.67 1.00 0.91 0.81 1.11 2.50 4.32 7.45 8.55 8.07 7.93 7.67 5.09 4.67 4.31 3.63 4.52 3.66 4.87 4.67 3.60 2.21 1.72 1.31 0.82 0.66 0.48 0.40 0.30 0.26 0.25 0.40 0.38 0.34 0.18
0.00 0.00 0.00 0.00 0.01 0.15 0.23 0.08 0.24 0.13 0.11 0.27 0.31 0.50 0.60 0.85 0.55 0.66 0.71 1.39 2.34 3.94 4.55 5.00 6.24 6.73 6.11 4.38 3.27 2.65 3.21 5.14 2.71 2.79 2.83 2.70 1.50 1.20 0.85 0.63 0.60 0.58 0.45 0.19 0.28 0.23 0.19 0.20 0.21
0.00 0.00 0.00 0.00 0.06 0.24 0.13 0.03 0.19 0.09 0.19 0.54 0.38 0.72 0.66 0.43 0.46 0.57 0.60 0.69 1.07 1.57 2.86 3.26 2.93 2.28 2.38 2.35 2.28 1.91 2.48 4.08 3.59 2.49 1.76 1.19 1.32 0.77 0.60 0.78 0.65 0.88 0.72 0.70 0.67 0.39 0.34 0.24 0.12
0.00 0.00 0.00 0.02 0.11 0.04 0.02 0.07 0.10 0.32 0.45 0.52 1.13 0.48 0.41 0.49 0.56 0.70 0.94 0.50 0.51 0.78 1.43 1.56 1.27 0.97 0.77 0.66 0.85 1.17 2.21 2.61 3.08 2.09 1.60 0.99 0.92 0.78 0.39 0.36 0.65 0.83 1.02 0.76 0.62 0.32 0.31 0.24 0.20
0.00 0.00 0.00 0.01 0.01 0.01 0.00 0.01 0.11 0.35 0.80 0.30 0.32 0.38 0.47 0.75 0.62 0.28 0.25 0.27 0.40 0.54 0.78 0.76 0.59 0.48 0.31 0.25 0.40 0.62 1.15 2.24 1.93 1.94 1.55 1.16 0.53 0.58 0.27 0.18 0.36 0.65 0.64 0.73 0.58 0.35 0.36 0.32 0.43
0.00 0.00 0.00 0.01 0.04 0.03 0.00 0.04 0.12 0.30 0.11 0.11 0.16 0.38 0.55 0.56 0.17 0.08 0.15 0.16 0.26 0.46 0.46 0.55 0.48 0.28 0.15 0.11 0.18 0.39 0.64 1.94 1.27 2.00 1.33 1.13 0.29 0.41 0.36 0.41 0.39 0.43 0.65 0.60 0.62 0.58 0.43 0.32 0.45
0.00 0.00 0.00 0.00 0.01 0.01 0.02 0.05 0.09 0.39 0.12 0.12 0.12 0.32 0.56 0.58 0.09 0.04 0.07 0.11 0.16 0.31 0.42 0.46 0.42 0.37 0.26 0.13 0.09 0.22 0.58 1.17 1.21 1.86 1.08 1.25 0.34 0.35 0.36 0.43 0.52 0.36 0.63 0.71 0.68 0.64 0.63 0.46 0.41
0.00 0.00 0.02 0.03 0.01 0.00 0.05 0.19 0.35 0.13 0.08 0.07 0.03 0.04 0.36 0.86 0.24 0.04 0.03 0.05 0.06 0.19 0.32 0.55 0.62 0.42 0.31 0.28 0.32 0.47 0.71 0.87 0.76 1.22 0.98 1.20 0.45 0.31 0.35 0.55 0.60 0.29 0.37 0.96 1.02 0.88 0.82 0.74 0.36
0.00 0.00 0.01 0.04 0.03 0.02 0.15 0.48 0.05 0.03 0.05 0.04 0.01 0.01 0.06 0.10 0.03 0.01 0.01 0.00 0.01 0.05 0.22 0.57 0.75 0.77 0.66 0.54 0.56 0.89 0.80 0.75 0.70 0.92 0.76 0.82 0.58 0.24 0.25 0.35 0.38 0.23 0.30 0.55 1.12 1.02 0.71 0.89 0.62
0.00 0.00 0.00 0.01 0.01 0.01 0.05 0.33 0.12 0.05 0.09 0.08 0.02 0.01 0.01 0.01 0.01 0.00 0.03 0.02 0.05 0.03 0.10 0.54 0.92 1.07 0.99 0.76 1.02 0.73 0.31 0.45 0.56 0.71 0.63 0.75 0.60 0.29 0.33 0.39 0.42 0.25 0.22 0.29 0.61 1.01 0.73 0.70 0.89
0.00 0.00 0.00 0.02 0.02 0.01 0.01 0.03 0.25 0.12 0.05 0.27 0.09 0.04 0.04 0.00 0.01 0.03 0.07 0.07 0.07 0.05 0.11 0.52 1.15 1.24 1.07 0.71 0.56 0.51 0.30 0.43 0.47 0.67 0.67 0.79 0.55 0.31 0.57 0.56 0.38 0.28 0.22 0.23 0.22 0.51 0.68 0.50 0.74
0.00 0.00 0.00 0.00 0.01 0.00 0.00 0.01 0.01 0.00 0.00 0.03 0.05 0.07 0.02 0.00 0.03 0.05 0.07 0.09 0.07 0.08 0.19 0.43 0.83 1.16 0.65 0.38 0.27 0.35 0.37 0.37 0.37 0.42 0.69 0.95 0.74 0.56 0.62 0.88 0.49 0.29 0.19 0.16 0.13 0.16 0.35 0.43 0.62
0.00 0.00 0.00 0.00 0.00 0.00 0.00 0.00 0.00 0.00 0.00 0.01 0.01 0.11 0.03 0.00 0.01 0.02 0.04 0.03 0.04 0.11 0.36 0.45 0.40 0.44 0.41 0.31 0.22 0.19 0.28 0.42 0.32 0.38 0.50 0.74 0.91 0.82 0.68 0.80 0.83 0.50 0.30 0.28 0.24 0.18 0.20 0.28 0.51
0.00 0.00 0.00 0.00 0.00 0.00 0.00 0.00 0.00 0.01 0.01 0.02 0.00 0.00 0.00 0.00 0.02 0.03 0.03 0.03 0.01 0.02 0.18 0.19 0.09 0.13 0.23 0.32 0.31 0.32 0.43 0.52 0.51 0.34 0.34 0.47 0.80 1.04 0.87 0.54 0.93 0.92 0.50 0.33 0.32 0.27 0.16 0.14 0.38
0.00 0.00 0.00 0.00 0.00 0.00 0.00 0.00 0.00 0.00 0.01 0.00 0.00 0.00 0.00 0.00 0.00 0.00 0.00 0.00 0.01 0.06 0.25 0.12 0.11 0.13 0.12 0.14 0.16 0.19 0.28 0.23 0.20 0.21 0.17 0.38 0.37 0.74 1.05 0.82 0.61 0.97 0.78 0.53 0.45 0.48 0.36 0.26 0.30
0.01 0.00 0.00 0.00 0.00 0.05 0.02 0.00 0.03 0.05 0.02 0.00 0.01 0.02 0.01 0.01 0.00 0.00 0.00 0.00 0.02 0.07 0.20 0.16 0.13 0.22 0.16 0.27 0.30 0.23 0.26 0.26 0.24 0.18 0.22 0.27 0.39 0.35 0.73 0.86 0.83 0.67 0.79 0.72 0.67 0.80 0.74 0.53 0.44
0.00 0.02 0.00 0.00 0.01 0.05 0.01 0.01 0.01 0.01 0.02 0.04 0.10 0.09 0.07 0.07 0.04 0.03 0.02 0.03 0.04 0.11 0.20 0.31 0.31 0.22 0.21 0.36 0.42 0.27 0.22 0.20 0.32 0.31 0.22 0.26 0.35 0.48 0.55 0.76 0.99 0.98 0.69 0.77 0.80 0.72 0.80 0.75 0.67
0.01 0.08 0.10 0.14 0.09 0.03 0.00 0.01 0.01 0.02 0.09 0.17 0.22 0.07 0.05 0.04 0.07 0.07 0.06 0.07 0.07 0.10 0.14 0.28 0.41 0.47 0.33 0.34 0.29 0.25 0.22 0.25 0.19 0.21 0.25 0.29 0.30 0.47 0.57 0.47 0.50 0.83 0.87 0.80 1.02 1.02 0.84 0.76 0.86
0.01 0.05 0.13 0.27 0.16 0.06 0.13 0.06 0.03 0.10 0.14 0.12 0.05 0.04 0.03 0.04 0.03 0.02 0.03 0.03 0.05 0.14 0.11 0.12 0.47 0.65 0.71 0.60 0.36 0.30 0.25 0.19 0.19 0.24 0.24 0.16 0.14 0.15 0.43 0.65 0.60 0.54 0.72 0.90 1.05 1.29 1.18 0.88 0.75
0.08 0.10 0.07 0.38 0.25 0.15 0.11 0.04 0.11 0.36 0.34 0.51 0.52 0.24 0.17 0.07 0.03 0.03 0.03 0.04 0.07 0.14 0.21 0.32 0.52 0.58 0.78 0.62 0.37 0.32 0.22 0.18 0.18 0.22 0.20 0.18 0.18 0.21 0.33 0.38 0.65 0.73 0.67 0.63 0.86 1.09 1.21 1.10 0.82
0.06 0.12 0.38 0.57 0.40 0.19 0.01 0.04 0.21 0.36 0.47 0.59 0.50 0.31 0.15 0.09 0.03 0.03 0.04 0.12 0.12 0.21 0.47 0.85 0.99 0.93 0.98 0.89 0.74 0.48 0.39 0.39 0.36 0.31 0.31 0.34 0.35 0.34 0.32 0.28 0.22 0.34 0.41 0.41 0.48 0.65 0.99 1.14 0.93
0.10 0.29 0.33 0.38 0.19 0.26 0.16 0.36 0.68 0.53 0.79 0.61 0.16 0.12 0.11 0.05 0.02 0.01 0.02 0.10 0.13 0.26 0.37 0.49 0.83 1.35 1.66 1.51 1.20 0.81 0.59 0.74 0.77 0.57 0.58 0.56 0.50 0.46 0.41 0.35 0.30 0.20 0.19 0.19 0.22 0.29 0.63 1.00 1.17
0.16 0.24 0.42 0.75 0.48 0.26 0.26 0.46 0.85 0.67 0.35 0.67 0.31 0.22 0.07 0.02 0.02 0.03 0.04 0.06 0.08 0.11 0.17 0.30 0.38 0.51 0.78 1.02 1.48 1.91 1.58 1.16 1.12 0.98 0.93 0.85 0.60 0.43 0.38 0.37 0.32 0.25 0.18 0.19 0.19 0.20 0.40 0.68 1.09

GFSSGP_prec_precacc_111.txt.gz
Total_Precipitation_Accumulation
0.00 0.00 0.00 0.00 0.00 0.00 0.00 0.00 0.00 0.00 0.03 0.09 0.09 0.18 0.14 0.20 0.34 0.58 0.52 1.04 1.61 1.61 1.87 1.49 0.69 0.34 0.06 0.02 0.01 0.01 0.00 0.00 0.00 0.00 0.00 0.03 0.03 0.05 0.06 0.07 0.01 0.01 0.07 0.06 0.03 0.09 0.20 0.23 0.10
0.00 0.00 0.00 0.00 0.00 0.00 0.00 0.00 0.00 0.01 0.11 0.30 0.29 0.33 0.32 0.81 0.55 0.55 0.59 0.66 0.44 0.51 0.54 1.99 2.15 0.97 0.44 0.19 0.09 0.06 0.01 0.00 0.04 0.01 0.01 0.01 0.02 0.07 0.18 0.24 0.09 0.04 0.11 0.13 0.10 0.16 0.19 0.16 0.05
0.00 0.00 0.00 0.00 0.00 0.00 0.00 0.00 0.02 0.06 0.11 0.13 0.18 0.23 0.45 1.30 0.80 0.71 0.68 0.88 1.03 0.91 0.75 0.68 1.21 1.44 1.09 0.50 0.31 0.19 0.05 0.00 0.02 0.01 0.01 0.01 0.07 0.20 0.24 0.33 0.22 0.10 0.32 0.64 0.57 0.53 0.21 0.04 0.01
0.00 0.00 0.00 0.00 0.00 0.00 0.00 0.01 0.03 0.06 0.08 0.07 0.08 0.29 0.57 0.94 0.81 0.78 0.77 1.46 2.11 1.96 1.71 1.50 1.37 1.12 1.43 1.21 0.95 0.50 0.10 0.02 0.06 0.03 0.12 0.18 0.40 0.41 0.32 0.27 0.41 0.49 0.66 0.77 0.82 0.85 0.32 0.01 0.02
0.00 0.00 0.00 0.00 0.00 0.00 0.00 0.01 0.06 0.17 0.42 0.40 0.11 0.39 0.75 0.59 0.47 0.81 1.34 2.01 2.56 3.10 3.53 2.28 3.25 2.60 2.34 1.84 1.63 1.48 0.95 0.21 0.27 0.20 0.30 0.42 0.39 0.40 0.45 0.56 0.70 0.98 1.04 0.92 0.83 0.73 0.50 0.09 0.04
0.00 0.00 0.00 0.00 0.00 0.00 0.01 0.06 0.15 0.25 0.28 0.19 0.16 0.53 0.88 0.64 0.53 1.01 1.30 2.49 3.73 2.91 3.59 3.53 4.68 6.45 4.68 3.18 2.77 2.90 2.60 1.90 1.00 0.71 0.71 1.08 1.37 1.26 0.91 0.76 0.89 1.04 1.17 1.00 0.69 0.54 0.45 0.27 0.14
0.00 0.00 0.00 0.00 0.00 0.01 0.11 0.16 0.19 0.18 0.11 0.24 0.42 0.88 1.01 0.64 0.78 0.94 1.77 3.63 5.41 6.22 6.41 5.89 5.76 6.76 6.41 5.77 4.50 4.04 4.09 5.35 4.85 2.97 2.31 2.43 1.92 1.46 1.10 0.81 0.66 0.45 0.42 0.79 0.68 0.43 0.41 0.26 0.27
0.00 0.00 0.00 0.00 0.00 0.07 0.19 0.23 0.15 0.10 0.17 0.53 0.24 0.70 0.67 1.00 0.91 0.81 1.11 2.50 4.32 7.45 8.55 8.07 7.93 7.67 5.09 4.67 4.31 3.63 4.52 3.66 4.87 4.67 3.60 2.21 1.72 1.31 0.82 0.67 0.53 0.45 0.33 0.30 0.28 0.40 0.38 0.34 0.18
0.00 0.00 0.00 0.00 0.01 0.15 0.23 0.08 0.24 0.13 0.11 0.27 0.31 0.50 0.60 0.85 0.55 0.66 0.71 1.39 2.34 3.94 4.55 5.00 6.24 6.73 6.11 4.38 3.27 2.65 3.21 5.14 2.71 2.79 2.83 2.70 1.50 1.20 0.85 0.63 0.61 0.62 0.48 0.23 0.31 0.24 0.19 0.20 0.21
0.00 0.00 0.00 0.00 0.06 0.24 0.13 0.03 0.19 0.09 0.19 0.54 0.38 0.72 0.66 0.43 0.46 0.57 0.60 0.69 1.07 1.57 2.86 3.27 2.93 2.28 2.38 2.35 2.28 1.91 2.48 4.08 3.59 2.49 1.76 1.19 1.32 0.77 0.60 0.78 0.66 0.91 0.75 0.74 0.70 0.40 0.34 0.24 0.13
0.00 0.00 0.00 0.02 0.11 0.04 0.02 0.07 0.10 0.32 0.45 0.52 1.13 0.48 0.41 0.49 0.56 0.70 0.94 0.50 0.51 0.78 1.43 1.56 1.27 0.97 0.77 0.66 0.85 1.18 2.21 2.61 3.08 2.09 1.61 0.99 0.92 0.78 0.39 0.38 0.67 0.85 1.03 0.77 0.63 0.34 0.33 0.25 0.24
0.00 0.00 0.00 0.01 0.01 0.01 0.00 0.01 0.11 0.35 0.80 0.30 0.32 0.38 0.47 0.75 0.62 0.28 0.25 0.27 0.40 0.54 0.78 0.76 0.59 0.48 0.31 0.25 0.40 0.62 1.15 2.24 1.93 1.95 1.55 1.16 0.53 0.59 0.27 0.18 0.37 0.66 0.66 0.75 0.60 0.36 0.37 0.35 0.47
0.00 0.00 0.00 0.01 0.04 0.03 0.00 0.04 0.12 0.30 0.11 0.11 0.16 0.38 0.55 0.56 0.17 0.08 0.15 0.16 0.26 0.46 0.46 0.55 0.48 0.28 0.15 0.11 0.18 0.39 0.64 1.94 1.27 2.00 1.34 1.14 0.29 0.41 0.36 0.41 0.39 0.44 0.66 0.61 0.64 0.60 0.46 0.36 0.50
0.00 0.00 0.00 0.00 0.01 0.01 0.02 0.05 0.09 0.39 0.12 0.12 0.12 0.32 0.56 0.58 0.09 0.04 0.07 0.11 0.16 0.31 0.42 0.46 0.42 0.37 0.26 0.13 0.09 0.22 0.58 1.17 1.21 1.86 1.08 1.26 0.34 0.35 0.36 0.43 0.52 0.36 0.63 0.71 0.69 0.66 0.67 0.52 0.49
0.00 0.00 0.02 0.03 0.01 0.00 0.05 0.19 0.35 0.13 0.08 0.07 0.03 0.04 0.36 0.86 0.24 0.04 0.03 0.05 0.06 0.19 0.32 0.55 0.62 0.42 0.31 0.28 0.32 0.47 0.71 0.87 0.76 1.22 0.98 1.20 0.45 0.31 0.35 0.55 0.60 0.29 0.37 0.96 1.03 0.90 0.85 0.79 0.41
0.00 0.00 0.01 0.04 0.03 0.02 0.15 0.48 0.05 0.03 0.05 0.04 0.01 0.01 0.06 0.10 0.03 0.01 0.01 0.00 0.01 0.05 0.22 0.57 0.75 0.77 0.66 0.54 0.56 0.89 0.80 0.75 0.70 0.92 0.76 0.82 0.58 0.24 0.25 0.35 0.38 0.23 0.31 0.55 1.12 1.02 0.72 0.90 0.64
0.00 0.00 0.00 0.01 0.01 0.01 0.05 0.33 0.12 0.05 0.09 0.08 0.02 0.01 0.01 0.01 0.01 0.00 0.03 0.02 0.05 0.03 0.10 0.54 0.92 1.07 0.99 0.76 1.02 0.73 0.32 0.45 0.56 0.71 0.63 0.75 0.60 0.29 0.33 0.39 0.42 0.26 0.23 0.29 0.62 1.01 0.74 0.71 0.90
0.00 0.00 0.00 0.02 0.02 0.01 0.01 0.03 0.25 0.12 0.05 0.27 0.09 0.04 0.04 0.00 0.01 0.03 0.07 0.07 0.07 0.05 0.11 0.52 1.15 1.24 1.07 0.71 0.56 0.51 0.30 0.43 0.47 0.67 0.67 0.79 0.55 0.31 0.57 0.57 0.38 0.28 0.23 0.23 0.22 0.51 0.69 0.51 0.75
0.00 0.00 0.00 0.00 0.01 0.00 0.00 0.01 0.01 0.00 0.00 0.03 0.05 0.07 0.02 0.00 0.03 0.05 0.07 0.09 0.07 0.08 0.19 0.43 0.83 1.16 0.65 0.38 0.27 0.35 0.37 0.37 0.37 0.42 0.69 0.95 0.74 0.56 0.62 0.88 0.49 0.29 0.19 0.17 0.13 0.16 0.36 0.44 0.63
0.00 0.00 0.00 0.00 0.00 0.00 0.00 0.00 0.00 0.00 0.00 0.01 0.01 0.11 0.03 0.00 0.01 0.02 0.04 0.03 0.04 0.11 0.36 0.45 0.40 0.44 0.41 0.31 0.22 0.19 0.28 0.42 0.32 0.38 0.50 0.75 0.91 0.82 0.68 0.80 0.83 0.50 0.30 0.29 0.24 0.18 0.20 0.29 0.52
0.00 0.00 0.00 0.00 0.00 0.00 0.00 0.00 0.00 0.01 0.01 0.02 0.00 0.00 0.00 0.00 0.02 0.03 0.03 0.03 0.01 0.02 0.18 0.19 0.09 0.13 0.23 0.32 0.31 0.32 0.43 0.52 0.52 0.34 0.34 0.47 0.80 1.04 0.87 0.54 0.93 0.93 0.50 0.34 0.32 0.27 0.16 0.15 0.39
0.00 0.00 0.00 0.00 0.00 0.00 0.00 0.00 0.00 0.00 0.01 0.00 0.00 0.00 0.00 0.00 0.00 0.00 0.00 0.00 0.01 0.06 0.25 0.12 0.11 0.13 0.12 0.14 0.16 0.19 0.29 0.23 0.21 0.21 0.17 0.38 0.38 0.75 1.06 0.83 0.61 0.97 0.78 0.54 0.46 0.49 0.37 0.27 0.30
0.01 0.00 0.00 0.00 0.00 0.05 0.02 0.00 0.03 0.05 0.02 0.00 0.01 0.02 0.01 0.01 0.00 0.00 0.00 0.00 0.02 0.07 0.20 0.16 0.13 0.22 0.16 0.27 0.30 0.23 0.26 0.26 0.24 0.18 0.22 0.27 0.39 0.35 0.74 0.87 0.84 0.68 0.80 0.72 0.68 0.81 0.75 0.54 0.45
0.00 0.02 0.00 0.00 0.01 0.05 0.01 0.01 0.01 0.01 0.02 0.04 0.10 0.09 0.07 0.07 0.04 0.03 0.02 0.03 0.04 0.11 0.20 0.31 0.31 0.22 0.21 0.36 0.42 0.27 0.23 0.20 0.32 0.32 0.23 0.27 0.36 0.50 0.56 0.77 1.00 1.01 0.71 0.77 0.81 0.72 0.81 0.75 0.68
0.01 0.08 0.10 0.14 0.09 0.03 0.00 0.01 0.01 0.02 0.09 0.17 0.22 0.07 0.05 0.04 0.07 0.07 0.06 0.07 0.07 0.10 0.14 0.28 0.41 0.47 0.33 0.34 0.29 0.26 0.22 0.25 0.19 0.22 0.27 0.31 0.32 0.48 0.58 0.50 0.52 0.84 0.89 0.84 1.08 1.03 0.86 0.78 0.86
0.01 0.05 0.13 0.28 0.16 0.06 0.13 0.06 0.03 0.10 0.14 0.12 0.05 0.04 0.03 0.04 0.03 0.02 0.03 0.03 0.05 0.14 0.11 0.12 0.47 0.65 0.71 0.60 0.36 0.30 0.25 0.19 0.20 0.25 0.25 0.18 0.17 0.16 0.45 0.70 0.65 0.59 0.81 1.04 1.11 1.30 1.19 0.93 0.77
0.08 0.10 0.07 0.39 0.26 0.15 0.11 0.04 0.12 0.36 0.34 0.51 0.52 0.24 0.17 0.07 0.03 0.03 0.03 0.04 0.07 0.14 0.21 0.32 0.52 0.58 0.78 0.64 0.40 0.34 0.24 0.19 0.20 0.23 0.21 0.19 0.21 0.25 0.37 0.45 0.77 0.83 0.82 0.79 0.91 1.10 1.22 1.11 0.88
0.06 0.12 0.39 0.57 0.40 0.19 0.01 0.04 0.23 0.38 0.47 0.59 0.50 0.31 0.15 0.09 0.03 0.03 0.04 0.12 0.12 0.21 0.48 0.89 1.03 0.96 1.00 0.93 0.82 0.55 0.46 0.44 0.39 0.33 0.35 0.37 0.37 0.38 0.35 0.35 0.37 0.55 0.65 0.64 0.55 0.67 1.00 1.16 0.95
0.10 0.29 0.33 0.38 0.19 0.27 0.16 0.36 0.71 0.55 0.79 0.61 0.16 0.12 0.11 0.05 0.02 0.01 0.02 0.10 0.13 0.27 0.38 0.52 0.86 1.41 1.71 1.56 1.30 0.98 0.74 1.06 1.07 0.78 0.75 0.68 0.59 0.55 0.48 0.41 0.40 0.30 0.31 0.35 0.30 0.33 0.64 1.02 1.19
0.16 0.24 0.42 0.75 0.48 0.26 0.26 0.46 0.86 0.67 0.35 0.67 0.31 0.22 0.07 0.02 0.02 0.03 0.04 0.06 0.08 0.11 0.19 0.36 0.47 0.71 1.04 1.23 1.58 1.99 1.70 1.43 1.53 1.43 1.30 1.19 0.81 0.65 0.59 0.50 0.47 0.39 0.32 0.27 0.24 0.24 0.44 0.69 1.10

GFSSGP_prec_precacc_114.txt.gz
Total_Precipitation_Accumulation
0.00 0.00 0.00 0.00 0.00 0.00 0.00 0.00 0.00 0.00 0.03 0.09 0.09 0.18 0.14 0.20 0.34 0.58 0.52 1.04 1.61 1.61 1.87 1.49 0.69 0.34 0.06 0.02 0.01 0.01 0.00 0.00 0.00 0.00 0.00 0.03 0.03 0.05 0.06 0.07 0.01 0.01 0.07 0.06 0.03 0.09 0.20 0.23 0.10
0.00 0.00 0.00 0.00 0.00 0.00 0.00 0.00 0.00 0.01 0.11 0.30 0.29 0.33 0.32 0.81 0.55 0.55 0.59 0.66 0.44 0.51 0.54 1.99 2.15 0.97 0.44 0.19 0.09 0.06 0.01 0.00 0.04 0.01 0.01 0.01 0.02 0.07 0.18 0.24 0.09 0.04 0.11 0.13 0.10 0.16 0.19 0.16 0.05
0.00 0.00 0.00 0.00 0.00 0.00 0.00 0.00 0.02 0.06 0.11 0.13 0.18 0.23 0.45 1.30 0.80 0.71 0.68 0.88 1.03 0.91 0.75 0.68 1.21 1.44 1.09 0.50 0.31 0.19 0.05 0.00 0.02 0.01 0.01 0.01 0.07 0.20 0.24 0.33 0.22 0.11 0.33 0.64 0.57 0.53 0.21 0.04 0.01
0.00 0.00 0.00 0.00 0.00 0.00 0.00 0.01 0.03 0.06 0.08 0.07 0.08 0.29 0.57 0.94 0.81 0.78 0.77 1.46 2.11 1.96 1.71 1.50 1.37 1.12 1.43 1.21 0.95 0.50 0.10 0.02 0.06 0.03 0.12 0.18 0.40 0.41 0.32 0.27 0.41 0.50 0.67 0.78 0.82 0.86 0.32 0.01 0.02
0.00 0.00 0.00 0.00 0.00 0.00 0.00 0.01 0.06 0.17 0.42 0.40 0.11 0.39 0.75 0.59 0.47 0.81 1.34 2.01 2.56 3.10 3.53 2.28 3.25 2.60 2.34 1.84 1.63 1.48 0.95 0.21 0.27 0.20 0.30 0.42 0.39 0.40 0.45 0.56 0.70 0.99 1.05 0.92 0.83 0.73 0.50 0.09 0.04
0.00 0.00 0.00 0.00 0.00 0.00 0.01 0.06 0.15 0.25 0.28 0.19 0.16 0.53 0.88 0.64 0.53 1.01 1.30 2.49 3.73 2.91 3.59 3.53 4.68 6.45 4.68 3.18 2.77 2.90 2.60 1.90 1.00 0.71 0.71 1.08 1.37 1.26 0.91 0.76 0.89 1.06 1.17 1.00 0.69 0.55 0.45 0.27 0.14
0.00 0.00 0.00 0.00 0.00 0.01 0.11 0.16 0.19 0.18 0.11 0.24 0.42 0.88 1.01 0.64 0.78 0.94 1.77 3.63 5.41 6.22 6.41 5.89 5.76 6.76 6.41 5.77 4.50 4.04 4.09 5.35 4.85 2.97 2.31 2.43 1.92 1.46 1.10 0.81 0.66 0.47 0.44 0.80 0.69 0.45 0.41 0.26 0.27
0.00 0.00 0.00 0.00 0.00 0.07 0.19 0.23 0.15 0.10 0.17 0.53 0.24 0.70 0.67 1.00 0.91 0.81 1.11 2.50 4.32 7.45 8.55 8.07 7.93 7.67 5.09 4.67 4.31 3.63 4.52 3.66 4.87 4.67 3.60 2.21 1.72 1.31 0.82 0.67 0.53 0.47 0.36 0.32 0.30 0.42 0.38 0.34 0.18
0.00 0.00 0.00 0.00 0.01 0.15 0.23 0.08 0.24 0.13 0.11 0.27 0.31 0.50 0.60 0.85 0.55 0.66 0.71 1.39 2.34 3.94 4.55 5.01 6.25 6.73 6.11 4.38 3.27 2.65 3.21 5.14 2.71 2.79 2.83 2.70 1.50 1.20 0.85 0.63 0.61 0.62 0.48 0.24 0.33 0.24 0.19 0.20 0.21
0.00 0.00 0.00 0.00 0.06 0.24 0.13 0.03 0.19 0.09 0.19 0.54 0.38 0.72 0.66 0.43 0.46 0.57 0.60 0.69 1.07 1.57 2.86 3.27 2.94 2.29 2.39 2.35 2.28 1.91 2.48 4.08 3.59 2.49 1.76 1.19 1.32 0.77 0.60 0.78 0.66 0.91 0.75 0.75 0.70 0.40 0.34 0.24 0.13
0.00 0.00 0.00 0.02 0.11 0.04 0.02 0.07 0.10 0.32 0.45 0.52 1.13 0.48 0.41 0.49 0.56 0.70 0.94 0.50 0.51 0.78 1.43 1.56 1.28 0.99 0.78 0.66 0.85 1.18 2.21 2.61 3.08 2.09 1.61 0.99 0.92 0.78 0.39 0.38 0.68 0.85 1.03 0.77 0.63 0.34 0.33 0.25 0.24
0.00 0.00 0.00 0.01 0.01 0.01 0.00 0.01 0.11 0.35 0.80 0.30 0.32 0.38 0.47 0.75 0.62 0.28 0.25 0.27 0.40 0.54 0.78 0.80 0.60 0.48 0.33 0.25 0.41 0.62 1.15 2.24 1.93 1.95 1.55 1.16 0.53 0.59 0.27 0.18 0.37 0.66 0.66 0.75 0.61 0.36 0.37 0.35 0.47
0.00 0.00 0.00 0.01 0.04 0.03 0.00 0.04 0.12 0.30 0.11 0.11 0.16 0.38 0.55 0.56 0.17 0.08 0.15 0.16 0.26 0.46 0.47 0.73 0.63 0.31 0.16 0.12 0.18 0.41 0.64 1.94 1.27 2.00 1.34 1.14 0.29 0.41 0.36 0.41 0.39 0.44 0.66 0.61 0.64 0.60 0.46 0.36 0.51
0.00 0.00 0.00 0.00 0.01 0.01 0.02 0.05 0.09 0.39 0.12 0.12 0.12 0.32 0.56 0.58 0.09 0.04 0.07 0.11 0.16 0.31 0.42 0.46 0.47 0.56 0.36 0.18 0.15 0.25 0.58 1.17 1.22 1.86 1.08 1.26 0.34 0.35 0.36 0.43 0.52 0.36 0.63 0.71 0.69 0.66 0.67 0.52 0.51
0.00 0.00 0.02 0.03 0.01 0.00 0.05 0.19 0.35 0.13 0.08 0.07 0.03 0.04 0.36 0.86 0.24 0.04 0.03 0.05 0.06 0.19 0.32 0.55 0.62 0.45 0.45 0.38 0.40 0.50 0.72 0.88 0.77 1.22 0.98 1.20 0.45 0.31 0.35 0.55 0.60 0.29 0.37 0.96 1.03 0.90 0.85 0.79 0.42
0.00 0.00 0.01 0.04 0.03 0.02 0.15 0.48 0.05 0.03 0.05 0.04 0.01 0.01 0.06 0.10 0.03 0.01 0.01 0.00 0.01 0.05 0.22 0.57 0.75 0.77 0.66 0.55 0.59 0.90 0.80 0.75 0.70 0.92 0.76 0.82 0.58 0.24 0.25 0.35 0.38 0.23 0.31 0.55 1.12 1.02 0.72 0.91 0.65
0.00 0.00 0.00 0.01 0.01 0.01 0.05 0.33 0.12 0.05 0.09 0.08 0.02 0.01 0.01 0.01 0.01 0.00 0.03 0.02 0.05 0.03 0.10 0.54 0.92 1.07 0.99 0.76 1.02 0.73 0.32 0.45 0.56 0.71 0.63 0.75 0.60 0.30 0.34 0.39 0.42 0.26 0.23 0.30 0.62 1.01 0.75 0.72 0.91
0.00 0.00 0.00 0.02 0.02 0.01 0.01 0.03 0.25 0.12 0.05 0.27 0.09 0.04 0.04 0.00 0.01 0.03 0.07 0.07 0.07 0.05 0.11 0.52 1.15 1.24 1.07 0.71 0.56 0.51 0.30 0.43 0.47 0.67 0.67 0.79 0.55 0.31 0.57 0.57 0.39 0.29 0.23 0.23 0.22 0.51 0.69 0.51 0.76
0.00 0.00 0.00 0.00 0.01 0.00 0.00 0.01 0.01 0.00 0.00 0.03 0.05 0.07 0.02 0.00 0.03 0.05 0.07 0.09 0.07 0.08 0.19 0.43 0.83 1.16 0.65 0.38 0.27 0.35 0.37 0.37 0.37 0.42 0.69 0.95 0.74 0.56 0.62 0.89 0.49 0.29 0.20 0.17 0.13 0.17 0.36 0.44 0.63
0.00 0.00 0.00 0.00 0.00 0.00 0.00 0.00 0.00 0.00 0.00 0.01 0.01 0.11 0.03 0.00 0.01 0.02 0.04 0.03 0.04 0.11 0.36 0.45 0.40 0.44 0.41 0.31 0.22 0.19 0.28 0.42 0.32 0.38 0.50 0.75 0.91 0.83 0.70 0.80 0.83 0.50 0.31 0.29 0.25 0.18 0.20 0.29 0.53
0.00 0.00 0.00 0.00 0.00 0.00 0.00 0.00 0.00 0.01 0.01 0.02 0.00 0.00 0.00 0.00 0.02 0.03 0.03 0.03 0.01 0.02 0.18 0.19 0.09 0.13 0.23 0.32 0.31 0.32 0.43 0.52 0.52 0.34 0.34 0.47 0.81 1.07 0.94 0.55 0.93 0.94 0.51 0.34 0.33 0.28 0.17 0.15 0.40
0.00 0.00 0.00 0.00 0.00 0.00 0.00 0.00 0.00 0.00 0.01 0.00 0.00 0.00 0.00 0.00 0.00 0.00 0.00 0.00 0.01 0.06 0.25 0.12 0.11 0.13 0.12 0.14 0.16 0.19 0.29 0.23 0.21 0.21 0.17 0.38 0.38 0.76 1.13 0.89 0.62 0.98 0.79 0.55 0.48 0.50 0.37 0.27 0.30
0.01 0.00 0.00 0.00 0.00 0.05 0.02 0.00 0.03 0.05 0.02 0.00 0.01 0.02 0.01 0.01 0.00 0.00 0.00 0.00 0.02 0.07 0.20 0.16 0.13 0.22 0.16 0.27 0.30 0.23 0.26 0.26 0.24 0.18 0.22 0.27 0.39 0.35 0.74 0.90 0.86 0.69 0.81 0.73 0.71 0.81 0.75 0.54 0.45
0.00 0.02 0.00 0.00 0.01 0.06 0.01 0.01 0.01 0.01 0.02 0.04 0.10 0.09 0.07 0.07 0.04 0.03 0.02 0.03 0.04 0.11 0.20 0.31 0.31 0.22 0.21 0.36 0.42 0.27 0.23 0.20 0.32 0.32 0.23 0.27 0.36 0.50 0.59 0.83 1.05 1.04 0.73 0.81 0.82 0.73 0.81 0.76 0.68
0.01 0.09 0.12 0.17 0.09 0.03 0.00 0.01 0.02 0.03 0.09 0.18 0.22 0.07 0.05 0.04 0.07 0.07 0.06 0.07 0.07 0.10 0.14 0.28 0.41 0.47 0.33 0.34 0.29 0.26 0.22 0.25 0.19 0.22 0.27 0.31 0.32 0.52 0.67 0.63 0.58 0.85 0.90 0.86 1.10 1.04 0.87 0.79 0.87
0.01 0.05 0.16 0.32 0.18 0.08 0.14 0.08 0.07 0.11 0.16 0.16 0.06 0.04 0.03 0.04 0.03 0.02 0.03 0.03 0.05 0.14 0.11 0.12 0.47 0.65 0.71 0.60 0.36 0.30 0.25 0.19 0.20 0.25 0.25 0.18 0.17 0.17 0.48 0.79 0.77 0.66 0.82 1.06 1.16 1.34 1.20 0.96 0.88
0.08 0.10 0.07 0.42 0.27 0.16 0.12 0.08 0.20 0.37 0.35 0.51 0.52 0.24 0.17 0.07 0.03 0.03 0.03 0.04 0.07 0.14 0.21 0.32 0.52 0.58 0.78 0.64 0.40 0.34 0.24 0.19 0.20 0.23 0.21 0.19 0.21 0.26 0.42 0.51 0.79 0.86 0.84 0.80 0.94 1.13 1.29 1.16 0.98
0.06 0.12 0.40 0.61 0.44 0.20 0.01 0.04 0.31 0.47 0.48 0.59 0.50 0.31 0.15 0.09 0.03 0.03 0.04 0.12 0.12 0.21 0.48 0.89 1.03 0.96 1.00 0.93 0.82 0.55 0.46 0.44 0.39 0.34 0.35 0.37 0.37 0.40 0.41 0.43 0.42 0.57 0.67 0.66 0.61 0.74 1.08 1.27 1.03
0.10 0.29 0.33 0.39 0.21 0.28 0.17 0.39 0.75 0.60 0.81 0.62 0.16 0.12 0.11 0.05 0.02 0.01 0.02 0.10 0.13 0.27 0.38 0.52 0.86 1.41 1.71 1.56 1.30 0.98 0.74 1.07 1.08 0.80 0.77 0.71 0.61 0.58 0.54 0.50 0.51 0.38 0.35 0.38 0.32 0.38 0.70 1.16 1.31
0.16 0.24 0.42 0.76 0.48 0.26 0.26 0.46 0.90 0.70 0.36 0.67 0.31 0.22 0.07 0.02 0.02 0.03 0.04 0.06 0.08 0.11 0.19 0.36 0.47 0.71 1.04 1.24 1.61 2.02 1.71 1.44 1.54 1.44 1.32 1.26 0.88 0.76 0.71 0.63 0.59 0.52 0.50 0.35 0.27 0.28 0.49 0.77 1.22

GFSSGP_prec_precacc_117.txt.gz
Total_Precipitation_Accumulation
0.00 0.00 0.00 0.00 0.00 0.00 0.00 0.00 0.00 0.00 0.03 0.09 0.09 0.18 0.14 0.20 0.34 0.58 0.52 1.04 1.61 1.61 1.87 1.49 0.69 0.34 0.06 0.02 0.01 0.01 0.00 0.00 0.00 0.00 0.00 0.03 0.03 0.05 0.06 0.07 0.01 0.01 0.07 0.06 0.03 0.09 0.20 0.23 0.10
0.00 0.00 0.00 0.00 0.00 0.00 0.00 0.00 0.00 0.01 0.11 0.30 0.29 0.33 0.32 0.81 0.55 0.55 0.59 0.66 0.44 0.51 0.54 1.99 2.15 0.97 0.44 0.19 0.09 0.06 0.01 0.00 0.04 0.01 0.01 0.01 0.02 0.07 0.18 0.24 0.09 0.04 0.11 0.13 0.10 0.16 0.19 0.16 0.05
0.00 0.00 0.00 0.00 0.00 0.00 0.00 0.00 0.02 0.06 0.11 0.13 0.18 0.23 0.45 1.30 0.80 0.71 0.68 0.88 1.03 0.91 0.75 0.68 1.21 1.44 1.09 0.50 0.31 0.19 0.05 0.00 0.02 0.01 0.01 0.01 0.07 0.20 0.24 0.33 0.22 0.11 0.33 0.64 0.57 0.53 0.21 0.04 0.01
0.00 0.00 0.00 0.00 0.00 0.00 0.00 0.01 0.03 0.06 0.08 0.07 0.08 0.29 0.57 0.94 0.81 0.78 0.77 1.46 2.11 1.96 1.71 1.50 1.37 1.12 1.43 1.21 0.95 0.50 0.10 0.02 0.06 0.03 0.12 0.18 0.40 0.41 0.32 0.27 0.41 0.50 0.67 0.78 0.82 0.86 0.32 0.01 0.02
0.00 0.00 0.00 0.00 0.00 0.00 0.00 0.01 0.06 0.17 0.42 0.40 0.11 0.39 0.75 0.59 0.47 0.81 1.34 2.01 2.56 3.10 3.53 2.28 3.25 2.60 2.34 1.84 1.63 1.48 0.95 0.21 0.27 0.20 0.30 0.42 0.39 0.40 0.45 0.56 0.70 0.99 1.06 0.92 0.83 0.73 0.51 0.09 0.04
0.00 0.00 0.00 0.00 0.00 0.00 0.01 0.06 0.15 0.25 0.28 0.19 0.16 0.53 0.88 0.64 0.53 1.01 1.30 2.49 3.73 2.91 3.59 3.53 4.68 6.45 4.68 3.18 2.77 2.90 2.60 1.90 1.00 0.71 0.71 1.08 1.37 1.26 0.91 0.76 0.89 1.06 1.18 1.01 0.69 0.55 0.45 0.27 0.14
0.00 0.00 0.00 0.00 0.00 0.01 0.11 0.16 0.19 0.18 0.11 0.24 0.42 0.88 1.01 0.64 0.78 0.94 1.77 3.63 5.41 6.22 6.41 5.89 5.76 6.76 6.41 5.77 4.50 4.04 4.09 5.35 4.85 2.97 2.31 2.43 1.92 1.46 1.10 0.81 0.66 0.47 0.44 0.81 0.69 0.46 0.41 0.26 0.27
0.00 0.00 0.00 0.00 0.00 0.07 0.19 0.23 0.15 0.10 0.17 0.53 0.24 0.70 0.67 1.00 0.91 0.81 1.11 2.50 4.32 7.45 8.55 8.07 7.93 7.67 5.09 4.67 4.31 3.63 4.52 3.66 4.87 4.67 3.60 2.21 1.72 1.31 0.82 0.67 0.53 0.47 0.36 0.32 0.30 0.42 0.38 0.34 0.18
0.00 0.00 0.00 0.00 0.01 0.15 0.23 0.08 0.24 0.13 0.11 0.27 0.31 0.50 0.60 0.85 0.55 0.66 0.71 1.39 2.34 3.94 4.55 5.01 6.25 6.73 6.11 4.38 3.27 2.65 3.21 5.14 2.71 2.79 2.83 2.70 1.50 1.20 0.85 0.63 0.61 0.62 0.48 0.24 0.33 0.24 0.19 0.20 0.21
0.00 0.00 0.00 0.00 0.06 0.24 0.13 0.03 0.19 0.09 0.19 0.54 0.38 0.72 0.66 0.43 0.46 0.57 0.60 0.69 1.07 1.57 2.86 3.27 2.94 2.29 2.39 2.35 2.28 1.91 2.48 4.08 3.59 2.49 1.76 1.19 1.32 0.77 0.60 0.78 0.66 0.91 0.75 0.75 0.70 0.40 0.34 0.24 0.13
0.00 0.00 0.00 0.02 0.11 0.04 0.02 0.07 0.10 0.32 0.45 0.52 1.13 0.48 0.41 0.49 0.56 0.70 0.94 0.50 0.51 0.78 1.43 1.56 1.28 1.00 0.79 0.66 0.85 1.18 2.21 2.61 3.08 2.09 1.61 0.99 0.92 0.78 0.39 0.38 0.68 0.85 1.03 0.77 0.63 0.34 0.33 0.25 0.24
0.00 0.00 0.00 0.01 0.01 0.01 0.00 0.01 0.11 0.35 0.80 0.30 0.32 0.38 0.47 0.75 0.62 0.28 0.25 0.27 0.40 0.54 0.80 0.85 0.62 0.48 0.33 0.26 0.41 0.62 1.16 2.24 1.93 1.95 1.55 1.16 0.53 0.59 0.27 0.18 0.37 0.66 0.66 0.75 0.61 0.36 0.37 0.35 0.47
0.00 0.00 0.00 0.01 0.04 0.03 0.00 0.04 0.12 0.30 0.11 0.11 0.16 0.38 0.55 0.56 0.17 0.08 0.15 0.16 0.26 0.46 0.48 0.77 0.67 0.35 0.18 0.12 0.20 0.43 0.69 1.94 1.27 2.00 1.34 1.14 0.29 0.41 0.36 0.41 0.39 0.44 0.66 0.61 0.64 0.60 0.46 0.36 0.51
0.00 0.00 0.00 0.00 0.01 0.01 0.02 0.05 0.09 0.39 0.12 0.12 0.12 0.32 0.56 0.58 0.09 0.04 0.07 0.11 0.16 0.31 0.43 0.47 0.48 0.64 0.55 0.41 0.37 0.46 0.81 1.25 1.25 1.86 1.08 1.26 0.34 0.35 0.36 0.43 0.52 0.36 0.63 0.71 0.69 0.66 0.67 0.52 0.51
0.00 0.00 0.02 0.03 0.01 0.00 0.05 0.19 0.35 0.13 0.08 0.07 0.03 0.04 0.36 0.86 0.24 0.04 0.03 0.05 0.06 0.19 0.32 0.55 0.62 0.45 0.51 0.78 0.98 0.94 1.08 1.20 1.02 1.32 1.02 1.21 0.45 0.31 0.35 0.55 0.60 0.29 0.37 0.96 1.03 0.90 0.85 0.79 0.42
0.00 0.00 0.01 0.04 0.03 0.02 0.15 0.48 0.05 0.03 0.05 0.04 0.01 0.01 0.06 0.10 0.03 0.01 0.01 0.00 0.01 0.05 0.22 0.57 0.75 0.77 0.66 0.56 0.66 1.04 1.01 0.97 0.91 1.05 0.78 0.82 0.58 0.24 0.25 0.35 0.38 0.23 0.31 0.55 1.12 1.02 0.72 0.91 0.65
0.00 0.00 0.00 0.01 0.01 0.01 0.05 0.33 0.12 0.05 0.09 0.08 0.02 0.01 0.01 0.01 0.01 0.00 0.03 0.02 0.05 0.03 0.10 0.54 0.92 1.07 0.99 0.76 1.03 0.77 0.40 0.52 0.66 0.90 0.70 0.79 0.61 0.30 0.34 0.39 0.42 0.26 0.23 0.31 0.62 1.01 0.75 0.72 0.91
0.00 0.00 0.00 0.02 0.02 0.01 0.01 0.03 0.25 0.12 0.05 0.27 0.09 0.04 0.04 0.00 0.01 0.03 0.07 0.07 0.07 0.05 0.11 0.52 1.15 1.24 1.07 0.71 0.56 0.51 0.30 0.44 0.50 0.72 0.86 0.91 0.60 0.32 0.61 0.58 0.39 0.32 0.24 0.23 0.22 0.51 0.69 0.51 0.76
0.00 0.00 0.00 0.00 0.01 0.00 0.00 0.01 0.01 0.00 0.00 0.03 0.05 0.07 0.02 0.00 0.03 0.05 0.07 0.09 0.07 0.08 0.19 0.43 0.83 1.16 0.65 0.38 0.27 0.35 0.37 0.37 0.37 0.44 0.77 1.06 0.85 0.64 0.64 0.97 0.61 0.40 0.28 0.18 0.14 0.19 0.37 0.44 0.65
0.00 0.00 0.00 0.00 0.00 0.00 0.00 0.00 0.00 0.00 0.00 0.01 0.01 0.11 0.03 0.00 0.01 0.02 0.04 0.03 0.04 0.11 0.36 0.45 0.40 0.44 0.41 0.31 0.22 0.19 0.28 0.42 0.32 0.38 0.53 0.80 0.97 1.04 1.04 0.98 0.92 0.57 0.54 0.45 0.27 0.23 0.26 0.30 0.54
0.00 0.00 0.00 0.00 0.00 0.00 0.00 0.00 0.00 0.01 0.01 0.02 0.00 0.00 0.00 0.00 0.02 0.03 0.03 0.03 0.01 0.02 0.18 0.19 0.09 0.13 0.23 0.32 0.31 0.32 0.43 0.52 0.52 0.34 0.34 0.47 0.82 1.11 1.19 0.76 1.22 1.33 0.88 0.63 0.51 0.36 0.21 0.21 0.43
0.00 0.00 0.00 0.00 0.00 0.00 0.00 0.00 0.00 0.00 0.01 0.00 0.00 0.00 0.00 0.01 0.01 0.00 0.00 0.00 0.01 0.06 0.25 0.12 0.11 0.13 0.12 0.14 0.16 0.19 0.29 0.23 0.21 0.21 0.17 0.38 0.38 0.76 1.17 1.03 0.76 1.20 1.11 0.89 0.74 0.67 0.45 0.45 0.38
0.01 0.00 0.00 0.00 0.00 0.05 0.02 0.00 0.03 0.05 0.02 0.00 0.01 0.02 0.02 0.02 0.00 0.00 0.00 0.00 0.02 0.07 0.20 0.16 0.13 0.22 0.16 0.27 0.30 0.23 0.26 0.26 0.24 0.18 0.22 0.27 0.39 0.35 0.75 0.96 0.97 0.77 0.94 0.91 0.90 0.93 0.81 0.62 0.53
0.00 0.02 0.00 0.00 0.02 0.06 0.01 0.01 0.01 0.01 0.02 0.06 0.12 0.10 0.07 0.07 0.04 0.03 0.02 0.03 0.04 0.11 0.20 0.31 0.31 0.22 0.21 0.36 0.42 0.27 0.23 0.20 0.32 0.32 0.23 0.27 0.36 0.50 0.59 0.89 1.16 1.13 0.76 0.88 0.91 0.81 0.90 0.77 0.69
0.02 0.09 0.12 0.17 0.09 0.04 0.00 0.02 0.02 0.05 0.14 0.22 0.24 0.08 0.05 0.04 0.07 0.07 0.06 0.07 0.07 0.10 0.14 0.28 0.41 0.47 0.33 0.34 0.29 0.26 0.22 0.25 0.19 0.22 0.27 0.31 0.32 0.52 0.67 0.64 0.62 0.91 0.96 0.97 1.27 1.18 0.93 0.83 0.88
0.02 0.05 0.18 0.33 0.18 0.08 0.15 0.09 0.18 0.29 0.27 0.31 0.10 0.04 0.03 0.04 0.03 0.02 0.03 0.03 0.05 0.14 0.11 0.12 0.47 0.65 0.71 0.60 0.36 0.30 0.25 0.19 0.20 0.25 0.25 0.18 0.17 0.17 0.48 0.79 0.78 0.73 1.04 1.25 1.38 1.53 1.29 0.98 0.89
0.08 0.10 0.07 0.45 0.28 0.16 0.12 0.11 0.58 1.00 0.54 0.80 0.75 0.34 0.21 0.09 0.05 0.04 0.03 0.04 0.07 0.14 0.21 0.32 0.52 0.58 0.78 0.64 0.40 0.34 0.24 0.19 0.20 0.23 0.21 0.19 0.21 0.26 0.42 0.51 0.80 0.90 0.96 0.95 1.05 1.24 1.35 1.26 1.02
0.06 0.12 0.40 0.63 0.48 0.22 0.01 0.06 0.39 0.63 0.65 0.69 0.58 0.37 0.18 0.10 0.03 0.03 0.04 0.12 0.12 0.21 0.48 0.89 1.03 0.96 1.00 0.93 0.82 0.55 0.46 0.44 0.39 0.34 0.35 0.37 0.37 0.40 0.41 0.43 0.42 0.58 0.71 0.69 0.68 0.80 1.15 1.38 1.09
0.10 0.29 0.33 0.39 0.22 0.30 0.18 0.40 0.77 0.63 0.85 0.63 0.17 0.12 0.11 0.05 0.02 0.01 0.02 0.10 0.13 0.27 0.38 0.52 0.86 1.41 1.71 1.56 1.30 0.98 0.74 1.07 1.08 0.80 0.77 0.72 0.61 0.58 0.55 0.50 0.51 0.38 0.38 0.45 0.40 0.43 0.76 1.22 1.43
0.16 0.24 0.42 0.76 0.48 0.26 0.27 0.47 0.92 0.73 0.37 0.67 0.31 0.22 0.07 0.02 0.02 0.03 0.04 0.06 0.08 0.11 0.19 0.36 0.47 0.71 1.04 1.24 1.61 2.02 1.71 1.44 1.54 1.45 1.33 1.28 0.91 0.78 0.74 0.65 0.61 0.53 0.53 0.50 0.41 0.34 0.57 0.90 1.35

GFSSGP_prec_precacc_120.txt.gz
Total_Precipitation_Accumulation
0.00 0.00 0.00 0.00 0.00 0.00 0.00 0.00 0.00 0.00 0.03 0.09 0.09 0.18 0.14 0.20 0.34 0.58 0.52 1.04 1.61 1.61 1.87 1.49 0.69 0.34 0.06 0.02 0.01 0.01 0.00 0.00 0.00 0.00 0.00 0.03 0.03 0.05 0.06 0.07 0.01 0.01 0.07 0.06 0.03 0.09 0.20 0.23 0.10
0.00 0.00 0.00 0.00 0.00 0.00 0.00 0.00 0.00 0.01 0.11 0.30 0.29 0.33 0.32 0.81 0.55 0.55 0.59 0.66 0.44 0.51 0.54 1.99 2.15 0.97 0.44 0.19 0.09 0.06 0.01 0.00 0.04 0.01 0.01 0.01 0.02 0.07 0.18 0.24 0.09 0.04 0.11 0.13 0.10 0.16 0.19 0.16 0.05
0.00 0.00 0.00 0.00 0.00 0.00 0.00 0.00 0.02 0.06 0.11 0.13 0.18 0.23 0.45 1.30 0.80 0.71 0.68 0.88 1.03 0.91 0.75 0.68 1.21 1.44 1.09 0.50 0.31 0.19 0.05 0.00 0.02 0.01 0.01 0.01 0.07 0.20 0.24 0.33 0.22 0.11 0.33 0.64 0.57 0.53 0.21 0.04 0.01
0.00 0.00 0.00 0.00 0.00 0.00 0.00 0.01 0.03 0.06 0.08 0.07 0.08 0.29 0.57 0.94 0.81 0.78 0.77 1.46 2.11 1.96 1.71 1.50 1.37 1.12 1.43 1.21 0.95 0.50 0.10 0.02 0.06 0.03 0.12 0.18 0.40 0.41 0.32 0.27 0.41 0.50 0.67 0.78 0.82 0.86 0.32 0.02 0.02
0.00 0.00 0.00 0.00 0.00 0.00 0.00 0.01 0.06 0.17 0.42 0.40 0.11 0.39 0.75 0.59 0.47 0.81 1.34 2.01 2.56 3.10 3.53 2.28 3.25 2.60 2.34 1.84 1.63 1.48 0.95 0.21 0.27 0.20 0.30 0.42 0.39 0.40 0.45 0.56 0.70 0.99 1.06 0.92 0.83 0.73 0.51 0.09 0.04
0.00 0.00 0.00 0.00 0.00 0.00 0.01 0.06 0.15 0.25 0.28 0.19 0.16 0.53 0.88 0.64 0.53 1.01 1.30 2.49 3.73 2.91 3.59 3.53 4.68 6.45 4.68 3.18 2.77 2.90 2.60 1.90 1.00 0.71 0.71 1.08 1.37 1.26 0.91 0.76 0.89 1.06 1.18 1.01 0.69 0.55 0.45 0.27 0.14
0.00 0.00 0.00 0.00 0.00 0.01 0.11 0.16 0.19 0.18 0.11 0.24 0.42 0.88 1.01 0.64 0.78 0.94 1.77 3.63 5.41 6.22 6.41 5.89 5.76 6.76 6.41 5.77 4.50 4.04 4.09 5.35 4.85 2.97 2.31 2.43 1.92 1.46 1.10 0.81 0.66 0.47 0.44 0.81 0.69 0.46 0.41 0.26 0.27
0.00 0.00 0.00 0.00 0.00 0.07 0.19 0.23 0.15 0.10 0.17 0.53 0.24 0.70 0.67 1.00 0.91 0.81 1.11 2.50 4.32 7.45 8.55 8.07 7.93 7.67 5.09 4.67 4.31 3.63 4.52 3.66 4.87 4.67 3.60 2.21 1.72 1.31 0.82 0.67 0.53 0.47 0.36 0.32 0.30 0.42 0.38 0.34 0.18
0.00 0.00 0.00 0.00 0.01 0.15 0.23 0.08 0.24 0.13 0.11 0.27 0.31 0.50 0.60 0.85 0.55 0.66 0.71 1.39 2.34 3.94 4.55 5.01 6.25 6.73 6.11 4.38 3.27 2.65 3.21 5.14 2.71 2.79 2.83 2.70 1.50 1.20 0.85 0.63 0.61 0.62 0.48 0.24 0.33 0.24 0.19 0.20 0.21
0.00 0.00 0.00 0.00 0.06 0.24 0.13 0.03 0.19 0.09 0.19 0.54 0.38 0.72 0.66 0.43 0.46 0.57 0.60 0.69 1.07 1.57 2.86 3.27 2.94 2.29 2.39 2.35 2.28 1.91 2.48 4.08 3.59 2.49 1.76 1.19 1.32 0.77 0.60 0.78 0.66 0.91 0.75 0.75 0.70 0.40 0.34 0.24 0.13
0.00 0.00 0.00 0.02 0.11 0.04 0.02 0.07 0.10 0.32 0.45 0.52 1.13 0.48 0.41 0.49 0.56 0.70 0.94 0.50 0.51 0.78 1.43 1.56 1.28 1.00 0.79 0.66 0.85 1.18 2.21 2.61 3.08 2.09 1.61 0.99 0.92 0.78 0.39 0.38 0.68 0.85 1.03 0.77 0.63 0.34 0.33 0.25 0.24
0.00 0.00 0.00 0.01 0.01 0.01 0.00 0.01 0.11 0.35 0.80 0.30 0.32 0.38 0.47 0.75 0.62 0.28 0.25 0.27 0.40 0.54 0.80 0.89 0.65 0.49 0.34 0.26 0.41 0.62 1.16 2.24 1.93 1.95 1.55 1.16 0.53 0.59 0.27 0.18 0.37 0.66 0.66 0.75 0.61 0.36 0.37 0.35 0.47
0.00 0.00 0.00 0.01 0.04 0.03 0.00 0.04 0.12 0.30 0.11 0.11 0.16 0.38 0.55 0.56 0.17 0.08 0.15 0.16 0.26 0.46 0.49 0.81 0.76 0.48 0.32 0.18 0.24 0.45 0.69 1.96 1.28 2.00 1.34 1.14 0.29 0.41 0.36 0.41 0.39 0.44 0.66 0.61 0.64 0.60 0.46 0.36 0.51
0.00 0.00 0.00 0.00 0.01 0.01 0.02 0.05 0.09 0.39 0.12 0.12 0.12 0.32 0.56 0.58 0.09 0.04 0.07 0.11 0.16 0.31 0.43 0.48 0.52 0.72 0.66 0.66 0.56 0.58 0.92 1.48 1.38 1.88 1.08 1.26 0.34 0.35 0.36 0.43 0.52 0.36 0.63 0.71 0.69 0.66 0.67 0.52 0.51
0.00 0.00 0.02 0.03 0.01 0.00 0.05 0.19 0.35 0.13 0.08 0.07 0.03 0.04 0.36 0.86 0.24 0.04 0.03 0.05 0.06 0.19 0.32 0.55 0.62 0.45 0.52 0.85 1.08 1.06 1.25 1.41 1.26 1.57 1.17 1.25 0.47 0.31 0.35 0.55 0.60 0.29 0.37 0.96 1.03 0.90 0.85 0.79 0.42
0.00 0.00 0.01 0.04 0.03 0.02 0.15 0.48 0.05 0.03 0.05 0.04 0.01 0.01 0.06 0.10 0.03 0.01 0.01 0.00 0.01 0.05 0.22 0.57 0.75 0.77 0.66 0.56 0.67 1.08 1.13 1.19 1.15 1.31 1.10 1.11 0.80 0.36 0.28 0.35 0.38 0.23 0.31 0.55 1.12 1.02 0.72 0.91 0.65
0.00 0.00 0.00 0.01 0.01 0.01 0.05 0.33 0.12 0.05 0.09 0.08 0.02 0.01 0.01 0.01 0.01 0.00 0.03 0.02 0.05 0.03 0.10 0.54 0.92 1.07 0.99 0.76 1.03 0.77 0.41 0.58 0.77 1.10 1.12 1.55 1.34 0.67 0.62 0.52 0.45 0.27 0.23 0.31 0.62 1.01 0.75 0.73 0.91
0.00 0.00 0.00 0.02 0.02 0.01 0.01 0.03 0.25 0.12 0.05 0.27 0.09 0.04 0.04 0.00 0.01 0.03 0.07 0.07 0.07 0.05 0.11 0.52 1.15 1.24 1.07 0.71 0.56 0.52 0.30 0.44 0.51 0.78 1.01 1.17 1.11 0.74 0.94 0.87 0.51 0.43 0.35 0.27 0.23 0.52 0.70 0.54 0.76
0.00 0.00 0.00 0.00 0.01 0.00 0.00 0.01 0.01 0.00 0.00 0.03 0.05 0.07 0.02 0.00 0.03 0.05 0.07 0.09 0.07 0.08 0.19 0.43 0.83 1.16 0.65 0.38 0.27 0.35 0.37 0.37 0.38 0.44 0.78 1.09 1.01 0.94 0.97 1.25 0.81 0.60 0.52 0.45 0.43 0.40 0.51 0.53 0.70
0.00 0.00 0.00 0.00 0.00 0.00 0.00 0.00 0.00 0.00 0.00 0.01 0.01 0.11 0.03 0.00 0.01 0.02 0.04 0.03 0.04 0.11 0.36 0.45 0.40 0.44 0.41 0.31 0.22 0.19 0.28 0.42 0.32 0.38 0.53 0.80 0.98 1.07 1.16 1.25 1.24 0.83 0.85 0.78 0.63 0.68 0.57 0.50 0.66
0.00 0.00 0.00 0.00 0.00 0.00 0.00 0.00 0.00 0.01 0.01 0.02 0.00 0.00 0.00 0.00 0.02 0.03 0.03 0.03 0.01 0.02 0.18 0.19 0.09 0.13 0.23 0.32 0.31 0.32 0.43 0.52 0.52 0.34 0.34 0.47 0.82 1.11 1.20 0.82 1.39 1.63 1.28 0.99 0.87 0.82 0.69 0.72 0.82
0.00 0.00 0.00 0.00 0.00 0.00 0.00 0.00 0.00 0.00 0.01 0.00 0.00 0.00 0.00 0.02 0.01 0.00 0.00 0.00 0.01 0.06 0.25 0.12 0.11 0.13 0.12 0.14 0.16 0.19 0.29 0.23 0.21 0.21 0.17 0.38 0.38 0.76 1.17 1.03 0.77 1.25 1.21 1.08 0.97 0.96 0.83 1.00 1.00
0.01 0.00 0.00 0.00 0.00 0.05 0.02 0.00 0.03 0.05 0.02 0.00 0.01 0.02 0.02 0.03 0.01 0.01 0.01 0.00 0.02 0.07 0.20 0.16 0.13 0.22 0.16 0.27 0.30 0.23 0.26 0.26 0.24 0.18 0.22 0.27 0.39 0.35 0.75 0.96 0.98 0.78 0.95 0.96 0.98 1.02 0.95 0.82 0.76
0.00 0.02 0.00 0.00 0.02 0.06 0.01 0.01 0.01 0.01 0.03 0.07 0.14 0.11 0.08 0.07 0.05 0.03 0.03 0.03 0.04 0.11 0.20 0.31 0.31 0.22 0.21 0.36 0.42 0.27 0.23 0.20 0.32 0.32 0.23 0.27 0.36 0.50 0.59 0.89 1.16 1.13 0.76 0.90 0.94 0.85 0.97 0.89 0.81
0.02 0.11 0.15 0.18 0.09 0.04 0.00 0.02 0.02 0.06 0.16 0.28 0.32 0.13 0.07 0.04 0.07 0.08 0.06 0.07 0.07 0.10 0.14 0.28 0.41 0.47 0.33 0.34 0.29 0.26 0.22 0.25 0.19 0.22 0.27 0.31 0.32 0.52 0.67 0.64 0.62 0.91 0.96 0.97 1.29 1.21 1.00 0.91 0.95
0.02 0.07 0.21 0.34 0.18 0.08 0.15 0.09 0.18 0.36 0.38 0.44 0.28 0.17 0.11 0.08 0.04 0.04 0.05 0.04 0.05 0.14 0.11 0.12 0.47 0.65 0.71 0.60 0.36 0.30 0.25 0.19 0.20 0.25 0.25 0.18 0.17 0.17 0.48 0.79 0.78 0.73 1.04 1.25 1.39 1.56 1.38 1.09 0.96
0.08 0.11 0.08 0.45 0.28 0.16 0.12 0.11 0.58 1.05 0.79 1.20 1.25 0.67 0.51 0.33 0.14 0.07 0.04 0.04 0.07 0.14 0.21 0.32 0.52 0.58 0.78 0.64 0.40 0.34 0.24 0.19 0.20 0.23 0.21 0.19 0.21 0.26 0.42 0.51 0.80 0.90 0.96 0.95 1.05 1.24 1.37 1.32 1.06
0.07 0.12 0.40 0.63 0.48 0.22 0.01 0.06 0.41 0.66 0.72 0.79 0.66 0.47 0.32 0.23 0.16 0.13 0.10 0.16 0.13 0.21 0.48 0.89 1.03 0.96 1.00 0.93 0.82 0.55 0.46 0.44 0.39 0.34 0.35 0.37 0.37 0.40 0.41 0.43 0.42 0.58 0.71 0.69 0.68 0.81 1.18 1.42 1.14
0.10 0.29 0.33 0.39 0.23 0.30 0.18 0.40 0.77 0.64 0.86 0.63 0.17 0.12 0.11 0.05 0.02 0.01 0.02 0.10 0.13 0.27 0.38 0.52 0.86 1.41 1.71 1.56 1.30 0.98 0.74 1.07 1.08 0.80 0.77 0.72 0.62 0.58 0.55 0.50 0.51 0.38 0.38 0.45 0.40 0.43 0.76 1.25 1.49
0.16 0.24 0.42 0.77 0.49 0.26 0.27 0.47 0.93 0.75 0.39 0.67 0.31 0.22 0.07 0.02 0.02 0.03 0.04 0.06 0.08 0.11 0.19 0.36 0.47 0.71 1.04 1.24 1.61 2.02 1.71 1.44 1.54 1.45 1.33 1.28 0.91 0.78 0.74 0.65 0.61 0.53 0.54 0.50 0.41 0.35 0.59 0.92 1.38

GFSSGP_prec_precacc_123.txt.gz
Total_Precipitation_Accumulation
0.00 0.00 0.00 0.00 0.00 0.00 0.00 0.00 0.00 0.00 0.03 0.09 0.09 0.18 0.14 0.20 0.34 0.58 0.52 1.04 1.61 1.61 1.87 1.49 0.69 0.34 0.06 0.02 0.01 0.01 0.00 0.00 0.00 0.00 0.00 0.03 0.03 0.05 0.06 0.07 0.01 0.01 0.07 0.06 0.03 0.09 0.20 0.23 0.10
0.00 0.00 0.00 0.00 0.00 0.00 0.00 0.00 0.00 0.01 0.11 0.30 0.29 0.33 0.32 0.81 0.55 0.55 0.59 0.66 0.44 0.51 0.54 1.99 2.15 0.97 0.44 0.19 0.09 0.06 0.01 0.00 0.04 0.01 0.01 0.01 0.02 0.07 0.18 0.24 0.09 0.04 0.11 0.13 0.10 0.16 0.19 0.16 0.05
0.00 0.00 0.00 0.00 0.00 0.00 0.00 0.00 0.02 0.06 0.11 0.13 0.18 0.23 0.45 1.30 0.80 0.71 0.68 0.88 1.03 0.91 0.75 0.68 1.21 1.44 1.09 0.50 0.31 0.19 0.05 0.00 0.02 0.01 0.01 0.01 0.07 0.20 0.24 0.33 0.22 0.11 0.33 0.64 0.57 0.53 0.21 0.04 0.01
0.00 0.00 0.00 0.00 0.00 0.00 0.00 0.01 0.03 0.06 0.08 0.07 0.08 0.29 0.57 0.94 0.81 0.78 0.77 1.46 2.11 1.96 1.71 1.50 1.37 1.12 1.43 1.21 0.95 0.50 0.10 0.02 0.06 0.03 0.12 0.18 0.40 0.41 0.32 0.27 0.41 0.50 0.67 0.78 0.82 0.86 0.32 0.02 0.02
0.00 0.00 0.00 0.00 0.00 0.00 0.00 0.01 0.06 0.17 0.42 0.40 0.11 0.39 0.75 0.59 0.47 0.81 1.34 2.01 2.56 3.10 3.53 2.28 3.25 2.60 2.34 1.84 1.63 1.48 0.95 0.21 0.27 0.20 0.30 0.42 0.39 0.40 0.45 0.56 0.70 0.99 1.06 0.92 0.83 0.73 0.51 0.09 0.04
0.00 0.00 0.00 0.00 0.00 0.00 0.01 0.06 0.15 0.25 0.28 0.19 0.16 0.53 0.88 0.64 0.53 1.01 1.30 2.49 3.73 2.91 3.59 3.53 4.68 6.45 4.68 3.18 2.77 2.90 2.60 1.90 1.00 0.71 0.71 1.08 1.37 1.26 0.91 0.76 0.89 1.06 1.18 1.01 0.69 0.55 0.45 0.27 0.14
0.00 0.00 0.00 0.00 0.00 0.01 0.11 0.16 0.19 0.18 0.11 0.24 0.42 0.88 1.01 0.64 0.78 0.94 1.77 3.63 5.41 6.22 6.41 5.89 5.76 6.76 6.41 5.77 4.50 4.04 4.09 5.35 4.85 2.97 2.31 2.43 1.92 1.46 1.10 0.81 0.66 0.47 0.44 0.81 0.69 0.46 0.41 0.26 0.27
0.00 0.00 0.00 0.00 0.00 0.07 0.19 0.23 0.15 0.10 0.17 0.53 0.24 0.70 0.67 1.00 0.91 0.81 1.11 2.50 4.32 7.45 8.55 8.07 7.93 7.67 5.09 4.67 4.31 3.63 4.52 3.66 4.87 4.67 3.60 2.21 1.72 1.31 0.82 0.67 0.53 0.47 0.36 0.32 0.30 0.42 0.38 0.34 0.18
0.00 0.00 0.00 0.00 0.01 0.15 0.23 0.08 0.24 0.13 0.11 0.27 0.31 0.50 0.60 0.85 0.55 0.66 0.71 1.39 2.34 3.94 4.55 5.01 6.25 6.73 6.11 4.38 3.27 2.65 3.21 5.14 2.71 2.79 2.83 2.70 1.50 1.20 0.85 0.63 0.61 0.62 0.48 0.24 0.33 0.24 0.19 0.20 0.21
0.00 0.00 0.00 0.00 0.06 0.24 0.13 0.03 0.19 0.09 0.19 0.54 0.38 0.72 0.66 0.43 0.46 0.57 0.60 0.69 1.07 1.57 2.86 3.27 2.94 2.29 2.39 2.35 2.28 1.91 2.48 4.08 3.59 2.49 1.76 1.19 1.32 0.77 0.60 0.78 0.66 0.91 0.75 0.75 0.70 0.40 0.34 0.24 0.13
0.00 0.00 0.00 0.02 0.11 0.04 0.02 0.07 0.10 0.32 0.45 0.52 1.13 0.48 0.41 0.49 0.56 0.70 0.94 0.50 0.51 0.78 1.43 1.56 1.28 1.00 0.79 0.66 0.85 1.18 2.21 2.61 3.08 2.09 1.61 0.99 0.92 0.78 0.39 0.38 0.68 0.85 1.03 0.77 0.63 0.34 0.33 0.25 0.24
0.00 0.00 0.00 0.01 0.01 0.01 0.00 0.01 0.11 0.35 0.80 0.30 0.32 0.38 0.47 0.75 0.62 0.28 0.25 0.27 0.40 0.54 0.80 0.89 0.65 0.50 0.38 0.27 0.42 0.63 1.16 2.24 1.93 1.95 1.55 1.16 0.54 0.59 0.27 0.18 0.37 0.66 0.66 0.75 0.61 0.36 0.37 0.35 0.47
0.00 0.00 0.00 0.01 0.04 0.03 0.00 0.04 0.12 0.30 0.11 0.11 0.16 0.38 0.55 0.56 0.17 0.08 0.15 0.16 0.26 0.46 0.49 0.81 0.76 0.50 0.36 0.25 0.31 0.51 0.71 1.96 1.28 2.00 1.34 1.14 0.29 0.41 0.36 0.41 0.39 0.44 0.66 0.61 0.64 0.60 0.46 0.36 0.51
0.00 0.00 0.00 0.00 0.01 0.01 0.02 0.05 0.09 0.39 0.12 0.12 0.12 0.32 0.56 0.58 0.09 0.04 0.07 0.11 0.16 0.31 0.43 0.48 0.52 0.72 0.66 0.72 0.80 0.77 1.08 1.58 1.43 1.89 1.09 1.26 0.34 0.35 0.36 0.43 0.52 0.36 0.63 0.71 0.69 0.66 0.67 0.52 0.51
0.00 0.00 0.02 0.03 0.01 0.00 0.05 0.19 0.35 0.13 0.08 0.07 0.03 0.04 0.36 0.86 0.24 0.04 0.03 0.05 0.06 0.19 0.32 0.55 0.62 0.45 0.52 0.86 1.13 1.21 1.49 1.69 1.57 1.79 1.24 1.27 0.51 0.33 0.39 0.57 0.60 0.29 0.37 0.97 1.03 0.90 0.85 0.79 0.42
0.00 0.00 0.01 0.04 0.03 0.02 0.15 0.48 0.05 0.03 0.05 0.04 0.01 0.01 0.06 0.10 0.03 0.01 0.01 0.00 0.01 0.05 0.22 0.57 0.75 0.77 0.66 0.56 0.67 1.09 1.17 1.34 1.46 1.65 1.39 1.33 0.97 0.54 0.43 0.43 0.40 0.26 0.37 0.61 1.17 1.05 0.74 0.92 0.65
0.00 0.00 0.00 0.01 0.01 0.01 0.05 0.33 0.12 0.05 0.09 0.08 0.02 0.01 0.01 0.01 0.01 0.00 0.03 0.02 0.05 0.03 0.10 0.54 0.92 1.07 0.99 0.76 1.03 0.77 0.41 0.58 0.78 1.13 1.19 1.63 1.61 1.06 0.90 0.82 0.65 0.40 0.33 0.43 0.75 1.07 0.80 0.77 0.95
0.00 0.00 0.00 0.02 0.02 0.01 0.01 0.03 0.25 0.12 0.05 0.27 0.09 0.04 0.04 0.00 0.01 0.03 0.07 0.07 0.07 0.05 0.11 0.52 1.15 1.24 1.07 0.71 0.56 0.52 0.30 0.44 0.51 0.78 1.03 1.19 1.27 1.26 1.32 1.21 0.98 0.89 0.64 0.46 0.38 0.64 0.88 0.68 0.96
0.00 0.00 0.00 0.00 0.01 0.00 0.00 0.01 0.01 0.00 0.00 0.03 0.05 0.07 0.02 0.00 0.03 0.05 0.07 0.09 0.07 0.08 0.19 0.43 0.83 1.16 0.65 0.38 0.27 0.35 0.37 0.37 0.38 0.44 0.78 1.09 1.01 1.01 1.29 1.77 1.40 1.18 0.91 0.59 0.59 0.61 0.72 0.82 1.02
0.00 0.00 0.00 0.00 0.00 0.00 0.00 0.00 0.00 0.00 0.00 0.01 0.01 0.11 0.03 0.00 0.01 0.02 0.04 0.03 0.04 0.11 0.36 0.45 0.40 0.44 0.41 0.31 0.22 0.19 0.28 0.42 0.32 0.38 0.53 0.80 0.98 1.07 1.17 1.31 1.44 1.34 1.60 1.27 0.80 0.84 0.77 0.79 0.95
0.00 0.00 0.00 0.00 0.00 0.00 0.00 0.00 0.00 0.01 0.01 0.02 0.00 0.00 0.00 0.00 0.02 0.03 0.03 0.03 0.01 0.02 0.18 0.19 0.09 0.13 0.23 0.32 0.31 0.32 0.43 0.52 0.52 0.34 0.34 0.47 0.82 1.11 1.20 0.82 1.40 1.66 1.39 1.25 1.13 1.05 0.91 0.93 1.21
0.00 0.00 0.00 0.00 0.00 0.00 0.00 0.00 0.00 0.00 0.01 0.00 0.00 0.00 0.00 0.02 0.01 0.00 0.00 0.00 0.02 0.06 0.25 0.12 0.11 0.13 0.12 0.14 0.16 0.19 0.29 0.23 0.21 0.21 0.17 0.38 0.38 0.76 1.17 1.03 0.77 1.25 1.21 1.10 1.11 1.23 1.17 1.36 1.41
0.01 0.00 0.00 0.00 0.00 0.05 0.02 0.00 0.03 0.05 0.02 0.00 0.01 0.02 0.02 0.03 0.02 0.02 0.02 0.01 0.03 0.07 0.20 0.16 0.13 0.22 0.16 0.27 0.30 0.23 0.26 0.26 0.24 0.18 0.22 0.27 0.39 0.35 0.75 0.96 0.98 0.78 0.95 0.96 0.99 1.06 1.03 0.92 0.95
0.00 0.02 0.00 0.00 0.02 0.07 0.01 0.01 0.01 0.01 0.03 0.07 0.14 0.11 0.08 0.07 0.05 0.04 0.04 0.04 0.05 0.11 0.20 0.31 0.31 0.22 0.21 0.36 0.42 0.27 0.23 0.20 0.32 0.32 0.23 0.27 0.36 0.50 0.59 0.89 1.16 1.13 0.76 0.90 0.94 0.86 0.99 0.93 0.91
0.02 0.11 0.17 0.19 0.09 0.04 0.00 0.02 0.02 0.06 0.16 0.28 0.32 0.14 0.08 0.06 0.08 0.08 0.07 0.07 0.07 0.10 0.14 0.28 0.41 0.47 0.33 0.34 0.29 0.26 0.22 0.25 0.19 0.22 0.27 0.31 0.32 0.52 0.67 0.64 0.62 0.91 0.96 0.97 1.29 1.21 1.01 0.92 0.97
0.02 0.07 0.25 0.35 0.18 0.08 0.15 0.09 0.18 0.36 0.38 0.44 0.32 0.24 0.19 0.23 0.23 0.20 0.14 0.09 0.08 0.15 0.11 0.12 0.47 0.65 0.71 0.60 0.36 0.30 0.25 0.19 0.20 0.25 0.25 0.18 0.17 0.17 0.48 0.79 0.78 0.73 1.04 1.25 1.39 1.56 1.38 1.09 0.97
0.08 0.11 0.09 0.47 0.28 0.16 0.12 0.11 0.58 1.05 0.79 1.22 1.33 0.82 0.67 0.55 0.43 0.27 0.16 0.12 0.12 0.16 0.23 0.33 0.53 0.58 0.78 0.64 0.40 0.34 0.24 0.19 0.20 0.23 0.21 0.19 0.21 0.26 0.42 0.51 0.80 0.90 0.96 0.95 1.05 1.24 1.37 1.32 1.07
0.07 0.12 0.40 0.63 0.48 0.22 0.01 0.06 0.41 0.67 0.72 0.79 0.66 0.49 0.34 0.25 0.17 0.14 0.12 0.17 0.14 0.23 0.49 0.89 1.04 0.96 1.00 0.93 0.82 0.55 0.46 0.44 0.39 0.34 0.35 0.37 0.37 0.40 0.41 0.43 0.42 0.58 0.71 0.69 0.68 0.81 1.18 1.43 1.14
0.10 0.29 0.33 0.39 0.23 0.30 0.18 0.40 0.77 0.64 0.86 0.63 0.17 0.12 0.11 0.05 0.02 0.01 0.02 0.10 0.13 0.27 0.38 0.52 0.86 1.41 1.71 1.56 1.30 0.98 0.74 1.07 1.08 0.80 0.77 0.72 0.62 0.58 0.55 0.50 0.51 0.38 0.38 0.45 0.40 0.43 0.76 1.25 1.49
0.16 0.24 0.42 0.77 0.49 0.26 0.27 0.47 0.93 0.75 0.39 0.67 0.31 0.22 0.07 0.02 0.02 0.03 0.04 0.06 0.08 0.11 0.19 0.36 0.47 0.71 1.04 1.24 1.61 2.02 1.71 1.44 1.55 1.45 1.33 1.28 0.91 0.78 0.74 0.65 0.61 0.53 0.54 0.50 0.41 0.35 0.59 0.92 1.38

GFSSGP_prec_precacc_126.txt.gz
Total_Precipitation_Accumulation
0.00 0.00 0.00 0.00 0.00 0.00 0.00 0.00 0.00 0.00 0.03 0.09 0.09 0.18 0.14 0.20 0.34 0.58 0.52 1.04 1.61 1.61 1.87 1.49 0.69 0.34 0.06 0.02 0.01 0.01 0.00 0.00 0.00 0.00 0.00 0.03 0.03 0.05 0.06 0.07 0.01 0.01 0.08 0.06 0.03 0.09 0.20 0.23 0.10
0.00 0.00 0.00 0.00 0.00 0.00 0.00 0.00 0.00 0.01 0.11 0.30 0.29 0.33 0.32 0.81 0.55 0.55 0.59 0.66 0.44 0.51 0.54 1.99 2.15 0.97 0.44 0.19 0.09 0.06 0.01 0.00 0.04 0.01 0.01 0.01 0.02 0.07 0.18 0.24 0.09 0.04 0.11 0.13 0.10 0.16 0.19 0.16 0.05
0.00 0.00 0.00 0.00 0.00 0.00 0.00 0.00 0.02 0.06 0.11 0.13 0.18 0.23 0.45 1.30 0.80 0.71 0.68 0.88 1.03 0.91 0.75 0.68 1.21 1.44 1.09 0.50 0.31 0.19 0.05 0.00 0.02 0.01 0.01 0.01 0.07 0.20 0.24 0.33 0.22 0.11 0.33 0.64 0.57 0.53 0.21 0.04 0.01
0.00 0.00 0.00 0.00 0.00 0.00 0.00 0.01 0.03 0.06 0.08 0.07 0.08 0.29 0.57 0.94 0.81 0.78 0.77 1.46 2.11 1.96 1.71 1.50 1.37 1.12 1.43 1.21 0.95 0.50 0.10 0.02 0.06 0.03 0.12 0.18 0.40 0.41 0.32 0.27 0.41 0.50 0.67 0.78 0.82 0.86 0.32 0.02 0.02
0.00 0.00 0.00 0.00 0.00 0.00 0.00 0.01 0.06 0.17 0.42 0.40 0.11 0.39 0.75 0.59 0.47 0.81 1.34 2.01 2.56 3.10 3.53 2.28 3.25 2.60 2.34 1.84 1.63 1.48 0.95 0.21 0.27 0.20 0.30 0.42 0.39 0.40 0.45 0.56 0.70 0.99 1.06 0.92 0.84 0.74 0.51 0.09 0.04
0.00 0.00 0.00 0.00 0.00 0.00 0.01 0.06 0.15 0.25 0.28 0.19 0.16 0.53 0.88 0.64 0.53 1.01 1.30 2.49 3.73 2.91 3.59 3.53 4.68 6.45 4.68 3.18 2.77 2.90 2.60 1.90 1.00 0.71 0.71 1.08 1.37 1.26 0.91 0.76 0.89 1.06 1.18 1.01 0.69 0.55 0.45 0.27 0.14
0.00 0.00 0.00 0.00 0.00 0.01 0.11 0.16 0.19 0.18 0.11 0.24 0.42 0.88 1.01 0.64 0.78 0.94 1.77 3.63 5.41 6.22 6.41 5.89 5.76 6.76 6.41 5.77 4.50 4.04 4.09 5.35 4.85 2.97 2.31 2.43 1.92 1.46 1.10 0.81 0.66 0.47 0.44 0.81 0.69 0.46 0.41 0.26 0.27
0.00 0.00 0.00 0.00 0.00 0.07 0.19 0.23 0.15 0.10 0.17 0.53 0.24 0.70 0.67 1.00 0.91 0.81 1.11 2.50 4.32 7.45 8.55 8.07 7.93 7.67 5.09 4.67 4.31 3.63 4.52 3.66 4.87 4.67 3.60 2.21 1.72 1.31 0.82 0.67 0.53 0.47 0.36 0.32 0.30 0.42 0.38 0.34 0.18
0.00 0.00 0.00 0.00 0.01 0.15 0.23 0.08 0.24 0.13 0.11 0.27 0.31 0.50 0.60 0.85 0.55 0.66 0.71 1.39 2.34 3.94 4.55 5.01 6.25 6.73 6.11 4.38 3.27 2.65 3.21 5.14 2.71 2.79 2.83 2.70 1.50 1.20 0.85 0.63 0.61 0.62 0.48 0.24 0.33 0.24 0.19 0.20 0.21
0.00 0.00 0.00 0.00 0.06 0.24 0.13 0.03 0.19 0.09 0.19 0.54 0.38 0.72 0.66 0.43 0.46 0.57 0.60 0.69 1.07 1.57 2.86 3.27 2.94 2.29 2.39 2.35 2.28 1.91 2.48 4.08 3.59 2.49 1.76 1.19 1.32 0.77 0.60 0.78 0.66 0.91 0.75 0.75 0.70 0.40 0.34 0.24 0.13
0.00 0.00 0.00 0.02 0.11 0.04 0.02 0.07 0.10 0.32 0.45 0.52 1.13 0.48 0.41 0.49 0.56 0.70 0.94 0.50 0.51 0.78 1.43 1.56 1.28 1.00 0.79 0.66 0.85 1.18 2.21 2.61 3.08 2.09 1.61 0.99 0.92 0.78 0.39 0.38 0.68 0.85 1.03 0.77 0.63 0.34 0.33 0.25 0.24
0.00 0.00 0.00 0.01 0.01 0.01 0.00 0.01 0.11 0.35 0.80 0.30 0.32 0.38 0.47 0.75 0.62 0.28 0.25 0.27 0.40 0.54 0.80 0.89 0.65 0.50 0.38 0.28 0.43 0.65 1.18 2.25 1.94 1.98 1.57 1.18 0.54 0.59 0.27 0.18 0.37 0.66 0.66 0.75 0.61 0.36 0.37 0.35 0.47
0.00 0.00 0.00 0.01 0.04 0.03 0.00 0.04 0.12 0.30 0.11 0.11 0.16 0.38 0.55 0.56 0.17 0.08 0.15 0.16 0.26 0.46 0.49 0.81 0.76 0.50 0.36 0.28 0.34 0.55 0.77 1.98 1.29 2.10 1.43 1.22 0.36 0.46 0.37 0.42 0.40 0.44 0.66 0.61 0.64 0.61 0.47 0.37 0.51
0.00 0.00 0.00 0.00 0.01 0.01 0.02 0.05 0.09 0.39 0.12 0.12 0.12 0.32 0.56 0.58 0.09 0.04 0.07 0.11 0.16 0.31 0.43 0.48 0.52 0.72 0.67 0.74 0.83 0.81 1.18 1.62 1.43 1.92 1.13 1.31 0.36 0.39 0.38 0.46 0.55 0.42 0.75 0.78 0.73 0.67 0.68 0.53 0.51
0.00 0.00 0.02 0.03 0.01 0.00 0.05 0.19 0.35 0.13 0.08 0.07 0.03 0.04 0.36 0.86 0.24 0.04 0.03 0.05 0.06 0.19 0.32 0.55 0.62 0.45 0.53 0.87 1.14 1.23 1.53 1.77 1.63 1.83 1.28 1.29 0.56 0.42 0.51 0.74 0.75 0.45 0.48 1.04 1.08 0.93 0.89 0.82 0.44
0.00 0.00 0.01 0.04 0.03 0.02 0.15 0.48 0.05 0.03 0.05 0.04 0.01 0.01 0.06 0.10 0.03 0.01 0.01 0.00 0.01 0.05 0.22 0.57 0.75 0.77 0.66 0.56 0.67 1.09 1.18 1.36 1.49 1.71 1.50 1.54 1.25 0.90 0.91 0.88 0.67 0.47 0.47 0.69 1.23 1.11 0.80 0.94 0.71
0.00 0.00 0.00 0.01 0.01 0.01 0.05 0.33 0.12 0.05 0.09 0.08 0.02 0.01 0.01 0.01 0.01 0.00 0.03 0.02 0.05 0.03 0.10 0.54 0.92 1.07 0.99 0.76 1.03 0.77 0.41 0.58 0.78 1.13 1.19 1.65 1.68 1.14 1.01 1.01 0.90 0.62 0.49 0.49 0.81 1.14 0.87 0.83 1.00
0.00 0.00 0.00 0.02 0.02 0.01 0.01 0.03 0.25 0.12 0.05 0.27 0.09 0.04 0.04 0.00 0.01 0.03 0.07 0.07 0.07 0.05 0.11 0.52 1.15 1.24 1.07 0.71 0.56 0.52 0.30 0.44 0.51 0.78 1.03 1.19 1.27 1.27 1.33 1.23 1.02 0.93 0.69 0.51 0.43 0.70 0.96 0.76 1.05
0.00 0.00 0.00 0.00 0.01 0.00 0.00 0.01 0.01 0.00 0.00 0.03 0.05 0.07 0.02 0.00 0.03 0.05 0.07 0.09 0.07 0.08 0.19 0.43 0.83 1.16 0.65 0.38 0.27 0.35 0.37 0.37 0.38 0.44 0.78 1.09 1.01 1.01 1.29 1.77 1.41 1.20 1.00 0.79 0.71 0.72 0.86 0.96 1.19
0.00 0.00 0.00 0.00 0.00 0.00 0.00 0.00 0.00 0.00 0.00 0.01 0.01 0.11 0.03 0.00 0.01 0.02 0.04 0.03 0.04 0.11 0.36 0.45 0.40 0.44 0.41 0.31 0.22 0.19 0.28 0.42 0.32 0.38 0.53 0.80 0.98 1.07 1.17 1.31 1.44 1.34 1.62 1.36 0.96 1.02 0.92 0.92 1.09
0.00 0.00 0.00 0.00 0.00 0.00 0.00 0.00 0.00 0.01 0.01 0.02 0.00 0.00 0.00 0.00 0.02 0.03 0.03 0.03 0.01 0.02 0.18 0.19 0.09 0.13 0.23 0.32 0.31 0.32 0.43 0.52 0.52 0.34 0.34 0.47 0.82 1.11 1.20 0.82 1.40 1.66 1.39 1.31 1.45 1.38 1.23 1.21 1.44
0.00 0.00 0.00 0.00 0.00 0.00 0.00 0.00 0.00 0.00 0.01 0.00 0.00 0.00 0.00 0.02 0.01 0.00 0.00 0.00 0.02 0.06 0.25 0.12 0.11 0.13 0.12 0.14 0.16 0.19 0.29 0.23 0.21 0.21 0.17 0.38 0.38 0.76 1.17 1.03 0.77 1.25 1.21 1.10 1.11 1.26 1.25 1.51 1.61
0.01 0.00 0.00 0.00 0.00 0.05 0.02 0.00 0.03 0.05 0.02 0.00 0.01 0.02 0.02 0.03 0.02 0.02 0.02 0.01 0.03 0.07 0.20 0.16 0.13 0.22 0.16 0.27 0.30 0.23 0.26 0.26 0.24 0.18 0.22 0.27 0.39 0.35 0.75 0.96 0.98 0.78 0.95 0.96 0.99 1.06 1.04 0.94 0.99
0.00 0.02 0.00 0.00 0.02 0.07 0.01 0.01 0.01 0.01 0.03 0.07 0.14 0.11 0.08 0.07 0.05 0.04 0.04 0.04 0.05 0.12 0.20 0.31 0.31 0.22 0.21 0.36 0.42 0.27 0.23 0.20 0.32 0.32 0.23 0.27 0.36 0.50 0.59 0.89 1.16 1.13 0.76 0.90 0.94 0.86 0.99 0.93 0.92
0.02 0.11 0.18 0.19 0.09 0.04 0.00 0.02 0.02 0.06 0.16 0.28 0.32 0.14 0.08 0.06 0.11 0.14 0.15 0.12 0.10 0.11 0.15 0.28 0.41 0.47 0.33 0.34 0.29 0.26 0.22 0.25 0.19 0.22 0.27 0.31 0.32 0.52 0.67 0.64 0.62 0.91 0.96 0.97 1.29 1.21 1.01 0.92 0.98
0.02 0.08 0.26 0.36 0.18 0.08 0.15 0.09 0.18 0.36 0.38 0.44 0.32 0.24 0.20 0.24 0.27 0.28 0.21 0.14 0.13 0.19 0.13 0.13 0.47 0.65 0.71 0.60 0.36 0.30 0.25 0.19 0.20 0.25 0.25 0.18 0.17 0.17 0.48 0.79 0.78 0.73 1.04 1.25 1.39 1.56 1.39 1.09 0.97
0.08 0.11 0.10 0.48 0.29 0.16 0.12 0.11 0.58 1.05 0.79 1.22 1.33 0.82 0.67 0.55 0.44 0.28 0.16 0.12 0.13 0.17 0.23 0.34 0.53 0.59 0.79 0.64 0.40 0.34 0.24 0.19 0.20 0.23 0.21 0.19 0.21 0.26 0.42 0.51 0.80 0.90 0.96 0.95 1.05 1.24 1.38 1.33 1.07
0.07 0.12 0.40 0.63 0.49 0.22 0.01 0.06 0.41 0.67 0.73 0.79 0.66 0.49 0.34 0.25 0.17 0.14 0.12 0.17 0.14 0.23 0.49 0.89 1.04 0.97 1.01 0.93 0.82 0.55 0.46 0.44 0.39 0.34 0.35 0.37 0.37 0.40 0.41 0.43 0.42 0.58 0.71 0.69 0.68 0.81 1.19 1.43 1.15
0.10 0.29 0.33 0.40 0.23 0.30 0.18 0.40 0.77 0.64 0.86 0.63 0.17 0.12 0.11 0.05 0.02 0.01 0.02 0.10 0.13 0.27 0.38 0.52 0.86 1.41 1.71 1.56 1.30 0.98 0.74 1.07 1.09 0.80 0.78 0.72 0.62 0.59 0.55 0.51 0.52 0.38 0.38 0.45 0.40 0.43 0.76 1.25 1.49
0.16 0.24 0.42 0.77 0.49 0.26 0.27 0.47 0.93 0.75 0.39 0.67 0.31 0.22 0.07 0.02 0.02 0.03 0.04 0.06 0.08 0.11 0.19 0.36 0.47 0.71 1.04 1.24 1.62 2.02 1.71 1.44 1.55 1.45 1.33 1.28 0.91 0.78 0.74 0.66 0.61 0.53 0.54 0.50 0.41 0.35 0.59 0.92 1.38

GFSSGP_prec_precacc_129.txt.gz
Total_Precipitation_Accumulation
0.00 0.00 0.00 0.00 0.00 0.00 0.00 0.00 0.00 0.00 0.03 0.09 0.09 0.18 0.14 0.20 0.34 0.58 0.52 1.04 1.61 1.61 1.87 1.49 0.69 0.34 0.06 0.02 0.01 0.01 0.00 0.00 0.00 0.00 0.00 0.03 0.03 0.05 0.06 0.07 0.01 0.01 0.08 0.06 0.03 0.09 0.20 0.23 0.10
0.00 0.00 0.00 0.00 0.00 0.00 0.00 0.00 0.00 0.01 0.11 0.30 0.29 0.33 0.32 0.81 0.55 0.55 0.59 0.66 0.44 0.51 0.54 1.99 2.15 0.97 0.44 0.19 0.09 0.06 0.01 0.00 0.04 0.01 0.01 0.01 0.02 0.07 0.18 0.24 0.09 0.04 0.12 0.13 0.10 0.16 0.19 0.16 0.05
0.00 0.00 0.00 0.00 0.00 0.00 0.00 0.00 0.02 0.06 0.11 0.13 0.18 0.23 0.45 1.30 0.80 0.71 0.68 0.88 1.03 0.91 0.75 0.68 1.21 1.44 1.09 0.50 0.31 0.19 0.05 0.00 0.02 0.01 0.01 0.01 0.07 0.20 0.24 0.33 0.22 0.11 0.33 0.64 0.57 0.53 0.21 0.04 0.01
0.00 0.00 0.00 0.00 0.00 0.00 0.00 0.01 0.03 0.06 0.08 0.07 0.08 0.29 0.57 0.94 0.81 0.78 0.77 1.46 2.11 1.96 1.71 1.50 1.37 1.12 1.43 1.21 0.95 0.50 0.10 0.02 0.06 0.03 0.12 0.18 0.40 0.41 0.32 0.27 0.41 0.50 0.67 0.78 0.82 0.86 0.32 0.02 0.02
0.00 0.00 0.00 0.00 0.00 0.00 0.00 0.01 0.06 0.17 0.42 0.40 0.11 0.39 0.75 0.59 0.47 0.81 1.34 2.01 2.56 3.10 3.53 2.28 3.25 2.60 2.34 1.84 1.63 1.48 0.95 0.21 0.27 0.20 0.30 0.42 0.39 0.40 0.45 0.56 0.70 0.99 1.06 0.92 0.84 0.74 0.51 0.09 0.04
0.00 0.00 0.00 0.00 0.00 0.00 0.01 0.06 0.15 0.25 0.28 0.19 0.16 0.53 0.88 0.64 0.53 1.01 1.30 2.49 3.73 2.91 3.59 3.53 4.68 6.45 4.68 3.18 2.77 2.90 2.60 1.90 1.00 0.71 0.71 1.08 1.37 1.26 0.91 0.76 0.89 1.06 1.18 1.01 0.69 0.55 0.45 0.27 0.14
0.00 0.00 0.00 0.00 0.00 0.01 0.11 0.16 0.19 0.18 0.11 0.24 0.42 0.88 1.01 0.64 0.78 0.94 1.77 3.63 5.41 6.22 6.41 5.89 5.76 6.76 6.41 5.77 4.50 4.04 4.09 5.35 4.85 2.97 2.31 2.43 1.92 1.46 1.10 0.81 0.66 0.47 0.44 0.81 0.69 0.46 0.41 0.26 0.27
0.00 0.00 0.00 0.00 0.00 0.07 0.19 0.23 0.15 0.10 0.17 0.53 0.24 0.70 0.67 1.00 0.91 0.81 1.11 2.50 4.32 7.45 8.55 8.07 7.93 7.67 5.09 4.67 4.31 3.63 4.52 3.66 4.87 4.67 3.60 2.21 1.72 1.31 0.82 0.67 0.53 0.47 0.36 0.32 0.30 0.42 0.38 0.34 0.18
0.00 0.00 0.00 0.00 0.01 0.15 0.23 0.08 0.24 0.13 0.11 0.27 0.31 0.50 0.60 0.85 0.55 0.66 0.71 1.39 2.34 3.94 4.55 5.01 6.25 6.73 6.11 4.38 3.27 2.65 3.21 5.14 2.71 2.79 2.83 2.70 1.50 1.20 0.85 0.63 0.61 0.62 0.48 0.24 0.33 0.24 0.19 0.20 0.21
0.00 0.00 0.00 0.00 0.06 0.24 0.13 0.03 0.19 0.09 0.19 0.54 0.38 0.72 0.66 0.43 0.46 0.57 0.60 0.69 1.07 1.57 2.86 3.27 2.94 2.29 2.39 2.35 2.28 1.92 2.48 4.08 3.59 2.49 1.76 1.19 1.32 0.77 0.60 0.78 0.66 0.91 0.75 0.78 0.71 0.43 0.35 0.24 0.13
0.00 0.00 0.00 0.02 0.11 0.04 0.02 0.07 0.10 0.32 0.45 0.52 1.13 0.48 0.41 0.49 0.56 0.70 0.94 0.50 0.51 0.78 1.43 1.56 1.28 1.00 0.79 0.66 0.85 1.19 2.23 2.61 3.08 2.10 1.61 1.00 0.92 0.78 0.39 0.38 0.68 0.85 1.03 0.79 0.66 0.39 0.36 0.25 0.24
0.00 0.00 0.00 0.01 0.01 0.01 0.00 0.01 0.11 0.35 0.80 0.30 0.32 0.38 0.47 0.75 0.62 0.28 0.25 0.27 0.40 0.54 0.80 0.89 0.65 0.50 0.38 0.28 0.44 0.68 1.21 2.26 1.95 2.03 1.67 1.24 0.57 0.61 0.28 0.18 0.37 0.66 0.66 0.75 0.61 0.38 0.42 0.39 0.47
0.00 0.00 0.00 0.01 0.04 0.03 0.00 0.04 0.12 0.30 0.11 0.11 0.16 0.38 0.55 0.56 0.17 0.08 0.15 0.16 0.26 0.46 0.49 0.81 0.76 0.50 0.36 0.28 0.35 0.57 0.80 2.00 1.30 2.15 1.48 1.29 0.43 0.55 0.42 0.44 0.40 0.45 0.72 0.63 0.65 0.63 0.51 0.40 0.52
0.00 0.00 0.00 0.00 0.01 0.01 0.02 0.05 0.09 0.39 0.12 0.12 0.12 0.32 0.56 0.58 0.09 0.04 0.07 0.11 0.16 0.31 0.43 0.48 0.52 0.72 0.67 0.75 0.84 0.82 1.20 1.64 1.44 1.94 1.17 1.37 0.40 0.46 0.45 0.48 0.61 0.52 1.01 0.95 0.79 0.74 0.72 0.56 0.56
0.00 0.00 0.02 0.03 0.01 0.00 0.05 0.19 0.35 0.13 0.08 0.07 0.03 0.04 0.36 0.86 0.24 0.04 0.03 0.05 0.06 0.19 0.32 0.55 0.62 0.45 0.53 0.87 1.14 1.24 1.54 1.79 1.68 1.87 1.36 1.31 0.56 0.45 0.53 0.77 0.81 0.59 0.59 1.09 1.13 1.00 0.92 0.82 0.46
0.00 0.00 0.01 0.04 0.03 0.02 0.15 0.48 0.05 0.03 0.05 0.04 0.01 0.01 0.06 0.10 0.03 0.01 0.01 0.00 0.01 0.05 0.22 0.57 0.75 0.77 0.66 0.56 0.67 1.09 1.18 1.36 1.51 1.74 1.55 1.58 1.27 0.93 0.93 1.00 0.91 0.73 0.71 0.86 1.34 1.17 0.82 0.96 0.74
0.00 0.00 0.00 0.01 0.01 0.01 0.05 0.33 0.12 0.05 0.09 0.08 0.02 0.01 0.01 0.01 0.01 0.00 0.03 0.02 0.05 0.03 0.10 0.54 0.92 1.07 0.99 0.76 1.03 0.77 0.41 0.58 0.78 1.13 1.19 1.66 1.69 1.15 1.02 1.03 0.98 0.76 0.85 1.15 1.55 1.66 1.12 0.87 1.02
0.00 0.00 0.00 0.02 0.02 0.01 0.01 0.03 0.25 0.12 0.05 0.27 0.09 0.04 0.04 0.00 0.01 0.03 0.07 0.07 0.07 0.05 0.11 0.52 1.15 1.24 1.07 0.71 0.56 0.52 0.30 0.44 0.51 0.78 1.03 1.19 1.27 1.27 1.33 1.24 1.04 0.94 0.72 0.59 0.53 0.82 1.14 0.97 1.10
0.00 0.00 0.00 0.00 0.01 0.00 0.00 0.01 0.01 0.00 0.00 0.03 0.05 0.07 0.02 0.00 0.03 0.05 0.07 0.09 0.07 0.08 0.19 0.43 0.83 1.16 0.65 0.38 0.27 0.35 0.37 0.37 0.38 0.44 0.78 1.09 1.01 1.01 1.29 1.77 1.41 1.20 1.01 0.80 0.73 0.75 0.87 0.96 1.20
0.00 0.00 0.00 0.00 0.00 0.00 0.00 0.00 0.00 0.00 0.00 0.01 0.01 0.11 0.03 0.00 0.01 0.02 0.04 0.03 0.04 0.11 0.36 0.45 0.40 0.44 0.41 0.31 0.22 0.19 0.28 0.42 0.32 0.38 0.53 0.80 0.98 1.07 1.17 1.31 1.44 1.34 1.62 1.36 0.96 1.02 0.92 0.93 1.10
0.00 0.00 0.00 0.00 0.00 0.00 0.00 0.00 0.00 0.01 0.01 0.02 0.00 0.00 0.00 0.00 0.02 0.03 0.03 0.03 0.01 0.02 0.18 0.19 0.09 0.13 0.23 0.32 0.31 0.32 0.43 0.52 0.52 0.34 0.34 0.47 0.82 1.11 1.20 0.82 1.40 1.66 1.39 1.31 1.45 1.38 1.24 1.22 1.45
0.00 0.00 0.00 0.00 0.00 0.00 0.00 0.00 0.00 0.00 0.01 0.00 0.00 0.00 0.00 0.02 0.01 0.00 0.00 0.00 0.02 0.06 0.25 0.12 0.11 0.13 0.12 0.14 0.16 0.19 0.29 0.23 0.21 0.21 0.17 0.38 0.38 0.76 1.17 1.03 0.77 1.25 1.21 1.10 1.11 1.26 1.25 1.52 1.62
0.01 0.00 0.00 0.00 0.00 0.05 0.02 0.00 0.03 0.05 0.02 0.00 0.01 0.02 0.02 0.03 0.02 0.02 0.02 0.01 0.03 0.07 0.20 0.16 0.13 0.22 0.16 0.27 0.30 0.23 0.26 0.26 0.24 0.18 0.22 0.27 0.39 0.35 0.75 0.96 0.98 0.78 0.95 0.96 0.99 1.06 1.04 0.94 1.00
0.00 0.02 0.00 0.00 0.02 0.07 0.01 0.01 0.01 0.01 0.03 0.07 0.14 0.11 0.08 0.07 0.05 0.04 0.04 0.05 0.05 0.12 0.20 0.31 0.31 0.22 0.21 0.36 0.42 0.27 0.23 0.20 0.32 0.32 0.23 0.27 0.36 0.50 0.59 0.89 1.16 1.13 0.76 0.90 0.94 0.86 0.99 0.93 0.92
0.02 0.11 0.18 0.19 0.09 0.04 0.00 0.02 0.02 0.06 0.16 0.28 0.32 0.14 0.08 0.06 0.11 0.14 0.15 0.13 0.10 0.11 0.15 0.28 0.42 0.47 0.33 0.34 0.29 0.26 0.22 0.25 0.19 0.22 0.27 0.31 0.32 0.52 0.67 0.64 0.62 0.91 0.96 0.97 1.29 1.21 1.01 0.92 0.98
0.02 0.08 0.26 0.36 0.18 0.08 0.15 0.09 0.18 0.36 0.38 0.44 0.32 0.24 0.20 0.24 0.27 0.28 0.21 0.14 0.13 0.19 0.13 0.13 0.48 0.66 0.71 0.60 0.36 0.30 0.25 0.19 0.20 0.25 0.25 0.18 0.17 0.17 0.48 0.79 0.78 0.73 1.04 1.25 1.39 1.56 1.39 1.09 0.97
0.08 0.11 0.10 0.49 0.29 0.16 0.12 0.11 0.58 1.05 0.79 1.22 1.33 0.82 0.67 0.55 0.44 0.28 0.16 0.12 0.13 0.17 0.23 0.34 0.53 0.59 0.79 0.64 0.40 0.34 0.24 0.19 0.20 0.23 0.21 0.19 0.21 0.26 0.42 0.51 0.80 0.90 0.96 0.95 1.06 1.25 1.38 1.33 1.08
0.07 0.12 0.41 0.64 0.50 0.22 0.01 0.06 0.41 0.67 0.73 0.79 0.66 0.49 0.34 0.25 0.17 0.14 0.12 0.17 0.14 0.23 0.49 0.89 1.04 0.97 1.01 0.93 0.82 0.55 0.46 0.44 0.39 0.34 0.35 0.37 0.37 0.40 0.41 0.43 0.42 0.58 0.71 0.69 0.68 0.81 1.19 1.43 1.15
0.10 0.29 0.34 0.42 0.24 0.31 0.18 0.40 0.77 0.64 0.86 0.63 0.17 0.12 0.11 0.05 0.02 0.01 0.02 0.10 0.13 0.27 0.38 0.52 0.86 1.41 1.71 1.56 1.30 0.98 0.74 1.07 1.09 0.81 0.78 0.73 0.62 0.59 0.55 0.51 0.52 0.38 0.38 0.45 0.40 0.43 0.77 1.25 1.49
0.16 0.24 0.43 0.79 0.51 0.27 0.28 0.47 0.93 0.75 0.39 0.67 0.31 0.22 0.07 0.02 0.02 0.03 0.04 0.06 0.08 0.11 0.19 0.36 0.47 0.71 1.04 1.24 1.62 2.02 1.71 1.44 1.55 1.46 1.34 1.29 0.91 0.79 0.74 0.66 0.62 0.54 0.54 0.50 0.41 0.35 0.59 0.92 1.38

GFSSGP_prec_precacc_132.txt.gz
Total_Precipitation_Accumulation
0.00 0.00 0.00 0.00 0.00 0.00 0.00 0.00 0.00 0.00 0.03 0.09 0.09 0.18 0.14 0.20 0.34 0.58 0.52 1.04 1.61 1.61 1.87 1.49 0.69 0.34 0.06 0.02 0.01 0.01 0.00 0.00 0.00 0.00 0.00 0.03 0.03 0.05 0.06 0.07 0.01 0.01 0.08 0.06 0.03 0.09 0.20 0.23 0.10
0.00 0.00 0.00 0.00 0.00 0.00 0.00 0.00 0.00 0.01 0.11 0.30 0.29 0.33 0.32 0.81 0.55 0.55 0.59 0.66 0.44 0.51 0.54 1.99 2.15 0.97 0.44 0.19 0.09 0.06 0.01 0.00 0.04 0.01 0.01 0.01 0.02 0.07 0.18 0.24 0.09 0.04 0.12 0.14 0.10 0.16 0.19 0.16 0.05
0.00 0.00 0.00 0.00 0.00 0.00 0.00 0.00 0.02 0.06 0.11 0.13 0.18 0.23 0.45 1.30 0.80 0.71 0.68 0.88 1.03 0.91 0.75 0.68 1.21 1.44 1.09 0.50 0.31 0.19 0.05 0.00 0.02 0.01 0.01 0.01 0.07 0.20 0.24 0.33 0.22 0.11 0.33 0.64 0.57 0.53 0.21 0.04 0.01
0.00 0.00 0.00 0.00 0.00 0.00 0.00 0.01 0.03 0.06 0.08 0.07 0.08 0.29 0.57 0.94 0.81 0.78 0.77 1.46 2.11 1.96 1.71 1.50 1.37 1.12 1.43 1.21 0.95 0.50 0.10 0.02 0.06 0.03 0.12 0.18 0.40 0.41 0.32 0.27 0.41 0.50 0.67 0.78 0.82 0.86 0.32 0.02 0.02
0.00 0.00 0.00 0.00 0.00 0.00 0.00 0.01 0.06 0.17 0.42 0.40 0.11 0.39 0.75 0.59 0.47 0.81 1.34 2.01 2.56 3.10 3.53 2.28 3.25 2.60 2.34 1.84 1.63 1.48 0.95 0.21 0.27 0.20 0.30 0.42 0.39 0.40 0.45 0.56 0.70 0.99 1.06 0.92 0.84 0.74 0.51 0.09 0.04
0.00 0.00 0.00 0.00 0.00 0.00 0.01 0.06 0.15 0.25 0.28 0.19 0.16 0.53 0.88 0.64 0.53 1.01 1.30 2.49 3.73 2.91 3.59 3.53 4.68 6.45 4.68 3.18 2.77 2.90 2.60 1.90 1.00 0.71 0.71 1.08 1.37 1.26 0.91 0.76 0.89 1.06 1.18 1.01 0.69 0.56 0.46 0.27 0.14
0.00 0.00 0.00 0.00 0.00 0.01 0.11 0.16 0.19 0.18 0.11 0.24 0.42 0.88 1.01 0.64 0.78 0.94 1.77 3.63 5.41 6.22 6.41 5.89 5.76 6.76 6.41 5.77 4.50 4.04 4.09 5.35 4.85 2.97 2.31 2.43 1.92 1.46 1.10 0.81 0.66 0.48 0.45 0.81 0.69 0.46 0.41 0.26 0.27
0.00 0.00 0.00 0.00 0.00 0.07 0.19 0.23 0.15 0.10 0.17 0.53 0.24 0.70 0.67 1.00 0.91 0.81 1.11 2.50 4.32 7.45 8.55 8.07 7.93 7.67 5.09 4.67 4.31 3.63 4.52 3.66 4.87 4.67 3.60 2.21 1.72 1.31 0.82 0.67 0.53 0.48 0.38 0.34 0.30 0.42 0.38 0.34 0.18
0.00 0.00 0.00 0.00 0.01 0.15 0.23 0.08 0.24 0.13 0.11 0.27 0.31 0.50 0.60 0.85 0.55 0.66 0.71 1.39 2.34 3.94 4.55 5.01 6.25 6.73 6.11 4.38 3.27 2.65 3.21 5.14 2.71 2.79 2.83 2.70 1.50 1.20 0.85 0.63 0.61 0.63 0.52 0.31 0.38 0.27 0.20 0.20 0.21
0.00 0.00 0.00 0.00 0.06 0.24 0.13 0.03 0.19 0.09 0.19 0.54 0.38 0.72 0.66 0.43 0.46 0.57 0.60 0.69 1.07 1.57 2.86 3.27 2.94 2.29 2.39 2.35 2.28 1.92 2.48 4.08 3.59 2.49 1.76 1.19 1.32 0.77 0.60 0.78 0.66 0.92 0.84 0.90 0.81 0.48 0.36 0.24 0.13
0.00 0.00 0.00 0.02 0.11 0.04 0.02 0.07 0.10 0.32 0.45 0.52 1.13 0.48 0.41 0.49 0.56 0.70 0.94 0.50 0.51 0.78 1.43 1.56 1.28 1.00 0.79 0.66 0.85 1.19 2.23 2.61 3.08 2.10 1.61 1.00 0.92 0.79 0.39 0.38 0.68 0.86 1.07 0.82 0.71 0.43 0.37 0.25 0.24
0.00 0.00 0.00 0.01 0.01 0.01 0.00 0.01 0.11 0.35 0.80 0.30 0.32 0.38 0.47 0.75 0.62 0.28 0.25 0.27 0.40 0.54 0.80 0.89 0.65 0.50 0.38 0.28 0.44 0.69 1.21 2.27 1.97 2.05 1.68 1.27 0.59 0.63 0.28 0.18 0.40 0.68 0.68 0.77 0.67 0.44 0.43 0.40 0.48
0.00 0.00 0.00 0.01 0.04 0.03 0.00 0.04 0.12 0.30 0.11 0.11 0.16 0.38 0.55 0.56 0.17 0.08 0.15 0.16 0.26 0.46 0.49 0.81 0.76 0.50 0.36 0.28 0.35 0.58 0.81 2.02 1.34 2.19 1.53 1.31 0.48 0.63 0.46 0.46 0.43 0.47 0.75 0.68 0.73 0.67 0.54 0.41 0.53
0.00 0.00 0.00 0.00 0.01 0.01 0.02 0.05 0.09 0.39 0.12 0.12 0.12 0.32 0.56 0.58 0.09 0.04 0.07 0.11 0.16 0.31 0.43 0.48 0.52 0.72 0.67 0.75 0.84 0.83 1.21 1.66 1.46 1.96 1.20 1.43 0.45 0.51 0.50 0.54 0.68 0.56 1.02 0.98 0.89 0.87 0.80 0.58 0.59
0.00 0.00 0.02 0.03 0.01 0.00 0.05 0.19 0.35 0.13 0.08 0.07 0.03 0.04 0.36 0.86 0.24 0.04 0.03 0.05 0.06 0.19 0.32 0.55 0.62 0.45 0.53 0.87 1.14 1.24 1.54 1.80 1.69 1.88 1.38 1.35 0.62 0.58 0.74 0.97 0.95 0.72 0.66 1.14 1.15 1.07 1.00 0.87 0.47
0.00 0.00 0.01 0.04 0.03 0.02 0.15 0.48 0.05 0.03 0.05 0.04 0.01 0.01 0.06 0.10 0.03 0.01 0.01 0.00 0.01 0.05 0.22 0.57 0.75 0.77 0.66 0.56 0.67 1.09 1.18 1.36 1.51 1.74 1.56 1.62 1.31 0.95 0.98 1.06 0.99 0.84 0.84 1.02 1.46 1.22 0.84 1.00 0.79
0.00 0.00 0.00 0.01 0.01 0.01 0.05 0.33 0.12 0.05 0.09 0.08 0.02 0.01 0.01 0.01 0.01 0.00 0.03 0.02 0.05 0.03 0.10 0.54 0.92 1.07 0.99 0.76 1.03 0.77 0.41 0.58 0.78 1.13 1.20 1.66 1.69 1.15 1.04 1.05 0.99 0.77 0.86 1.17 1.57 1.73 1.21 0.98 1.09
0.00 0.00 0.00 0.02 0.02 0.01 0.01 0.03 0.25 0.12 0.05 0.27 0.09 0.04 0.04 0.00 0.01 0.03 0.07 0.07 0.07 0.05 0.11 0.52 1.15 1.24 1.07 0.71 0.56 0.52 0.30 0.44 0.51 0.78 1.03 1.19 1.27 1.27 1.33 1.24 1.04 0.94 0.73 0.59 0.54 0.82 1.16 1.05 1.46
0.00 0.00 0.00 0.00 0.01 0.00 0.00 0.01 0.01 0.00 0.00 0.03 0.05 0.07 0.02 0.00 0.03 0.05 0.07 0.09 0.07 0.08 0.19 0.43 0.83 1.16 0.65 0.38 0.27 0.35 0.37 0.37 0.38 0.44 0.78 1.09 1.01 1.01 1.29 1.77 1.41 1.20 1.01 0.80 0.74 0.76 0.89 0.98 1.24
0.00 0.00 0.00 0.00 0.00 0.00 0.00 0.00 0.00 0.00 0.00 0.01 0.01 0.11 0.03 0.00 0.01 0.02 0.04 0.03 0.04 0.11 0.36 0.45 0.40 0.44 0.41 0.31 0.22 0.19 0.28 0.42 0.32 0.38 0.53 0.80 0.98 1.07 1.17 1.31 1.44 1.34 1.62 1.36 0.96 1.02 0.93 0.94 1.11
0.00 0.00 0.00 0.00 0.00 0.00 0.00 0.00 0.00 0.01 0.01 0.02 0.00 0.00 0.00 0.00 0.02 0.03 0.03 0.03 0.01 0.02 0.18 0.19 0.09 0.13 0.23 0.32 0.31 0.32 0.43 0.52 0.52 0.34 0.34 0.47 0.82 1.11 1.20 0.82 1.40 1.66 1.39 1.31 1.45 1.38 1.24 1.23 1.45
0.00 0.00 0.00 0.00 0.00 0.00 0.00 0.00 0.00 0.00 0.01 0.00 0.00 0.00 0.00 0.02 0.01 0.00 0.00 0.00 0.02 0.06 0.25 0.12 0.11 0.13 0.12 0.14 0.16 0.19 0.29 0.23 0.21 0.21 0.17 0.38 0.38 0.76 1.17 1.03 0.77 1.25 1.21 1.10 1.11 1.26 1.25 1.52 1.63
0.01 0.00 0.00 0.00 0.00 0.05 0.02 0.00 0.03 0.05 0.02 0.00 0.01 0.02 0.02 0.03 0.02 0.02 0.02 0.01 0.03 0.07 0.20 0.16 0.13 0.22 0.16 0.27 0.30 0.23 0.26 0.26 0.24 0.18 0.22 0.27 0.39 0.35 0.75 0.96 0.98 0.78 0.95 0.96 0.99 1.06 1.04 0.94 1.00
0.00 0.02 0.00 0.00 0.02 0.07 0.01 0.01 0.01 0.01 0.03 0.07 0.14 0.11 0.08 0.07 0.05 0.04 0.04 0.05 0.05 0.12 0.20 0.31 0.31 0.22 0.21 0.36 0.42 0.27 0.23 0.20 0.32 0.32 0.23 0.27 0.36 0.50 0.59 0.89 1.16 1.13 0.76 0.90 0.94 0.86 0.99 0.93 0.92
0.02 0.11 0.18 0.19 0.09 0.04 0.00 0.02 0.02 0.06 0.16 0.28 0.32 0.14 0.08 0.06 0.11 0.14 0.15 0.13 0.10 0.11 0.15 0.28 0.42 0.47 0.33 0.34 0.29 0.26 0.22 0.25 0.19 0.22 0.27 0.31 0.32 0.52 0.67 0.64 0.62 0.91 0.96 0.97 1.29 1.22 1.01 0.92 0.98
0.02 0.08 0.26 0.36 0.18 0.08 0.15 0.09 0.18 0.36 0.38 0.44 0.32 0.24 0.20 0.24 0.27 0.28 0.21 0.14 0.13 0.19 0.13 0.13 0.48 0.66 0.71 0.60 0.36 0.30 0.25 0.19 0.20 0.25 0.25 0.18 0.17 0.17 0.48 0.79 0.78 0.73 1.04 1.25 1.39 1.56 1.39 1.09 0.98
0.08 0.11 0.10 0.49 0.29 0.17 0.12 0.11 0.58 1.05 0.79 1.22 1.33 0.82 0.67 0.55 0.44 0.28 0.16 0.12 0.13 0.17 0.23 0.34 0.53 0.59 0.79 0.64 0.40 0.34 0.24 0.19 0.20 0.23 0.21 0.19 0.21 0.26 0.42 0.51 0.80 0.90 0.96 0.96 1.06 1.25 1.38 1.33 1.08
0.07 0.12 0.42 0.68 0.52 0.23 0.01 0.06 0.41 0.67 0.73 0.79 0.66 0.49 0.34 0.25 0.17 0.14 0.12 0.17 0.14 0.23 0.49 0.89 1.04 0.97 1.01 0.93 0.82 0.55 0.46 0.45 0.39 0.34 0.35 0.38 0.38 0.40 0.42 0.43 0.42 0.58 0.71 0.70 0.68 0.81 1.19 1.44 1.15
0.10 0.29 0.34 0.46 0.27 0.34 0.19 0.40 0.77 0.64 0.86 0.63 0.17 0.12 0.11 0.05 0.02 0.01 0.02 0.10 0.13 0.27 0.38 0.52 0.86 1.41 1.71 1.56 1.30 0.98 0.75 1.07 1.09 0.81 0.78 0.73 0.62 0.59 0.55 0.51 0.52 0.38 0.38 0.46 0.40 0.43 0.77 1.25 1.50
0.16 0.24 0.45 0.85 0.56 0.32 0.32 0.48 0.93 0.75 0.39 0.67 0.31 0.22 0.07 0.02 0.02 0.03 0.04 0.06 0.08 0.11 0.19 0.36 0.47 0.71 1.04 1.24 1.62 2.02 1.72 1.44 1.55 1.46 1.34 1.29 0.92 0.79 0.74 0.66 0.62 0.54 0.54 0.50 0.41 0.35 0.59 0.93 1.39

GFSSGP_prec_precacc_138.txt.gz
Total_Precipitation_Accumulation
0.00 0.00 0.00 0.00 0.00 0.00 0.00 0.00 0.00 0.00 0.03 0.09 0.09 0.18 0.14 0.20 0.34 0.65 0.55 1.04 1.61 1.61 1.87 1.49 0.69 0.34 0.06 0.02 0.01 0.01 0.00 0.00 0.00 0.00 0.00 0.03 0.03 0.05 0.06 0.07 0.01 0.01 0.08 0.06 0.03 0.09 0.20 0.23 0.10
0.00 0.00 0.00 0.00 0.00 0.00 0.00 0.00 0.00 0.01 0.11 0.30 0.29 0.33 0.32 0.81 0.55 0.56 0.60 0.66 0.44 0.51 0.54 1.99 2.15 0.97 0.44 0.19 0.09 0.06 0.01 0.00 0.04 0.01 0.01 0.01 0.02 0.07 0.18 0.24 0.09 0.04 0.12 0.14 0.10 0.16 0.19 0.16 0.05
0.00 0.00 0.00 0.00 0.00 0.00 0.00 0.00 0.02 0.06 0.11 0.13 0.18 0.23 0.45 1.30 0.80 0.71 0.68 0.88 1.03 0.91 0.75 0.68 1.21 1.44 1.09 0.50 0.31 0.19 0.05 0.00 0.02 0.01 0.01 0.01 0.07 0.20 0.24 0.33 0.22 0.11 0.33 0.65 0.57 0.53 0.21 0.04 0.01
0.00 0.00 0.00 0.00 0.00 0.00 0.00 0.01 0.03 0.06 0.08 0.07 0.08 0.29 0.57 0.94 0.81 0.78 0.77 1.46 2.11 1.96 1.71 1.50 1.37 1.12 1.43 1.21 0.95 0.50 0.10 0.02 0.06 0.03 0.12 0.18 0.40 0.41 0.32 0.27 0.41 0.50 0.67 0.78 0.83 0.86 0.32 0.02 0.02
0.00 0.00 0.00 0.00 0.00 0.00 0.00 0.01 0.06 0.17 0.42 0.40 0.11 0.39 0.75 0.59 0.47 0.81 1.34 2.01 2.56 3.10 3.53 2.28 3.25 2.60 2.34 1.84 1.63 1.48 0.95 0.21 0.27 0.20 0.30 0.42 0.39 0.40 0.45 0.56 0.70 0.99 1.06 0.92 0.84 0.74 0.51 0.09 0.04
0.00 0.00 0.00 0.00 0.00 0.00 0.01 0.06 0.15 0.25 0.28 0.19 0.16 0.53 0.88 0.64 0.53 1.01 1.30 2.49 3.73 2.91 3.59 3.53 4.68 6.45 4.68 3.18 2.77 2.90 2.60 1.90 1.00 0.71 0.71 1.08 1.37 1.28 0.92 0.76 0.89 1.06 1.18 1.02 0.70 0.57 0.47 0.27 0.14
0.00 0.00 0.00 0.00 0.00 0.01 0.11 0.16 0.19 0.18 0.11 0.24 0.42 0.88 1.01 0.64 0.78 0.94 1.77 3.63 5.41 6.22 6.41 5.89 5.76 6.76 6.41 5.77 4.50 4.04 4.09 5.35 4.85 2.97 2.31 2.43 1.96 1.52 1.16 0.82 0.66 0.50 0.51 0.87 0.71 0.47 0.41 0.26 0.27
0.00 0.00 0.00 0.00 0.00 0.07 0.19 0.23 0.15 0.10 0.17 0.53 0.24 0.70 0.67 1.00 0.91 0.81 1.11 2.50 4.32 7.45 8.55 8.07 7.93 7.67 5.09 4.67 4.31 3.63 4.52 3.66 4.87 4.67 3.60 2.21 1.72 1.31 0.83 0.70 0.56 0.56 0.45 0.40 0.33 0.43 0.38 0.34 0.18
0.00 0.00 0.00 0.00 0.01 0.15 0.23 0.08 0.24 0.13 0.11 0.27 0.31 0.50 0.60 0.85 0.55 0.66 0.71 1.39 2.34 3.94 4.55 5.01 6.25 6.73 6.12 4.39 3.30 2.66 3.21 5.14 2.71 2.79 2.83 2.70 1.50 1.20 0.85 0.63 0.62 0.66 0.55 0.34 0.40 0.30 0.21 0.20 0.21
0.00 0.00 0.00 0.00 0.06 0.24 0.13 0.03 0.19 0.09 0.19 0.54 0.38 0.72 0.66 0.43 0.46 0.57 0.60 0.69 1.07 1.57 2.86 3.27 2.94 2.29 2.39 2.35 2.31 1.93 2.48 4.08 3.60 2.50 1.76 1.20 1.32 0.77 0.60 0.79 0.66 0.93 0.88 0.93 0.83 0.49 0.36 0.24 0.13
0.00 0.00 0.00 0.02 0.11 0.04 0.02 0.07 0.10 0.32 0.45 0.52 1.13 0.48 0.41 0.49 0.56 0.70 0.94 0.50 0.51 0.78 1.43 1.56 1.28 1.00 0.79 0.67 0.90 1.29 2.35 2.78 3.22 2.18 1.71 1.14 1.09 0.92 0.50 0.54 0.95 1.02 1.16 0.85 0.72 0.43 0.37 0.25 0.24
0.00 0.00 0.00 0.01 0.01 0.01 0.00 0.01 0.11 0.35 0.80 0.30 0.32 0.38 0.47 0.75 0.62 0.28 0.25 0.27 0.40 0.54 0.80 0.89 0.65 0.50 0.38 0.28 0.48 0.77 1.27 2.32 2.02 2.09 1.73 1.38 0.77 0.81 0.60 0.60 0.94 1.10 1.09 0.92 0.79 0.48 0.44 0.40 0.48
0.00 0.00 0.00 0.01 0.04 0.03 0.00 0.04 0.12 0.30 0.11 0.11 0.16 0.38 0.55 0.56 0.17 0.08 0.15 0.16 0.26 0.46 0.49 0.81 0.76 0.50 0.36 0.28 0.36 0.62 0.86 2.05 1.36 2.21 1.55 1.34 0.53 0.78 0.68 0.71 0.79 0.78 1.10 1.06 1.13 1.00 0.77 0.55 0.63
0.00 0.00 0.00 0.00 0.01 0.01 0.02 0.05 0.09 0.39 0.12 0.12 0.12 0.32 0.56 0.58 0.09 0.04 0.07 0.11 0.16 0.31 0.43 0.48 0.52 0.72 0.67 0.75 0.84 0.83 1.22 1.67 1.46 1.97 1.21 1.44 0.46 0.54 0.58 0.70 0.92 0.81 1.39 1.40 1.41 1.42 1.30 1.09 1.27
0.00 0.00 0.02 0.03 0.01 0.00 0.05 0.19 0.35 0.13 0.08 0.07 0.03 0.04 0.36 0.86 0.24 0.04 0.03 0.05 0.06 0.19 0.32 0.55 0.62 0.45 0.53 0.87 1.14 1.24 1.54 1.80 1.69 1.88 1.39 1.35 0.63 0.60 0.77 1.10 1.18 1.07 1.11 1.60 1.94 1.94 2.09 2.50 2.55
0.00 0.00 0.01 0.04 0.03 0.02 0.15 0.48 0.05 0.03 0.05 0.04 0.01 0.01 0.06 0.10 0.03 0.01 0.01 0.00 0.01 0.05 0.22 0.57 0.75 0.77 0.66 0.56 0.67 1.09 1.18 1.36 1.51 1.74 1.56 1.63 1.33 0.97 1.02 1.17 1.12 1.05 1.06 1.30 2.12 2.30 2.28 2.49 2.39
0.00 0.00 0.00 0.01 0.01 0.01 0.05 0.33 0.12 0.05 0.09 0.08 0.02 0.01 0.01 0.01 0.01 0.00 0.03 0.02 0.05 0.03 0.10 0.54 0.92 1.07 0.99 0.76 1.03 0.77 0.41 0.58 0.78 1.13 1.20 1.66 1.69 1.16 1.05 1.06 1.01 0.78 0.88 1.19 1.62 1.81 1.35 1.16 1.29
0.00 0.00 0.00 0.02 0.02 0.01 0.01 0.03 0.25 0.12 0.05 0.27 0.09 0.04 0.04 0.00 0.01 0.03 0.07 0.07 0.07 0.05 0.11 0.52 1.15 1.24 1.07 0.71 0.56 0.52 0.30 0.44 0.51 0.78 1.03 1.19 1.27 1.27 1.33 1.24 1.04 0.94 0.73 0.59 0.54 0.84 1.20 1.11 1.51
0.00 0.00 0.00 0.00 0.01 0.00 0.00 0.01 0.01 0.00 0.00 0.03 0.05 0.07 0.02 0.00 0.03 0.05 0.07 0.09 0.07 0.08 0.19 0.43 0.83 1.16 0.65 0.38 0.27 0.35 0.37 0.37 0.38 0.44 0.78 1.09 1.01 1.01 1.29 1.77 1.41 1.20 1.01 0.80 0.74 0.76 0.90 1.01 1.27
0.00 0.00 0.00 0.00 0.00 0.00 0.00 0.00 0.00 0.00 0.00 0.01 0.01 0.11 0.03 0.00 0.01 0.02 0.04 0.03 0.04 0.11 0.36 0.45 0.40 0.44 0.41 0.31 0.22 0.19 0.28 0.42 0.32 0.38 0.53 0.80 0.98 1.07 1.17 1.31 1.44 1.34 1.62 1.36 0.96 1.02 0.93 0.94 1.12
0.00 0.00 0.00 0.00 0.00 0.00 0.00 0.00 0.00 0.01 0.01 0.02 0.00 0.00 0.00 0.00 0.02 0.03 0.03 0.03 0.01 0.02 0.18 0.19 0.09 0.13 0.23 0.32 0.31 0.32 0.43 0.52 0.52 0.34 0.34 0.47 0.82 1.11 1.20 0.82 1.40 1.66 1.39 1.31 1.45 1.38 1.24 1.23 1.45
0.00 0.00 0.00 0.00 0.00 0.00 0.00 0.00 0.00 0.00 0.01 0.00 0.00 0.00 0.00 0.02 0.01 0.00 0.00 0.00 0.02 0.06 0.25 0.12 0.11 0.13 0.12 0.14 0.16 0.19 0.29 0.23 0.21 0.21 0.17 0.38 0.38 0.76 1.17 1.03 0.77 1.25 1.21 1.10 1.11 1.26 1.25 1.52 1.63
0.01 0.00 0.00 0.00 0.00 0.05 0.02 0.00 0.03 0.05 0.02 0.00 0.01 0.02 0.02 0.03 0.02 0.02 0.02 0.01 0.03 0.07 0.20 0.16 0.13 0.22 0.16 0.27 0.30 0.23 0.26 0.26 0.24 0.18 0.22 0.27 0.39 0.35 0.75 0.96 0.98 0.78 0.95 0.96 0.99 1.06 1.04 0.94 1.00
0.00 0.02 0.00 0.00 0.02 0.07 0.01 0.01 0.01 0.01 0.03 0.07 0.14 0.11 0.08 0.07 0.05 0.04 0.04 0.05 0.05 0.12 0.20 0.31 0.31 0.22 0.21 0.36 0.42 0.27 0.23 0.20 0.32 0.32 0.23 0.27 0.36 0.50 0.59 0.89 1.16 1.13 0.76 0.90 0.94 0.86 0.99 0.93 0.92
0.02 0.11 0.18 0.19 0.09 0.04 0.00 0.02 0.02 0.06 0.16 0.28 0.32 0.14 0.08 0.06 0.11 0.14 0.15 0.13 0.10 0.11 0.15 0.28 0.42 0.47 0.33 0.34 0.29 0.26 0.22 0.25 0.19 0.22 0.27 0.31 0.32 0.52 0.67 0.64 0.62 0.91 0.96 0.97 1.29 1.22 1.01 0.92 0.98
0.02 0.08 0.26 0.36 0.18 0.08 0.15 0.09 0.18 0.36 0.38 0.44 0.32 0.24 0.20 0.24 0.27 0.28 0.21 0.14 0.13 0.19 0.13 0.13 0.48 0.66 0.71 0.60 0.36 0.30 0.25 0.19 0.20 0.25 0.25 0.18 0.17 0.17 0.48 0.79 0.78 0.73 1.05 1.25 1.39 1.57 1.39 1.10 0.98
0.08 0.11 0.10 0.50 0.29 0.17 0.12 0.11 0.58 1.05 0.79 1.22 1.33 0.82 0.67 0.55 0.44 0.28 0.16 0.12 0.13 0.17 0.23 0.34 0.53 0.59 0.79 0.64 0.40 0.34 0.24 0.19 0.20 0.23 0.21 0.19 0.21 0.26 0.42 0.51 0.80 0.90 0.96 0.96 1.06 1.25 1.38 1.34 1.08
0.07 0.12 0.42 0.70 0.57 0.25 0.01 0.06 0.41 0.67 0.73 0.79 0.66 0.49 0.34 0.25 0.17 0.14 0.12 0.17 0.14 0.23 0.49 0.89 1.04 0.97 1.01 0.93 0.82 0.55 0.46 0.45 0.39 0.34 0.35 0.38 0.38 0.40 0.42 0.43 0.42 0.58 0.71 0.70 0.69 0.82 1.19 1.44 1.16
0.10 0.30 0.35 0.48 0.29 0.36 0.20 0.40 0.77 0.65 0.86 0.64 0.19 0.16 0.14 0.06 0.03 0.01 0.02 0.10 0.13 0.27 0.38 0.52 0.86 1.41 1.71 1.56 1.30 0.98 0.75 1.07 1.09 0.81 0.78 0.73 0.62 0.59 0.55 0.51 0.52 0.39 0.38 0.46 0.41 0.44 0.77 1.26 1.50
0.16 0.24 0.46 0.95 0.63 0.38 0.44 0.57 0.93 0.76 0.40 0.68 0.32 0.24 0.10 0.08 0.06 0.03 0.04 0.06 0.08 0.11 0.19 0.36 0.47 0.71 1.04 1.24 1.62 2.02 1.72 1.44 1.55 1.46 1.34 1.29 0.92 0.79 0.74 0.66 0.62 0.54 0.54 0.51 0.42 0.36 0.60 0.93 1.39

GFSSGP_prec_precacc_144.txt.gz
Total_Precipitation_Accumulation
0.00 0.00 0.00 0.00 0.00 0.00 0.00 0.00 0.00 0.00 0.03 0.09 0.09 0.18 0.14 0.20 0.34 0.71 0.61 1.08 1.62 1.61 1.87 1.49 0.69 0.34 0.06 0.02 0.01 0.01 0.00 0.00 0.00 0.00 0.00 0.03 0.03 0.05 0.06 0.07 0.01 0.01 0.08 0.06 0.03 0.09 0.20 0.23 0.10
0.00 0.00 0.00 0.00 0.00 0.00 0.00 0.00 0.00 0.01 0.11 0.30 0.29 0.33 0.32 0.81 0.56 0.60 0.61 0.71 0.51 0.52 0.54 1.99 2.15 0.97 0.44 0.19 0.09 0.06 0.01 0.00 0.04 0.01 0.01 0.01 0.02 0.07 0.18 0.24 0.09 0.04 0.12 0.14 0.10 0.16 0.19 0.16 0.05
0.00 0.00 0.00 0.00 0.00 0.00 0.00 0.00 0.02 0.06 0.11 0.13 0.18 0.23 0.45 1.30 0.81 0.72 0.69 0.89 1.07 0.92 0.75 0.68 1.21 1.44 1.09 0.50 0.31 0.19 0.05 0.00 0.02 0.01 0.01 0.01 0.07 0.20 0.24 0.33 0.22 0.11 0.33 0.65 0.57 0.53 0.21 0.04 0.01
0.00 0.00 0.00 0.00 0.00 0.00 0.00 0.01 0.03 0.06 0.08 0.07 0.08 0.29 0.57 0.94 0.81 0.78 0.77 1.46 2.13 1.96 1.71 1.50 1.37 1.12 1.43 1.21 0.95 0.50 0.10 0.02 0.06 0.03 0.12 0.18 0.40 0.41 0.32 0.27 0.41 0.50 0.67 0.78 0.83 0.86 0.32 0.02 0.02
0.00 0.00 0.00 0.00 0.00 0.00 0.00 0.01 0.06 0.17 0.42 0.40 0.11 0.39 0.75 0.59 0.47 0.81 1.34 2.01 2.56 3.10 3.53 2.28 3.25 2.60 2.34 1.84 1.63 1.48 0.95 0.21 0.27 0.20 0.30 0.42 0.39 0.40 0.45 0.56 0.70 0.99 1.06 0.93 0.84 0.74 0.51 0.09 0.04
0.00 0.00 0.00 0.00 0.00 0.00 0.01 0.06 0.15 0.25 0.28 0.19 0.16 0.53 0.88 0.64 0.53 1.01 1.30 2.49 3.73 2.91 3.59 3.53 4.68 6.45 4.68 3.18 2.77 2.90 2.60 1.90 1.00 0.71 0.71 1.08 1.37 1.28 0.92 0.76 0.89 1.06 1.18 1.02 0.70 0.57 0.47 0.27 0.14
0.00 0.00 0.00 0.00 0.00 0.01 0.11 0.16 0.19 0.18 0.11 0.24 0.42 0.88 1.01 0.64 0.78 0.94 1.77 3.63 5.41 6.22 6.41 5.89 5.76 6.76 6.41 5.77 4.50 4.04 4.09 5.35 4.85 2.97 2.31 2.43 1.96 1.53 1.16 0.82 0.66 0.50 0.51 0.87 0.71 0.47 0.41 0.26 0.27
0.00 0.00 0.00 0.00 0.00 0.07 0.19 0.23 0.15 0.10 0.17 0.53 0.24 0.70 0.67 1.00 0.91 0.81 1.11 2.50 4.32 7.45 8.55 8.07 7.93 7.67 5.09 4.67 4.32 3.64 4.53 3.66 4.87 4.67 3.60 2.21 1.76 1.39 0.92 0.81 0.62 0.58 0.45 0.40 0.33 0.46 0.40 0.35 0.18
0.00 0.00 0.00 0.00 0.01 0.15 0.23 0.08 0.24 0.13 0.11 0.27 0.31 0.50 0.60 0.85 0.55 0.66 0.71 1.39 2.34 3.94 4.55 5.01 6.25 6.74 6.15 4.42 3.32 2.70 3.24 5.14 2.71 2.79 2.83 2.70 1.50 1.22 0.92 0.72 0.72 0.76 0.62 0.40 0.45 0.37 0.27 0.26 0.23
0.00 0.00 0.00 0.00 0.06 0.24 0.13 0.03 0.19 0.09 0.19 0.54 0.38 0.72 0.66 0.43 0.46 0.57 0.60 0.69 1.07 1.57 2.86 3.27 2.94 2.29 2.39 2.35 2.34 1.99 2.61 4.16 3.65 2.52 1.77 1.20 1.34 0.78 0.61 0.86 0.77 1.12 1.08 1.01 0.88 0.60 0.56 0.49 0.23
0.00 0.00 0.00 0.02 0.11 0.04 0.02 0.07 0.10 0.32 0.45 0.52 1.13 0.48 0.41 0.49 0.56 0.70 0.94 0.50 0.51 0.78 1.43 1.56 1.28 1.00 0.79 0.67 0.92 1.32 2.66 3.19 3.42 2.34 1.86 1.22 1.17 0.96 0.55 0.64 1.13 1.27 1.39 0.96 0.92 0.70 0.72 0.57 0.48
0.00 0.00 0.00 0.01 0.01 0.01 0.00 0.01 0.11 0.35 0.80 0.30 0.32 0.38 0.47 0.75 0.62 0.28 0.25 0.27 0.40 0.54 0.80 0.89 0.65 0.50 0.38 0.28 0.48 0.78 1.34 2.43 2.15 2.19 1.81 1.42 0.80 0.83 0.65 0.68 1.05 1.23 1.19 1.01 1.07 0.90 0.93 0.84 0.81
0.00 0.00 0.00 0.01 0.04 0.03 0.00 0.04 0.12 0.30 0.11 0.11 0.16 0.38 0.55 0.56 0.17 0.08 0.15 0.16 0.26 0.46 0.49 0.81 0.76 0.50 0.36 0.28 0.36 0.62 0.86 2.07 1.37 2.22 1.55 1.34 0.53 0.78 0.69 0.72 0.83 0.87 1.24 1.29 1.37 1.45 1.27 1.11 1.24
0.00 0.00 0.00 0.00 0.01 0.01 0.02 0.05 0.09 0.39 0.12 0.12 0.12 0.32 0.56 0.58 0.09 0.04 0.07 0.11 0.16 0.31 0.43 0.48 0.52 0.72 0.67 0.75 0.84 0.83 1.22 1.67 1.47 1.97 1.21 1.44 0.46 0.54 0.58 0.70 0.92 0.82 1.43 1.47 1.51 1.63 1.62 1.44 2.09
0.00 0.00 0.02 0.03 0.01 0.00 0.05 0.19 0.35 0.13 0.08 0.07 0.03 0.04 0.36 0.86 0.24 0.04 0.03 0.05 0.06 0.19 0.32 0.55 0.62 0.45 0.53 0.87 1.14 1.24 1.54 1.80 1.69 1.88 1.39 1.35 0.63 0.60 0.77 1.10 1.18 1.07 1.11 1.60 1.95 2.00 2.18 2.63 2.82
0.00 0.00 0.01 0.04 0.03 0.02 0.15 0.48 0.05 0.03 0.05 0.04 0.01 0.01 0.06 0.10 0.03 0.01 0.01 0.00 0.01 0.05 0.22 0.57 0.75 0.77 0.66 0.56 0.67 1.09 1.18 1.36 1.51 1.74 1.56 1.63 1.33 0.97 1.02 1.17 1.12 1.05 1.06 1.30 2.13 2.31 2.30 2.53 2.45
0.00 0.00 0.00 0.01 0.01 0.01 0.05 0.33 0.12 0.05 0.09 0.08 0.02 0.01 0.01 0.01 0.01 0.00 0.03 0.02 0.05 0.03 0.10 0.54 0.92 1.07 0.99 0.76 1.03 0.77 0.41 0.58 0.78 1.13 1.20 1.66 1.69 1.16 1.05 1.06 1.01 0.78 0.88 1.19 1.62 1.81 1.36 1.16 1.29
0.00 0.00 0.00 0.02 0.02 0.01 0.01 0.03 0.25 0.12 0.05 0.27 0.09 0.04 0.04 0.00 0.01 0.03 0.07 0.07 0.07 0.05 0.11 0.52 1.15 1.24 1.07 0.71 0.56 0.52 0.30 0.44 0.51 0.78 1.03 1.19 1.27 1.27 1.33 1.24 1.04 0.94 0.73 0.59 0.54 0.84 1.20 1.11 1.51
0.00 0.00 0.00 0.00 0.01 0.00 0.00 0.01 0.01 0.00 0.00 0.03 0.05 0.07 0.02 0.00 0.03 0.05 0.07 0.09 0.07 0.08 0.19 0.43 0.83 1.16 0.65 0.38 0.27 0.35 0.37 0.37 0.38 0.44 0.78 1.09 1.01 1.01 1.29 1.77 1.41 1.20 1.01 0.80 0.74 0.76 0.90 1.01 1.27
0.00 0.00 0.00 0.00 0.00 0.00 0.00 0.00 0.00 0.00 0.00 0.01 0.01 0.11 0.03 0.00 0.01 0.02 0.04 0.03 0.04 0.11 0.36 0.45 0.40 0.44 0.41 0.31 0.22 0.19 0.28 0.42 0.32 0.38 0.53 0.80 0.98 1.07 1.17 1.31 1.44 1.34 1.62 1.36 0.96 1.02 0.93 0.94 1.12
0.00 0.00 0.00 0.00 0.00 0.00 0.00 0.00 0.00 0.01 0.01 0.02 0.00 0.00 0.00 0.00 0.02 0.03 0.03 0.03 0.01 0.02 0.18 0.19 0.09 0.13 0.23 0.32 0.31 0.32 0.43 0.52 0.52 0.34 0.34 0.47 0.82 1.11 1.20 0.82 1.40 1.66 1.39 1.31 1.45 1.38 1.24 1.23 1.45
0.00 0.00 0.00 0.00 0.00 0.00 0.00 0.00 0.00 0.00 0.01 0.00 0.00 0.00 0.00 0.02 0.01 0.00 0.00 0.00 0.02 0.06 0.25 0.12 0.11 0.13 0.12 0.14 0.16 0.19 0.29 0.23 0.21 0.21 0.17 0.38 0.38 0.76 1.17 1.03 0.77 1.25 1.21 1.10 1.11 1.26 1.25 1.52 1.63
0.01 0.00 0.00 0.00 0.00 0.05 0.02 0.00 0.03 0.05 0.02 0.00 0.01 0.02 0.02 0.03 0.02 0.02 0.02 0.01 0.03 0.07 0.20 0.16 0.13 0.22 0.16 0.27 0.30 0.23 0.26 0.26 0.24 0.18 0.22 0.27 0.39 0.35 0.75 0.96 0.98 0.78 0.95 0.96 0.99 1.06 1.04 0.94 1.00
0.00 0.02 0.00 0.00 0.02 0.07 0.01 0.01 0.01 0.01 0.03 0.07 0.14 0.11 0.08 0.07 0.05 0.04 0.04 0.05 0.05 0.12 0.20 0.31 0.31 0.22 0.21 0.36 0.42 0.27 0.23 0.20 0.32 0.32 0.23 0.27 0.36 0.50 0.59 0.89 1.16 1.13 0.76 0.90 0.94 0.86 0.99 0.93 0.92
0.02 0.11 0.18 0.19 0.09 0.04 0.00 0.02 0.02 0.06 0.16 0.28 0.32 0.14 0.08 0.06 0.11 0.14 0.15 0.13 0.10 0.11 0.15 0.28 0.42 0.47 0.33 0.34 0.29 0.26 0.22 0.25 0.19 0.22 0.27 0.31 0.32 0.52 0.67 0.64 0.62 0.91 0.96 0.97 1.29 1.22 1.01 0.92 0.98
0.02 0.08 0.26 0.36 0.18 0.08 0.15 0.09 0.18 0.36 0.38 0.44 0.32 0.24 0.20 0.24 0.27 0.28 0.21 0.14 0.13 0.19 0.13 0.13 0.48 0.66 0.71 0.60 0.36 0.30 0.25 0.19 0.20 0.25 0.25 0.18 0.17 0.17 0.48 0.79 0.78 0.73 1.05 1.25 1.39 1.57 1.39 1.10 0.98
0.08 0.11 0.10 0.50 0.29 0.17 0.12 0.11 0.58 1.05 0.79 1.22 1.33 0.82 0.67 0.55 0.44 0.28 0.16 0.12 0.13 0.17 0.23 0.34 0.53 0.59 0.79 0.64 0.40 0.34 0.24 0.19 0.20 0.23 0.21 0.19 0.21 0.26 0.42 0.51 0.80 0.90 0.96 0.96 1.06 1.25 1.38 1.34 1.08
0.07 0.12 0.42 0.70 0.57 0.25 0.01 0.06 0.41 0.67 0.73 0.80 0.68 0.52 0.40 0.31 0.21 0.17 0.12 0.17 0.14 0.23 0.49 0.89 1.04 0.97 1.01 0.93 0.82 0.55 0.46 0.45 0.39 0.34 0.35 0.38 0.38 0.40 0.42 0.43 0.42 0.58 0.71 0.70 0.69 0.82 1.19 1.44 1.16
0.10 0.30 0.35 0.48 0.29 0.37 0.20 0.40 0.77 0.65 0.86 0.64 0.20 0.18 0.20 0.22 0.20 0.16 0.09 0.15 0.16 0.28 0.39 0.52 0.86 1.41 1.71 1.56 1.30 0.98 0.75 1.07 1.09 0.81 0.78 0.73 0.62 0.59 0.55 0.51 0.52 0.39 0.38 0.46 0.41 0.44 0.77 1.26 1.50
0.16 0.24 0.46 0.96 0.64 0.39 0.45 0.59 0.93 0.76 0.40 0.69 0.32 0.24 0.11 0.13 0.19 0.14 0.11 0.10 0.11 0.13 0.20 0.36 0.48 0.71 1.04 1.24 1.62 2.02 1.72 1.44 1.55 1.46 1.34 1.29 0.92 0.79 0.74 0.66 0.62 0.54 0.54 0.51 0.42 0.36 0.60 0.93 1.40

GFSSGP_prec_precacc_147.txt.gz
Total_Precipitation_Accumulation
0.00 0.00 0.00 0.00 0.00 0.00 0.00 0.00 0.00 0.00 0.03 0.09 0.09 0.18 0.14 0.20 0.34 0.71 0.62 1.10 1.63 1.61 1.87 1.49 0.69 0.34 0.06 0.02 0.01 0.01 0.00 0.00 0.00 0.00 0.00 0.03 0.03 0.05 0.06 0.07 0.01 0.01 0.08 0.06 0.03 0.09 0.21 0.25 0.10
0.00 0.00 0.00 0.00 0.00 0.00 0.00 0.00 0.00 0.01 0.11 0.30 0.29 0.33 0.32 0.81 0.56 0.62 0.68 0.79 0.53 0.52 0.54 1.99 2.15 0.97 0.44 0.19 0.09 0.06 0.01 0.00 0.04 0.01 0.01 0.01 0.02 0.07 0.18 0.24 0.09 0.04 0.12 0.14 0.10 0.16 0.19 0.16 0.05
0.00 0.00 0.00 0.00 0.00 0.00 0.00 0.00 0.02 0.06 0.11 0.13 0.18 0.23 0.45 1.30 0.81 0.73 0.75 0.95 1.12 0.92 0.75 0.68 1.21 1.44 1.09 0.50 0.31 0.19 0.05 0.00 0.02 0.01 0.01 0.01 0.07 0.20 0.24 0.33 0.22 0.11 0.33 0.65 0.57 0.53 0.21 0.04 0.01
0.00 0.00 0.00 0.00 0.00 0.00 0.00 0.01 0.03 0.06 0.08 0.07 0.08 0.29 0.57 0.94 0.81 0.78 0.80 1.47 2.13 1.96 1.71 1.50 1.37 1.12 1.43 1.21 0.95 0.50 0.10 0.02 0.06 0.03 0.12 0.18 0.40 0.41 0.32 0.27 0.41 0.50 0.67 0.78 0.83 0.86 0.32 0.02 0.02
0.00 0.00 0.00 0.00 0.00 0.00 0.00 0.01 0.06 0.17 0.42 0.40 0.11 0.39 0.75 0.59 0.47 0.81 1.34 2.01 2.56 3.10 3.53 2.28 3.25 2.60 2.34 1.84 1.63 1.48 0.95 0.21 0.27 0.20 0.30 0.42 0.39 0.40 0.45 0.56 0.70 0.99 1.06 0.93 0.85 0.74 0.51 0.09 0.04
0.00 0.00 0.00 0.00 0.00 0.00 0.01 0.06 0.15 0.25 0.28 0.19 0.16 0.53 0.88 0.64 0.53 1.01 1.30 2.49 3.73 2.91 3.59 3.53 4.68 6.45 4.68 3.18 2.77 2.90 2.60 1.90 1.00 0.71 0.71 1.08 1.37 1.28 0.92 0.76 0.89 1.06 1.18 1.02 0.74 0.61 0.48 0.27 0.14
0.00 0.00 0.00 0.00 0.00 0.01 0.11 0.16 0.19 0.18 0.11 0.24 0.42 0.88 1.01 0.64 0.78 0.94 1.77 3.63 5.41 6.22 6.41 5.89 5.76 6.76 6.41 5.77 4.50 4.04 4.09 5.35 4.85 2.97 2.31 2.43 1.96 1.53 1.17 0.83 0.67 0.50 0.51 0.87 0.73 0.52 0.46 0.28 0.29
0.00 0.00 0.00 0.00 0.00 0.07 0.19 0.23 0.15 0.10 0.17 0.53 0.24 0.70 0.67 1.00 0.91 0.81 1.11 2.50 4.32 7.45 8.55 8.07 7.93 7.67 5.09 4.67 4.32 3.64 4.53 3.66 4.87 4.67 3.60 2.21 1.76 1.40 0.93 0.83 0.65 0.61 0.47 0.44 0.41 0.58 0.48 0.43 0.31
0.00 0.00 0.00 0.00 0.01 0.15 0.23 0.08 0.24 0.13 0.11 0.27 0.31 0.50 0.60 0.85 0.55 0.66 0.71 1.39 2.34 3.94 4.55 5.01 6.25 6.74 6.15 4.42 3.32 2.70 3.24 5.15 2.71 2.79 2.83 2.70 1.50 1.22 0.92 0.72 0.73 0.76 0.62 0.43 0.54 0.47 0.33 0.44 0.46
0.00 0.00 0.00 0.00 0.06 0.24 0.13 0.03 0.19 0.09 0.19 0.54 0.38 0.72 0.66 0.43 0.46 0.57 0.60 0.69 1.07 1.57 2.86 3.27 2.94 2.29 2.39 2.35 2.34 1.99 2.61 4.16 3.65 2.52 1.77 1.21 1.34 0.79 0.62 0.86 0.77 1.12 1.08 1.05 0.97 0.67 0.66 0.63 0.28
0.00 0.00 0.00 0.02 0.11 0.04 0.02 0.07 0.10 0.32 0.45 0.52 1.13 0.48 0.41 0.49 0.56 0.70 0.94 0.50 0.51 0.78 1.43 1.56 1.28 1.00 0.79 0.67 0.92 1.32 2.66 3.19 3.42 2.34 1.86 1.22 1.17 0.96 0.55 0.65 1.13 1.27 1.40 0.97 0.97 0.85 0.88 0.78 0.65
0.00 0.00 0.00 0.01 0.01 0.01 0.00 0.01 0.11 0.35 0.80 0.30 0.32 0.38 0.47 0.75 0.62 0.28 0.25 0.27 0.40 0.54 0.80 0.89 0.65 0.50 0.38 0.28 0.48 0.78 1.34 2.43 2.15 2.19 1.81 1.42 0.80 0.83 0.65 0.68 1.05 1.23 1.19 1.01 1.07 0.91 0.98 1.00 0.95
0.00 0.00 0.00 0.01 0.04 0.03 0.00 0.04 0.12 0.30 0.11 0.11 0.16 0.38 0.55 0.56 0.17 0.08 0.15 0.16 0.26 0.46 0.49 0.81 0.76 0.50 0.36 0.28 0.36 0.62 0.86 2.07 1.37 2.22 1.55 1.34 0.53 0.78 0.69 0.72 0.83 0.87 1.24 1.29 1.37 1.45 1.27 1.12 1.28
0.00 0.00 0.00 0.00 0.01 0.01 0.02 0.05 0.09 0.39 0.12 0.12 0.12 0.32 0.56 0.58 0.09 0.04 0.07 0.11 0.16 0.31 0.43 0.48 0.52 0.72 0.67 0.75 0.84 0.83 1.22 1.67 1.47 1.97 1.21 1.44 0.46 0.54 0.58 0.70 0.92 0.82 1.43 1.47 1.51 1.63 1.62 1.44 2.09
0.00 0.00 0.02 0.03 0.01 0.00 0.05 0.19 0.35 0.13 0.08 0.07 0.03 0.04 0.36 0.86 0.24 0.04 0.03 0.05 0.06 0.19 0.32 0.55 0.62 0.45 0.53 0.87 1.14 1.24 1.54 1.80 1.69 1.88 1.39 1.35 0.63 0.60 0.77 1.10 1.18 1.07 1.11 1.60 1.95 2.00 2.18 2.63 2.82
0.00 0.00 0.01 0.04 0.03 0.02 0.15 0.48 0.05 0.03 0.05 0.04 0.01 0.01 0.06 0.10 0.03 0.01 0.01 0.00 0.01 0.05 0.22 0.57 0.75 0.77 0.66 0.56 0.67 1.09 1.18 1.36 1.51 1.74 1.56 1.63 1.33 0.97 1.02 1.17 1.12 1.05 1.06 1.30 2.13 2.31 2.30 2.53 2.45
0.00 0.00 0.00 0.01 0.01 0.01 0.05 0.33 0.12 0.05 0.09 0.08 0.02 0.01 0.01 0.01 0.01 0.00 0.03 0.02 0.05 0.03 0.10 0.54 0.92 1.07 0.99 0.76 1.03 0.77 0.41 0.58 0.78 1.13 1.20 1.66 1.69 1.16 1.05 1.06 1.01 0.78 0.88 1.19 1.62 1.81 1.36 1.16 1.29
0.00 0.00 0.00 0.02 0.02 0.01 0.01 0.03 0.25 0.12 0.05 0.27 0.09 0.04 0.04 0.00 0.01 0.03 0.07 0.07 0.07 0.05 0.11 0.52 1.15 1.24 1.07 0.71 0.56 0.52 0.30 0.44 0.51 0.78 1.03 1.19 1.27 1.27 1.33 1.24 1.04 0.94 0.73 0.59 0.54 0.84 1.20 1.11 1.51
0.00 0.00 0.00 0.00 0.01 0.00 0.00 0.01 0.01 0.00 0.00 0.03 0.05 0.07 0.02 0.00 0.03 0.05 0.07 0.09 0.07 0.08 0.19 0.43 0.83 1.16 0.65 0.38 0.27 0.35 0.37 0.37 0.38 0.44 0.78 1.09 1.01 1.01 1.29 1.77 1.41 1.20 1.01 0.80 0.74 0.76 0.90 1.01 1.27
0.00 0.00 0.00 0.00 0.00 0.00 0.00 0.00 0.00 0.00 0.00 0.01 0.01 0.11 0.03 0.00 0.01 0.02 0.04 0.03 0.04 0.11 0.36 0.45 0.40 0.44 0.41 0.31 0.22 0.19 0.28 0.42 0.32 0.38 0.53 0.80 0.98 1.07 1.17 1.31 1.44 1.34 1.62 1.36 0.96 1.02 0.93 0.94 1.12
0.00 0.00 0.00 0.00 0.00 0.00 0.00 0.00 0.00 0.01 0.01 0.02 0.00 0.00 0.00 0.00 0.02 0.03 0.03 0.03 0.01 0.02 0.18 0.19 0.09 0.13 0.23 0.32 0.31 0.32 0.43 0.52 0.52 0.34 0.34 0.47 0.82 1.11 1.20 0.82 1.40 1.66 1.39 1.31 1.45 1.38 1.24 1.23 1.45
0.00 0.00 0.00 0.00 0.00 0.00 0.00 0.00 0.00 0.00 0.01 0.00 0.00 0.00 0.00 0.02 0.01 0.00 0.00 0.00 0.02 0.06 0.25 0.12 0.11 0.13 0.12 0.14 0.16 0.19 0.29 0.23 0.21 0.21 0.17 0.38 0.38 0.76 1.17 1.03 0.77 1.25 1.21 1.10 1.11 1.26 1.25 1.52 1.63
0.01 0.00 0.00 0.00 0.00 0.05 0.02 0.00 0.03 0.05 0.02 0.00 0.01 0.02 0.02 0.03 0.02 0.02 0.02 0.01 0.03 0.07 0.20 0.16 0.13 0.22 0.16 0.27 0.30 0.23 0.26 0.26 0.24 0.18 0.22 0.27 0.39 0.35 0.75 0.96 0.98 0.78 0.95 0.96 0.99 1.06 1.04 0.94 1.00
0.00 0.02 0.00 0.00 0.02 0.07 0.01 0.01 0.01 0.01 0.03 0.07 0.14 0.11 0.08 0.07 0.05 0.04 0.04 0.05 0.05 0.12 0.20 0.31 0.31 0.22 0.21 0.36 0.42 0.27 0.23 0.20 0.32 0.32 0.23 0.27 0.36 0.50 0.59 0.89 1.16 1.13 0.76 0.90 0.94 0.86 0.99 0.93 0.92
0.02 0.11 0.18 0.19 0.09 0.04 0.00 0.02 0.02 0.06 0.16 0.28 0.32 0.14 0.08 0.06 0.11 0.14 0.15 0.13 0.10 0.11 0.15 0.28 0.42 0.47 0.33 0.34 0.29 0.26 0.22 0.25 0.19 0.22 0.27 0.31 0.32 0.52 0.67 0.64 0.62 0.91 0.96 0.97 1.29 1.22 1.01 0.92 0.98
0.02 0.08 0.26 0.36 0.18 0.08 0.15 0.09 0.18 0.36 0.38 0.44 0.32 0.24 0.20 0.24 0.27 0.28 0.21 0.14 0.13 0.19 0.13 0.13 0.48 0.66 0.71 0.60 0.36 0.30 0.25 0.19 0.20 0.25 0.25 0.18 0.17 0.17 0.48 0.79 0.78 0.73 1.05 1.25 1.39 1.57 1.39 1.10 0.98
0.08 0.11 0.10 0.50 0.29 0.17 0.12 0.11 0.58 1.05 0.79 1.22 1.33 0.82 0.67 0.55 0.44 0.28 0.16 0.12 0.13 0.17 0.24 0.34 0.53 0.59 0.79 0.64 0.40 0.34 0.24 0.19 0.20 0.23 0.21 0.19 0.21 0.26 0.42 0.51 0.80 0.90 0.96 0.96 1.06 1.25 1.38 1.34 1.08
0.07 0.12 0.42 0.70 0.57 0.25 0.01 0.06 0.41 0.67 0.73 0.80 0.68 0.52 0.40 0.31 0.21 0.17 0.12 0.17 0.14 0.23 0.50 0.90 1.04 0.97 1.01 0.93 0.82 0.55 0.46 0.45 0.39 0.34 0.35 0.38 0.38 0.40 0.42 0.43 0.42 0.58 0.71 0.70 0.69 0.82 1.19 1.44 1.16
0.10 0.30 0.35 0.48 0.29 0.37 0.20 0.40 0.77 0.65 0.86 0.64 0.20 0.18 0.20 0.22 0.20 0.16 0.09 0.15 0.16 0.28 0.39 0.52 0.86 1.41 1.71 1.56 1.30 0.98 0.75 1.07 1.09 0.81 0.78 0.73 0.62 0.59 0.55 0.51 0.52 0.39 0.38 0.46 0.41 0.44 0.77 1.26 1.50
0.16 0.24 0.46 0.96 0.64 0.39 0.46 0.59 0.93 0.76 0.40 0.69 0.32 0.24 0.11 0.13 0.19 0.14 0.11 0.10 0.11 0.13 0.20 0.36 0.48 0.71 1.04 1.24 1.62 2.02 1.72 1.44 1.55 1.46 1.34 1.29 0.92 0.79 0.74 0.66 0.62 0.54 0.54 0.51 0.42 0.36 0.60 0.93 1.40

GFSSGP_prec_precacc_150.txt.gz
Total_Precipitation_Accumulation
0.00 0.00 0.00 0.00 0.00 0.00 0.00 0.00 0.00 0.00 0.03 0.09 0.09 0.18 0.14 0.20 0.35 0.73 0.63 1.10 1.63 1.61 1.87 1.49 0.69 0.34 0.06 0.02 0.01 0.01 0.00 0.00 0.00 0.00 0.00 0.03 0.03 0.05 0.06 0.07 0.01 0.01 0.08 0.06 0.03 0.09 0.21 0.25 0.10
0.00 0.00 0.00 0.00 0.00 0.00 0.00 0.00 0.00 0.01 0.11 0.30 0.29 0.33 0.32 0.82 0.57 0.63 0.69 0.79 0.53 0.52 0.54 1.99 2.15 0.97 0.44 0.19 0.09 0.06 0.01 0.00 0.04 0.01 0.01 0.01 0.02 0.07 0.18 0.24 0.09 0.04 0.12 0.14 0.10 0.16 0.19 0.16 0.05
0.00 0.00 0.00 0.00 0.00 0.00 0.00 0.00 0.02 0.06 0.11 0.13 0.18 0.23 0.45 1.30 0.81 0.73 0.75 0.95 1.12 0.92 0.75 0.68 1.21 1.44 1.09 0.50 0.31 0.19 0.05 0.00 0.02 0.01 0.01 0.01 0.07 0.20 0.24 0.33 0.22 0.11 0.33 0.65 0.57 0.53 0.21 0.04 0.01
0.00 0.00 0.00 0.00 0.00 0.00 0.00 0.01 0.03 0.06 0.08 0.07 0.08 0.29 0.57 0.94 0.81 0.79 0.80 1.47 2.13 1.96 1.71 1.50 1.37 1.12 1.43 1.21 0.95 0.50 0.10 0.02 0.06 0.03 0.12 0.18 0.40 0.41 0.32 0.27 0.41 0.50 0.67 0.78 0.83 0.86 0.32 0.02 0.02
0.00 0.00 0.00 0.00 0.00 0.00 0.00 0.01 0.06 0.17 0.42 0.40 0.11 0.39 0.75 0.59 0.47 0.81 1.34 2.01 2.56 3.10 3.53 2.28 3.25 2.60 2.34 1.84 1.63 1.48 0.95 0.21 0.27 0.20 0.30 0.42 0.39 0.40 0.45 0.56 0.70 0.99 1.06 0.94 0.85 0.75 0.51 0.09 0.04
0.00 0.00 0.00 0.00 0.00 0.00 0.01 0.06 0.15 0.25 0.28 0.19 0.16 0.53 0.88 0.64 0.53 1.01 1.30 2.49 3.73 2.91 3.59 3.53 4.68 6.45 4.68 3.18 2.77 2.90 2.60 1.90 1.00 0.71 0.71 1.08 1.37 1.28 0.92 0.76 0.89 1.06 1.18 1.03 0.79 0.67 0.52 0.28 0.15
0.00 0.00 0.00 0.00 0.00 0.01 0.11 0.16 0.19 0.18 0.11 0.24 0.42 0.88 1.01 0.64 0.78 0.94 1.77 3.63 5.41 6.22 6.41 5.89 5.76 6.76 6.41 5.77 4.50 4.04 4.09 5.35 4.85 2.97 2.31 2.43 1.96 1.53 1.17 0.86 0.72 0.55 0.53 0.88 0.77 0.61 0.59 0.43 0.39
0.00 0.00 0.00 0.00 0.00 0.07 0.19 0.23 0.15 0.10 0.17 0.53 0.24 0.70 0.67 1.00 0.91 0.81 1.11 2.50 4.32 7.45 8.55 8.07 7.93 7.67 5.09 4.67 4.32 3.65 4.53 3.66 4.87 4.67 3.60 2.21 1.76 1.40 0.93 0.83 0.66 0.62 0.48 0.47 0.46 0.64 0.57 0.52 0.43
0.00 0.00 0.00 0.00 0.01 0.15 0.23 0.08 0.24 0.13 0.11 0.27 0.31 0.50 0.60 0.85 0.55 0.66 0.71 1.39 2.34 3.94 4.55 5.01 6.25 6.74 6.15 4.42 3.33 2.71 3.24 5.15 2.71 2.79 2.83 2.70 1.50 1.22 0.92 0.72 0.73 0.76 0.63 0.44 0.56 0.49 0.36 0.46 0.51
0.00 0.00 0.00 0.00 0.06 0.24 0.13 0.03 0.19 0.09 0.19 0.54 0.38 0.72 0.66 0.43 0.46 0.57 0.60 0.69 1.07 1.57 2.86 3.27 2.94 2.29 2.39 2.35 2.34 2.00 2.61 4.16 3.65 2.52 1.77 1.21 1.34 0.79 0.62 0.87 0.78 1.13 1.09 1.07 1.01 0.70 0.70 0.68 0.31
0.00 0.00 0.00 0.02 0.11 0.04 0.02 0.07 0.10 0.32 0.45 0.52 1.13 0.48 0.41 0.49 0.56 0.70 0.94 0.50 0.51 0.78 1.43 1.56 1.28 1.00 0.79 0.67 0.92 1.32 2.66 3.19 3.42 2.34 1.86 1.22 1.17 0.96 0.56 0.65 1.14 1.28 1.40 0.98 0.99 0.88 0.90 0.80 0.71
0.00 0.00 0.00 0.01 0.01 0.01 0.00 0.01 0.11 0.35 0.80 0.30 0.32 0.38 0.47 0.75 0.62 0.28 0.25 0.27 0.40 0.54 0.80 0.89 0.65 0.50 0.38 0.28 0.48 0.78 1.34 2.43 2.15 2.19 1.81 1.42 0.80 0.84 0.65 0.68 1.05 1.23 1.19 1.01 1.07 0.91 0.98 1.00 0.96
0.00 0.00 0.00 0.01 0.04 0.03 0.00 0.04 0.12 0.30 0.11 0.11 0.16 0.38 0.55 0.56 0.17 0.08 0.15 0.16 0.26 0.46 0.49 0.81 0.76 0.50 0.36 0.28 0.36 0.62 0.86 2.07 1.37 2.22 1.55 1.34 0.53 0.78 0.69 0.72 0.83 0.87 1.24 1.29 1.37 1.45 1.27 1.12 1.28
0.00 0.00 0.00 0.00 0.01 0.01 0.02 0.05 0.09 0.39 0.12 0.12 0.12 0.32 0.56 0.58 0.09 0.04 0.07 0.11 0.16 0.31 0.43 0.48 0.52 0.72 0.67 0.75 0.84 0.83 1.22 1.67 1.47 1.97 1.21 1.44 0.46 0.54 0.58 0.70 0.92 0.82 1.43 1.47 1.51 1.63 1.62 1.44 2.09
0.00 0.00 0.02 0.03 0.01 0.00 0.05 0.19 0.35 0.13 0.08 0.07 0.03 0.04 0.36 0.86 0.24 0.04 0.03 0.05 0.06 0.19 0.32 0.55 0.62 0.45 0.53 0.87 1.14 1.24 1.54 1.80 1.69 1.88 1.39 1.35 0.63 0.60 0.77 1.10 1.18 1.07 1.11 1.60 1.95 2.00 2.18 2.63 2.82
0.00 0.00 0.01 0.04 0.03 0.02 0.15 0.48 0.05 0.03 0.05 0.04 0.01 0.01 0.06 0.10 0.03 0.01 0.01 0.00 0.01 0.05 0.22 0.57 0.75 0.77 0.66 0.56 0.67 1.09 1.18 1.36 1.51 1.74 1.56 1.63 1.33 0.97 1.02 1.17 1.12 1.05 1.06 1.30 2.13 2.31 2.30 2.53 2.45
0.00 0.00 0.00 0.01 0.01 0.01 0.05 0.33 0.12 0.05 0.09 0.08 0.02 0.01 0.01 0.01 0.01 0.00 0.03 0.02 0.05 0.03 0.10 0.54 0.92 1.07 0.99 0.76 1.03 0.77 0.41 0.58 0.78 1.13 1.20 1.66 1.69 1.16 1.05 1.06 1.01 0.78 0.88 1.19 1.62 1.81 1.36 1.16 1.29
0.00 0.00 0.00 0.02 0.02 0.01 0.01 0.03 0.25 0.12 0.05 0.27 0.09 0.04 0.04 0.00 0.01 0.03 0.07 0.07 0.07 0.05 0.11 0.52 1.15 1.24 1.07 0.71 0.56 0.52 0.30 0.44 0.51 0.78 1.03 1.19 1.27 1.27 1.33 1.24 1.04 0.94 0.73 0.59 0.54 0.84 1.20 1.11 1.51
0.00 0.00 0.00 0.00 0.01 0.00 0.00 0.01 0.01 0.00 0.00 0.03 0.05 0.07 0.02 0.00 0.03 0.05 0.07 0.09 0.07 0.08 0.19 0.43 0.83 1.16 0.65 0.38 0.27 0.35 0.37 0.37 0.38 0.44 0.78 1.09 1.01 1.01 1.29 1.77 1.41 1.20 1.01 0.80 0.74 0.76 0.90 1.01 1.27
0.00 0.00 0.00 0.00 0.00 0.00 0.00 0.00 0.00 0.00 0.00 0.01 0.01 0.11 0.03 0.00 0.01 0.02 0.04 0.03 0.04 0.11 0.36 0.45 0.40 0.44 0.41 0.31 0.22 0.19 0.28 0.42 0.32 0.38 0.53 0.80 0.98 1.07 1.17 1.31 1.44 1.34 1.62 1.36 0.96 1.02 0.93 0.94 1.12
0.00 0.00 0.00 0.00 0.00 0.00 0.00 0.00 0.00 0.01 0.01 0.02 0.00 0.00 0.00 0.00 0.02 0.03 0.03 0.03 0.01 0.02 0.18 0.19 0.09 0.13 0.23 0.32 0.31 0.32 0.43 0.52 0.52 0.34 0.34 0.47 0.82 1.11 1.20 0.82 1.40 1.66 1.39 1.31 1.45 1.38 1.24 1.23 1.45
0.00 0.00 0.00 0.00 0.00 0.00 0.00 0.00 0.00 0.00 0.01 0.00 0.00 0.00 0.00 0.02 0.01 0.00 0.00 0.00 0.02 0.06 0.25 0.12 0.11 0.13 0.12 0.14 0.16 0.19 0.29 0.23 0.21 0.21 0.17 0.38 0.38 0.76 1.17 1.03 0.77 1.25 1.21 1.10 1.11 1.26 1.25 1.52 1.63
0.01 0.00 0.00 0.00 0.00 0.05 0.02 0.00 0.03 0.05 0.02 0.00 0.01 0.02 0.02 0.03 0.02 0.02 0.02 0.01 0.03 0.07 0.20 0.16 0.13 0.22 0.16 0.27 0.30 0.23 0.26 0.26 0.24 0.18 0.22 0.27 0.39 0.35 0.75 0.96 0.98 0.78 0.95 0.96 0.99 1.06 1.04 0.94 1.00
0.00 0.02 0.00 0.00 0.02 0.07 0.01 0.01 0.01 0.01 0.03 0.07 0.14 0.11 0.08 0.07 0.05 0.04 0.04 0.05 0.05 0.12 0.20 0.31 0.31 0.22 0.21 0.36 0.42 0.27 0.23 0.20 0.32 0.32 0.23 0.27 0.36 0.50 0.59 0.89 1.16 1.13 0.76 0.90 0.94 0.86 0.99 0.93 0.92
0.02 0.11 0.18 0.19 0.09 0.04 0.00 0.02 0.02 0.06 0.16 0.28 0.32 0.14 0.08 0.06 0.11 0.14 0.15 0.13 0.10 0.11 0.15 0.28 0.42 0.47 0.33 0.34 0.29 0.26 0.22 0.25 0.19 0.22 0.27 0.31 0.32 0.52 0.67 0.64 0.62 0.91 0.96 0.97 1.29 1.22 1.01 0.92 0.98
0.02 0.08 0.26 0.36 0.18 0.08 0.15 0.09 0.18 0.36 0.38 0.44 0.32 0.24 0.20 0.24 0.27 0.28 0.21 0.14 0.13 0.19 0.13 0.13 0.48 0.66 0.71 0.60 0.36 0.30 0.25 0.19 0.20 0.25 0.25 0.18 0.17 0.17 0.48 0.79 0.78 0.73 1.05 1.25 1.39 1.57 1.39 1.10 0.98
0.08 0.11 0.10 0.50 0.29 0.17 0.12 0.11 0.58 1.05 0.79 1.22 1.33 0.82 0.67 0.55 0.44 0.28 0.16 0.12 0.13 0.17 0.24 0.34 0.54 0.59 0.79 0.64 0.40 0.34 0.24 0.19 0.20 0.23 0.21 0.19 0.21 0.26 0.42 0.51 0.80 0.90 0.96 0.96 1.06 1.25 1.38 1.34 1.08
0.07 0.12 0.42 0.70 0.57 0.25 0.01 0.06 0.41 0.67 0.73 0.80 0.68 0.52 0.40 0.31 0.21 0.17 0.12 0.17 0.14 0.23 0.50 0.90 1.04 0.97 1.01 0.93 0.82 0.55 0.46 0.45 0.39 0.34 0.35 0.38 0.38 0.40 0.42 0.43 0.42 0.58 0.71 0.70 0.69 0.82 1.19 1.44 1.16
0.10 0.30 0.35 0.48 0.29 0.37 0.20 0.40 0.77 0.65 0.86 0.64 0.20 0.18 0.20 0.22 0.20 0.16 0.09 0.15 0.16 0.28 0.39 0.52 0.86 1.41 1.71 1.56 1.30 0.98 0.75 1.07 1.09 0.81 0.78 0.73 0.62 0.59 0.55 0.51 0.52 0.39 0.38 0.46 0.41 0.44 0.77 1.26 1.50
0.16 0.24 0.46 0.96 0.64 0.39 0.46 0.59 0.93 0.76 0.40 0.69 0.32 0.24 0.11 0.13 0.19 0.14 0.11 0.10 0.11 0.13 0.20 0.36 0.49 0.71 1.04 1.24 1.62 2.02 1.72 1.44 1.55 1.46 1.34 1.29 0.92 0.79 0.74 0.66 0.62 0.54 0.54 0.51 0.42 0.36 0.60 0.93 1.40

GFSSGP_prec_precacc_153.txt.gz
Total_Precipitation_Accumulation
0.00 0.00 0.00 0.00 0.00 0.00 0.00 0.00 0.00 0.00 0.03 0.09 0.09 0.18 0.14 0.20 0.35 0.73 0.63 1.10 1.63 1.61 1.87 1.49 0.69 0.34 0.06 0.02 0.01 0.01 0.00 0.00 0.00 0.00 0.00 0.03 0.03 0.05 0.06 0.07 0.01 0.01 0.08 0.06 0.03 0.09 0.21 0.25 0.10
0.00 0.00 0.00 0.00 0.00 0.00 0.00 0.00 0.00 0.01 0.11 0.30 0.29 0.33 0.32 0.82 0.58 0.63 0.69 0.79 0.53 0.52 0.54 1.99 2.15 0.97 0.44 0.19 0.09 0.06 0.01 0.00 0.04 0.01 0.01 0.01 0.02 0.07 0.18 0.24 0.09 0.04 0.12 0.14 0.10 0.16 0.19 0.16 0.05
0.00 0.00 0.00 0.00 0.00 0.00 0.00 0.00 0.02 0.06 0.11 0.13 0.18 0.23 0.45 1.31 0.81 0.74 0.75 0.95 1.12 0.92 0.75 0.68 1.21 1.44 1.09 0.50 0.31 0.19 0.05 0.00 0.02 0.01 0.01 0.01 0.07 0.20 0.24 0.33 0.22 0.11 0.33 0.65 0.57 0.53 0.21 0.04 0.01
0.00 0.00 0.00 0.00 0.00 0.00 0.00 0.01 0.03 0.06 0.08 0.07 0.08 0.29 0.57 0.94 0.81 0.79 0.80 1.47 2.13 1.96 1.71 1.50 1.37 1.12 1.43 1.21 0.95 0.50 0.10 0.02 0.06 0.03 0.12 0.18 0.40 0.41 0.32 0.27 0.41 0.50 0.67 0.78 0.83 0.86 0.32 0.02 0.02
0.00 0.00 0.00 0.00 0.00 0.00 0.00 0.01 0.06 0.17 0.42 0.40 0.11 0.39 0.75 0.59 0.47 0.81 1.35 2.01 2.56 3.10 3.53 2.28 3.25 2.60 2.34 1.84 1.63 1.48 0.95 0.21 0.27 0.20 0.30 0.42 0.39 0.41 0.46 0.56 0.70 0.99 1.08 0.97 0.87 0.75 0.51 0.09 0.04
0.00 0.00 0.00 0.00 0.00 0.00 0.01 0.06 0.15 0.25 0.28 0.19 0.16 0.53 0.88 0.64 0.53 1.01 1.31 2.49 3.73 2.91 3.59 3.53 4.68 6.45 4.68 3.18 2.77 2.90 2.60 1.90 1.00 0.71 0.71 1.09 1.37 1.29 0.93 0.77 0.89 1.06 1.18 1.06 0.84 0.75 0.60 0.31 0.15
0.00 0.00 0.00 0.00 0.00 0.01 0.11 0.16 0.19 0.18 0.11 0.24 0.42 0.88 1.01 0.64 0.78 0.94 1.77 3.63 5.41 6.22 6.41 5.89 5.76 6.76 6.41 5.77 4.50 4.04 4.09 5.35 4.85 2.97 2.31 2.43 1.96 1.54 1.18 0.86 0.72 0.55 0.56 0.96 0.86 0.69 0.64 0.45 0.42
0.00 0.00 0.00 0.00 0.00 0.07 0.19 0.23 0.15 0.10 0.17 0.53 0.24 0.70 0.67 1.00 0.91 0.81 1.11 2.50 4.32 7.45 8.55 8.07 7.93 7.67 5.09 4.67 4.32 3.65 4.53 3.66 4.87 4.67 3.60 2.21 1.76 1.40 0.93 0.83 0.66 0.62 0.49 0.48 0.50 0.71 0.65 0.57 0.44
0.00 0.00 0.00 0.00 0.01 0.15 0.23 0.08 0.24 0.13 0.11 0.27 0.31 0.50 0.60 0.86 0.55 0.66 0.71 1.39 2.34 3.94 4.55 5.01 6.25 6.74 6.15 4.42 3.33 2.71 3.24 5.15 2.71 2.79 2.83 2.70 1.50 1.22 0.92 0.72 0.73 0.76 0.63 0.44 0.56 0.50 0.37 0.48 0.54
0.00 0.00 0.00 0.00 0.06 0.24 0.13 0.03 0.19 0.09 0.19 0.54 0.38 0.72 0.66 0.43 0.46 0.57 0.60 0.69 1.07 1.57 2.86 3.27 2.94 2.29 2.39 2.35 2.34 2.00 2.61 4.16 3.65 2.52 1.77 1.21 1.34 0.79 0.62 0.87 0.78 1.13 1.09 1.08 1.03 0.72 0.74 0.72 0.32
0.00 0.00 0.00 0.02 0.11 0.04 0.02 0.07 0.10 0.32 0.45 0.52 1.13 0.48 0.41 0.49 0.56 0.70 0.94 0.50 0.51 0.78 1.43 1.56 1.28 1.00 0.79 0.67 0.92 1.32 2.66 3.19 3.42 2.34 1.86 1.22 1.17 0.96 0.56 0.65 1.14 1.28 1.40 0.98 0.99 0.88 0.90 0.81 0.71
0.00 0.00 0.00 0.01 0.01 0.01 0.00 0.01 0.11 0.35 0.80 0.30 0.32 0.38 0.47 0.75 0.62 0.28 0.25 0.27 0.40 0.54 0.80 0.89 0.65 0.50 0.38 0.28 0.48 0.78 1.34 2.43 2.15 2.19 1.81 1.42 0.80 0.84 0.65 0.68 1.05 1.23 1.19 1.01 1.07 0.91 0.98 1.00 0.96
0.00 0.00 0.00 0.01 0.04 0.03 0.00 0.04 0.12 0.30 0.11 0.11 0.16 0.38 0.55 0.56 0.17 0.08 0.15 0.16 0.26 0.46 0.49 0.81 0.76 0.50 0.36 0.28 0.36 0.62 0.86 2.07 1.37 2.22 1.55 1.34 0.53 0.78 0.69 0.72 0.83 0.87 1.24 1.29 1.37 1.45 1.27 1.12 1.28
0.00 0.00 0.00 0.00 0.01 0.01 0.02 0.05 0.09 0.39 0.12 0.12 0.12 0.32 0.56 0.58 0.09 0.04 0.07 0.11 0.16 0.31 0.43 0.48 0.52 0.72 0.67 0.75 0.84 0.83 1.22 1.67 1.47 1.97 1.21 1.44 0.46 0.54 0.58 0.70 0.92 0.82 1.43 1.47 1.51 1.63 1.62 1.44 2.09
0.00 0.00 0.02 0.03 0.01 0.00 0.05 0.19 0.35 0.13 0.08 0.07 0.03 0.04 0.36 0.86 0.24 0.04 0.03 0.05 0.06 0.19 0.32 0.55 0.62 0.45 0.53 0.87 1.14 1.24 1.54 1.80 1.69 1.88 1.39 1.35 0.63 0.60 0.77 1.10 1.18 1.07 1.11 1.60 1.95 2.00 2.18 2.63 2.82
0.00 0.00 0.01 0.04 0.03 0.02 0.15 0.48 0.05 0.03 0.05 0.04 0.01 0.01 0.06 0.10 0.03 0.01 0.01 0.00 0.01 0.05 0.22 0.57 0.75 0.77 0.66 0.56 0.67 1.09 1.18 1.36 1.51 1.74 1.56 1.63 1.33 0.97 1.02 1.17 1.12 1.05 1.06 1.30 2.13 2.31 2.30 2.53 2.45
0.00 0.00 0.00 0.01 0.01 0.01 0.05 0.33 0.12 0.05 0.09 0.08 0.02 0.01 0.01 0.01 0.01 0.00 0.03 0.02 0.05 0.03 0.10 0.54 0.92 1.07 0.99 0.76 1.03 0.77 0.41 0.58 0.78 1.13 1.20 1.66 1.69 1.16 1.05 1.06 1.01 0.78 0.88 1.19 1.62 1.81 1.36 1.16 1.29
0.00 0.00 0.00 0.02 0.02 0.01 0.01 0.03 0.25 0.12 0.05 0.27 0.09 0.04 0.04 0.00 0.01 0.03 0.07 0.07 0.07 0.05 0.11 0.52 1.15 1.24 1.07 0.71 0.56 0.52 0.30 0.44 0.51 0.78 1.03 1.19 1.27 1.27 1.33 1.24 1.04 0.94 0.73 0.59 0.54 0.84 1.20 1.11 1.51
0.00 0.00 0.00 0.00 0.01 0.00 0.00 0.01 0.01 0.00 0.00 0.03 0.05 0.07 0.02 0.00 0.03 0.05 0.07 0.09 0.07 0.08 0.19 0.43 0.83 1.16 0.65 0.38 0.27 0.35 0.37 0.37 0.38 0.44 0.78 1.09 1.01 1.01 1.29 1.77 1.41 1.20 1.01 0.80 0.74 0.76 0.90 1.01 1.27
0.00 0.00 0.00 0.00 0.00 0.00 0.00 0.00 0.00 0.00 0.00 0.01 0.01 0.11 0.03 0.00 0.01 0.02 0.04 0.03 0.04 0.11 0.36 0.45 0.40 0.44 0.41 0.31 0.22 0.19 0.28 0.42 0.32 0.38 0.53 0.80 0.98 1.07 1.17 1.31 1.44 1.34 1.62 1.36 0.96 1.02 0.93 0.94 1.12
0.00 0.00 0.00 0.00 0.00 0.00 0.00 0.00 0.00 0.01 0.01 0.02 0.00 0.00 0.00 0.00 0.02 0.03 0.03 0.03 0.01 0.02 0.18 0.19 0.09 0.13 0.23 0.32 0.31 0.32 0.43 0.52 0.52 0.34 0.34 0.47 0.82 1.11 1.20 0.82 1.40 1.66 1.39 1.31 1.45 1.38 1.24 1.23 1.45
0.00 0.00 0.00 0.00 0.00 0.00 0.00 0.00 0.00 0.00 0.01 0.00 0.00 0.00 0.00 0.02 0.01 0.00 0.00 0.00 0.02 0.06 0.25 0.12 0.11 0.13 0.12 0.14 0.16 0.19 0.29 0.23 0.21 0.21 0.17 0.38 0.38 0.76 1.17 1.03 0.77 1.25 1.21 1.10 1.11 1.26 1.25 1.52 1.63
0.01 0.00 0.00 0.00 0.00 0.05 0.02 0.00 0.03 0.05 0.02 0.00 0.01 0.02 0.02 0.03 0.02 0.02 0.02 0.01 0.03 0.07 0.20 0.16 0.13 0.22 0.16 0.27 0.30 0.23 0.26 0.26 0.24 0.18 0.22 0.27 0.39 0.35 0.75 0.96 0.98 0.78 0.95 0.96 0.99 1.06 1.04 0.94 1.00
0.00 0.02 0.00 0.00 0.02 0.07 0.01 0.01 0.01 0.01 0.03 0.07 0.14 0.11 0.08 0.07 0.05 0.04 0.04 0.05 0.05 0.12 0.20 0.31 0.31 0.22 0.21 0.36 0.42 0.27 0.23 0.20 0.32 0.32 0.23 0.27 0.36 0.50 0.59 0.89 1.16 1.13 0.76 0.90 0.94 0.86 0.99 0.93 0.92
0.02 0.11 0.18 0.19 0.09 0.04 0.00 0.02 0.02 0.06 0.16 0.28 0.32 0.14 0.08 0.06 0.11 0.14 0.15 0.13 0.10 0.11 0.15 0.28 0.42 0.47 0.33 0.34 0.29 0.26 0.22 0.25 0.19 0.22 0.27 0.31 0.32 0.52 0.67 0.64 0.62 0.91 0.96 0.97 1.29 1.22 1.01 0.92 0.98
0.02 0.08 0.26 0.36 0.18 0.08 0.15 0.09 0.18 0.36 0.38 0.44 0.32 0.24 0.20 0.24 0.27 0.28 0.21 0.14 0.13 0.19 0.13 0.13 0.48 0.66 0.71 0.60 0.36 0.30 0.25 0.19 0.20 0.25 0.25 0.18 0.17 0.17 0.48 0.79 0.78 0.73 1.05 1.25 1.39 1.57 1.39 1.10 0.98
0.08 0.11 0.10 0.50 0.29 0.17 0.12 0.11 0.58 1.05 0.79 1.22 1.33 0.82 0.67 0.55 0.44 0.28 0.16 0.12 0.13 0.17 0.24 0.34 0.54 0.59 0.79 0.64 0.40 0.34 0.24 0.19 0.20 0.23 0.21 0.19 0.21 0.26 0.42 0.51 0.80 0.90 0.96 0.96 1.06 1.25 1.38 1.34 1.08
0.07 0.12 0.42 0.70 0.57 0.25 0.01 0.06 0.41 0.67 0.73 0.80 0.68 0.52 0.40 0.31 0.21 0.17 0.12 0.17 0.14 0.23 0.50 0.90 1.04 0.97 1.01 0.93 0.82 0.55 0.46 0.45 0.39 0.34 0.35 0.38 0.38 0.40 0.42 0.43 0.42 0.58 0.71 0.70 0.69 0.82 1.19 1.44 1.16
0.10 0.30 0.35 0.48 0.29 0.37 0.20 0.40 0.77 0.65 0.86 0.64 0.20 0.18 0.20 0.22 0.20 0.16 0.09 0.15 0.16 0.28 0.39 0.52 0.86 1.41 1.71 1.56 1.30 0.98 0.75 1.07 1.09 0.81 0.78 0.73 0.62 0.59 0.55 0.51 0.52 0.39 0.38 0.46 0.41 0.44 0.77 1.26 1.50
0.16 0.24 0.46 0.96 0.64 0.39 0.46 0.59 0.93 0.76 0.40 0.69 0.32 0.24 0.11 0.13 0.19 0.14 0.11 0.10 0.11 0.13 0.20 0.37 0.49 0.71 1.04 1.24 1.62 2.02 1.72 1.44 1.55 1.46 1.34 1.29 0.92 0.79 0.74 0.66 0.62 0.54 0.54 0.51 0.42 0.36 0.60 0.93 1.40

GFSSGP_prec_precacc_156.txt.gz
Total_Precipitation_Accumulation
0.00 0.00 0.00 0.00 0.00 0.00 0.00 0.00 0.00 0.00 0.03 0.09 0.09 0.18 0.14 0.20 0.35 0.73 0.63 1.10 1.63 1.61 1.87 1.49 0.69 0.34 0.06 0.02 0.01 0.01 0.00 0.00 0.00 0.00 0.00 0.03 0.03 0.05 0.06 0.07 0.01 0.01 0.08 0.06 0.03 0.09 0.21 0.25 0.10
0.00 0.00 0.00 0.00 0.00 0.00 0.00 0.00 0.00 0.01 0.11 0.30 0.29 0.33 0.32 0.82 0.58 0.63 0.69 0.79 0.53 0.52 0.54 1.99 2.15 0.97 0.44 0.19 0.09 0.06 0.01 0.00 0.04 0.01 0.01 0.01 0.02 0.07 0.18 0.24 0.09 0.04 0.12 0.14 0.10 0.16 0.20 0.16 0.05
0.00 0.00 0.00 0.00 0.00 0.00 0.00 0.00 0.02 0.06 0.11 0.13 0.18 0.23 0.45 1.31 0.81 0.74 0.76 0.95 1.12 0.92 0.75 0.68 1.21 1.44 1.09 0.50 0.31 0.19 0.05 0.00 0.02 0.01 0.01 0.01 0.07 0.20 0.24 0.33 0.22 0.11 0.33 0.65 0.57 0.53 0.22 0.04 0.01
0.00 0.00 0.00 0.00 0.00 0.00 0.00 0.01 0.03 0.06 0.08 0.07 0.08 0.29 0.57 0.94 0.81 0.79 0.80 1.47 2.13 1.96 1.71 1.50 1.37 1.12 1.43 1.21 0.95 0.50 0.10 0.02 0.06 0.03 0.12 0.18 0.40 0.41 0.32 0.27 0.41 0.50 0.68 0.78 0.83 0.86 0.32 0.02 0.02
0.00 0.00 0.00 0.00 0.00 0.00 0.00 0.01 0.06 0.17 0.42 0.40 0.11 0.39 0.75 0.59 0.47 0.81 1.35 2.01 2.56 3.10 3.53 2.28 3.25 2.60 2.34 1.84 1.63 1.48 0.95 0.21 0.27 0.20 0.30 0.42 0.40 0.41 0.46 0.56 0.70 0.99 1.10 0.99 0.88 0.76 0.52 0.09 0.04
0.00 0.00 0.00 0.00 0.00 0.00 0.01 0.06 0.15 0.25 0.28 0.19 0.16 0.53 0.88 0.64 0.53 1.01 1.31 2.49 3.73 2.91 3.59 3.53 4.68 6.45 4.68 3.18 2.77 2.90 2.60 1.90 1.00 0.71 0.71 1.09 1.37 1.29 0.93 0.77 0.90 1.06 1.19 1.06 0.84 0.76 0.63 0.34 0.15
0.00 0.00 0.00 0.00 0.00 0.01 0.11 0.16 0.19 0.18 0.11 0.24 0.42 0.88 1.01 0.64 0.78 0.94 1.77 3.63 5.41 6.22 6.41 5.89 5.76 6.76 6.41 5.77 4.50 4.04 4.09 5.35 4.85 2.97 2.31 2.43 1.96 1.54 1.18 0.86 0.72 0.55 0.58 0.96 0.87 0.69 0.64 0.46 0.43
0.00 0.00 0.00 0.00 0.00 0.07 0.19 0.23 0.15 0.10 0.17 0.53 0.24 0.70 0.67 1.00 0.91 0.81 1.11 2.50 4.32 7.45 8.55 8.07 7.93 7.67 5.10 4.67 4.32 3.65 4.53 3.66 4.87 4.67 3.60 2.21 1.76 1.40 0.93 0.83 0.66 0.62 0.49 0.48 0.50 0.71 0.65 0.57 0.45
0.00 0.00 0.00 0.00 0.01 0.15 0.23 0.08 0.24 0.13 0.11 0.27 0.31 0.50 0.60 0.86 0.55 0.66 0.71 1.39 2.34 3.94 4.55 5.01 6.25 6.74 6.15 4.42 3.33 2.71 3.24 5.15 2.71 2.79 2.83 2.70 1.50 1.22 0.92 0.72 0.73 0.76 0.63 0.44 0.56 0.52 0.39 0.48 0.54
0.00 0.00 0.00 0.00 0.06 0.24 0.13 0.03 0.19 0.09 0.19 0.54 0.38 0.72 0.66 0.43 0.46 0.57 0.60 0.69 1.07 1.57 2.86 3.27 2.94 2.29 2.39 2.35 2.34 2.00 2.61 4.16 3.65 2.52 1.77 1.21 1.34 0.79 0.62 0.87 0.78 1.13 1.09 1.08 1.03 0.72 0.74 0.72 0.32
0.00 0.00 0.00 0.02 0.11 0.04 0.02 0.07 0.10 0.32 0.45 0.52 1.13 0.48 0.41 0.49 0.56 0.70 0.94 0.50 0.51 0.78 1.43 1.56 1.28 1.00 0.79 0.67 0.92 1.32 2.66 3.19 3.42 2.34 1.86 1.22 1.17 0.96 0.56 0.65 1.14 1.28 1.40 0.98 0.99 0.88 0.90 0.81 0.71
0.00 0.00 0.00 0.01 0.01 0.01 0.00 0.01 0.11 0.35 0.80 0.30 0.32 0.38 0.47 0.75 0.62 0.28 0.25 0.27 0.40 0.54 0.80 0.89 0.65 0.50 0.38 0.28 0.48 0.78 1.34 2.43 2.15 2.19 1.81 1.42 0.80 0.84 0.65 0.68 1.05 1.23 1.19 1.01 1.07 0.91 0.98 1.00 0.96
0.00 0.00 0.00 0.01 0.04 0.03 0.00 0.04 0.12 0.30 0.11 0.11 0.16 0.38 0.55 0.56 0.17 0.08 0.15 0.16 0.26 0.46 0.49 0.81 0.76 0.50 0.36 0.28 0.36 0.62 0.86 2.07 1.37 2.22 1.55 1.34 0.53 0.78 0.69 0.72 0.83 0.87 1.24 1.29 1.37 1.45 1.27 1.12 1.28
0.00 0.00 0.00 0.00 0.01 0.01 0.02 0.05 0.09 0.39 0.12 0.12 0.12 0.32 0.56 0.58 0.09 0.04 0.07 0.11 0.16 0.31 0.43 0.48 0.52 0.72 0.67 0.75 0.84 0.83 1.22 1.67 1.47 1.97 1.21 1.44 0.46 0.54 0.58 0.70 0.92 0.82 1.43 1.47 1.51 1.63 1.62 1.44 2.09
0.00 0.00 0.02 0.03 0.01 0.00 0.05 0.19 0.35 0.13 0.08 0.07 0.03 0.04 0.36 0.86 0.24 0.04 0.03 0.05 0.06 0.19 0.32 0.55 0.62 0.45 0.53 0.87 1.14 1.24 1.54 1.80 1.69 1.88 1.39 1.35 0.63 0.60 0.77 1.10 1.18 1.07 1.11 1.60 1.95 2.00 2.18 2.63 2.82
0.00 0.00 0.01 0.04 0.03 0.02 0.15 0.48 0.05 0.03 0.05 0.04 0.01 0.01 0.06 0.10 0.03 0.01 0.01 0.00 0.01 0.05 0.22 0.57 0.75 0.77 0.66 0.56 0.67 1.09 1.18 1.36 1.51 1.74 1.56 1.63 1.33 0.97 1.02 1.17 1.12 1.05 1.06 1.30 2.13 2.31 2.30 2.53 2.45
0.00 0.00 0.00 0.01 0.01 0.01 0.05 0.33 0.12 0.05 0.09 0.08 0.02 0.01 0.01 0.01 0.01 0.00 0.03 0.02 0.05 0.03 0.10 0.54 0.92 1.07 0.99 0.76 1.03 0.77 0.41 0.58 0.78 1.13 1.20 1.66 1.69 1.16 1.05 1.06 1.01 0.78 0.88 1.19 1.62 1.81 1.36 1.16 1.29
0.00 0.00 0.00 0.02 0.02 0.01 0.01 0.03 0.25 0.12 0.05 0.27 0.09 0.04 0.04 0.00 0.01 0.03 0.07 0.07 0.07 0.05 0.11 0.52 1.15 1.24 1.07 0.71 0.56 0.52 0.30 0.44 0.51 0.78 1.03 1.19 1.27 1.27 1.33 1.24 1.04 0.94 0.73 0.59 0.54 0.84 1.20 1.11 1.51
0.00 0.00 0.00 0.00 0.01 0.00 0.00 0.01 0.01 0.00 0.00 0.03 0.05 0.07 0.02 0.00 0.03 0.05 0.07 0.09 0.07 0.08 0.19 0.43 0.83 1.16 0.65 0.38 0.27 0.35 0.37 0.37 0.38 0.44 0.78 1.09 1.01 1.01 1.29 1.77 1.41 1.20 1.01 0.80 0.74 0.76 0.90 1.01 1.27
0.00 0.00 0.00 0.00 0.00 0.00 0.00 0.00 0.00 0.00 0.00 0.01 0.01 0.11 0.03 0.00 0.01 0.02 0.04 0.03 0.04 0.11 0.36 0.45 0.40 0.44 0.41 0.31 0.22 0.19 0.28 0.42 0.32 0.38 0.53 0.80 0.98 1.07 1.17 1.31 1.44 1.34 1.62 1.36 0.96 1.02 0.93 0.94 1.12
0.00 0.00 0.00 0.00 0.00 0.00 0.00 0.00 0.00 0.01 0.01 0.02 0.00 0.00 0.00 0.00 0.02 0.03 0.03 0.03 0.01 0.02 0.18 0.19 0.09 0.13 0.23 0.32 0.31 0.32 0.43 0.52 0.52 0.34 0.34 0.47 0.82 1.11 1.20 0.82 1.40 1.66 1.39 1.31 1.45 1.38 1.24 1.23 1.45
0.00 0.00 0.00 0.00 0.00 0.00 0.00 0.00 0.00 0.00 0.01 0.00 0.00 0.00 0.00 0.02 0.01 0.00 0.00 0.00 0.02 0.06 0.25 0.12 0.11 0.13 0.12 0.14 0.16 0.19 0.29 0.23 0.21 0.21 0.17 0.38 0.38 0.76 1.17 1.03 0.77 1.25 1.21 1.10 1.11 1.26 1.25 1.52 1.63
0.01 0.00 0.00 0.00 0.00 0.05 0.02 0.00 0.03 0.05 0.02 0.00 0.01 0.02 0.02 0.03 0.02 0.02 0.02 0.01 0.03 0.07 0.20 0.16 0.13 0.22 0.16 0.27 0.30 0.23 0.26 0.26 0.24 0.18 0.22 0.27 0.39 0.35 0.75 0.96 0.98 0.78 0.95 0.96 0.99 1.06 1.04 0.94 1.00
0.00 0.02 0.00 0.00 0.02 0.07 0.01 0.01 0.01 0.01 0.03 0.07 0.14 0.11 0.08 0.07 0.05 0.04 0.04 0.05 0.05 0.12 0.20 0.31 0.31 0.22 0.21 0.36 0.42 0.27 0.23 0.20 0.32 0.32 0.23 0.27 0.36 0.50 0.59 0.89 1.16 1.13 0.76 0.90 0.94 0.86 0.99 0.93 0.92
0.02 0.11 0.18 0.19 0.09 0.04 0.00 0.02 0.02 0.06 0.16 0.28 0.32 0.14 0.08 0.06 0.11 0.14 0.15 0.13 0.10 0.11 0.15 0.28 0.42 0.47 0.33 0.34 0.29 0.26 0.22 0.25 0.19 0.22 0.27 0.31 0.32 0.52 0.67 0.64 0.62 0.91 0.96 0.97 1.29 1.22 1.01 0.92 0.98
0.02 0.08 0.26 0.37 0.18 0.08 0.15 0.09 0.18 0.36 0.38 0.44 0.32 0.24 0.20 0.24 0.27 0.28 0.21 0.14 0.13 0.19 0.13 0.13 0.48 0.66 0.71 0.60 0.36 0.30 0.25 0.19 0.20 0.25 0.25 0.18 0.17 0.17 0.48 0.79 0.78 0.73 1.05 1.25 1.39 1.57 1.39 1.10 0.98
0.08 0.11 0.10 0.50 0.29 0.17 0.12 0.11 0.58 1.05 0.79 1.22 1.33 0.82 0.67 0.55 0.44 0.28 0.16 0.12 0.13 0.17 0.24 0.34 0.54 0.59 0.79 0.64 0.40 0.34 0.24 0.19 0.20 0.23 0.21 0.19 0.21 0.26 0.42 0.51 0.80 0.90 0.96 0.96 1.06 1.25 1.38 1.34 1.08
0.07 0.12 0.42 0.70 0.57 0.25 0.01 0.06 0.41 0.67 0.73 0.80 0.68 0.52 0.40 0.31 0.21 0.17 0.12 0.17 0.14 0.23 0.50 0.90 1.04 0.97 1.01 0.93 0.82 0.55 0.46 0.45 0.39 0.34 0.35 0.38 0.38 0.40 0.42 0.43 0.42 0.58 0.71 0.70 0.69 0.82 1.19 1.44 1.16
0.10 0.30 0.35 0.48 0.29 0.37 0.20 0.40 0.77 0.65 0.86 0.64 0.20 0.18 0.20 0.22 0.20 0.16 0.09 0.15 0.16 0.28 0.39 0.52 0.86 1.41 1.71 1.56 1.30 0.98 0.75 1.07 1.09 0.81 0.78 0.73 0.62 0.59 0.55 0.51 0.52 0.39 0.38 0.46 0.41 0.44 0.77 1.26 1.50
0.16 0.24 0.46 0.96 0.64 0.39 0.46 0.59 0.93 0.76 0.40 0.69 0.32 0.24 0.11 0.13 0.19 0.14 0.11 0.10 0.11 0.13 0.20 0.37 0.49 0.71 1.04 1.24 1.62 2.02 1.72 1.44 1.55 1.46 1.34 1.29 0.92 0.79 0.74 0.66 0.62 0.54 0.54 0.51 0.42 0.36 0.60 0.93 1.40

GFSSGP_prec_precacc_159.txt.gz
Total_Precipitation_Accumulation
0.00 0.00 0.00 0.00 0.00 0.00 0.00 0.00 0.00 0.00 0.03 0.09 0.09 0.18 0.14 0.20 0.35 0.80 0.63 1.10 1.63 1.61 1.87 1.49 0.69 0.34 0.06 0.02 0.01 0.01 0.00 0.00 0.00 0.00 0.00 0.03 0.03 0.05 0.06 0.07 0.01 0.01 0.08 0.06 0.03 0.09 0.21 0.25 0.10
0.00 0.00 0.00 0.00 0.00 0.00 0.00 0.00 0.00 0.01 0.11 0.30 0.29 0.33 0.32 0.82 0.58 0.63 0.69 0.79 0.53 0.52 0.54 1.99 2.15 0.97 0.44 0.19 0.09 0.06 0.01 0.00 0.04 0.01 0.01 0.01 0.02 0.07 0.18 0.24 0.09 0.04 0.12 0.14 0.10 0.16 0.20 0.16 0.05
0.00 0.00 0.00 0.00 0.00 0.00 0.00 0.00 0.02 0.06 0.11 0.13 0.18 0.23 0.45 1.31 0.81 0.74 0.76 0.95 1.12 0.92 0.75 0.68 1.21 1.44 1.09 0.50 0.31 0.19 0.05 0.00 0.02 0.01 0.01 0.01 0.07 0.20 0.24 0.33 0.22 0.11 0.33 0.65 0.57 0.53 0.22 0.04 0.01
0.00 0.00 0.00 0.00 0.00 0.00 0.00 0.01 0.03 0.06 0.08 0.07 0.08 0.29 0.57 0.94 0.81 0.79 0.80 1.47 2.13 1.96 1.71 1.50 1.37 1.12 1.43 1.21 0.95 0.50 0.10 0.02 0.06 0.03 0.12 0.18 0.40 0.41 0.32 0.27 0.41 0.50 0.68 0.78 0.83 0.87 0.32 0.02 0.02
0.00 0.00 0.00 0.00 0.00 0.00 0.00 0.01 0.06 0.17 0.42 0.40 0.11 0.39 0.75 0.59 0.47 0.81 1.35 2.01 2.56 3.10 3.53 2.28 3.25 2.60 2.34 1.84 1.63 1.48 0.95 0.21 0.27 0.20 0.30 0.42 0.40 0.41 0.46 0.56 0.70 0.99 1.10 0.99 0.88 0.77 0.53 0.09 0.04
0.00 0.00 0.00 0.00 0.00 0.00 0.01 0.06 0.15 0.25 0.28 0.19 0.16 0.53 0.88 0.64 0.53 1.01 1.31 2.49 3.73 2.91 3.59 3.53 4.68 6.45 4.68 3.18 2.77 2.90 2.60 1.90 1.00 0.71 0.71 1.09 1.37 1.29 0.93 0.77 0.90 1.06 1.19 1.06 0.84 0.76 0.64 0.34 0.15
0.00 0.00 0.00 0.00 0.00 0.01 0.11 0.16 0.19 0.18 0.11 0.24 0.42 0.88 1.01 0.64 0.78 0.94 1.77 3.63 5.41 6.22 6.41 5.89 5.76 6.76 6.41 5.77 4.50 4.04 4.09 5.35 4.85 2.97 2.31 2.43 1.96 1.54 1.18 0.86 0.72 0.55 0.58 0.96 0.87 0.69 0.64 0.46 0.43
0.00 0.00 0.00 0.00 0.00 0.07 0.19 0.23 0.15 0.10 0.17 0.53 0.24 0.70 0.67 1.00 0.91 0.81 1.11 2.50 4.32 7.45 8.55 8.07 7.93 7.67 5.10 4.67 4.32 3.65 4.53 3.66 4.87 4.67 3.60 2.21 1.76 1.40 0.93 0.83 0.66 0.62 0.49 0.48 0.50 0.71 0.65 0.57 0.45
0.00 0.00 0.00 0.00 0.01 0.15 0.23 0.08 0.24 0.13 0.11 0.27 0.31 0.50 0.60 0.86 0.55 0.66 0.71 1.39 2.34 3.94 4.55 5.01 6.25 6.74 6.15 4.42 3.33 2.71 3.24 5.15 2.71 2.79 2.83 2.70 1.50 1.22 0.92 0.72 0.73 0.76 0.63 0.44 0.56 0.52 0.39 0.48 0.54
0.00 0.00 0.00 0.00 0.06 0.24 0.13 0.03 0.19 0.09 0.19 0.54 0.38 0.72 0.66 0.43 0.46 0.57 0.60 0.69 1.07 1.57 2.86 3.27 2.95 2.29 2.39 2.35 2.34 2.00 2.61 4.16 3.65 2.52 1.77 1.21 1.34 0.79 0.62 0.87 0.78 1.13 1.09 1.08 1.03 0.72 0.74 0.72 0.32
0.00 0.00 0.00 0.02 0.11 0.04 0.02 0.07 0.10 0.32 0.45 0.52 1.13 0.48 0.41 0.49 0.56 0.70 0.94 0.50 0.51 0.78 1.43 1.56 1.28 1.00 0.79 0.67 0.92 1.32 2.66 3.19 3.42 2.34 1.86 1.22 1.17 0.96 0.56 0.65 1.14 1.28 1.40 0.98 0.99 0.88 0.90 0.81 0.71
0.00 0.00 0.00 0.01 0.01 0.01 0.00 0.01 0.11 0.35 0.80 0.30 0.32 0.38 0.47 0.75 0.62 0.28 0.25 0.27 0.40 0.54 0.80 0.89 0.65 0.50 0.38 0.28 0.48 0.78 1.34 2.43 2.15 2.19 1.81 1.42 0.80 0.84 0.65 0.68 1.05 1.23 1.19 1.01 1.07 0.91 0.98 1.00 0.96
0.00 0.00 0.00 0.01 0.04 0.03 0.00 0.04 0.12 0.30 0.11 0.11 0.16 0.38 0.55 0.56 0.17 0.08 0.15 0.16 0.26 0.46 0.49 0.81 0.76 0.50 0.36 0.28 0.36 0.62 0.86 2.07 1.37 2.22 1.55 1.34 0.53 0.78 0.69 0.72 0.83 0.87 1.24 1.29 1.37 1.45 1.27 1.12 1.28
0.00 0.00 0.00 0.00 0.01 0.01 0.02 0.05 0.09 0.39 0.12 0.12 0.12 0.32 0.56 0.58 0.09 0.04 0.07 0.11 0.16 0.31 0.43 0.48 0.52 0.72 0.67 0.75 0.84 0.83 1.22 1.67 1.47 1.97 1.21 1.44 0.46 0.54 0.58 0.70 0.92 0.82 1.43 1.47 1.51 1.63 1.62 1.44 2.09
0.00 0.00 0.02 0.03 0.01 0.00 0.05 0.19 0.35 0.13 0.08 0.07 0.03 0.04 0.36 0.86 0.24 0.04 0.03 0.05 0.06 0.19 0.32 0.55 0.62 0.45 0.53 0.87 1.14 1.24 1.54 1.80 1.69 1.88 1.39 1.35 0.63 0.60 0.77 1.10 1.18 1.07 1.11 1.60 1.95 2.00 2.18 2.63 2.82
0.00 0.00 0.01 0.04 0.03 0.02 0.15 0.48 0.05 0.03 0.05 0.04 0.01 0.01 0.06 0.10 0.03 0.01 0.01 0.00 0.01 0.05 0.22 0.57 0.75 0.77 0.66 0.56 0.67 1.09 1.18 1.36 1.51 1.74 1.56 1.63 1.33 0.97 1.02 1.17 1.12 1.05 1.06 1.30 2.13 2.31 2.30 2.53 2.45
0.00 0.00 0.00 0.01 0.01 0.01 0.05 0.33 0.12 0.05 0.09 0.08 0.02 0.01 0.01 0.01 0.01 0.00 0.03 0.02 0.05 0.03 0.10 0.54 0.92 1.07 0.99 0.76 1.03 0.77 0.41 0.58 0.78 1.13 1.20 1.66 1.69 1.16 1.05 1.06 1.01 0.78 0.88 1.19 1.62 1.81 1.36 1.16 1.29
0.00 0.00 0.00 0.02 0.02 0.01 0.01 0.03 0.25 0.12 0.05 0.27 0.09 0.04 0.04 0.00 0.01 0.03 0.07 0.07 0.07 0.05 0.11 0.52 1.15 1.24 1.07 0.71 0.56 0.52 0.30 0.44 0.51 0.78 1.03 1.19 1.27 1.27 1.33 1.24 1.04 0.94 0.73 0.59 0.54 0.84 1.20 1.11 1.51
0.00 0.00 0.00 0.00 0.01 0.00 0.00 0.01 0.01 0.00 0.00 0.03 0.05 0.07 0.02 0.00 0.03 0.05 0.07 0.09 0.07 0.08 0.19 0.43 0.83 1.16 0.65 0.38 0.27 0.35 0.37 0.37 0.38 0.44 0.78 1.09 1.01 1.01 1.29 1.77 1.41 1.20 1.01 0.80 0.74 0.76 0.90 1.01 1.27
0.00 0.00 0.00 0.00 0.00 0.00 0.00 0.00 0.00 0.00 0.00 0.01 0.01 0.11 0.03 0.00 0.01 0.02 0.04 0.03 0.04 0.11 0.36 0.45 0.40 0.44 0.41 0.31 0.22 0.19 0.28 0.42 0.32 0.38 0.53 0.80 0.98 1.07 1.17 1.31 1.44 1.34 1.62 1.36 0.96 1.02 0.93 0.94 1.12
0.00 0.00 0.00 0.00 0.00 0.00 0.00 0.00 0.00 0.01 0.01 0.02 0.00 0.00 0.00 0.00 0.02 0.03 0.03 0.03 0.01 0.02 0.18 0.19 0.09 0.13 0.23 0.32 0.31 0.32 0.43 0.52 0.52 0.34 0.34 0.47 0.82 1.11 1.20 0.82 1.40 1.66 1.39 1.31 1.45 1.38 1.24 1.23 1.45
0.00 0.00 0.00 0.00 0.00 0.00 0.00 0.00 0.00 0.00 0.01 0.00 0.00 0.00 0.00 0.02 0.01 0.00 0.00 0.00 0.02 0.06 0.25 0.12 0.11 0.13 0.12 0.14 0.16 0.19 0.29 0.23 0.21 0.21 0.17 0.38 0.38 0.76 1.17 1.03 0.77 1.25 1.21 1.10 1.11 1.26 1.25 1.52 1.63
0.01 0.00 0.00 0.00 0.00 0.05 0.02 0.00 0.03 0.05 0.02 0.00 0.01 0.02 0.02 0.03 0.02 0.02 0.02 0.01 0.03 0.07 0.20 0.16 0.13 0.22 0.16 0.27 0.30 0.23 0.26 0.26 0.24 0.18 0.22 0.27 0.39 0.35 0.75 0.96 0.98 0.78 0.95 0.96 0.99 1.06 1.04 0.94 1.00
0.00 0.02 0.00 0.00 0.02 0.07 0.01 0.01 0.01 0.01 0.03 0.07 0.14 0.11 0.08 0.07 0.05 0.04 0.04 0.05 0.05 0.12 0.20 0.31 0.31 0.22 0.21 0.36 0.42 0.27 0.23 0.20 0.32 0.32 0.23 0.27 0.36 0.50 0.59 0.89 1.16 1.13 0.76 0.90 0.94 0.86 0.99 0.93 0.92
0.02 0.11 0.18 0.19 0.09 0.04 0.00 0.02 0.02 0.06 0.16 0.28 0.32 0.14 0.08 0.06 0.11 0.14 0.15 0.13 0.10 0.11 0.15 0.28 0.42 0.47 0.33 0.34 0.29 0.26 0.22 0.25 0.19 0.22 0.27 0.31 0.32 0.52 0.67 0.64 0.62 0.91 0.96 0.97 1.29 1.22 1.01 0.92 0.98
0.02 0.08 0.26 0.37 0.18 0.08 0.15 0.09 0.18 0.36 0.38 0.44 0.32 0.24 0.20 0.24 0.27 0.28 0.21 0.14 0.13 0.19 0.13 0.13 0.48 0.66 0.71 0.60 0.36 0.30 0.25 0.19 0.20 0.25 0.25 0.18 0.17 0.17 0.48 0.79 0.78 0.73 1.05 1.25 1.39 1.57 1.39 1.10 0.98
0.08 0.11 0.10 0.50 0.29 0.17 0.12 0.11 0.58 1.05 0.79 1.22 1.33 0.82 0.67 0.55 0.44 0.28 0.16 0.12 0.13 0.17 0.24 0.34 0.54 0.59 0.79 0.64 0.40 0.34 0.24 0.19 0.20 0.23 0.21 0.19 0.21 0.26 0.42 0.51 0.80 0.90 0.96 0.96 1.06 1.25 1.38 1.34 1.08
0.07 0.12 0.42 0.70 0.58 0.25 0.01 0.06 0.41 0.67 0.73 0.80 0.68 0.52 0.40 0.31 0.21 0.17 0.12 0.17 0.14 0.23 0.50 0.90 1.04 0.97 1.01 0.93 0.82 0.55 0.46 0.45 0.39 0.34 0.35 0.38 0.38 0.40 0.42 0.43 0.42 0.58 0.71 0.70 0.69 0.82 1.19 1.44 1.16
0.10 0.30 0.35 0.48 0.29 0.37 0.20 0.40 0.77 0.65 0.86 0.64 0.20 0.18 0.20 0.22 0.20 0.16 0.09 0.15 0.16 0.28 0.39 0.52 0.86 1.41 1.71 1.56 1.30 0.98 0.75 1.07 1.09 0.81 0.78 0.73 0.62 0.59 0.55 0.51 0.52 0.39 0.38 0.46 0.41 0.44 0.77 1.26 1.50
0.16 0.24 0.46 0.96 0.64 0.39 0.46 0.59 0.93 0.76 0.40 0.69 0.32 0.24 0.11 0.13 0.19 0.14 0.11 0.10 0.11 0.13 0.20 0.37 0.49 0.71 1.04 1.24 1.62 2.02 1.72 1.44 1.55 1.46 1.34 1.29 0.92 0.79 0.74 0.66 0.62 0.54 0.54 0.51 0.42 0.36 0.60 0.93 1.40